<?xml version="1.0" encoding="UTF-8" standalone="no" ?>
<gpx xmlns="http://www.topografix.com/GPX/1/1" xmlns:xsi="http://www.w3.org/2001/XMLSchema-instance" xsi:schemaLocation="http://www.topografix.com/GPX/1/1 http://www.topografix.com/GPX/1/1/gpx.xsd" version="1.1" creator="VisuGPX - https://www.visugpx.com">
  <metadata>
    <name>La boucle d'Aureille le 12 novembre 2025</name>
    <desc><![CDATA[Boucle de 13 km, dénivelé cumulé 375 m au départ du cimetière d'Aureille]]></desc>
  </metadata>
  <trk>
    <name><![CDATA[La boucle d'Aureille le 12 novembre 2025]]></name>
    <trkseg>
      <trkpt lat="43.70603" lon="4.95134">
        <ele>139.1</ele>
        <time>2025-11-12T09:02:00.033Z</time>
      </trkpt>
      <trkpt lat="43.70601" lon="4.95136">
        <ele>139.3</ele>
        <time>2025-11-12T09:02:19.033Z</time>
      </trkpt>
      <trkpt lat="43.70602" lon="4.95139">
        <ele>139.3</ele>
        <time>2025-11-12T09:06:03.033Z</time>
      </trkpt>
      <trkpt lat="43.70601" lon="4.95143">
        <ele>139.6</ele>
        <time>2025-11-12T09:06:06.033Z</time>
      </trkpt>
      <trkpt lat="43.70601" lon="4.95146">
        <ele>139.8</ele>
        <time>2025-11-12T09:06:08.034Z</time>
      </trkpt>
      <trkpt lat="43.706" lon="4.9515">
        <ele>140</ele>
        <time>2025-11-12T09:06:10.033Z</time>
      </trkpt>
      <trkpt lat="43.706" lon="4.95153">
        <ele>140.2</ele>
        <time>2025-11-12T09:06:29.034Z</time>
      </trkpt>
      <trkpt lat="43.70599" lon="4.95157">
        <ele>140.5</ele>
        <time>2025-11-12T09:06:35.033Z</time>
      </trkpt>
      <trkpt lat="43.706" lon="4.95161">
        <ele>140.7</ele>
        <time>2025-11-12T09:06:44.034Z</time>
      </trkpt>
      <trkpt lat="43.70601" lon="4.95165">
        <ele>140.9</ele>
        <time>2025-11-12T09:06:47.034Z</time>
      </trkpt>
      <trkpt lat="43.70601" lon="4.95169">
        <ele>141.1</ele>
        <time>2025-11-12T09:06:50.033Z</time>
      </trkpt>
      <trkpt lat="43.706" lon="4.95172">
        <ele>141.3</ele>
        <time>2025-11-12T09:06:52.033Z</time>
      </trkpt>
      <trkpt lat="43.706" lon="4.95175">
        <ele>141.5</ele>
        <time>2025-11-12T09:06:55.033Z</time>
      </trkpt>
      <trkpt lat="43.70599" lon="4.95179">
        <ele>141.7</ele>
        <time>2025-11-12T09:06:58.033Z</time>
      </trkpt>
      <trkpt lat="43.70599" lon="4.95183">
        <ele>141.9</ele>
        <time>2025-11-12T09:07:01.034Z</time>
      </trkpt>
      <trkpt lat="43.70599" lon="4.95187">
        <ele>142.2</ele>
        <time>2025-11-12T09:07:04.034Z</time>
      </trkpt>
      <trkpt lat="43.70598" lon="4.95191">
        <ele>142.4</ele>
        <time>2025-11-12T09:07:07.033Z</time>
      </trkpt>
      <trkpt lat="43.70597" lon="4.95195">
        <ele>142.6</ele>
        <time>2025-11-12T09:07:10.034Z</time>
      </trkpt>
      <trkpt lat="43.70596" lon="4.95198">
        <ele>142.7</ele>
        <time>2025-11-12T09:07:13.034Z</time>
      </trkpt>
      <trkpt lat="43.70598" lon="4.95202">
        <ele>143</ele>
        <time>2025-11-12T09:07:17.033Z</time>
      </trkpt>
      <trkpt lat="43.70598" lon="4.95205">
        <ele>143.4</ele>
        <time>2025-11-12T09:07:20.033Z</time>
      </trkpt>
      <trkpt lat="43.70598" lon="4.95209">
        <ele>143.6</ele>
        <time>2025-11-12T09:07:27.033Z</time>
      </trkpt>
      <trkpt lat="43.70598" lon="4.95213">
        <ele>143.9</ele>
        <time>2025-11-12T09:07:30.033Z</time>
      </trkpt>
      <trkpt lat="43.70599" lon="4.95217">
        <ele>144.2</ele>
        <time>2025-11-12T09:07:33.034Z</time>
      </trkpt>
      <trkpt lat="43.70598" lon="4.95221">
        <ele>144.5</ele>
        <time>2025-11-12T09:07:36.034Z</time>
      </trkpt>
      <trkpt lat="43.70598" lon="4.95224">
        <ele>144.7</ele>
        <time>2025-11-12T09:07:38.033Z</time>
      </trkpt>
      <trkpt lat="43.70599" lon="4.95228">
        <ele>144.7</ele>
        <time>2025-11-12T09:07:41.034Z</time>
      </trkpt>
      <trkpt lat="43.70599" lon="4.95233">
        <ele>144.8</ele>
        <time>2025-11-12T09:07:44.034Z</time>
      </trkpt>
      <trkpt lat="43.70599" lon="4.95237">
        <ele>144.9</ele>
        <time>2025-11-12T09:07:47.034Z</time>
      </trkpt>
      <trkpt lat="43.706" lon="4.9524">
        <ele>145</ele>
        <time>2025-11-12T09:07:50.033Z</time>
      </trkpt>
      <trkpt lat="43.706" lon="4.95244">
        <ele>145.1</ele>
        <time>2025-11-12T09:07:53.034Z</time>
      </trkpt>
      <trkpt lat="43.706" lon="4.95248">
        <ele>145.2</ele>
        <time>2025-11-12T09:07:56.033Z</time>
      </trkpt>
      <trkpt lat="43.706" lon="4.95252">
        <ele>145.2</ele>
        <time>2025-11-12T09:07:59.034Z</time>
      </trkpt>
      <trkpt lat="43.706" lon="4.95255">
        <ele>145.2</ele>
        <time>2025-11-12T09:08:02.034Z</time>
      </trkpt>
      <trkpt lat="43.70601" lon="4.95259">
        <ele>145.3</ele>
        <time>2025-11-12T09:08:05.033Z</time>
      </trkpt>
      <trkpt lat="43.70602" lon="4.95263">
        <ele>145.3</ele>
        <time>2025-11-12T09:08:08.034Z</time>
      </trkpt>
      <trkpt lat="43.70602" lon="4.95267">
        <ele>145.4</ele>
        <time>2025-11-12T09:08:11.034Z</time>
      </trkpt>
      <trkpt lat="43.70604" lon="4.9527">
        <ele>145.5</ele>
        <time>2025-11-12T09:08:13.034Z</time>
      </trkpt>
      <trkpt lat="43.70604" lon="4.95274">
        <ele>145.5</ele>
        <time>2025-11-12T09:08:19.033Z</time>
      </trkpt>
      <trkpt lat="43.70606" lon="4.95277">
        <ele>145.6</ele>
        <time>2025-11-12T09:08:22.033Z</time>
      </trkpt>
      <trkpt lat="43.70606" lon="4.9528">
        <ele>145.5</ele>
        <time>2025-11-12T09:08:25.034Z</time>
      </trkpt>
      <trkpt lat="43.70607" lon="4.95284">
        <ele>145.5</ele>
        <time>2025-11-12T09:08:28.034Z</time>
      </trkpt>
      <trkpt lat="43.70608" lon="4.95288">
        <ele>145.4</ele>
        <time>2025-11-12T09:08:32.034Z</time>
      </trkpt>
      <trkpt lat="43.70608" lon="4.95291">
        <ele>145.3</ele>
        <time>2025-11-12T09:08:35.033Z</time>
      </trkpt>
      <trkpt lat="43.70609" lon="4.95295">
        <ele>145.2</ele>
        <time>2025-11-12T09:08:38.033Z</time>
      </trkpt>
      <trkpt lat="43.70609" lon="4.95298">
        <ele>145.1</ele>
        <time>2025-11-12T09:08:41.034Z</time>
      </trkpt>
      <trkpt lat="43.7061" lon="4.95302">
        <ele>145.1</ele>
        <time>2025-11-12T09:08:44.033Z</time>
      </trkpt>
      <trkpt lat="43.70611" lon="4.95305">
        <ele>145</ele>
        <time>2025-11-12T09:08:47.032Z</time>
      </trkpt>
      <trkpt lat="43.70613" lon="4.95308">
        <ele>145</ele>
        <time>2025-11-12T09:08:49.033Z</time>
      </trkpt>
      <trkpt lat="43.70614" lon="4.95312">
        <ele>144.8</ele>
        <time>2025-11-12T09:08:52.034Z</time>
      </trkpt>
      <trkpt lat="43.70615" lon="4.95316">
        <ele>144.7</ele>
        <time>2025-11-12T09:08:55.033Z</time>
      </trkpt>
      <trkpt lat="43.70616" lon="4.95319">
        <ele>144.6</ele>
        <time>2025-11-12T09:08:58.033Z</time>
      </trkpt>
      <trkpt lat="43.70617" lon="4.95323">
        <ele>144.4</ele>
        <time>2025-11-12T09:09:00.034Z</time>
      </trkpt>
      <trkpt lat="43.70618" lon="4.95327">
        <ele>144.2</ele>
        <time>2025-11-12T09:09:03.033Z</time>
      </trkpt>
      <trkpt lat="43.70619" lon="4.95331">
        <ele>144.1</ele>
        <time>2025-11-12T09:09:07.033Z</time>
      </trkpt>
      <trkpt lat="43.7062" lon="4.95335">
        <ele>144</ele>
        <time>2025-11-12T09:09:10.034Z</time>
      </trkpt>
      <trkpt lat="43.70621" lon="4.95339">
        <ele>143.9</ele>
        <time>2025-11-12T09:09:13.033Z</time>
      </trkpt>
      <trkpt lat="43.70622" lon="4.95343">
        <ele>143.9</ele>
        <time>2025-11-12T09:09:16.034Z</time>
      </trkpt>
      <trkpt lat="43.70623" lon="4.95347">
        <ele>143.8</ele>
        <time>2025-11-12T09:09:18.033Z</time>
      </trkpt>
      <trkpt lat="43.70623" lon="4.9535">
        <ele>143.7</ele>
        <time>2025-11-12T09:09:20.034Z</time>
      </trkpt>
      <trkpt lat="43.70623" lon="4.95354">
        <ele>143.7</ele>
        <time>2025-11-12T09:09:22.034Z</time>
      </trkpt>
      <trkpt lat="43.70623" lon="4.95358">
        <ele>143.5</ele>
        <time>2025-11-12T09:09:25.034Z</time>
      </trkpt>
      <trkpt lat="43.70623" lon="4.95361">
        <ele>143.4</ele>
        <time>2025-11-12T09:09:27.033Z</time>
      </trkpt>
      <trkpt lat="43.70622" lon="4.95365">
        <ele>143.2</ele>
        <time>2025-11-12T09:09:30.034Z</time>
      </trkpt>
      <trkpt lat="43.70623" lon="4.95368">
        <ele>143</ele>
        <time>2025-11-12T09:09:32.034Z</time>
      </trkpt>
      <trkpt lat="43.70623" lon="4.95372">
        <ele>142.8</ele>
        <time>2025-11-12T09:09:34.034Z</time>
      </trkpt>
      <trkpt lat="43.70623" lon="4.95375">
        <ele>142.6</ele>
        <time>2025-11-12T09:09:37.034Z</time>
      </trkpt>
      <trkpt lat="43.70623" lon="4.95379">
        <ele>142.4</ele>
        <time>2025-11-12T09:09:39.034Z</time>
      </trkpt>
      <trkpt lat="43.70624" lon="4.95383">
        <ele>142.2</ele>
        <time>2025-11-12T09:09:42.034Z</time>
      </trkpt>
      <trkpt lat="43.70623" lon="4.95386">
        <ele>142</ele>
        <time>2025-11-12T09:09:46.034Z</time>
      </trkpt>
      <trkpt lat="43.70623" lon="4.9539">
        <ele>141.9</ele>
        <time>2025-11-12T09:09:48.033Z</time>
      </trkpt>
      <trkpt lat="43.70624" lon="4.95394">
        <ele>142.1</ele>
        <time>2025-11-12T09:09:51.033Z</time>
      </trkpt>
      <trkpt lat="43.70625" lon="4.95398">
        <ele>142.4</ele>
        <time>2025-11-12T09:09:54.033Z</time>
      </trkpt>
      <trkpt lat="43.70627" lon="4.95402">
        <ele>142.6</ele>
        <time>2025-11-12T09:09:57.034Z</time>
      </trkpt>
      <trkpt lat="43.70627" lon="4.95406">
        <ele>142.8</ele>
        <time>2025-11-12T09:09:59.033Z</time>
      </trkpt>
      <trkpt lat="43.70628" lon="4.9541">
        <ele>142.9</ele>
        <time>2025-11-12T09:10:02.033Z</time>
      </trkpt>
      <trkpt lat="43.70629" lon="4.95413">
        <ele>143.1</ele>
        <time>2025-11-12T09:10:04.033Z</time>
      </trkpt>
      <trkpt lat="43.70629" lon="4.95416">
        <ele>143.3</ele>
        <time>2025-11-12T09:10:06.033Z</time>
      </trkpt>
      <trkpt lat="43.70629" lon="4.9542">
        <ele>143.7</ele>
        <time>2025-11-12T09:10:09.033Z</time>
      </trkpt>
      <trkpt lat="43.70629" lon="4.95424">
        <ele>144.3</ele>
        <time>2025-11-12T09:10:11.033Z</time>
      </trkpt>
      <trkpt lat="43.70629" lon="4.95428">
        <ele>144.9</ele>
        <time>2025-11-12T09:10:14.034Z</time>
      </trkpt>
      <trkpt lat="43.70628" lon="4.95432">
        <ele>145.5</ele>
        <time>2025-11-12T09:10:17.034Z</time>
      </trkpt>
      <trkpt lat="43.70627" lon="4.95437">
        <ele>146</ele>
        <time>2025-11-12T09:10:20.033Z</time>
      </trkpt>
      <trkpt lat="43.70627" lon="4.95441">
        <ele>146.6</ele>
        <time>2025-11-12T09:10:23.033Z</time>
      </trkpt>
      <trkpt lat="43.70626" lon="4.95444">
        <ele>147.1</ele>
        <time>2025-11-12T09:10:25.033Z</time>
      </trkpt>
      <trkpt lat="43.70626" lon="4.95449">
        <ele>147.3</ele>
        <time>2025-11-12T09:10:28.033Z</time>
      </trkpt>
      <trkpt lat="43.70626" lon="4.95453">
        <ele>147.5</ele>
        <time>2025-11-12T09:10:31.033Z</time>
      </trkpt>
      <trkpt lat="43.70627" lon="4.95457">
        <ele>147.8</ele>
        <time>2025-11-12T09:10:34.033Z</time>
      </trkpt>
      <trkpt lat="43.70628" lon="4.95461">
        <ele>148</ele>
        <time>2025-11-12T09:10:37.034Z</time>
      </trkpt>
      <trkpt lat="43.70628" lon="4.95464">
        <ele>148.2</ele>
        <time>2025-11-12T09:10:39.034Z</time>
      </trkpt>
      <trkpt lat="43.70629" lon="4.95467">
        <ele>148.4</ele>
        <time>2025-11-12T09:10:41.033Z</time>
      </trkpt>
      <trkpt lat="43.7063" lon="4.95471">
        <ele>148.6</ele>
        <time>2025-11-12T09:10:43.034Z</time>
      </trkpt>
      <trkpt lat="43.70631" lon="4.95475">
        <ele>148.7</ele>
        <time>2025-11-12T09:10:46.033Z</time>
      </trkpt>
      <trkpt lat="43.70632" lon="4.95479">
        <ele>148.8</ele>
        <time>2025-11-12T09:10:49.034Z</time>
      </trkpt>
      <trkpt lat="43.70634" lon="4.95482">
        <ele>148.9</ele>
        <time>2025-11-12T09:10:52.034Z</time>
      </trkpt>
      <trkpt lat="43.70635" lon="4.95485">
        <ele>148.9</ele>
        <time>2025-11-12T09:10:55.033Z</time>
      </trkpt>
      <trkpt lat="43.70636" lon="4.95489">
        <ele>149</ele>
        <time>2025-11-12T09:10:57.034Z</time>
      </trkpt>
      <trkpt lat="43.70637" lon="4.95492">
        <ele>149</ele>
        <time>2025-11-12T09:11:00.033Z</time>
      </trkpt>
      <trkpt lat="43.70639" lon="4.95496">
        <ele>149</ele>
        <time>2025-11-12T09:11:03.033Z</time>
      </trkpt>
      <trkpt lat="43.7064" lon="4.95499">
        <ele>148.9</ele>
        <time>2025-11-12T09:11:05.034Z</time>
      </trkpt>
      <trkpt lat="43.7064" lon="4.95503">
        <ele>148.9</ele>
        <time>2025-11-12T09:11:08.033Z</time>
      </trkpt>
      <trkpt lat="43.70641" lon="4.95507">
        <ele>148.9</ele>
        <time>2025-11-12T09:11:11.034Z</time>
      </trkpt>
      <trkpt lat="43.70642" lon="4.95511">
        <ele>148.9</ele>
        <time>2025-11-12T09:11:14.033Z</time>
      </trkpt>
      <trkpt lat="43.70643" lon="4.95516">
        <ele>149</ele>
        <time>2025-11-12T09:11:17.033Z</time>
      </trkpt>
      <trkpt lat="43.70645" lon="4.9552">
        <ele>149</ele>
        <time>2025-11-12T09:11:20.033Z</time>
      </trkpt>
      <trkpt lat="43.70646" lon="4.95523">
        <ele>149.1</ele>
        <time>2025-11-12T09:11:23.033Z</time>
      </trkpt>
      <trkpt lat="43.70646" lon="4.95526">
        <ele>149.2</ele>
        <time>2025-11-12T09:11:26.033Z</time>
      </trkpt>
      <trkpt lat="43.70647" lon="4.9553">
        <ele>149.3</ele>
        <time>2025-11-12T09:11:29.033Z</time>
      </trkpt>
      <trkpt lat="43.70648" lon="4.95534">
        <ele>149.4</ele>
        <time>2025-11-12T09:11:31.033Z</time>
      </trkpt>
      <trkpt lat="43.70649" lon="4.95537">
        <ele>149.6</ele>
        <time>2025-11-12T09:11:34.034Z</time>
      </trkpt>
      <trkpt lat="43.70649" lon="4.9554">
        <ele>149.8</ele>
        <time>2025-11-12T09:11:36.034Z</time>
      </trkpt>
      <trkpt lat="43.70651" lon="4.95545">
        <ele>150.1</ele>
        <time>2025-11-12T09:11:39.034Z</time>
      </trkpt>
      <trkpt lat="43.70652" lon="4.95548">
        <ele>150.4</ele>
        <time>2025-11-12T09:11:42.033Z</time>
      </trkpt>
      <trkpt lat="43.70654" lon="4.95552">
        <ele>150.7</ele>
        <time>2025-11-12T09:11:45.033Z</time>
      </trkpt>
      <trkpt lat="43.70655" lon="4.95556">
        <ele>151</ele>
        <time>2025-11-12T09:11:48.033Z</time>
      </trkpt>
      <trkpt lat="43.70656" lon="4.95559">
        <ele>151.1</ele>
        <time>2025-11-12T09:11:50.034Z</time>
      </trkpt>
      <trkpt lat="43.70658" lon="4.95562">
        <ele>151.2</ele>
        <time>2025-11-12T09:11:54.034Z</time>
      </trkpt>
      <trkpt lat="43.70659" lon="4.95564">
        <ele>151.2</ele>
        <time>2025-11-12T09:11:57.034Z</time>
      </trkpt>
      <trkpt lat="43.70661" lon="4.95567">
        <ele>151.3</ele>
        <time>2025-11-12T09:12:18.033Z</time>
      </trkpt>
      <trkpt lat="43.70664" lon="4.95567">
        <ele>151.4</ele>
        <time>2025-11-12T09:12:23.034Z</time>
      </trkpt>
      <trkpt lat="43.70666" lon="4.95569">
        <ele>151.5</ele>
        <time>2025-11-12T09:12:28.034Z</time>
      </trkpt>
      <trkpt lat="43.70668" lon="4.95571">
        <ele>151.6</ele>
        <time>2025-11-12T09:12:32.034Z</time>
      </trkpt>
      <trkpt lat="43.70671" lon="4.95573">
        <ele>151.7</ele>
        <time>2025-11-12T09:12:36.033Z</time>
      </trkpt>
      <trkpt lat="43.70674" lon="4.95573">
        <ele>151.8</ele>
        <time>2025-11-12T09:12:43.034Z</time>
      </trkpt>
      <trkpt lat="43.70677" lon="4.95574">
        <ele>151.9</ele>
        <time>2025-11-12T09:12:46.033Z</time>
      </trkpt>
      <trkpt lat="43.7068" lon="4.95575">
        <ele>152</ele>
        <time>2025-11-12T09:12:49.033Z</time>
      </trkpt>
      <trkpt lat="43.70682" lon="4.95576">
        <ele>152.1</ele>
        <time>2025-11-12T09:12:51.033Z</time>
      </trkpt>
      <trkpt lat="43.70685" lon="4.95576">
        <ele>152.2</ele>
        <time>2025-11-12T09:12:54.034Z</time>
      </trkpt>
      <trkpt lat="43.70688" lon="4.95576">
        <ele>152.3</ele>
        <time>2025-11-12T09:12:57.034Z</time>
      </trkpt>
      <trkpt lat="43.7069" lon="4.95576">
        <ele>152.4</ele>
        <time>2025-11-12T09:12:59.034Z</time>
      </trkpt>
      <trkpt lat="43.70693" lon="4.95577">
        <ele>152.5</ele>
        <time>2025-11-12T09:13:02.034Z</time>
      </trkpt>
      <trkpt lat="43.70696" lon="4.95578">
        <ele>152.6</ele>
        <time>2025-11-12T09:13:05.034Z</time>
      </trkpt>
      <trkpt lat="43.70698" lon="4.95578">
        <ele>152.7</ele>
        <time>2025-11-12T09:13:09.034Z</time>
      </trkpt>
      <trkpt lat="43.70701" lon="4.9558">
        <ele>152.9</ele>
        <time>2025-11-12T09:13:12.033Z</time>
      </trkpt>
      <trkpt lat="43.70704" lon="4.95578">
        <ele>152.8</ele>
        <time>2025-11-12T09:13:15.034Z</time>
      </trkpt>
      <trkpt lat="43.70706" lon="4.95578">
        <ele>152.8</ele>
        <time>2025-11-12T09:13:17.033Z</time>
      </trkpt>
      <trkpt lat="43.70709" lon="4.95579">
        <ele>152.9</ele>
        <time>2025-11-12T09:13:20.034Z</time>
      </trkpt>
      <trkpt lat="43.70712" lon="4.95581">
        <ele>153.3</ele>
        <time>2025-11-12T09:13:23.033Z</time>
      </trkpt>
      <trkpt lat="43.70714" lon="4.95583">
        <ele>153.6</ele>
        <time>2025-11-12T09:13:26.034Z</time>
      </trkpt>
      <trkpt lat="43.70717" lon="4.95583">
        <ele>153.8</ele>
        <time>2025-11-12T09:13:30.034Z</time>
      </trkpt>
      <trkpt lat="43.7072" lon="4.95584">
        <ele>153.9</ele>
        <time>2025-11-12T09:13:33.033Z</time>
      </trkpt>
      <trkpt lat="43.70722" lon="4.95585">
        <ele>154</ele>
        <time>2025-11-12T09:13:35.033Z</time>
      </trkpt>
      <trkpt lat="43.70725" lon="4.95587">
        <ele>154.1</ele>
        <time>2025-11-12T09:13:38.033Z</time>
      </trkpt>
      <trkpt lat="43.70727" lon="4.95588">
        <ele>154.2</ele>
        <time>2025-11-12T09:13:40.033Z</time>
      </trkpt>
      <trkpt lat="43.70731" lon="4.95589">
        <ele>154.3</ele>
        <time>2025-11-12T09:13:43.034Z</time>
      </trkpt>
      <trkpt lat="43.70733" lon="4.95589">
        <ele>154.4</ele>
        <time>2025-11-12T09:13:46.033Z</time>
      </trkpt>
      <trkpt lat="43.70736" lon="4.9559">
        <ele>154.5</ele>
        <time>2025-11-12T09:13:49.033Z</time>
      </trkpt>
      <trkpt lat="43.70739" lon="4.95591">
        <ele>154.6</ele>
        <time>2025-11-12T09:13:52.034Z</time>
      </trkpt>
      <trkpt lat="43.70741" lon="4.95592">
        <ele>154.7</ele>
        <time>2025-11-12T09:13:54.034Z</time>
      </trkpt>
      <trkpt lat="43.70744" lon="4.95593">
        <ele>154.8</ele>
        <time>2025-11-12T09:13:56.033Z</time>
      </trkpt>
      <trkpt lat="43.70747" lon="4.95594">
        <ele>154.9</ele>
        <time>2025-11-12T09:13:59.034Z</time>
      </trkpt>
      <trkpt lat="43.7075" lon="4.95593">
        <ele>155</ele>
        <time>2025-11-12T09:14:01.034Z</time>
      </trkpt>
      <trkpt lat="43.70752" lon="4.95592">
        <ele>155.1</ele>
        <time>2025-11-12T09:14:04.033Z</time>
      </trkpt>
      <trkpt lat="43.70754" lon="4.95593">
        <ele>155.2</ele>
        <time>2025-11-12T09:14:06.034Z</time>
      </trkpt>
      <trkpt lat="43.70757" lon="4.95591">
        <ele>155.3</ele>
        <time>2025-11-12T09:14:08.033Z</time>
      </trkpt>
      <trkpt lat="43.70759" lon="4.9559">
        <ele>155.4</ele>
        <time>2025-11-12T09:14:10.034Z</time>
      </trkpt>
      <trkpt lat="43.70762" lon="4.9559">
        <ele>155.5</ele>
        <time>2025-11-12T09:14:12.034Z</time>
      </trkpt>
      <trkpt lat="43.70764" lon="4.9559">
        <ele>155.6</ele>
        <time>2025-11-12T09:14:14.034Z</time>
      </trkpt>
      <trkpt lat="43.70767" lon="4.95591">
        <ele>155.8</ele>
        <time>2025-11-12T09:14:17.033Z</time>
      </trkpt>
      <trkpt lat="43.7077" lon="4.95592">
        <ele>155.9</ele>
        <time>2025-11-12T09:14:20.033Z</time>
      </trkpt>
      <trkpt lat="43.70773" lon="4.95592">
        <ele>156.1</ele>
        <time>2025-11-12T09:14:23.033Z</time>
      </trkpt>
      <trkpt lat="43.70776" lon="4.95594">
        <ele>156.3</ele>
        <time>2025-11-12T09:14:26.034Z</time>
      </trkpt>
      <trkpt lat="43.70779" lon="4.95595">
        <ele>156.5</ele>
        <time>2025-11-12T09:14:29.034Z</time>
      </trkpt>
      <trkpt lat="43.70782" lon="4.95596">
        <ele>156.6</ele>
        <time>2025-11-12T09:14:31.033Z</time>
      </trkpt>
      <trkpt lat="43.70785" lon="4.95597">
        <ele>156.7</ele>
        <time>2025-11-12T09:14:34.034Z</time>
      </trkpt>
      <trkpt lat="43.70787" lon="4.95598">
        <ele>156.8</ele>
        <time>2025-11-12T09:14:36.034Z</time>
      </trkpt>
      <trkpt lat="43.70789" lon="4.956">
        <ele>157</ele>
        <time>2025-11-12T09:14:39.034Z</time>
      </trkpt>
      <trkpt lat="43.70792" lon="4.95603">
        <ele>157.2</ele>
        <time>2025-11-12T09:14:42.033Z</time>
      </trkpt>
      <trkpt lat="43.70794" lon="4.95604">
        <ele>157.3</ele>
        <time>2025-11-12T09:14:44.033Z</time>
      </trkpt>
      <trkpt lat="43.70797" lon="4.95605">
        <ele>157.5</ele>
        <time>2025-11-12T09:14:46.033Z</time>
      </trkpt>
      <trkpt lat="43.70799" lon="4.95604">
        <ele>157.5</ele>
        <time>2025-11-12T09:14:48.034Z</time>
      </trkpt>
      <trkpt lat="43.70802" lon="4.95606">
        <ele>157.7</ele>
        <time>2025-11-12T09:14:51.034Z</time>
      </trkpt>
      <trkpt lat="43.70804" lon="4.95607">
        <ele>157.8</ele>
        <time>2025-11-12T09:14:53.034Z</time>
      </trkpt>
      <trkpt lat="43.70807" lon="4.95608">
        <ele>157.9</ele>
        <time>2025-11-12T09:14:55.034Z</time>
      </trkpt>
      <trkpt lat="43.70809" lon="4.95611">
        <ele>158.1</ele>
        <time>2025-11-12T09:14:58.033Z</time>
      </trkpt>
      <trkpt lat="43.70812" lon="4.95612">
        <ele>158.2</ele>
        <time>2025-11-12T09:15:00.034Z</time>
      </trkpt>
      <trkpt lat="43.70815" lon="4.95613">
        <ele>158.4</ele>
        <time>2025-11-12T09:15:03.034Z</time>
      </trkpt>
      <trkpt lat="43.70818" lon="4.95614">
        <ele>158.5</ele>
        <time>2025-11-12T09:15:07.033Z</time>
      </trkpt>
      <trkpt lat="43.70819" lon="4.95617">
        <ele>158.6</ele>
        <time>2025-11-12T09:15:09.033Z</time>
      </trkpt>
      <trkpt lat="43.70822" lon="4.95619">
        <ele>158.8</ele>
        <time>2025-11-12T09:15:12.034Z</time>
      </trkpt>
      <trkpt lat="43.70824" lon="4.95619">
        <ele>158.9</ele>
        <time>2025-11-12T09:15:14.033Z</time>
      </trkpt>
      <trkpt lat="43.70827" lon="4.9562">
        <ele>159</ele>
        <time>2025-11-12T09:15:17.034Z</time>
      </trkpt>
      <trkpt lat="43.70831" lon="4.95621">
        <ele>159.2</ele>
        <time>2025-11-12T09:15:20.034Z</time>
      </trkpt>
      <trkpt lat="43.70834" lon="4.95622">
        <ele>159.4</ele>
        <time>2025-11-12T09:15:23.034Z</time>
      </trkpt>
      <trkpt lat="43.70837" lon="4.95623">
        <ele>159.5</ele>
        <time>2025-11-12T09:15:26.034Z</time>
      </trkpt>
      <trkpt lat="43.70839" lon="4.95625">
        <ele>159.7</ele>
        <time>2025-11-12T09:15:29.034Z</time>
      </trkpt>
      <trkpt lat="43.70842" lon="4.95626">
        <ele>159.8</ele>
        <time>2025-11-12T09:15:32.033Z</time>
      </trkpt>
      <trkpt lat="43.70844" lon="4.95627">
        <ele>159.9</ele>
        <time>2025-11-12T09:15:35.034Z</time>
      </trkpt>
      <trkpt lat="43.70847" lon="4.95628">
        <ele>160.1</ele>
        <time>2025-11-12T09:15:37.033Z</time>
      </trkpt>
      <trkpt lat="43.7085" lon="4.95629">
        <ele>160.2</ele>
        <time>2025-11-12T09:15:40.034Z</time>
      </trkpt>
      <trkpt lat="43.70852" lon="4.9563">
        <ele>160.4</ele>
        <time>2025-11-12T09:15:42.034Z</time>
      </trkpt>
      <trkpt lat="43.70854" lon="4.95632">
        <ele>160.5</ele>
        <time>2025-11-12T09:15:46.033Z</time>
      </trkpt>
      <trkpt lat="43.70857" lon="4.95633">
        <ele>160.6</ele>
        <time>2025-11-12T09:15:48.033Z</time>
      </trkpt>
      <trkpt lat="43.7086" lon="4.95635">
        <ele>160.8</ele>
        <time>2025-11-12T09:15:51.034Z</time>
      </trkpt>
      <trkpt lat="43.70862" lon="4.95636">
        <ele>160.9</ele>
        <time>2025-11-12T09:15:53.034Z</time>
      </trkpt>
      <trkpt lat="43.70865" lon="4.95636">
        <ele>160.9</ele>
        <time>2025-11-12T09:15:55.033Z</time>
      </trkpt>
      <trkpt lat="43.70867" lon="4.95638">
        <ele>161</ele>
        <time>2025-11-12T09:15:58.034Z</time>
      </trkpt>
      <trkpt lat="43.70869" lon="4.95639">
        <ele>161</ele>
        <time>2025-11-12T09:16:01.034Z</time>
      </trkpt>
      <trkpt lat="43.70871" lon="4.95641">
        <ele>161.1</ele>
        <time>2025-11-12T09:16:04.034Z</time>
      </trkpt>
      <trkpt lat="43.70874" lon="4.95642">
        <ele>161.1</ele>
        <time>2025-11-12T09:16:06.034Z</time>
      </trkpt>
      <trkpt lat="43.70875" lon="4.95644">
        <ele>161.2</ele>
        <time>2025-11-12T09:16:08.034Z</time>
      </trkpt>
      <trkpt lat="43.70878" lon="4.95646">
        <ele>161.3</ele>
        <time>2025-11-12T09:16:11.034Z</time>
      </trkpt>
      <trkpt lat="43.70881" lon="4.95648">
        <ele>161.5</ele>
        <time>2025-11-12T09:16:14.033Z</time>
      </trkpt>
      <trkpt lat="43.70883" lon="4.95649">
        <ele>161.6</ele>
        <time>2025-11-12T09:16:16.034Z</time>
      </trkpt>
      <trkpt lat="43.70886" lon="4.95651">
        <ele>161.8</ele>
        <time>2025-11-12T09:16:19.033Z</time>
      </trkpt>
      <trkpt lat="43.70889" lon="4.95653">
        <ele>162</ele>
        <time>2025-11-12T09:16:22.034Z</time>
      </trkpt>
      <trkpt lat="43.70892" lon="4.95654">
        <ele>162</ele>
        <time>2025-11-12T09:16:25.033Z</time>
      </trkpt>
      <trkpt lat="43.70894" lon="4.95656">
        <ele>162.1</ele>
        <time>2025-11-12T09:16:28.034Z</time>
      </trkpt>
      <trkpt lat="43.70897" lon="4.95657">
        <ele>162.1</ele>
        <time>2025-11-12T09:16:31.034Z</time>
      </trkpt>
      <trkpt lat="43.709" lon="4.95658">
        <ele>162.1</ele>
        <time>2025-11-12T09:16:34.033Z</time>
      </trkpt>
      <trkpt lat="43.70903" lon="4.95659">
        <ele>162.1</ele>
        <time>2025-11-12T09:16:37.033Z</time>
      </trkpt>
      <trkpt lat="43.70905" lon="4.9566">
        <ele>162.2</ele>
        <time>2025-11-12T09:16:39.033Z</time>
      </trkpt>
      <trkpt lat="43.70908" lon="4.95661">
        <ele>162.3</ele>
        <time>2025-11-12T09:16:42.033Z</time>
      </trkpt>
      <trkpt lat="43.70911" lon="4.95662">
        <ele>162.5</ele>
        <time>2025-11-12T09:16:45.034Z</time>
      </trkpt>
      <trkpt lat="43.70914" lon="4.95664">
        <ele>162.6</ele>
        <time>2025-11-12T09:16:48.033Z</time>
      </trkpt>
      <trkpt lat="43.70916" lon="4.95663">
        <ele>162.5</ele>
        <time>2025-11-12T09:16:51.034Z</time>
      </trkpt>
      <trkpt lat="43.70919" lon="4.95664">
        <ele>162.5</ele>
        <time>2025-11-12T09:16:54.034Z</time>
      </trkpt>
      <trkpt lat="43.70922" lon="4.95665">
        <ele>162.5</ele>
        <time>2025-11-12T09:16:57.034Z</time>
      </trkpt>
      <trkpt lat="43.70924" lon="4.95664">
        <ele>162.4</ele>
        <time>2025-11-12T09:16:59.033Z</time>
      </trkpt>
      <trkpt lat="43.70927" lon="4.95665">
        <ele>162.4</ele>
        <time>2025-11-12T09:17:01.034Z</time>
      </trkpt>
      <trkpt lat="43.70929" lon="4.95665">
        <ele>162.4</ele>
        <time>2025-11-12T09:17:04.034Z</time>
      </trkpt>
      <trkpt lat="43.70932" lon="4.95666">
        <ele>162.3</ele>
        <time>2025-11-12T09:17:06.034Z</time>
      </trkpt>
      <trkpt lat="43.70934" lon="4.95667">
        <ele>162.4</ele>
        <time>2025-11-12T09:17:08.034Z</time>
      </trkpt>
      <trkpt lat="43.70937" lon="4.95667">
        <ele>162.5</ele>
        <time>2025-11-12T09:17:11.034Z</time>
      </trkpt>
      <trkpt lat="43.7094" lon="4.95668">
        <ele>162.4</ele>
        <time>2025-11-12T09:17:14.033Z</time>
      </trkpt>
      <trkpt lat="43.70942" lon="4.95668">
        <ele>162.5</ele>
        <time>2025-11-12T09:17:16.033Z</time>
      </trkpt>
      <trkpt lat="43.70944" lon="4.9567">
        <ele>162.9</ele>
        <time>2025-11-12T09:17:19.034Z</time>
      </trkpt>
      <trkpt lat="43.70947" lon="4.95671">
        <ele>163</ele>
        <time>2025-11-12T09:17:22.034Z</time>
      </trkpt>
      <trkpt lat="43.7095" lon="4.95671">
        <ele>162.7</ele>
        <time>2025-11-12T09:17:25.033Z</time>
      </trkpt>
      <trkpt lat="43.70952" lon="4.9567">
        <ele>162.3</ele>
        <time>2025-11-12T09:17:27.034Z</time>
      </trkpt>
      <trkpt lat="43.70955" lon="4.9567">
        <ele>162.3</ele>
        <time>2025-11-12T09:17:29.033Z</time>
      </trkpt>
      <trkpt lat="43.70957" lon="4.95672">
        <ele>162.6</ele>
        <time>2025-11-12T09:17:32.034Z</time>
      </trkpt>
      <trkpt lat="43.7096" lon="4.95674">
        <ele>162.7</ele>
        <time>2025-11-12T09:17:35.034Z</time>
      </trkpt>
      <trkpt lat="43.70964" lon="4.95674">
        <ele>162.7</ele>
        <time>2025-11-12T09:17:38.034Z</time>
      </trkpt>
      <trkpt lat="43.70966" lon="4.95674">
        <ele>162.6</ele>
        <time>2025-11-12T09:17:40.034Z</time>
      </trkpt>
      <trkpt lat="43.70969" lon="4.95676">
        <ele>162.9</ele>
        <time>2025-11-12T09:17:43.034Z</time>
      </trkpt>
      <trkpt lat="43.70972" lon="4.95678">
        <ele>163.1</ele>
        <time>2025-11-12T09:17:46.034Z</time>
      </trkpt>
      <trkpt lat="43.70974" lon="4.95679">
        <ele>163.6</ele>
        <time>2025-11-12T09:17:49.033Z</time>
      </trkpt>
      <trkpt lat="43.70977" lon="4.9568">
        <ele>163.7</ele>
        <time>2025-11-12T09:17:51.033Z</time>
      </trkpt>
      <trkpt lat="43.70979" lon="4.95681">
        <ele>164</ele>
        <time>2025-11-12T09:17:53.034Z</time>
      </trkpt>
      <trkpt lat="43.70982" lon="4.95683">
        <ele>164.2</ele>
        <time>2025-11-12T09:17:56.033Z</time>
      </trkpt>
      <trkpt lat="43.70984" lon="4.95684">
        <ele>164.3</ele>
        <time>2025-11-12T09:17:59.034Z</time>
      </trkpt>
      <trkpt lat="43.70987" lon="4.95686">
        <ele>164.4</ele>
        <time>2025-11-12T09:18:02.033Z</time>
      </trkpt>
      <trkpt lat="43.70989" lon="4.95688">
        <ele>164.4</ele>
        <time>2025-11-12T09:18:04.034Z</time>
      </trkpt>
      <trkpt lat="43.70992" lon="4.95691">
        <ele>164.3</ele>
        <time>2025-11-12T09:18:07.033Z</time>
      </trkpt>
      <trkpt lat="43.70993" lon="4.95694">
        <ele>164.2</ele>
        <time>2025-11-12T09:18:09.034Z</time>
      </trkpt>
      <trkpt lat="43.70995" lon="4.95697">
        <ele>164.3</ele>
        <time>2025-11-12T09:18:11.033Z</time>
      </trkpt>
      <trkpt lat="43.70997" lon="4.95699">
        <ele>164.1</ele>
        <time>2025-11-12T09:18:14.034Z</time>
      </trkpt>
      <trkpt lat="43.70997" lon="4.95703">
        <ele>164.3</ele>
        <time>2025-11-12T09:18:17.034Z</time>
      </trkpt>
      <trkpt lat="43.70999" lon="4.95707">
        <ele>164.3</ele>
        <time>2025-11-12T09:18:20.033Z</time>
      </trkpt>
      <trkpt lat="43.70999" lon="4.95711">
        <ele>164.4</ele>
        <time>2025-11-12T09:18:23.033Z</time>
      </trkpt>
      <trkpt lat="43.71001" lon="4.95714">
        <ele>164.4</ele>
        <time>2025-11-12T09:18:25.033Z</time>
      </trkpt>
      <trkpt lat="43.71001" lon="4.95717">
        <ele>164.6</ele>
        <time>2025-11-12T09:18:28.033Z</time>
      </trkpt>
      <trkpt lat="43.71003" lon="4.95721">
        <ele>164.8</ele>
        <time>2025-11-12T09:18:31.034Z</time>
      </trkpt>
      <trkpt lat="43.71005" lon="4.95723">
        <ele>165</ele>
        <time>2025-11-12T09:18:34.033Z</time>
      </trkpt>
      <trkpt lat="43.71008" lon="4.95725">
        <ele>165.5</ele>
        <time>2025-11-12T09:18:37.033Z</time>
      </trkpt>
      <trkpt lat="43.71011" lon="4.95726">
        <ele>165.5</ele>
        <time>2025-11-12T09:18:40.034Z</time>
      </trkpt>
      <trkpt lat="43.71013" lon="4.95727">
        <ele>165.6</ele>
        <time>2025-11-12T09:18:43.034Z</time>
      </trkpt>
      <trkpt lat="43.71016" lon="4.95729">
        <ele>166</ele>
        <time>2025-11-12T09:18:46.034Z</time>
      </trkpt>
      <trkpt lat="43.71017" lon="4.95733">
        <ele>166.6</ele>
        <time>2025-11-12T09:18:50.033Z</time>
      </trkpt>
      <trkpt lat="43.71019" lon="4.95735">
        <ele>166.8</ele>
        <time>2025-11-12T09:18:53.033Z</time>
      </trkpt>
      <trkpt lat="43.71022" lon="4.95736">
        <ele>166.7</ele>
        <time>2025-11-12T09:18:56.033Z</time>
      </trkpt>
      <trkpt lat="43.71025" lon="4.95737">
        <ele>166.5</ele>
        <time>2025-11-12T09:18:59.034Z</time>
      </trkpt>
      <trkpt lat="43.71028" lon="4.95739">
        <ele>166.4</ele>
        <time>2025-11-12T09:19:02.034Z</time>
      </trkpt>
      <trkpt lat="43.7103" lon="4.9574">
        <ele>166.5</ele>
        <time>2025-11-12T09:19:05.033Z</time>
      </trkpt>
      <trkpt lat="43.71033" lon="4.95741">
        <ele>166.5</ele>
        <time>2025-11-12T09:19:08.034Z</time>
      </trkpt>
      <trkpt lat="43.71037" lon="4.95742">
        <ele>166.5</ele>
        <time>2025-11-12T09:19:11.034Z</time>
      </trkpt>
      <trkpt lat="43.71039" lon="4.95743">
        <ele>166.5</ele>
        <time>2025-11-12T09:19:13.034Z</time>
      </trkpt>
      <trkpt lat="43.71042" lon="4.95744">
        <ele>166.4</ele>
        <time>2025-11-12T09:19:16.034Z</time>
      </trkpt>
      <trkpt lat="43.71044" lon="4.95745">
        <ele>166.4</ele>
        <time>2025-11-12T09:19:19.034Z</time>
      </trkpt>
      <trkpt lat="43.71047" lon="4.95746">
        <ele>166.3</ele>
        <time>2025-11-12T09:19:22.034Z</time>
      </trkpt>
      <trkpt lat="43.7105" lon="4.95747">
        <ele>166.2</ele>
        <time>2025-11-12T09:19:24.034Z</time>
      </trkpt>
      <trkpt lat="43.71052" lon="4.95748">
        <ele>166.2</ele>
        <time>2025-11-12T09:19:26.033Z</time>
      </trkpt>
      <trkpt lat="43.71055" lon="4.9575">
        <ele>166</ele>
        <time>2025-11-12T09:19:29.034Z</time>
      </trkpt>
      <trkpt lat="43.71058" lon="4.95752">
        <ele>166.3</ele>
        <time>2025-11-12T09:19:32.034Z</time>
      </trkpt>
      <trkpt lat="43.71061" lon="4.95754">
        <ele>166.6</ele>
        <time>2025-11-12T09:19:34.033Z</time>
      </trkpt>
      <trkpt lat="43.71063" lon="4.95755">
        <ele>166.9</ele>
        <time>2025-11-12T09:19:36.033Z</time>
      </trkpt>
      <trkpt lat="43.71066" lon="4.95755">
        <ele>166.9</ele>
        <time>2025-11-12T09:19:38.033Z</time>
      </trkpt>
      <trkpt lat="43.71069" lon="4.95756">
        <ele>166.9</ele>
        <time>2025-11-12T09:19:40.033Z</time>
      </trkpt>
      <trkpt lat="43.71071" lon="4.95758">
        <ele>167.2</ele>
        <time>2025-11-12T09:19:43.033Z</time>
      </trkpt>
      <trkpt lat="43.71073" lon="4.9576">
        <ele>167.5</ele>
        <time>2025-11-12T09:19:47.034Z</time>
      </trkpt>
      <trkpt lat="43.71076" lon="4.95761">
        <ele>167.7</ele>
        <time>2025-11-12T09:19:50.034Z</time>
      </trkpt>
      <trkpt lat="43.71078" lon="4.95763">
        <ele>168</ele>
        <time>2025-11-12T09:19:53.034Z</time>
      </trkpt>
      <trkpt lat="43.7108" lon="4.95766">
        <ele>168.3</ele>
        <time>2025-11-12T09:19:56.034Z</time>
      </trkpt>
      <trkpt lat="43.71083" lon="4.95768">
        <ele>168.5</ele>
        <time>2025-11-12T09:19:59.034Z</time>
      </trkpt>
      <trkpt lat="43.71085" lon="4.95771">
        <ele>168.9</ele>
        <time>2025-11-12T09:20:03.033Z</time>
      </trkpt>
      <trkpt lat="43.71087" lon="4.95773">
        <ele>168.9</ele>
        <time>2025-11-12T09:20:05.034Z</time>
      </trkpt>
      <trkpt lat="43.71089" lon="4.95776">
        <ele>169.1</ele>
        <time>2025-11-12T09:20:08.034Z</time>
      </trkpt>
      <trkpt lat="43.71091" lon="4.95777">
        <ele>169.1</ele>
        <time>2025-11-12T09:20:10.034Z</time>
      </trkpt>
      <trkpt lat="43.71094" lon="4.9578">
        <ele>169.4</ele>
        <time>2025-11-12T09:20:13.034Z</time>
      </trkpt>
      <trkpt lat="43.71097" lon="4.95782">
        <ele>169.6</ele>
        <time>2025-11-12T09:20:16.034Z</time>
      </trkpt>
      <trkpt lat="43.71099" lon="4.95785">
        <ele>170</ele>
        <time>2025-11-12T09:20:19.033Z</time>
      </trkpt>
      <trkpt lat="43.71101" lon="4.95788">
        <ele>170.3</ele>
        <time>2025-11-12T09:20:22.034Z</time>
      </trkpt>
      <trkpt lat="43.71103" lon="4.9579">
        <ele>170.4</ele>
        <time>2025-11-12T09:20:24.034Z</time>
      </trkpt>
      <trkpt lat="43.71106" lon="4.95791">
        <ele>170.1</ele>
        <time>2025-11-12T09:20:27.034Z</time>
      </trkpt>
      <trkpt lat="43.71109" lon="4.95793">
        <ele>170.1</ele>
        <time>2025-11-12T09:20:30.034Z</time>
      </trkpt>
      <trkpt lat="43.71111" lon="4.95794">
        <ele>170</ele>
        <time>2025-11-12T09:20:33.034Z</time>
      </trkpt>
      <trkpt lat="43.71113" lon="4.95794">
        <ele>169.9</ele>
        <time>2025-11-12T09:20:36.033Z</time>
      </trkpt>
      <trkpt lat="43.71117" lon="4.95796">
        <ele>170.1</ele>
        <time>2025-11-12T09:20:40.034Z</time>
      </trkpt>
      <trkpt lat="43.71119" lon="4.95797">
        <ele>170.2</ele>
        <time>2025-11-12T09:20:42.034Z</time>
      </trkpt>
      <trkpt lat="43.71121" lon="4.95798">
        <ele>170.4</ele>
        <time>2025-11-12T09:20:44.034Z</time>
      </trkpt>
      <trkpt lat="43.71124" lon="4.95801">
        <ele>170.5</ele>
        <time>2025-11-12T09:20:47.033Z</time>
      </trkpt>
      <trkpt lat="43.71126" lon="4.95802">
        <ele>170.5</ele>
        <time>2025-11-12T09:20:49.034Z</time>
      </trkpt>
      <trkpt lat="43.71129" lon="4.95803">
        <ele>170.5</ele>
        <time>2025-11-12T09:20:52.034Z</time>
      </trkpt>
      <trkpt lat="43.71132" lon="4.95805">
        <ele>170.5</ele>
        <time>2025-11-12T09:20:55.033Z</time>
      </trkpt>
      <trkpt lat="43.71134" lon="4.95807">
        <ele>170.5</ele>
        <time>2025-11-12T09:20:57.034Z</time>
      </trkpt>
      <trkpt lat="43.71136" lon="4.95808">
        <ele>170.8</ele>
        <time>2025-11-12T09:20:59.034Z</time>
      </trkpt>
      <trkpt lat="43.71139" lon="4.9581">
        <ele>171</ele>
        <time>2025-11-12T09:21:02.034Z</time>
      </trkpt>
      <trkpt lat="43.71141" lon="4.95813">
        <ele>171.4</ele>
        <time>2025-11-12T09:21:05.033Z</time>
      </trkpt>
      <trkpt lat="43.71143" lon="4.95814">
        <ele>171.6</ele>
        <time>2025-11-12T09:21:07.034Z</time>
      </trkpt>
      <trkpt lat="43.71146" lon="4.95816">
        <ele>171.7</ele>
        <time>2025-11-12T09:21:10.034Z</time>
      </trkpt>
      <trkpt lat="43.71149" lon="4.95819">
        <ele>171.9</ele>
        <time>2025-11-12T09:21:13.034Z</time>
      </trkpt>
      <trkpt lat="43.71152" lon="4.95821">
        <ele>172</ele>
        <time>2025-11-12T09:21:16.034Z</time>
      </trkpt>
      <trkpt lat="43.71156" lon="4.95823">
        <ele>172</ele>
        <time>2025-11-12T09:21:19.034Z</time>
      </trkpt>
      <trkpt lat="43.71158" lon="4.95825">
        <ele>172.1</ele>
        <time>2025-11-12T09:21:23.034Z</time>
      </trkpt>
      <trkpt lat="43.7116" lon="4.95827">
        <ele>172.1</ele>
        <time>2025-11-12T09:21:26.034Z</time>
      </trkpt>
      <trkpt lat="43.71162" lon="4.9583">
        <ele>172.2</ele>
        <time>2025-11-12T09:21:29.034Z</time>
      </trkpt>
      <trkpt lat="43.71165" lon="4.95832">
        <ele>172.1</ele>
        <time>2025-11-12T09:21:32.034Z</time>
      </trkpt>
      <trkpt lat="43.71168" lon="4.95833">
        <ele>171.9</ele>
        <time>2025-11-12T09:21:35.034Z</time>
      </trkpt>
      <trkpt lat="43.7117" lon="4.95835">
        <ele>172.2</ele>
        <time>2025-11-12T09:21:37.033Z</time>
      </trkpt>
      <trkpt lat="43.71173" lon="4.95836">
        <ele>172.3</ele>
        <time>2025-11-12T09:21:39.034Z</time>
      </trkpt>
      <trkpt lat="43.71175" lon="4.95837">
        <ele>172.5</ele>
        <time>2025-11-12T09:21:41.034Z</time>
      </trkpt>
      <trkpt lat="43.71177" lon="4.95839">
        <ele>172.9</ele>
        <time>2025-11-12T09:21:43.033Z</time>
      </trkpt>
      <trkpt lat="43.7118" lon="4.95841">
        <ele>173.2</ele>
        <time>2025-11-12T09:21:46.034Z</time>
      </trkpt>
      <trkpt lat="43.71182" lon="4.95844">
        <ele>173.6</ele>
        <time>2025-11-12T09:21:49.034Z</time>
      </trkpt>
      <trkpt lat="43.71184" lon="4.95846">
        <ele>173.8</ele>
        <time>2025-11-12T09:21:52.034Z</time>
      </trkpt>
      <trkpt lat="43.71186" lon="4.95848">
        <ele>174.1</ele>
        <time>2025-11-12T09:21:54.034Z</time>
      </trkpt>
      <trkpt lat="43.71188" lon="4.9585">
        <ele>174.3</ele>
        <time>2025-11-12T09:21:56.033Z</time>
      </trkpt>
      <trkpt lat="43.71191" lon="4.95851">
        <ele>174.4</ele>
        <time>2025-11-12T09:21:58.033Z</time>
      </trkpt>
      <trkpt lat="43.71193" lon="4.95853">
        <ele>174.4</ele>
        <time>2025-11-12T09:22:01.033Z</time>
      </trkpt>
      <trkpt lat="43.71196" lon="4.95855">
        <ele>174.6</ele>
        <time>2025-11-12T09:22:04.033Z</time>
      </trkpt>
      <trkpt lat="43.71198" lon="4.95858">
        <ele>174.9</ele>
        <time>2025-11-12T09:22:07.034Z</time>
      </trkpt>
      <trkpt lat="43.71201" lon="4.95861">
        <ele>175</ele>
        <time>2025-11-12T09:22:10.034Z</time>
      </trkpt>
      <trkpt lat="43.71203" lon="4.95863">
        <ele>175.2</ele>
        <time>2025-11-12T09:22:13.033Z</time>
      </trkpt>
      <trkpt lat="43.71206" lon="4.95864">
        <ele>174.8</ele>
        <time>2025-11-12T09:22:15.034Z</time>
      </trkpt>
      <trkpt lat="43.71208" lon="4.95867">
        <ele>175</ele>
        <time>2025-11-12T09:22:18.034Z</time>
      </trkpt>
      <trkpt lat="43.7121" lon="4.95869">
        <ele>175</ele>
        <time>2025-11-12T09:22:20.033Z</time>
      </trkpt>
      <trkpt lat="43.71213" lon="4.95871">
        <ele>174.7</ele>
        <time>2025-11-12T09:22:23.033Z</time>
      </trkpt>
      <trkpt lat="43.71216" lon="4.95873">
        <ele>174.4</ele>
        <time>2025-11-12T09:22:25.034Z</time>
      </trkpt>
      <trkpt lat="43.71218" lon="4.95874">
        <ele>174.2</ele>
        <time>2025-11-12T09:22:28.034Z</time>
      </trkpt>
      <trkpt lat="43.7122" lon="4.95876">
        <ele>174.1</ele>
        <time>2025-11-12T09:22:30.034Z</time>
      </trkpt>
      <trkpt lat="43.71222" lon="4.95878">
        <ele>173.8</ele>
        <time>2025-11-12T09:22:32.034Z</time>
      </trkpt>
      <trkpt lat="43.71224" lon="4.9588">
        <ele>174</ele>
        <time>2025-11-12T09:22:34.033Z</time>
      </trkpt>
      <trkpt lat="43.71226" lon="4.95881">
        <ele>174.2</ele>
        <time>2025-11-12T09:22:36.033Z</time>
      </trkpt>
      <trkpt lat="43.71229" lon="4.95883">
        <ele>174.6</ele>
        <time>2025-11-12T09:22:39.033Z</time>
      </trkpt>
      <trkpt lat="43.71231" lon="4.95884">
        <ele>174.8</ele>
        <time>2025-11-12T09:22:41.033Z</time>
      </trkpt>
      <trkpt lat="43.71233" lon="4.95886">
        <ele>175</ele>
        <time>2025-11-12T09:22:44.034Z</time>
      </trkpt>
      <trkpt lat="43.71236" lon="4.95886">
        <ele>175.1</ele>
        <time>2025-11-12T09:22:47.034Z</time>
      </trkpt>
      <trkpt lat="43.71239" lon="4.95886">
        <ele>175.2</ele>
        <time>2025-11-12T09:22:49.034Z</time>
      </trkpt>
      <trkpt lat="43.71241" lon="4.95887">
        <ele>175.4</ele>
        <time>2025-11-12T09:22:51.034Z</time>
      </trkpt>
      <trkpt lat="43.71243" lon="4.95886">
        <ele>175.4</ele>
        <time>2025-11-12T09:22:54.034Z</time>
      </trkpt>
      <trkpt lat="43.71246" lon="4.95887">
        <ele>175.6</ele>
        <time>2025-11-12T09:22:57.034Z</time>
      </trkpt>
      <trkpt lat="43.71249" lon="4.95888">
        <ele>175.7</ele>
        <time>2025-11-12T09:23:00.033Z</time>
      </trkpt>
      <trkpt lat="43.71252" lon="4.95888">
        <ele>175.8</ele>
        <time>2025-11-12T09:23:03.034Z</time>
      </trkpt>
      <trkpt lat="43.71255" lon="4.95889">
        <ele>175.7</ele>
        <time>2025-11-12T09:23:06.033Z</time>
      </trkpt>
      <trkpt lat="43.71257" lon="4.9589">
        <ele>175.7</ele>
        <time>2025-11-12T09:23:08.033Z</time>
      </trkpt>
      <trkpt lat="43.71259" lon="4.95892">
        <ele>175.7</ele>
        <time>2025-11-12T09:23:10.033Z</time>
      </trkpt>
      <trkpt lat="43.71262" lon="4.95892">
        <ele>175.6</ele>
        <time>2025-11-12T09:23:13.034Z</time>
      </trkpt>
      <trkpt lat="43.71265" lon="4.95894">
        <ele>175.6</ele>
        <time>2025-11-12T09:23:17.034Z</time>
      </trkpt>
      <trkpt lat="43.71267" lon="4.95896">
        <ele>175.6</ele>
        <time>2025-11-12T09:23:20.034Z</time>
      </trkpt>
      <trkpt lat="43.7127" lon="4.95897">
        <ele>175.6</ele>
        <time>2025-11-12T09:23:22.034Z</time>
      </trkpt>
      <trkpt lat="43.71272" lon="4.95898">
        <ele>175.4</ele>
        <time>2025-11-12T09:23:25.034Z</time>
      </trkpt>
      <trkpt lat="43.71275" lon="4.95898">
        <ele>175.2</ele>
        <time>2025-11-12T09:23:27.034Z</time>
      </trkpt>
      <trkpt lat="43.71278" lon="4.95898">
        <ele>175</ele>
        <time>2025-11-12T09:23:29.034Z</time>
      </trkpt>
      <trkpt lat="43.7128" lon="4.95898">
        <ele>175.1</ele>
        <time>2025-11-12T09:23:32.034Z</time>
      </trkpt>
      <trkpt lat="43.71283" lon="4.95897">
        <ele>175.1</ele>
        <time>2025-11-12T09:23:34.033Z</time>
      </trkpt>
      <trkpt lat="43.71286" lon="4.95895">
        <ele>175.1</ele>
        <time>2025-11-12T09:23:37.034Z</time>
      </trkpt>
      <trkpt lat="43.71289" lon="4.95894">
        <ele>175.1</ele>
        <time>2025-11-12T09:23:39.034Z</time>
      </trkpt>
      <trkpt lat="43.71292" lon="4.95894">
        <ele>175.2</ele>
        <time>2025-11-12T09:23:41.034Z</time>
      </trkpt>
      <trkpt lat="43.71295" lon="4.95894">
        <ele>175.4</ele>
        <time>2025-11-12T09:23:43.034Z</time>
      </trkpt>
      <trkpt lat="43.71297" lon="4.95894">
        <ele>175.4</ele>
        <time>2025-11-12T09:23:45.033Z</time>
      </trkpt>
      <trkpt lat="43.71299" lon="4.95894">
        <ele>175.6</ele>
        <time>2025-11-12T09:23:48.034Z</time>
      </trkpt>
      <trkpt lat="43.71303" lon="4.95895">
        <ele>175.9</ele>
        <time>2025-11-12T09:23:51.033Z</time>
      </trkpt>
      <trkpt lat="43.71306" lon="4.95897">
        <ele>176.4</ele>
        <time>2025-11-12T09:23:54.033Z</time>
      </trkpt>
      <trkpt lat="43.71309" lon="4.95897">
        <ele>176.6</ele>
        <time>2025-11-12T09:23:57.033Z</time>
      </trkpt>
      <trkpt lat="43.71311" lon="4.95898">
        <ele>176.8</ele>
        <time>2025-11-12T09:24:00.034Z</time>
      </trkpt>
      <trkpt lat="43.71314" lon="4.95901">
        <ele>177.2</ele>
        <time>2025-11-12T09:24:03.034Z</time>
      </trkpt>
      <trkpt lat="43.71316" lon="4.95902">
        <ele>177.5</ele>
        <time>2025-11-12T09:24:06.034Z</time>
      </trkpt>
      <trkpt lat="43.71318" lon="4.95905">
        <ele>177.7</ele>
        <time>2025-11-12T09:24:09.033Z</time>
      </trkpt>
      <trkpt lat="43.71321" lon="4.95906">
        <ele>177.8</ele>
        <time>2025-11-12T09:24:12.034Z</time>
      </trkpt>
      <trkpt lat="43.71323" lon="4.95908">
        <ele>178</ele>
        <time>2025-11-12T09:24:14.034Z</time>
      </trkpt>
      <trkpt lat="43.71325" lon="4.9591">
        <ele>178.1</ele>
        <time>2025-11-12T09:24:16.034Z</time>
      </trkpt>
      <trkpt lat="43.71327" lon="4.95913">
        <ele>178.2</ele>
        <time>2025-11-12T09:24:19.034Z</time>
      </trkpt>
      <trkpt lat="43.71328" lon="4.95915">
        <ele>178.3</ele>
        <time>2025-11-12T09:24:22.034Z</time>
      </trkpt>
      <trkpt lat="43.71331" lon="4.95918">
        <ele>178.4</ele>
        <time>2025-11-12T09:24:25.033Z</time>
      </trkpt>
      <trkpt lat="43.71333" lon="4.95922">
        <ele>178.6</ele>
        <time>2025-11-12T09:24:28.034Z</time>
      </trkpt>
      <trkpt lat="43.71336" lon="4.95924">
        <ele>178.8</ele>
        <time>2025-11-12T09:24:31.034Z</time>
      </trkpt>
      <trkpt lat="43.71337" lon="4.95927">
        <ele>179.1</ele>
        <time>2025-11-12T09:24:34.034Z</time>
      </trkpt>
      <trkpt lat="43.71339" lon="4.95931">
        <ele>179.4</ele>
        <time>2025-11-12T09:24:37.034Z</time>
      </trkpt>
      <trkpt lat="43.71341" lon="4.95934">
        <ele>179.6</ele>
        <time>2025-11-12T09:24:39.033Z</time>
      </trkpt>
      <trkpt lat="43.71343" lon="4.95937">
        <ele>179.8</ele>
        <time>2025-11-12T09:24:42.034Z</time>
      </trkpt>
      <trkpt lat="43.71344" lon="4.95941">
        <ele>180</ele>
        <time>2025-11-12T09:24:45.033Z</time>
      </trkpt>
      <trkpt lat="43.71346" lon="4.95944">
        <ele>180.1</ele>
        <time>2025-11-12T09:24:47.033Z</time>
      </trkpt>
      <trkpt lat="43.71348" lon="4.95948">
        <ele>180.4</ele>
        <time>2025-11-12T09:24:50.034Z</time>
      </trkpt>
      <trkpt lat="43.7135" lon="4.95951">
        <ele>180.5</ele>
        <time>2025-11-12T09:24:53.034Z</time>
      </trkpt>
      <trkpt lat="43.71352" lon="4.95954">
        <ele>180.5</ele>
        <time>2025-11-12T09:24:56.034Z</time>
      </trkpt>
      <trkpt lat="43.71354" lon="4.95957">
        <ele>180.6</ele>
        <time>2025-11-12T09:24:59.034Z</time>
      </trkpt>
      <trkpt lat="43.71356" lon="4.95959">
        <ele>180.5</ele>
        <time>2025-11-12T09:25:01.034Z</time>
      </trkpt>
      <trkpt lat="43.71358" lon="4.95961">
        <ele>180.2</ele>
        <time>2025-11-12T09:25:03.034Z</time>
      </trkpt>
      <trkpt lat="43.71359" lon="4.95965">
        <ele>180.1</ele>
        <time>2025-11-12T09:25:07.034Z</time>
      </trkpt>
      <trkpt lat="43.7136" lon="4.95968">
        <ele>180.2</ele>
        <time>2025-11-12T09:25:09.034Z</time>
      </trkpt>
      <trkpt lat="43.7136" lon="4.95971">
        <ele>180.2</ele>
        <time>2025-11-12T09:25:12.033Z</time>
      </trkpt>
      <trkpt lat="43.7136" lon="4.95975">
        <ele>180.4</ele>
        <time>2025-11-12T09:25:14.034Z</time>
      </trkpt>
      <trkpt lat="43.7136" lon="4.95979">
        <ele>180.4</ele>
        <time>2025-11-12T09:25:18.033Z</time>
      </trkpt>
      <trkpt lat="43.7136" lon="4.95982">
        <ele>180.6</ele>
        <time>2025-11-12T09:25:21.034Z</time>
      </trkpt>
      <trkpt lat="43.71359" lon="4.95985">
        <ele>181.1</ele>
        <time>2025-11-12T09:25:23.033Z</time>
      </trkpt>
      <trkpt lat="43.71359" lon="4.95989">
        <ele>181.2</ele>
        <time>2025-11-12T09:25:25.034Z</time>
      </trkpt>
      <trkpt lat="43.71359" lon="4.95993">
        <ele>181.3</ele>
        <time>2025-11-12T09:25:28.034Z</time>
      </trkpt>
      <trkpt lat="43.71359" lon="4.95997">
        <ele>181.6</ele>
        <time>2025-11-12T09:25:31.033Z</time>
      </trkpt>
      <trkpt lat="43.71359" lon="4.96001">
        <ele>181.7</ele>
        <time>2025-11-12T09:25:33.034Z</time>
      </trkpt>
      <trkpt lat="43.71359" lon="4.96005">
        <ele>181.7</ele>
        <time>2025-11-12T09:25:35.034Z</time>
      </trkpt>
      <trkpt lat="43.71358" lon="4.96009">
        <ele>181.8</ele>
        <time>2025-11-12T09:25:37.034Z</time>
      </trkpt>
      <trkpt lat="43.71359" lon="4.96012">
        <ele>181.6</ele>
        <time>2025-11-12T09:25:39.034Z</time>
      </trkpt>
      <trkpt lat="43.7136" lon="4.96015">
        <ele>181.4</ele>
        <time>2025-11-12T09:25:42.034Z</time>
      </trkpt>
      <trkpt lat="43.71361" lon="4.96019">
        <ele>181.1</ele>
        <time>2025-11-12T09:25:44.033Z</time>
      </trkpt>
      <trkpt lat="43.71362" lon="4.96023">
        <ele>181</ele>
        <time>2025-11-12T09:25:47.033Z</time>
      </trkpt>
      <trkpt lat="43.71364" lon="4.96026">
        <ele>181.1</ele>
        <time>2025-11-12T09:25:49.034Z</time>
      </trkpt>
      <trkpt lat="43.71365" lon="4.96029">
        <ele>181.2</ele>
        <time>2025-11-12T09:25:51.034Z</time>
      </trkpt>
      <trkpt lat="43.71366" lon="4.96033">
        <ele>181.5</ele>
        <time>2025-11-12T09:25:54.034Z</time>
      </trkpt>
      <trkpt lat="43.71368" lon="4.96036">
        <ele>181.7</ele>
        <time>2025-11-12T09:25:56.033Z</time>
      </trkpt>
      <trkpt lat="43.7137" lon="4.9604">
        <ele>181.9</ele>
        <time>2025-11-12T09:25:59.034Z</time>
      </trkpt>
      <trkpt lat="43.71371" lon="4.96043">
        <ele>182.1</ele>
        <time>2025-11-12T09:26:02.034Z</time>
      </trkpt>
      <trkpt lat="43.71374" lon="4.96046">
        <ele>182.2</ele>
        <time>2025-11-12T09:26:05.034Z</time>
      </trkpt>
      <trkpt lat="43.71375" lon="4.9605">
        <ele>182.3</ele>
        <time>2025-11-12T09:26:08.033Z</time>
      </trkpt>
      <trkpt lat="43.71376" lon="4.96054">
        <ele>182.4</ele>
        <time>2025-11-12T09:26:10.034Z</time>
      </trkpt>
      <trkpt lat="43.71379" lon="4.96057">
        <ele>182.5</ele>
        <time>2025-11-12T09:26:13.034Z</time>
      </trkpt>
      <trkpt lat="43.7138" lon="4.9606">
        <ele>182.7</ele>
        <time>2025-11-12T09:26:16.034Z</time>
      </trkpt>
      <trkpt lat="43.71382" lon="4.96063">
        <ele>182.9</ele>
        <time>2025-11-12T09:26:20.034Z</time>
      </trkpt>
      <trkpt lat="43.71383" lon="4.96067">
        <ele>183.1</ele>
        <time>2025-11-12T09:26:23.033Z</time>
      </trkpt>
      <trkpt lat="43.71385" lon="4.9607">
        <ele>183.3</ele>
        <time>2025-11-12T09:26:25.033Z</time>
      </trkpt>
      <trkpt lat="43.71387" lon="4.96072">
        <ele>183.2</ele>
        <time>2025-11-12T09:26:27.034Z</time>
      </trkpt>
      <trkpt lat="43.71389" lon="4.96074">
        <ele>183.3</ele>
        <time>2025-11-12T09:26:29.034Z</time>
      </trkpt>
      <trkpt lat="43.7139" lon="4.96077">
        <ele>183.6</ele>
        <time>2025-11-12T09:26:32.033Z</time>
      </trkpt>
      <trkpt lat="43.71392" lon="4.9608">
        <ele>183.8</ele>
        <time>2025-11-12T09:26:35.034Z</time>
      </trkpt>
      <trkpt lat="43.71394" lon="4.96082">
        <ele>183.9</ele>
        <time>2025-11-12T09:26:38.034Z</time>
      </trkpt>
      <trkpt lat="43.71396" lon="4.96086">
        <ele>184.2</ele>
        <time>2025-11-12T09:26:41.033Z</time>
      </trkpt>
      <trkpt lat="43.71397" lon="4.96089">
        <ele>184.5</ele>
        <time>2025-11-12T09:26:44.034Z</time>
      </trkpt>
      <trkpt lat="43.71399" lon="4.96091">
        <ele>184.6</ele>
        <time>2025-11-12T09:26:46.034Z</time>
      </trkpt>
      <trkpt lat="43.71402" lon="4.96092">
        <ele>184.7</ele>
        <time>2025-11-12T09:26:48.034Z</time>
      </trkpt>
      <trkpt lat="43.71404" lon="4.96096">
        <ele>184.9</ele>
        <time>2025-11-12T09:26:51.034Z</time>
      </trkpt>
      <trkpt lat="43.71406" lon="4.96098">
        <ele>184.9</ele>
        <time>2025-11-12T09:26:54.034Z</time>
      </trkpt>
      <trkpt lat="43.71408" lon="4.96101">
        <ele>185</ele>
        <time>2025-11-12T09:26:57.034Z</time>
      </trkpt>
      <trkpt lat="43.7141" lon="4.96104">
        <ele>185.1</ele>
        <time>2025-11-12T09:27:00.034Z</time>
      </trkpt>
      <trkpt lat="43.71413" lon="4.96107">
        <ele>185.1</ele>
        <time>2025-11-12T09:27:03.034Z</time>
      </trkpt>
      <trkpt lat="43.71415" lon="4.96109">
        <ele>185</ele>
        <time>2025-11-12T09:27:06.034Z</time>
      </trkpt>
      <trkpt lat="43.71417" lon="4.96111">
        <ele>185</ele>
        <time>2025-11-12T09:27:08.034Z</time>
      </trkpt>
      <trkpt lat="43.71419" lon="4.96114">
        <ele>185.5</ele>
        <time>2025-11-12T09:27:11.034Z</time>
      </trkpt>
      <trkpt lat="43.71421" lon="4.96117">
        <ele>186</ele>
        <time>2025-11-12T09:27:14.034Z</time>
      </trkpt>
      <trkpt lat="43.71423" lon="4.9612">
        <ele>186.4</ele>
        <time>2025-11-12T09:27:17.034Z</time>
      </trkpt>
      <trkpt lat="43.71425" lon="4.96123">
        <ele>186.7</ele>
        <time>2025-11-12T09:27:19.034Z</time>
      </trkpt>
      <trkpt lat="43.71427" lon="4.96126">
        <ele>186.9</ele>
        <time>2025-11-12T09:27:21.033Z</time>
      </trkpt>
      <trkpt lat="43.71429" lon="4.96128">
        <ele>187</ele>
        <time>2025-11-12T09:27:23.034Z</time>
      </trkpt>
      <trkpt lat="43.71431" lon="4.9613">
        <ele>187</ele>
        <time>2025-11-12T09:27:26.033Z</time>
      </trkpt>
      <trkpt lat="43.71434" lon="4.96132">
        <ele>186.9</ele>
        <time>2025-11-12T09:27:29.033Z</time>
      </trkpt>
      <trkpt lat="43.71436" lon="4.96135">
        <ele>186.9</ele>
        <time>2025-11-12T09:27:32.034Z</time>
      </trkpt>
      <trkpt lat="43.71439" lon="4.96138">
        <ele>186.8</ele>
        <time>2025-11-12T09:27:35.034Z</time>
      </trkpt>
      <trkpt lat="43.71441" lon="4.9614">
        <ele>186.7</ele>
        <time>2025-11-12T09:27:37.034Z</time>
      </trkpt>
      <trkpt lat="43.71443" lon="4.96143">
        <ele>186.6</ele>
        <time>2025-11-12T09:27:40.034Z</time>
      </trkpt>
      <trkpt lat="43.71445" lon="4.96147">
        <ele>186.6</ele>
        <time>2025-11-12T09:27:43.033Z</time>
      </trkpt>
      <trkpt lat="43.71447" lon="4.9615">
        <ele>186.9</ele>
        <time>2025-11-12T09:27:46.034Z</time>
      </trkpt>
      <trkpt lat="43.71449" lon="4.96153">
        <ele>187.3</ele>
        <time>2025-11-12T09:27:49.034Z</time>
      </trkpt>
      <trkpt lat="43.7145" lon="4.96157">
        <ele>187.5</ele>
        <time>2025-11-12T09:27:52.034Z</time>
      </trkpt>
      <trkpt lat="43.71452" lon="4.9616">
        <ele>187.7</ele>
        <time>2025-11-12T09:27:55.034Z</time>
      </trkpt>
      <trkpt lat="43.71454" lon="4.96162">
        <ele>187.9</ele>
        <time>2025-11-12T09:27:57.034Z</time>
      </trkpt>
      <trkpt lat="43.71455" lon="4.96165">
        <ele>188</ele>
        <time>2025-11-12T09:27:59.034Z</time>
      </trkpt>
      <trkpt lat="43.71455" lon="4.96169">
        <ele>188.2</ele>
        <time>2025-11-12T09:28:01.034Z</time>
      </trkpt>
      <trkpt lat="43.71457" lon="4.96172">
        <ele>188.5</ele>
        <time>2025-11-12T09:28:04.033Z</time>
      </trkpt>
      <trkpt lat="43.71457" lon="4.96176">
        <ele>188.7</ele>
        <time>2025-11-12T09:28:06.034Z</time>
      </trkpt>
      <trkpt lat="43.71457" lon="4.96179">
        <ele>188.9</ele>
        <time>2025-11-12T09:28:08.034Z</time>
      </trkpt>
      <trkpt lat="43.71459" lon="4.96181">
        <ele>189</ele>
        <time>2025-11-12T09:28:10.034Z</time>
      </trkpt>
      <trkpt lat="43.71459" lon="4.96185">
        <ele>189.2</ele>
        <time>2025-11-12T09:28:13.033Z</time>
      </trkpt>
      <trkpt lat="43.7146" lon="4.96188">
        <ele>189.3</ele>
        <time>2025-11-12T09:28:15.034Z</time>
      </trkpt>
      <trkpt lat="43.71462" lon="4.96192">
        <ele>189.4</ele>
        <time>2025-11-12T09:28:17.034Z</time>
      </trkpt>
      <trkpt lat="43.71462" lon="4.96196">
        <ele>189.6</ele>
        <time>2025-11-12T09:28:20.034Z</time>
      </trkpt>
      <trkpt lat="43.71463" lon="4.962">
        <ele>189.9</ele>
        <time>2025-11-12T09:28:22.034Z</time>
      </trkpt>
      <trkpt lat="43.71464" lon="4.96203">
        <ele>190</ele>
        <time>2025-11-12T09:28:24.034Z</time>
      </trkpt>
      <trkpt lat="43.71465" lon="4.96206">
        <ele>190.1</ele>
        <time>2025-11-12T09:28:28.034Z</time>
      </trkpt>
      <trkpt lat="43.71467" lon="4.96209">
        <ele>190.1</ele>
        <time>2025-11-12T09:28:31.034Z</time>
      </trkpt>
      <trkpt lat="43.71468" lon="4.96213">
        <ele>190.2</ele>
        <time>2025-11-12T09:28:35.033Z</time>
      </trkpt>
      <trkpt lat="43.7147" lon="4.96216">
        <ele>190.1</ele>
        <time>2025-11-12T09:28:38.034Z</time>
      </trkpt>
      <trkpt lat="43.71471" lon="4.96218">
        <ele>189.9</ele>
        <time>2025-11-12T09:28:40.034Z</time>
      </trkpt>
      <trkpt lat="43.71474" lon="4.96219">
        <ele>189.9</ele>
        <time>2025-11-12T09:28:43.034Z</time>
      </trkpt>
      <trkpt lat="43.71476" lon="4.96221">
        <ele>190.1</ele>
        <time>2025-11-12T09:28:45.033Z</time>
      </trkpt>
      <trkpt lat="43.71479" lon="4.96222">
        <ele>190.2</ele>
        <time>2025-11-12T09:28:48.033Z</time>
      </trkpt>
      <trkpt lat="43.71481" lon="4.96222">
        <ele>190.3</ele>
        <time>2025-11-12T09:28:50.034Z</time>
      </trkpt>
      <trkpt lat="43.71484" lon="4.96225">
        <ele>190.5</ele>
        <time>2025-11-12T09:28:55.034Z</time>
      </trkpt>
      <trkpt lat="43.71487" lon="4.96225">
        <ele>190.6</ele>
        <time>2025-11-12T09:28:57.034Z</time>
      </trkpt>
      <trkpt lat="43.7149" lon="4.96224">
        <ele>190.7</ele>
        <time>2025-11-12T09:29:01.034Z</time>
      </trkpt>
      <trkpt lat="43.71492" lon="4.96223">
        <ele>190.7</ele>
        <time>2025-11-12T09:29:05.034Z</time>
      </trkpt>
      <trkpt lat="43.71495" lon="4.96222">
        <ele>190.8</ele>
        <time>2025-11-12T09:29:09.034Z</time>
      </trkpt>
      <trkpt lat="43.71497" lon="4.9622">
        <ele>191.3</ele>
        <time>2025-11-12T09:29:11.033Z</time>
      </trkpt>
      <trkpt lat="43.71499" lon="4.96218">
        <ele>191.8</ele>
        <time>2025-11-12T09:29:14.034Z</time>
      </trkpt>
      <trkpt lat="43.71502" lon="4.96217">
        <ele>192.5</ele>
        <time>2025-11-12T09:29:18.033Z</time>
      </trkpt>
      <trkpt lat="43.71505" lon="4.96217">
        <ele>193</ele>
        <time>2025-11-12T09:29:21.034Z</time>
      </trkpt>
      <trkpt lat="43.71507" lon="4.96216">
        <ele>193.6</ele>
        <time>2025-11-12T09:29:24.034Z</time>
      </trkpt>
      <trkpt lat="43.71509" lon="4.96215">
        <ele>194.2</ele>
        <time>2025-11-12T09:29:27.034Z</time>
      </trkpt>
      <trkpt lat="43.71511" lon="4.96214">
        <ele>194.7</ele>
        <time>2025-11-12T09:29:30.034Z</time>
      </trkpt>
      <trkpt lat="43.71513" lon="4.96212">
        <ele>195.3</ele>
        <time>2025-11-12T09:29:32.034Z</time>
      </trkpt>
      <trkpt lat="43.71516" lon="4.96211">
        <ele>195.9</ele>
        <time>2025-11-12T09:29:35.034Z</time>
      </trkpt>
      <trkpt lat="43.71518" lon="4.96209">
        <ele>196.5</ele>
        <time>2025-11-12T09:29:38.034Z</time>
      </trkpt>
      <trkpt lat="43.7152" lon="4.96206">
        <ele>197.2</ele>
        <time>2025-11-12T09:29:42.034Z</time>
      </trkpt>
      <trkpt lat="43.71523" lon="4.96205">
        <ele>197.6</ele>
        <time>2025-11-12T09:29:46.034Z</time>
      </trkpt>
      <trkpt lat="43.71524" lon="4.96203">
        <ele>198</ele>
        <time>2025-11-12T09:29:50.033Z</time>
      </trkpt>
      <trkpt lat="43.71526" lon="4.962">
        <ele>198.5</ele>
        <time>2025-11-12T09:29:53.034Z</time>
      </trkpt>
      <trkpt lat="43.71525" lon="4.96195">
        <ele>198.7</ele>
        <time>2025-11-12T09:29:57.034Z</time>
      </trkpt>
      <trkpt lat="43.71525" lon="4.96192">
        <ele>199.1</ele>
        <time>2025-11-12T09:30:00.034Z</time>
      </trkpt>
      <trkpt lat="43.71526" lon="4.96189">
        <ele>199.5</ele>
        <time>2025-11-12T09:30:02.033Z</time>
      </trkpt>
      <trkpt lat="43.71526" lon="4.96186">
        <ele>200.1</ele>
        <time>2025-11-12T09:30:05.034Z</time>
      </trkpt>
      <trkpt lat="43.71527" lon="4.96182">
        <ele>200.7</ele>
        <time>2025-11-12T09:30:09.034Z</time>
      </trkpt>
      <trkpt lat="43.71527" lon="4.96178">
        <ele>201.2</ele>
        <time>2025-11-12T09:30:12.034Z</time>
      </trkpt>
      <trkpt lat="43.71528" lon="4.96175">
        <ele>201.8</ele>
        <time>2025-11-12T09:30:15.034Z</time>
      </trkpt>
      <trkpt lat="43.71528" lon="4.96171">
        <ele>202.3</ele>
        <time>2025-11-12T09:30:18.034Z</time>
      </trkpt>
      <trkpt lat="43.71529" lon="4.96168">
        <ele>202.9</ele>
        <time>2025-11-12T09:30:21.034Z</time>
      </trkpt>
      <trkpt lat="43.7153" lon="4.96165">
        <ele>203.5</ele>
        <time>2025-11-12T09:30:25.034Z</time>
      </trkpt>
      <trkpt lat="43.71531" lon="4.96161">
        <ele>203.7</ele>
        <time>2025-11-12T09:30:27.034Z</time>
      </trkpt>
      <trkpt lat="43.7153" lon="4.96158">
        <ele>203.7</ele>
        <time>2025-11-12T09:30:30.034Z</time>
      </trkpt>
      <trkpt lat="43.71531" lon="4.96155">
        <ele>203.9</ele>
        <time>2025-11-12T09:30:32.034Z</time>
      </trkpt>
      <trkpt lat="43.71532" lon="4.96151">
        <ele>204.2</ele>
        <time>2025-11-12T09:30:35.034Z</time>
      </trkpt>
      <trkpt lat="43.71532" lon="4.96146">
        <ele>204.4</ele>
        <time>2025-11-12T09:30:38.034Z</time>
      </trkpt>
      <trkpt lat="43.71532" lon="4.96143">
        <ele>204.7</ele>
        <time>2025-11-12T09:30:41.034Z</time>
      </trkpt>
      <trkpt lat="43.71533" lon="4.96139">
        <ele>205</ele>
        <time>2025-11-12T09:30:44.034Z</time>
      </trkpt>
      <trkpt lat="43.71535" lon="4.96136">
        <ele>205.2</ele>
        <time>2025-11-12T09:30:47.034Z</time>
      </trkpt>
      <trkpt lat="43.71535" lon="4.96132">
        <ele>205.3</ele>
        <time>2025-11-12T09:30:50.034Z</time>
      </trkpt>
      <trkpt lat="43.71537" lon="4.96129">
        <ele>205.5</ele>
        <time>2025-11-12T09:30:53.033Z</time>
      </trkpt>
      <trkpt lat="43.71538" lon="4.96126">
        <ele>205.7</ele>
        <time>2025-11-12T09:30:55.034Z</time>
      </trkpt>
      <trkpt lat="43.7154" lon="4.96123">
        <ele>205.9</ele>
        <time>2025-11-12T09:30:57.034Z</time>
      </trkpt>
      <trkpt lat="43.71542" lon="4.9612">
        <ele>206.2</ele>
        <time>2025-11-12T09:31:00.034Z</time>
      </trkpt>
      <trkpt lat="43.71544" lon="4.96117">
        <ele>206.5</ele>
        <time>2025-11-12T09:31:03.034Z</time>
      </trkpt>
      <trkpt lat="43.71545" lon="4.96114">
        <ele>206.5</ele>
        <time>2025-11-12T09:31:06.034Z</time>
      </trkpt>
      <trkpt lat="43.71547" lon="4.96112">
        <ele>206.7</ele>
        <time>2025-11-12T09:31:09.034Z</time>
      </trkpt>
      <trkpt lat="43.71547" lon="4.96109">
        <ele>206.6</ele>
        <time>2025-11-12T09:31:11.034Z</time>
      </trkpt>
      <trkpt lat="43.71548" lon="4.96106">
        <ele>206.4</ele>
        <time>2025-11-12T09:31:14.034Z</time>
      </trkpt>
      <trkpt lat="43.71549" lon="4.96103">
        <ele>206.3</ele>
        <time>2025-11-12T09:31:16.033Z</time>
      </trkpt>
      <trkpt lat="43.7155" lon="4.961">
        <ele>206.2</ele>
        <time>2025-11-12T09:31:18.034Z</time>
      </trkpt>
      <trkpt lat="43.71551" lon="4.96097">
        <ele>206.2</ele>
        <time>2025-11-12T09:31:20.034Z</time>
      </trkpt>
      <trkpt lat="43.71553" lon="4.96094">
        <ele>206.4</ele>
        <time>2025-11-12T09:31:23.033Z</time>
      </trkpt>
      <trkpt lat="43.71555" lon="4.96091">
        <ele>206.5</ele>
        <time>2025-11-12T09:31:26.034Z</time>
      </trkpt>
      <trkpt lat="43.71557" lon="4.96088">
        <ele>206.6</ele>
        <time>2025-11-12T09:31:29.034Z</time>
      </trkpt>
      <trkpt lat="43.71558" lon="4.96085">
        <ele>206.5</ele>
        <time>2025-11-12T09:31:31.034Z</time>
      </trkpt>
      <trkpt lat="43.71558" lon="4.96081">
        <ele>206.4</ele>
        <time>2025-11-12T09:31:33.033Z</time>
      </trkpt>
      <trkpt lat="43.71559" lon="4.96078">
        <ele>206.5</ele>
        <time>2025-11-12T09:31:35.033Z</time>
      </trkpt>
      <trkpt lat="43.7156" lon="4.96074">
        <ele>206.8</ele>
        <time>2025-11-12T09:31:38.034Z</time>
      </trkpt>
      <trkpt lat="43.71562" lon="4.96072">
        <ele>207</ele>
        <time>2025-11-12T09:31:41.034Z</time>
      </trkpt>
      <trkpt lat="43.71563" lon="4.96069">
        <ele>207.2</ele>
        <time>2025-11-12T09:31:44.034Z</time>
      </trkpt>
      <trkpt lat="43.71565" lon="4.96065">
        <ele>207.4</ele>
        <time>2025-11-12T09:31:47.033Z</time>
      </trkpt>
      <trkpt lat="43.71566" lon="4.96062">
        <ele>207.6</ele>
        <time>2025-11-12T09:31:50.034Z</time>
      </trkpt>
      <trkpt lat="43.71568" lon="4.96059">
        <ele>207.8</ele>
        <time>2025-11-12T09:31:53.034Z</time>
      </trkpt>
      <trkpt lat="43.7157" lon="4.96056">
        <ele>208</ele>
        <time>2025-11-12T09:31:56.033Z</time>
      </trkpt>
      <trkpt lat="43.7157" lon="4.96053">
        <ele>208.1</ele>
        <time>2025-11-12T09:31:58.034Z</time>
      </trkpt>
      <trkpt lat="43.71571" lon="4.9605">
        <ele>208.3</ele>
        <time>2025-11-12T09:32:00.034Z</time>
      </trkpt>
      <trkpt lat="43.71573" lon="4.96048">
        <ele>208.5</ele>
        <time>2025-11-12T09:32:02.033Z</time>
      </trkpt>
      <trkpt lat="43.71575" lon="4.96045">
        <ele>208.7</ele>
        <time>2025-11-12T09:32:05.034Z</time>
      </trkpt>
      <trkpt lat="43.71576" lon="4.96042">
        <ele>208.7</ele>
        <time>2025-11-12T09:32:07.034Z</time>
      </trkpt>
      <trkpt lat="43.71578" lon="4.96039">
        <ele>208.8</ele>
        <time>2025-11-12T09:32:10.034Z</time>
      </trkpt>
      <trkpt lat="43.71579" lon="4.96035">
        <ele>208.9</ele>
        <time>2025-11-12T09:32:13.034Z</time>
      </trkpt>
      <trkpt lat="43.71581" lon="4.96031">
        <ele>208.9</ele>
        <time>2025-11-12T09:32:16.034Z</time>
      </trkpt>
      <trkpt lat="43.71583" lon="4.96029">
        <ele>209</ele>
        <time>2025-11-12T09:32:20.034Z</time>
      </trkpt>
      <trkpt lat="43.71583" lon="4.96025">
        <ele>209</ele>
        <time>2025-11-12T09:32:24.034Z</time>
      </trkpt>
      <trkpt lat="43.71585" lon="4.96023">
        <ele>209</ele>
        <time>2025-11-12T09:32:28.034Z</time>
      </trkpt>
      <trkpt lat="43.71586" lon="4.9602">
        <ele>209</ele>
        <time>2025-11-12T09:32:31.033Z</time>
      </trkpt>
      <trkpt lat="43.71587" lon="4.96016">
        <ele>208.9</ele>
        <time>2025-11-12T09:32:34.034Z</time>
      </trkpt>
      <trkpt lat="43.71589" lon="4.96014">
        <ele>208.8</ele>
        <time>2025-11-12T09:32:37.034Z</time>
      </trkpt>
      <trkpt lat="43.71591" lon="4.96011">
        <ele>208.7</ele>
        <time>2025-11-12T09:32:41.033Z</time>
      </trkpt>
      <trkpt lat="43.71593" lon="4.96009">
        <ele>208.5</ele>
        <time>2025-11-12T09:32:44.034Z</time>
      </trkpt>
      <trkpt lat="43.71595" lon="4.96006">
        <ele>208.4</ele>
        <time>2025-11-12T09:32:47.033Z</time>
      </trkpt>
      <trkpt lat="43.71596" lon="4.96003">
        <ele>208.2</ele>
        <time>2025-11-12T09:32:50.034Z</time>
      </trkpt>
      <trkpt lat="43.71597" lon="4.96">
        <ele>208</ele>
        <time>2025-11-12T09:32:53.034Z</time>
      </trkpt>
      <trkpt lat="43.71599" lon="4.95997">
        <ele>207.9</ele>
        <time>2025-11-12T09:32:56.034Z</time>
      </trkpt>
      <trkpt lat="43.716" lon="4.95994">
        <ele>207.8</ele>
        <time>2025-11-12T09:32:58.034Z</time>
      </trkpt>
      <trkpt lat="43.71601" lon="4.9599">
        <ele>207.6</ele>
        <time>2025-11-12T09:33:01.034Z</time>
      </trkpt>
      <trkpt lat="43.71603" lon="4.95987">
        <ele>207.4</ele>
        <time>2025-11-12T09:33:04.034Z</time>
      </trkpt>
      <trkpt lat="43.71605" lon="4.95984">
        <ele>207.1</ele>
        <time>2025-11-12T09:33:07.034Z</time>
      </trkpt>
      <trkpt lat="43.71606" lon="4.9598">
        <ele>206.9</ele>
        <time>2025-11-12T09:33:10.034Z</time>
      </trkpt>
      <trkpt lat="43.71607" lon="4.95976">
        <ele>206.7</ele>
        <time>2025-11-12T09:33:13.034Z</time>
      </trkpt>
      <trkpt lat="43.71608" lon="4.95973">
        <ele>206.5</ele>
        <time>2025-11-12T09:33:15.033Z</time>
      </trkpt>
      <trkpt lat="43.7161" lon="4.9597">
        <ele>206.2</ele>
        <time>2025-11-12T09:33:18.034Z</time>
      </trkpt>
      <trkpt lat="43.71611" lon="4.95965">
        <ele>206</ele>
        <time>2025-11-12T09:33:21.034Z</time>
      </trkpt>
      <trkpt lat="43.71612" lon="4.95962">
        <ele>206</ele>
        <time>2025-11-12T09:33:23.034Z</time>
      </trkpt>
      <trkpt lat="43.71614" lon="4.95958">
        <ele>206</ele>
        <time>2025-11-12T09:33:26.034Z</time>
      </trkpt>
      <trkpt lat="43.71615" lon="4.95955">
        <ele>205.9</ele>
        <time>2025-11-12T09:33:28.034Z</time>
      </trkpt>
      <trkpt lat="43.71616" lon="4.95951">
        <ele>205.8</ele>
        <time>2025-11-12T09:33:31.034Z</time>
      </trkpt>
      <trkpt lat="43.71617" lon="4.95947">
        <ele>205.6</ele>
        <time>2025-11-12T09:33:34.034Z</time>
      </trkpt>
      <trkpt lat="43.71618" lon="4.95943">
        <ele>205.5</ele>
        <time>2025-11-12T09:33:37.034Z</time>
      </trkpt>
      <trkpt lat="43.71619" lon="4.9594">
        <ele>205.4</ele>
        <time>2025-11-12T09:33:39.034Z</time>
      </trkpt>
      <trkpt lat="43.7162" lon="4.95936">
        <ele>205.3</ele>
        <time>2025-11-12T09:33:42.034Z</time>
      </trkpt>
      <trkpt lat="43.7162" lon="4.95932">
        <ele>205.2</ele>
        <time>2025-11-12T09:33:44.033Z</time>
      </trkpt>
      <trkpt lat="43.71621" lon="4.95929">
        <ele>205.1</ele>
        <time>2025-11-12T09:33:46.034Z</time>
      </trkpt>
      <trkpt lat="43.71622" lon="4.95926">
        <ele>204.9</ele>
        <time>2025-11-12T09:33:49.034Z</time>
      </trkpt>
      <trkpt lat="43.71623" lon="4.95923">
        <ele>204.8</ele>
        <time>2025-11-12T09:33:52.034Z</time>
      </trkpt>
      <trkpt lat="43.71624" lon="4.95919">
        <ele>204.7</ele>
        <time>2025-11-12T09:33:55.034Z</time>
      </trkpt>
      <trkpt lat="43.71624" lon="4.95915">
        <ele>204.5</ele>
        <time>2025-11-12T09:33:57.034Z</time>
      </trkpt>
      <trkpt lat="43.71626" lon="4.95912">
        <ele>204</ele>
        <time>2025-11-12T09:34:01.034Z</time>
      </trkpt>
      <trkpt lat="43.71627" lon="4.95908">
        <ele>203.6</ele>
        <time>2025-11-12T09:34:03.034Z</time>
      </trkpt>
      <trkpt lat="43.71628" lon="4.95904">
        <ele>203.1</ele>
        <time>2025-11-12T09:34:06.034Z</time>
      </trkpt>
      <trkpt lat="43.71628" lon="4.959">
        <ele>202.6</ele>
        <time>2025-11-12T09:34:10.034Z</time>
      </trkpt>
      <trkpt lat="43.71629" lon="4.95895">
        <ele>202</ele>
        <time>2025-11-12T09:34:13.034Z</time>
      </trkpt>
      <trkpt lat="43.71631" lon="4.95892">
        <ele>201.4</ele>
        <time>2025-11-12T09:34:16.034Z</time>
      </trkpt>
      <trkpt lat="43.71632" lon="4.95888">
        <ele>200.6</ele>
        <time>2025-11-12T09:34:19.034Z</time>
      </trkpt>
      <trkpt lat="43.71634" lon="4.95885">
        <ele>200</ele>
        <time>2025-11-12T09:34:21.034Z</time>
      </trkpt>
      <trkpt lat="43.71635" lon="4.95882">
        <ele>199.4</ele>
        <time>2025-11-12T09:34:24.034Z</time>
      </trkpt>
      <trkpt lat="43.71636" lon="4.95878">
        <ele>198.9</ele>
        <time>2025-11-12T09:34:28.034Z</time>
      </trkpt>
      <trkpt lat="43.71637" lon="4.95874">
        <ele>198.4</ele>
        <time>2025-11-12T09:34:31.034Z</time>
      </trkpt>
      <trkpt lat="43.71638" lon="4.95871">
        <ele>198</ele>
        <time>2025-11-12T09:34:34.034Z</time>
      </trkpt>
      <trkpt lat="43.7164" lon="4.95868">
        <ele>197.6</ele>
        <time>2025-11-12T09:34:37.034Z</time>
      </trkpt>
      <trkpt lat="43.71641" lon="4.95864">
        <ele>197.5</ele>
        <time>2025-11-12T09:34:40.034Z</time>
      </trkpt>
      <trkpt lat="43.71643" lon="4.9586">
        <ele>197.4</ele>
        <time>2025-11-12T09:34:43.034Z</time>
      </trkpt>
      <trkpt lat="43.71644" lon="4.95858">
        <ele>197.5</ele>
        <time>2025-11-12T09:34:45.034Z</time>
      </trkpt>
      <trkpt lat="43.71645" lon="4.95854">
        <ele>197.5</ele>
        <time>2025-11-12T09:34:47.034Z</time>
      </trkpt>
      <trkpt lat="43.71646" lon="4.95851">
        <ele>197.5</ele>
        <time>2025-11-12T09:34:50.034Z</time>
      </trkpt>
      <trkpt lat="43.71646" lon="4.95847">
        <ele>197.4</ele>
        <time>2025-11-12T09:34:53.034Z</time>
      </trkpt>
      <trkpt lat="43.71646" lon="4.95843">
        <ele>197.3</ele>
        <time>2025-11-12T09:34:56.034Z</time>
      </trkpt>
      <trkpt lat="43.71647" lon="4.9584">
        <ele>197.2</ele>
        <time>2025-11-12T09:34:59.034Z</time>
      </trkpt>
      <trkpt lat="43.71648" lon="4.95836">
        <ele>197.1</ele>
        <time>2025-11-12T09:35:02.034Z</time>
      </trkpt>
      <trkpt lat="43.71649" lon="4.95832">
        <ele>196.9</ele>
        <time>2025-11-12T09:35:05.034Z</time>
      </trkpt>
      <trkpt lat="43.71651" lon="4.95829">
        <ele>196.6</ele>
        <time>2025-11-12T09:35:08.034Z</time>
      </trkpt>
      <trkpt lat="43.71652" lon="4.95824">
        <ele>196.2</ele>
        <time>2025-11-12T09:35:11.034Z</time>
      </trkpt>
      <trkpt lat="43.71653" lon="4.9582">
        <ele>195.8</ele>
        <time>2025-11-12T09:35:15.034Z</time>
      </trkpt>
      <trkpt lat="43.71654" lon="4.95816">
        <ele>195.4</ele>
        <time>2025-11-12T09:35:18.034Z</time>
      </trkpt>
      <trkpt lat="43.71656" lon="4.95814">
        <ele>195</ele>
        <time>2025-11-12T09:35:21.034Z</time>
      </trkpt>
      <trkpt lat="43.71657" lon="4.9581">
        <ele>194.5</ele>
        <time>2025-11-12T09:35:24.034Z</time>
      </trkpt>
      <trkpt lat="43.71659" lon="4.95807">
        <ele>194</ele>
        <time>2025-11-12T09:35:27.034Z</time>
      </trkpt>
      <trkpt lat="43.7166" lon="4.95803">
        <ele>193.6</ele>
        <time>2025-11-12T09:35:30.034Z</time>
      </trkpt>
      <trkpt lat="43.71662" lon="4.958">
        <ele>193.1</ele>
        <time>2025-11-12T09:35:32.034Z</time>
      </trkpt>
      <trkpt lat="43.71663" lon="4.95796">
        <ele>192.7</ele>
        <time>2025-11-12T09:35:35.034Z</time>
      </trkpt>
      <trkpt lat="43.71664" lon="4.95793">
        <ele>192.4</ele>
        <time>2025-11-12T09:35:38.034Z</time>
      </trkpt>
      <trkpt lat="43.71664" lon="4.95789">
        <ele>192.1</ele>
        <time>2025-11-12T09:35:41.034Z</time>
      </trkpt>
      <trkpt lat="43.71665" lon="4.95786">
        <ele>191.7</ele>
        <time>2025-11-12T09:35:44.034Z</time>
      </trkpt>
      <trkpt lat="43.71667" lon="4.95782">
        <ele>191.3</ele>
        <time>2025-11-12T09:35:47.034Z</time>
      </trkpt>
      <trkpt lat="43.71667" lon="4.95778">
        <ele>191</ele>
        <time>2025-11-12T09:35:50.034Z</time>
      </trkpt>
      <trkpt lat="43.71668" lon="4.95774">
        <ele>190.8</ele>
        <time>2025-11-12T09:35:53.034Z</time>
      </trkpt>
      <trkpt lat="43.71669" lon="4.9577">
        <ele>190.6</ele>
        <time>2025-11-12T09:35:56.034Z</time>
      </trkpt>
      <trkpt lat="43.71672" lon="4.95767">
        <ele>190.4</ele>
        <time>2025-11-12T09:35:59.034Z</time>
      </trkpt>
      <trkpt lat="43.71672" lon="4.95763">
        <ele>190.2</ele>
        <time>2025-11-12T09:36:02.034Z</time>
      </trkpt>
      <trkpt lat="43.71673" lon="4.9576">
        <ele>190</ele>
        <time>2025-11-12T09:36:05.034Z</time>
      </trkpt>
      <trkpt lat="43.71673" lon="4.95756">
        <ele>189.6</ele>
        <time>2025-11-12T09:36:08.034Z</time>
      </trkpt>
      <trkpt lat="43.71674" lon="4.95752">
        <ele>189.3</ele>
        <time>2025-11-12T09:36:11.034Z</time>
      </trkpt>
      <trkpt lat="43.71676" lon="4.95751">
        <ele>189</ele>
        <time>2025-11-12T09:36:13.034Z</time>
      </trkpt>
      <trkpt lat="43.71679" lon="4.95748">
        <ele>188.6</ele>
        <time>2025-11-12T09:36:16.034Z</time>
      </trkpt>
      <trkpt lat="43.7168" lon="4.95744">
        <ele>188.3</ele>
        <time>2025-11-12T09:36:18.034Z</time>
      </trkpt>
      <trkpt lat="43.71682" lon="4.95741">
        <ele>188</ele>
        <time>2025-11-12T09:36:21.034Z</time>
      </trkpt>
      <trkpt lat="43.71684" lon="4.95738">
        <ele>187.7</ele>
        <time>2025-11-12T09:36:24.034Z</time>
      </trkpt>
      <trkpt lat="43.71685" lon="4.95735">
        <ele>187.5</ele>
        <time>2025-11-12T09:36:27.034Z</time>
      </trkpt>
      <trkpt lat="43.71686" lon="4.95732">
        <ele>187.3</ele>
        <time>2025-11-12T09:36:30.034Z</time>
      </trkpt>
      <trkpt lat="43.71687" lon="4.95729">
        <ele>187</ele>
        <time>2025-11-12T09:36:32.034Z</time>
      </trkpt>
      <trkpt lat="43.71688" lon="4.95726">
        <ele>186.9</ele>
        <time>2025-11-12T09:36:35.034Z</time>
      </trkpt>
      <trkpt lat="43.71688" lon="4.95722">
        <ele>186.7</ele>
        <time>2025-11-12T09:36:38.034Z</time>
      </trkpt>
      <trkpt lat="43.71688" lon="4.95719">
        <ele>186.3</ele>
        <time>2025-11-12T09:36:41.034Z</time>
      </trkpt>
      <trkpt lat="43.71691" lon="4.95716">
        <ele>185.6</ele>
        <time>2025-11-12T09:36:44.034Z</time>
      </trkpt>
      <trkpt lat="43.71693" lon="4.95714">
        <ele>185.1</ele>
        <time>2025-11-12T09:36:46.034Z</time>
      </trkpt>
      <trkpt lat="43.71695" lon="4.95712">
        <ele>184.5</ele>
        <time>2025-11-12T09:36:48.034Z</time>
      </trkpt>
      <trkpt lat="43.71697" lon="4.9571">
        <ele>184.2</ele>
        <time>2025-11-12T09:36:50.034Z</time>
      </trkpt>
      <trkpt lat="43.71699" lon="4.95708">
        <ele>183.9</ele>
        <time>2025-11-12T09:36:53.034Z</time>
      </trkpt>
      <trkpt lat="43.71702" lon="4.95706">
        <ele>183.7</ele>
        <time>2025-11-12T09:36:56.034Z</time>
      </trkpt>
      <trkpt lat="43.71704" lon="4.95704">
        <ele>183.6</ele>
        <time>2025-11-12T09:36:58.034Z</time>
      </trkpt>
      <trkpt lat="43.71706" lon="4.95701">
        <ele>183.3</ele>
        <time>2025-11-12T09:37:01.034Z</time>
      </trkpt>
      <trkpt lat="43.71708" lon="4.95699">
        <ele>183.3</ele>
        <time>2025-11-12T09:37:03.034Z</time>
      </trkpt>
      <trkpt lat="43.7171" lon="4.95697">
        <ele>183.3</ele>
        <time>2025-11-12T09:37:06.034Z</time>
      </trkpt>
      <trkpt lat="43.71711" lon="4.95694">
        <ele>183.2</ele>
        <time>2025-11-12T09:37:08.034Z</time>
      </trkpt>
      <trkpt lat="43.71714" lon="4.95691">
        <ele>183.3</ele>
        <time>2025-11-12T09:37:10.034Z</time>
      </trkpt>
      <trkpt lat="43.71715" lon="4.95688">
        <ele>183.2</ele>
        <time>2025-11-12T09:37:13.034Z</time>
      </trkpt>
      <trkpt lat="43.71717" lon="4.95684">
        <ele>183.2</ele>
        <time>2025-11-12T09:37:16.034Z</time>
      </trkpt>
      <trkpt lat="43.71718" lon="4.95681">
        <ele>183.2</ele>
        <time>2025-11-12T09:37:19.034Z</time>
      </trkpt>
      <trkpt lat="43.71718" lon="4.95677">
        <ele>183.1</ele>
        <time>2025-11-12T09:37:31.034Z</time>
      </trkpt>
      <trkpt lat="43.71719" lon="4.95674">
        <ele>183.1</ele>
        <time>2025-11-12T09:37:33.034Z</time>
      </trkpt>
      <trkpt lat="43.71721" lon="4.95671">
        <ele>183.1</ele>
        <time>2025-11-12T09:37:35.034Z</time>
      </trkpt>
      <trkpt lat="43.71721" lon="4.95668">
        <ele>183</ele>
        <time>2025-11-12T09:37:38.034Z</time>
      </trkpt>
      <trkpt lat="43.71722" lon="4.95665">
        <ele>183</ele>
        <time>2025-11-12T09:37:40.034Z</time>
      </trkpt>
      <trkpt lat="43.71723" lon="4.95662">
        <ele>183.1</ele>
        <time>2025-11-12T09:37:42.034Z</time>
      </trkpt>
      <trkpt lat="43.71724" lon="4.95659">
        <ele>183.2</ele>
        <time>2025-11-12T09:37:44.034Z</time>
      </trkpt>
      <trkpt lat="43.71726" lon="4.95656">
        <ele>183.4</ele>
        <time>2025-11-12T09:37:46.035Z</time>
      </trkpt>
      <trkpt lat="43.71727" lon="4.95654">
        <ele>183.5</ele>
        <time>2025-11-12T09:37:49.034Z</time>
      </trkpt>
      <trkpt lat="43.71728" lon="4.9565">
        <ele>183.7</ele>
        <time>2025-11-12T09:37:52.034Z</time>
      </trkpt>
      <trkpt lat="43.7173" lon="4.95648">
        <ele>183.9</ele>
        <time>2025-11-12T09:37:54.034Z</time>
      </trkpt>
      <trkpt lat="43.71733" lon="4.95644">
        <ele>184.1</ele>
        <time>2025-11-12T09:37:57.034Z</time>
      </trkpt>
      <trkpt lat="43.71734" lon="4.95641">
        <ele>184.3</ele>
        <time>2025-11-12T09:38:00.034Z</time>
      </trkpt>
      <trkpt lat="43.71736" lon="4.95639">
        <ele>184.5</ele>
        <time>2025-11-12T09:38:02.034Z</time>
      </trkpt>
      <trkpt lat="43.71738" lon="4.95635">
        <ele>184.7</ele>
        <time>2025-11-12T09:38:05.034Z</time>
      </trkpt>
      <trkpt lat="43.7174" lon="4.95633">
        <ele>184.9</ele>
        <time>2025-11-12T09:38:08.034Z</time>
      </trkpt>
      <trkpt lat="43.71741" lon="4.9563">
        <ele>185</ele>
        <time>2025-11-12T09:38:10.034Z</time>
      </trkpt>
      <trkpt lat="43.71743" lon="4.95626">
        <ele>185.2</ele>
        <time>2025-11-12T09:38:13.034Z</time>
      </trkpt>
      <trkpt lat="43.71744" lon="4.95624">
        <ele>185.4</ele>
        <time>2025-11-12T09:38:15.034Z</time>
      </trkpt>
      <trkpt lat="43.71746" lon="4.9562">
        <ele>185.5</ele>
        <time>2025-11-12T09:38:18.034Z</time>
      </trkpt>
      <trkpt lat="43.71747" lon="4.95616">
        <ele>185.6</ele>
        <time>2025-11-12T09:38:21.034Z</time>
      </trkpt>
      <trkpt lat="43.71748" lon="4.95614">
        <ele>185.8</ele>
        <time>2025-11-12T09:38:23.035Z</time>
      </trkpt>
      <trkpt lat="43.71749" lon="4.9561">
        <ele>185.9</ele>
        <time>2025-11-12T09:38:26.034Z</time>
      </trkpt>
      <trkpt lat="43.71751" lon="4.95607">
        <ele>186.1</ele>
        <time>2025-11-12T09:38:29.034Z</time>
      </trkpt>
      <trkpt lat="43.71753" lon="4.95605">
        <ele>186.4</ele>
        <time>2025-11-12T09:38:31.034Z</time>
      </trkpt>
      <trkpt lat="43.71754" lon="4.95601">
        <ele>186.5</ele>
        <time>2025-11-12T09:38:34.034Z</time>
      </trkpt>
      <trkpt lat="43.71756" lon="4.95598">
        <ele>186.8</ele>
        <time>2025-11-12T09:38:38.034Z</time>
      </trkpt>
      <trkpt lat="43.71759" lon="4.95595">
        <ele>187.3</ele>
        <time>2025-11-12T09:38:41.034Z</time>
      </trkpt>
      <trkpt lat="43.7176" lon="4.95592">
        <ele>187.4</ele>
        <time>2025-11-12T09:38:43.034Z</time>
      </trkpt>
      <trkpt lat="43.71762" lon="4.9559">
        <ele>187.7</ele>
        <time>2025-11-12T09:38:46.034Z</time>
      </trkpt>
      <trkpt lat="43.71764" lon="4.95588">
        <ele>188</ele>
        <time>2025-11-12T09:38:49.034Z</time>
      </trkpt>
      <trkpt lat="43.71766" lon="4.95585">
        <ele>188.4</ele>
        <time>2025-11-12T09:38:52.034Z</time>
      </trkpt>
      <trkpt lat="43.71769" lon="4.95584">
        <ele>188.7</ele>
        <time>2025-11-12T09:38:55.034Z</time>
      </trkpt>
      <trkpt lat="43.71772" lon="4.95583">
        <ele>189.1</ele>
        <time>2025-11-12T09:38:58.034Z</time>
      </trkpt>
      <trkpt lat="43.71774" lon="4.9558">
        <ele>189.3</ele>
        <time>2025-11-12T09:39:01.034Z</time>
      </trkpt>
      <trkpt lat="43.71776" lon="4.95578">
        <ele>189.6</ele>
        <time>2025-11-12T09:39:04.034Z</time>
      </trkpt>
      <trkpt lat="43.71778" lon="4.95576">
        <ele>189.8</ele>
        <time>2025-11-12T09:39:07.034Z</time>
      </trkpt>
      <trkpt lat="43.71781" lon="4.95575">
        <ele>190.1</ele>
        <time>2025-11-12T09:39:10.034Z</time>
      </trkpt>
      <trkpt lat="43.71783" lon="4.95573">
        <ele>190.4</ele>
        <time>2025-11-12T09:39:12.035Z</time>
      </trkpt>
      <trkpt lat="43.71785" lon="4.9557">
        <ele>190.6</ele>
        <time>2025-11-12T09:39:15.034Z</time>
      </trkpt>
      <trkpt lat="43.71788" lon="4.95568">
        <ele>190.9</ele>
        <time>2025-11-12T09:39:18.034Z</time>
      </trkpt>
      <trkpt lat="43.71789" lon="4.95566">
        <ele>191</ele>
        <time>2025-11-12T09:39:20.034Z</time>
      </trkpt>
      <trkpt lat="43.71791" lon="4.95563">
        <ele>191.2</ele>
        <time>2025-11-12T09:39:23.034Z</time>
      </trkpt>
      <trkpt lat="43.71793" lon="4.9556">
        <ele>191.4</ele>
        <time>2025-11-12T09:39:26.035Z</time>
      </trkpt>
      <trkpt lat="43.71795" lon="4.95557">
        <ele>191.6</ele>
        <time>2025-11-12T09:39:28.034Z</time>
      </trkpt>
      <trkpt lat="43.71796" lon="4.95554">
        <ele>191.6</ele>
        <time>2025-11-12T09:39:31.035Z</time>
      </trkpt>
      <trkpt lat="43.71797" lon="4.95551">
        <ele>191.9</ele>
        <time>2025-11-12T09:39:34.034Z</time>
      </trkpt>
      <trkpt lat="43.718" lon="4.95549">
        <ele>192.2</ele>
        <time>2025-11-12T09:39:36.034Z</time>
      </trkpt>
      <trkpt lat="43.71801" lon="4.95547">
        <ele>192.5</ele>
        <time>2025-11-12T09:39:38.035Z</time>
      </trkpt>
      <trkpt lat="43.71802" lon="4.95543">
        <ele>192.6</ele>
        <time>2025-11-12T09:39:41.035Z</time>
      </trkpt>
      <trkpt lat="43.71803" lon="4.9554">
        <ele>192.7</ele>
        <time>2025-11-12T09:39:44.034Z</time>
      </trkpt>
      <trkpt lat="43.71804" lon="4.95536">
        <ele>192.9</ele>
        <time>2025-11-12T09:39:47.034Z</time>
      </trkpt>
      <trkpt lat="43.71806" lon="4.95534">
        <ele>193.1</ele>
        <time>2025-11-12T09:39:50.035Z</time>
      </trkpt>
      <trkpt lat="43.71807" lon="4.9553">
        <ele>193.1</ele>
        <time>2025-11-12T09:39:53.035Z</time>
      </trkpt>
      <trkpt lat="43.71809" lon="4.95528">
        <ele>193.2</ele>
        <time>2025-11-12T09:39:56.034Z</time>
      </trkpt>
      <trkpt lat="43.71811" lon="4.95526">
        <ele>193.3</ele>
        <time>2025-11-12T09:39:59.034Z</time>
      </trkpt>
      <trkpt lat="43.71812" lon="4.95523">
        <ele>193.4</ele>
        <time>2025-11-12T09:40:02.034Z</time>
      </trkpt>
      <trkpt lat="43.71814" lon="4.95519">
        <ele>193.4</ele>
        <time>2025-11-12T09:40:05.035Z</time>
      </trkpt>
      <trkpt lat="43.71816" lon="4.95516">
        <ele>193.4</ele>
        <time>2025-11-12T09:40:08.034Z</time>
      </trkpt>
      <trkpt lat="43.71817" lon="4.95512">
        <ele>193.3</ele>
        <time>2025-11-12T09:40:11.034Z</time>
      </trkpt>
      <trkpt lat="43.71818" lon="4.95509">
        <ele>193.3</ele>
        <time>2025-11-12T09:40:13.034Z</time>
      </trkpt>
      <trkpt lat="43.71819" lon="4.95506">
        <ele>193.2</ele>
        <time>2025-11-12T09:40:16.034Z</time>
      </trkpt>
      <trkpt lat="43.71821" lon="4.95503">
        <ele>193.1</ele>
        <time>2025-11-12T09:40:19.034Z</time>
      </trkpt>
      <trkpt lat="43.71823" lon="4.95501">
        <ele>193.1</ele>
        <time>2025-11-12T09:40:21.034Z</time>
      </trkpt>
      <trkpt lat="43.71826" lon="4.95498">
        <ele>192.8</ele>
        <time>2025-11-12T09:40:23.034Z</time>
      </trkpt>
      <trkpt lat="43.71828" lon="4.95495">
        <ele>192.5</ele>
        <time>2025-11-12T09:40:26.034Z</time>
      </trkpt>
      <trkpt lat="43.7183" lon="4.95493">
        <ele>192.3</ele>
        <time>2025-11-12T09:40:28.034Z</time>
      </trkpt>
      <trkpt lat="43.71832" lon="4.95489">
        <ele>191.9</ele>
        <time>2025-11-12T09:40:31.034Z</time>
      </trkpt>
      <trkpt lat="43.71835" lon="4.95487">
        <ele>191.6</ele>
        <time>2025-11-12T09:40:35.034Z</time>
      </trkpt>
      <trkpt lat="43.71837" lon="4.95484">
        <ele>191.5</ele>
        <time>2025-11-12T09:40:38.034Z</time>
      </trkpt>
      <trkpt lat="43.71839" lon="4.95482">
        <ele>191.4</ele>
        <time>2025-11-12T09:40:41.034Z</time>
      </trkpt>
      <trkpt lat="43.71841" lon="4.9548">
        <ele>191.2</ele>
        <time>2025-11-12T09:40:44.035Z</time>
      </trkpt>
      <trkpt lat="43.71843" lon="4.95476">
        <ele>190.8</ele>
        <time>2025-11-12T09:40:47.034Z</time>
      </trkpt>
      <trkpt lat="43.71845" lon="4.95472">
        <ele>190.4</ele>
        <time>2025-11-12T09:40:50.034Z</time>
      </trkpt>
      <trkpt lat="43.71847" lon="4.9547">
        <ele>190.3</ele>
        <time>2025-11-12T09:40:53.034Z</time>
      </trkpt>
      <trkpt lat="43.7185" lon="4.95467">
        <ele>190.1</ele>
        <time>2025-11-12T09:40:56.034Z</time>
      </trkpt>
      <trkpt lat="43.71851" lon="4.95464">
        <ele>189.8</ele>
        <time>2025-11-12T09:40:58.034Z</time>
      </trkpt>
      <trkpt lat="43.71853" lon="4.95462">
        <ele>189.7</ele>
        <time>2025-11-12T09:41:00.034Z</time>
      </trkpt>
      <trkpt lat="43.71855" lon="4.95458">
        <ele>189.4</ele>
        <time>2025-11-12T09:41:04.034Z</time>
      </trkpt>
      <trkpt lat="43.71857" lon="4.95456">
        <ele>189.1</ele>
        <time>2025-11-12T09:41:07.034Z</time>
      </trkpt>
      <trkpt lat="43.71859" lon="4.95453">
        <ele>188.9</ele>
        <time>2025-11-12T09:41:09.034Z</time>
      </trkpt>
      <trkpt lat="43.71861" lon="4.95451">
        <ele>188.7</ele>
        <time>2025-11-12T09:41:11.035Z</time>
      </trkpt>
      <trkpt lat="43.71863" lon="4.95447">
        <ele>188.5</ele>
        <time>2025-11-12T09:41:14.034Z</time>
      </trkpt>
      <trkpt lat="43.71864" lon="4.95445">
        <ele>188.3</ele>
        <time>2025-11-12T09:41:16.034Z</time>
      </trkpt>
      <trkpt lat="43.71866" lon="4.95441">
        <ele>188.1</ele>
        <time>2025-11-12T09:41:19.034Z</time>
      </trkpt>
      <trkpt lat="43.71868" lon="4.95438">
        <ele>188</ele>
        <time>2025-11-12T09:41:22.035Z</time>
      </trkpt>
      <trkpt lat="43.71869" lon="4.95435">
        <ele>187.9</ele>
        <time>2025-11-12T09:41:24.034Z</time>
      </trkpt>
      <trkpt lat="43.7187" lon="4.95432">
        <ele>187.6</ele>
        <time>2025-11-12T09:41:26.035Z</time>
      </trkpt>
      <trkpt lat="43.71872" lon="4.95429">
        <ele>187.4</ele>
        <time>2025-11-12T09:41:29.034Z</time>
      </trkpt>
      <trkpt lat="43.71874" lon="4.95426">
        <ele>187.4</ele>
        <time>2025-11-12T09:41:32.034Z</time>
      </trkpt>
      <trkpt lat="43.71875" lon="4.95424">
        <ele>187.3</ele>
        <time>2025-11-12T09:41:34.034Z</time>
      </trkpt>
      <trkpt lat="43.71877" lon="4.95421">
        <ele>187.2</ele>
        <time>2025-11-12T09:41:36.034Z</time>
      </trkpt>
      <trkpt lat="43.71879" lon="4.95419">
        <ele>187.1</ele>
        <time>2025-11-12T09:41:38.034Z</time>
      </trkpt>
      <trkpt lat="43.71881" lon="4.95417">
        <ele>187.2</ele>
        <time>2025-11-12T09:41:41.034Z</time>
      </trkpt>
      <trkpt lat="43.71884" lon="4.95414">
        <ele>187.2</ele>
        <time>2025-11-12T09:41:44.034Z</time>
      </trkpt>
      <trkpt lat="43.71887" lon="4.95412">
        <ele>187.4</ele>
        <time>2025-11-12T09:41:47.034Z</time>
      </trkpt>
      <trkpt lat="43.71889" lon="4.9541">
        <ele>187.5</ele>
        <time>2025-11-12T09:41:50.034Z</time>
      </trkpt>
      <trkpt lat="43.71892" lon="4.95406">
        <ele>187.5</ele>
        <time>2025-11-12T09:41:53.034Z</time>
      </trkpt>
      <trkpt lat="43.71894" lon="4.95404">
        <ele>187.5</ele>
        <time>2025-11-12T09:41:55.034Z</time>
      </trkpt>
      <trkpt lat="43.71896" lon="4.95402">
        <ele>187.4</ele>
        <time>2025-11-12T09:41:57.034Z</time>
      </trkpt>
      <trkpt lat="43.71898" lon="4.95399">
        <ele>187.3</ele>
        <time>2025-11-12T09:42:00.034Z</time>
      </trkpt>
      <trkpt lat="43.719" lon="4.95397">
        <ele>187.2</ele>
        <time>2025-11-12T09:42:02.034Z</time>
      </trkpt>
      <trkpt lat="43.71903" lon="4.95396">
        <ele>187.2</ele>
        <time>2025-11-12T09:42:05.034Z</time>
      </trkpt>
      <trkpt lat="43.71906" lon="4.95394">
        <ele>187.2</ele>
        <time>2025-11-12T09:42:08.034Z</time>
      </trkpt>
      <trkpt lat="43.71908" lon="4.95391">
        <ele>186.9</ele>
        <time>2025-11-12T09:42:12.034Z</time>
      </trkpt>
      <trkpt lat="43.71911" lon="4.95389">
        <ele>186.8</ele>
        <time>2025-11-12T09:42:14.034Z</time>
      </trkpt>
      <trkpt lat="43.71913" lon="4.95386">
        <ele>186.6</ele>
        <time>2025-11-12T09:42:17.034Z</time>
      </trkpt>
      <trkpt lat="43.71916" lon="4.95385">
        <ele>186.5</ele>
        <time>2025-11-12T09:42:20.035Z</time>
      </trkpt>
      <trkpt lat="43.71919" lon="4.95384">
        <ele>186.4</ele>
        <time>2025-11-12T09:42:22.034Z</time>
      </trkpt>
      <trkpt lat="43.71921" lon="4.95383">
        <ele>186.3</ele>
        <time>2025-11-12T09:42:24.034Z</time>
      </trkpt>
      <trkpt lat="43.71924" lon="4.95383">
        <ele>186.2</ele>
        <time>2025-11-12T09:42:26.034Z</time>
      </trkpt>
      <trkpt lat="43.71927" lon="4.95382">
        <ele>186</ele>
        <time>2025-11-12T09:42:29.034Z</time>
      </trkpt>
      <trkpt lat="43.7193" lon="4.95381">
        <ele>185.8</ele>
        <time>2025-11-12T09:42:32.034Z</time>
      </trkpt>
      <trkpt lat="43.71933" lon="4.95382">
        <ele>185.8</ele>
        <time>2025-11-12T09:42:36.035Z</time>
      </trkpt>
      <trkpt lat="43.71936" lon="4.95382">
        <ele>185.7</ele>
        <time>2025-11-12T09:42:39.034Z</time>
      </trkpt>
      <trkpt lat="43.71939" lon="4.95382">
        <ele>185.7</ele>
        <time>2025-11-12T09:42:42.034Z</time>
      </trkpt>
      <trkpt lat="43.71942" lon="4.95381">
        <ele>185.5</ele>
        <time>2025-11-12T09:42:45.035Z</time>
      </trkpt>
      <trkpt lat="43.71944" lon="4.95379">
        <ele>185.3</ele>
        <time>2025-11-12T09:42:48.034Z</time>
      </trkpt>
      <trkpt lat="43.71946" lon="4.95377">
        <ele>185.4</ele>
        <time>2025-11-12T09:42:50.035Z</time>
      </trkpt>
      <trkpt lat="43.71947" lon="4.95375">
        <ele>185.7</ele>
        <time>2025-11-12T09:42:52.034Z</time>
      </trkpt>
      <trkpt lat="43.71948" lon="4.95371">
        <ele>185.9</ele>
        <time>2025-11-12T09:42:56.034Z</time>
      </trkpt>
      <trkpt lat="43.71949" lon="4.95367">
        <ele>185.8</ele>
        <time>2025-11-12T09:42:59.035Z</time>
      </trkpt>
      <trkpt lat="43.71948" lon="4.95363">
        <ele>185.3</ele>
        <time>2025-11-12T09:43:04.034Z</time>
      </trkpt>
      <trkpt lat="43.71947" lon="4.9536">
        <ele>184.9</ele>
        <time>2025-11-12T09:43:07.034Z</time>
      </trkpt>
      <trkpt lat="43.71947" lon="4.95356">
        <ele>184.8</ele>
        <time>2025-11-12T09:43:09.034Z</time>
      </trkpt>
      <trkpt lat="43.71947" lon="4.95353">
        <ele>184.6</ele>
        <time>2025-11-12T09:43:11.034Z</time>
      </trkpt>
      <trkpt lat="43.71945" lon="4.95349">
        <ele>183.9</ele>
        <time>2025-11-12T09:43:16.034Z</time>
      </trkpt>
      <trkpt lat="43.71945" lon="4.95345">
        <ele>183.5</ele>
        <time>2025-11-12T09:43:19.034Z</time>
      </trkpt>
      <trkpt lat="43.71944" lon="4.95342">
        <ele>183.3</ele>
        <time>2025-11-12T09:43:21.035Z</time>
      </trkpt>
      <trkpt lat="43.71944" lon="4.95338">
        <ele>183.1</ele>
        <time>2025-11-12T09:43:25.035Z</time>
      </trkpt>
      <trkpt lat="43.71943" lon="4.95335">
        <ele>183</ele>
        <time>2025-11-12T09:43:27.034Z</time>
      </trkpt>
      <trkpt lat="43.71941" lon="4.95331">
        <ele>182.8</ele>
        <time>2025-11-12T09:43:31.035Z</time>
      </trkpt>
      <trkpt lat="43.7194" lon="4.95328">
        <ele>182.6</ele>
        <time>2025-11-12T09:43:33.034Z</time>
      </trkpt>
      <trkpt lat="43.71939" lon="4.95325">
        <ele>182.4</ele>
        <time>2025-11-12T09:43:35.034Z</time>
      </trkpt>
      <trkpt lat="43.71938" lon="4.95321">
        <ele>182.1</ele>
        <time>2025-11-12T09:43:37.034Z</time>
      </trkpt>
      <trkpt lat="43.71937" lon="4.95317">
        <ele>181.8</ele>
        <time>2025-11-12T09:43:39.035Z</time>
      </trkpt>
      <trkpt lat="43.71936" lon="4.95313">
        <ele>181.5</ele>
        <time>2025-11-12T09:43:41.034Z</time>
      </trkpt>
      <trkpt lat="43.71936" lon="4.9531">
        <ele>181.3</ele>
        <time>2025-11-12T09:43:44.035Z</time>
      </trkpt>
      <trkpt lat="43.71935" lon="4.95305">
        <ele>181</ele>
        <time>2025-11-12T09:43:47.035Z</time>
      </trkpt>
      <trkpt lat="43.71935" lon="4.95302">
        <ele>180.8</ele>
        <time>2025-11-12T09:43:49.034Z</time>
      </trkpt>
      <trkpt lat="43.71934" lon="4.95299">
        <ele>180.6</ele>
        <time>2025-11-12T09:43:51.035Z</time>
      </trkpt>
      <trkpt lat="43.71934" lon="4.95295">
        <ele>180.3</ele>
        <time>2025-11-12T09:43:54.035Z</time>
      </trkpt>
      <trkpt lat="43.71933" lon="4.95291">
        <ele>180.1</ele>
        <time>2025-11-12T09:43:56.034Z</time>
      </trkpt>
      <trkpt lat="43.71933" lon="4.95288">
        <ele>179.8</ele>
        <time>2025-11-12T09:43:59.034Z</time>
      </trkpt>
      <trkpt lat="43.71933" lon="4.95285">
        <ele>179.6</ele>
        <time>2025-11-12T09:44:01.034Z</time>
      </trkpt>
      <trkpt lat="43.71933" lon="4.95281">
        <ele>179.4</ele>
        <time>2025-11-12T09:44:04.034Z</time>
      </trkpt>
      <trkpt lat="43.71932" lon="4.95277">
        <ele>179.2</ele>
        <time>2025-11-12T09:44:06.034Z</time>
      </trkpt>
      <trkpt lat="43.71931" lon="4.95273">
        <ele>178.9</ele>
        <time>2025-11-12T09:44:09.034Z</time>
      </trkpt>
      <trkpt lat="43.7193" lon="4.95268">
        <ele>178.8</ele>
        <time>2025-11-12T09:44:13.034Z</time>
      </trkpt>
      <trkpt lat="43.7193" lon="4.95265">
        <ele>178.7</ele>
        <time>2025-11-12T09:44:15.034Z</time>
      </trkpt>
      <trkpt lat="43.71931" lon="4.95261">
        <ele>178.7</ele>
        <time>2025-11-12T09:44:18.034Z</time>
      </trkpt>
      <trkpt lat="43.71931" lon="4.95256">
        <ele>178.8</ele>
        <time>2025-11-12T09:44:21.034Z</time>
      </trkpt>
      <trkpt lat="43.71933" lon="4.95253">
        <ele>179</ele>
        <time>2025-11-12T09:44:23.034Z</time>
      </trkpt>
      <trkpt lat="43.71935" lon="4.9525">
        <ele>179.2</ele>
        <time>2025-11-12T09:44:25.035Z</time>
      </trkpt>
      <trkpt lat="43.71936" lon="4.95246">
        <ele>179.2</ele>
        <time>2025-11-12T09:44:28.035Z</time>
      </trkpt>
      <trkpt lat="43.71938" lon="4.95242">
        <ele>179.3</ele>
        <time>2025-11-12T09:44:31.035Z</time>
      </trkpt>
      <trkpt lat="43.71939" lon="4.95239">
        <ele>179.3</ele>
        <time>2025-11-12T09:44:34.034Z</time>
      </trkpt>
      <trkpt lat="43.7194" lon="4.95236">
        <ele>179.3</ele>
        <time>2025-11-12T09:44:37.034Z</time>
      </trkpt>
      <trkpt lat="43.71941" lon="4.95233">
        <ele>179.2</ele>
        <time>2025-11-12T09:44:40.034Z</time>
      </trkpt>
      <trkpt lat="43.71941" lon="4.95229">
        <ele>178.9</ele>
        <time>2025-11-12T09:44:42.035Z</time>
      </trkpt>
      <trkpt lat="43.71941" lon="4.95225">
        <ele>178.8</ele>
        <time>2025-11-12T09:44:44.034Z</time>
      </trkpt>
      <trkpt lat="43.71942" lon="4.95222">
        <ele>178.6</ele>
        <time>2025-11-12T09:44:46.034Z</time>
      </trkpt>
      <trkpt lat="43.71945" lon="4.95221">
        <ele>178.9</ele>
        <time>2025-11-12T09:44:52.034Z</time>
      </trkpt>
      <trkpt lat="43.71946" lon="4.95217">
        <ele>179</ele>
        <time>2025-11-12T09:45:01.035Z</time>
      </trkpt>
      <trkpt lat="43.71948" lon="4.95215">
        <ele>179.3</ele>
        <time>2025-11-12T09:45:04.034Z</time>
      </trkpt>
      <trkpt lat="43.71949" lon="4.95212">
        <ele>179.3</ele>
        <time>2025-11-12T09:45:06.034Z</time>
      </trkpt>
      <trkpt lat="43.71951" lon="4.95209">
        <ele>179.4</ele>
        <time>2025-11-12T09:45:09.035Z</time>
      </trkpt>
      <trkpt lat="43.71951" lon="4.95205">
        <ele>179.2</ele>
        <time>2025-11-12T09:45:18.034Z</time>
      </trkpt>
      <trkpt lat="43.71952" lon="4.95202">
        <ele>179.1</ele>
        <time>2025-11-12T09:45:21.034Z</time>
      </trkpt>
      <trkpt lat="43.71952" lon="4.95198">
        <ele>178.9</ele>
        <time>2025-11-12T09:45:25.034Z</time>
      </trkpt>
      <trkpt lat="43.71953" lon="4.95194">
        <ele>178.7</ele>
        <time>2025-11-12T09:45:29.034Z</time>
      </trkpt>
      <trkpt lat="43.71953" lon="4.9519">
        <ele>178.1</ele>
        <time>2025-11-12T09:45:32.034Z</time>
      </trkpt>
      <trkpt lat="43.71953" lon="4.95186">
        <ele>177.6</ele>
        <time>2025-11-12T09:45:36.034Z</time>
      </trkpt>
      <trkpt lat="43.71953" lon="4.95183">
        <ele>177</ele>
        <time>2025-11-12T09:45:40.034Z</time>
      </trkpt>
      <trkpt lat="43.71953" lon="4.95179">
        <ele>176.5</ele>
        <time>2025-11-12T09:45:43.034Z</time>
      </trkpt>
      <trkpt lat="43.71953" lon="4.95175">
        <ele>175.9</ele>
        <time>2025-11-12T09:45:45.034Z</time>
      </trkpt>
      <trkpt lat="43.71953" lon="4.9517">
        <ele>175</ele>
        <time>2025-11-12T09:45:49.035Z</time>
      </trkpt>
      <trkpt lat="43.71952" lon="4.95166">
        <ele>174.4</ele>
        <time>2025-11-12T09:45:52.035Z</time>
      </trkpt>
      <trkpt lat="43.71953" lon="4.95162">
        <ele>174.1</ele>
        <time>2025-11-12T09:45:55.034Z</time>
      </trkpt>
      <trkpt lat="43.71954" lon="4.95159">
        <ele>173.9</ele>
        <time>2025-11-12T09:45:57.034Z</time>
      </trkpt>
      <trkpt lat="43.71954" lon="4.95155">
        <ele>173.5</ele>
        <time>2025-11-12T09:45:59.034Z</time>
      </trkpt>
      <trkpt lat="43.71956" lon="4.95152">
        <ele>173.4</ele>
        <time>2025-11-12T09:46:03.034Z</time>
      </trkpt>
      <trkpt lat="43.71958" lon="4.9515">
        <ele>173.3</ele>
        <time>2025-11-12T09:46:06.035Z</time>
      </trkpt>
      <trkpt lat="43.7196" lon="4.95146">
        <ele>173</ele>
        <time>2025-11-12T09:46:09.034Z</time>
      </trkpt>
      <trkpt lat="43.71962" lon="4.95144">
        <ele>172.9</ele>
        <time>2025-11-12T09:46:12.035Z</time>
      </trkpt>
      <trkpt lat="43.71964" lon="4.9514">
        <ele>172.6</ele>
        <time>2025-11-12T09:46:15.034Z</time>
      </trkpt>
      <trkpt lat="43.71967" lon="4.95138">
        <ele>172.5</ele>
        <time>2025-11-12T09:46:18.035Z</time>
      </trkpt>
      <trkpt lat="43.71969" lon="4.95136">
        <ele>172.5</ele>
        <time>2025-11-12T09:46:21.035Z</time>
      </trkpt>
      <trkpt lat="43.71972" lon="4.95135">
        <ele>172.6</ele>
        <time>2025-11-12T09:46:24.034Z</time>
      </trkpt>
      <trkpt lat="43.71975" lon="4.95134">
        <ele>172.8</ele>
        <time>2025-11-12T09:46:27.034Z</time>
      </trkpt>
      <trkpt lat="43.71977" lon="4.95134">
        <ele>172.9</ele>
        <time>2025-11-12T09:46:30.034Z</time>
      </trkpt>
      <trkpt lat="43.7198" lon="4.95132">
        <ele>173</ele>
        <time>2025-11-12T09:46:33.034Z</time>
      </trkpt>
      <trkpt lat="43.71983" lon="4.95132">
        <ele>173.2</ele>
        <time>2025-11-12T09:46:37.035Z</time>
      </trkpt>
      <trkpt lat="43.71986" lon="4.95131">
        <ele>173.4</ele>
        <time>2025-11-12T09:46:40.034Z</time>
      </trkpt>
      <trkpt lat="43.71988" lon="4.95129">
        <ele>173.2</ele>
        <time>2025-11-12T09:46:43.034Z</time>
      </trkpt>
      <trkpt lat="43.7199" lon="4.95128">
        <ele>173.2</ele>
        <time>2025-11-12T09:46:45.034Z</time>
      </trkpt>
      <trkpt lat="43.71993" lon="4.95126">
        <ele>173.1</ele>
        <time>2025-11-12T09:46:47.034Z</time>
      </trkpt>
      <trkpt lat="43.71995" lon="4.95124">
        <ele>172.9</ele>
        <time>2025-11-12T09:46:50.035Z</time>
      </trkpt>
      <trkpt lat="43.71997" lon="4.95121">
        <ele>172.5</ele>
        <time>2025-11-12T09:46:53.034Z</time>
      </trkpt>
      <trkpt lat="43.71999" lon="4.95118">
        <ele>172.1</ele>
        <time>2025-11-12T09:46:56.034Z</time>
      </trkpt>
      <trkpt lat="43.72002" lon="4.95116">
        <ele>172</ele>
        <time>2025-11-12T09:46:59.034Z</time>
      </trkpt>
      <trkpt lat="43.72004" lon="4.95113">
        <ele>171.8</ele>
        <time>2025-11-12T09:47:02.034Z</time>
      </trkpt>
      <trkpt lat="43.72007" lon="4.95112">
        <ele>171.9</ele>
        <time>2025-11-12T09:47:04.034Z</time>
      </trkpt>
      <trkpt lat="43.72009" lon="4.9511">
        <ele>171.9</ele>
        <time>2025-11-12T09:47:07.035Z</time>
      </trkpt>
      <trkpt lat="43.72011" lon="4.95109">
        <ele>171.9</ele>
        <time>2025-11-12T09:47:09.035Z</time>
      </trkpt>
      <trkpt lat="43.72014" lon="4.95107">
        <ele>171.9</ele>
        <time>2025-11-12T09:47:12.035Z</time>
      </trkpt>
      <trkpt lat="43.72016" lon="4.95106">
        <ele>171.9</ele>
        <time>2025-11-12T09:47:14.035Z</time>
      </trkpt>
      <trkpt lat="43.72019" lon="4.95104">
        <ele>171.6</ele>
        <time>2025-11-12T09:47:17.034Z</time>
      </trkpt>
      <trkpt lat="43.72021" lon="4.95102">
        <ele>171.6</ele>
        <time>2025-11-12T09:47:20.034Z</time>
      </trkpt>
      <trkpt lat="43.72023" lon="4.951">
        <ele>171.4</ele>
        <time>2025-11-12T09:47:23.034Z</time>
      </trkpt>
      <trkpt lat="43.72025" lon="4.95098">
        <ele>171.1</ele>
        <time>2025-11-12T09:47:25.035Z</time>
      </trkpt>
      <trkpt lat="43.72028" lon="4.95096">
        <ele>170.8</ele>
        <time>2025-11-12T09:47:28.035Z</time>
      </trkpt>
      <trkpt lat="43.7203" lon="4.95094">
        <ele>170.5</ele>
        <time>2025-11-12T09:47:31.034Z</time>
      </trkpt>
      <trkpt lat="43.72032" lon="4.95094">
        <ele>171</ele>
        <time>2025-11-12T09:47:35.034Z</time>
      </trkpt>
      <trkpt lat="43.72035" lon="4.95094">
        <ele>171.5</ele>
        <time>2025-11-12T09:47:38.034Z</time>
      </trkpt>
      <trkpt lat="43.72038" lon="4.95093">
        <ele>171.8</ele>
        <time>2025-11-12T09:47:41.035Z</time>
      </trkpt>
      <trkpt lat="43.7204" lon="4.95092">
        <ele>171.8</ele>
        <time>2025-11-12T09:47:43.034Z</time>
      </trkpt>
      <trkpt lat="43.72042" lon="4.95089">
        <ele>171.6</ele>
        <time>2025-11-12T09:47:46.034Z</time>
      </trkpt>
      <trkpt lat="43.72044" lon="4.95087">
        <ele>171.4</ele>
        <time>2025-11-12T09:47:48.034Z</time>
      </trkpt>
      <trkpt lat="43.72047" lon="4.95084">
        <ele>171</ele>
        <time>2025-11-12T09:47:51.035Z</time>
      </trkpt>
      <trkpt lat="43.7205" lon="4.95082">
        <ele>171.1</ele>
        <time>2025-11-12T09:47:54.034Z</time>
      </trkpt>
      <trkpt lat="43.72052" lon="4.95081">
        <ele>171.3</ele>
        <time>2025-11-12T09:47:56.034Z</time>
      </trkpt>
      <trkpt lat="43.72055" lon="4.95079">
        <ele>171.6</ele>
        <time>2025-11-12T09:47:58.034Z</time>
      </trkpt>
      <trkpt lat="43.72057" lon="4.95078">
        <ele>172</ele>
        <time>2025-11-12T09:48:02.035Z</time>
      </trkpt>
      <trkpt lat="43.72056" lon="4.95082">
        <ele>171.9</ele>
        <time>2025-11-12T09:48:21.034Z</time>
      </trkpt>
      <trkpt lat="43.72052" lon="4.95083">
        <ele>171.4</ele>
        <time>2025-11-12T09:48:30.035Z</time>
      </trkpt>
      <trkpt lat="43.7205" lon="4.95084">
        <ele>171.3</ele>
        <time>2025-11-12T09:48:33.035Z</time>
      </trkpt>
      <trkpt lat="43.72047" lon="4.95085">
        <ele>171.2</ele>
        <time>2025-11-12T09:48:35.035Z</time>
      </trkpt>
      <trkpt lat="43.72044" lon="4.95085">
        <ele>170.8</ele>
        <time>2025-11-12T09:48:38.035Z</time>
      </trkpt>
      <trkpt lat="43.72042" lon="4.95086">
        <ele>170.8</ele>
        <time>2025-11-12T09:48:40.034Z</time>
      </trkpt>
      <trkpt lat="43.7204" lon="4.95089">
        <ele>171.2</ele>
        <time>2025-11-12T09:48:43.035Z</time>
      </trkpt>
      <trkpt lat="43.72037" lon="4.95091">
        <ele>171.2</ele>
        <time>2025-11-12T09:48:47.034Z</time>
      </trkpt>
      <trkpt lat="43.72034" lon="4.95092">
        <ele>171</ele>
        <time>2025-11-12T09:48:49.034Z</time>
      </trkpt>
      <trkpt lat="43.72032" lon="4.95094">
        <ele>171</ele>
        <time>2025-11-12T09:48:51.034Z</time>
      </trkpt>
      <trkpt lat="43.7203" lon="4.95095">
        <ele>170.8</ele>
        <time>2025-11-12T09:48:53.035Z</time>
      </trkpt>
      <trkpt lat="43.72027" lon="4.95097">
        <ele>170.9</ele>
        <time>2025-11-12T09:48:56.035Z</time>
      </trkpt>
      <trkpt lat="43.72025" lon="4.95099">
        <ele>171.1</ele>
        <time>2025-11-12T09:48:58.034Z</time>
      </trkpt>
      <trkpt lat="43.72023" lon="4.951">
        <ele>171.3</ele>
        <time>2025-11-12T09:49:00.034Z</time>
      </trkpt>
      <trkpt lat="43.7202" lon="4.95102">
        <ele>171.4</ele>
        <time>2025-11-12T09:49:03.034Z</time>
      </trkpt>
      <trkpt lat="43.72018" lon="4.95104">
        <ele>171.6</ele>
        <time>2025-11-12T09:49:05.035Z</time>
      </trkpt>
      <trkpt lat="43.72016" lon="4.95105">
        <ele>171.6</ele>
        <time>2025-11-12T09:49:07.035Z</time>
      </trkpt>
      <trkpt lat="43.72013" lon="4.95108">
        <ele>171.9</ele>
        <time>2025-11-12T09:49:10.034Z</time>
      </trkpt>
      <trkpt lat="43.72011" lon="4.9511">
        <ele>172</ele>
        <time>2025-11-12T09:49:12.034Z</time>
      </trkpt>
      <trkpt lat="43.72008" lon="4.95111">
        <ele>171.8</ele>
        <time>2025-11-12T09:49:15.034Z</time>
      </trkpt>
      <trkpt lat="43.72005" lon="4.95112">
        <ele>171.7</ele>
        <time>2025-11-12T09:49:17.034Z</time>
      </trkpt>
      <trkpt lat="43.72003" lon="4.95113">
        <ele>171.6</ele>
        <time>2025-11-12T09:49:19.034Z</time>
      </trkpt>
      <trkpt lat="43.72" lon="4.95115">
        <ele>171.7</ele>
        <time>2025-11-12T09:49:22.035Z</time>
      </trkpt>
      <trkpt lat="43.71998" lon="4.95118">
        <ele>172.1</ele>
        <time>2025-11-12T09:49:25.035Z</time>
      </trkpt>
      <trkpt lat="43.71996" lon="4.9512">
        <ele>172.4</ele>
        <time>2025-11-12T09:49:28.035Z</time>
      </trkpt>
      <trkpt lat="43.71994" lon="4.95124">
        <ele>172.9</ele>
        <time>2025-11-12T09:49:32.034Z</time>
      </trkpt>
      <trkpt lat="43.71993" lon="4.95128">
        <ele>173.4</ele>
        <time>2025-11-12T09:49:35.035Z</time>
      </trkpt>
      <trkpt lat="43.71992" lon="4.9513">
        <ele>173.8</ele>
        <time>2025-11-12T09:49:44.034Z</time>
      </trkpt>
      <trkpt lat="43.7199" lon="4.95133">
        <ele>173.9</ele>
        <time>2025-11-12T09:49:58.034Z</time>
      </trkpt>
      <trkpt lat="43.71987" lon="4.95132">
        <ele>173.6</ele>
        <time>2025-11-12T09:50:00.034Z</time>
      </trkpt>
      <trkpt lat="43.71984" lon="4.95132">
        <ele>173.4</ele>
        <time>2025-11-12T09:50:03.034Z</time>
      </trkpt>
      <trkpt lat="43.71982" lon="4.95133">
        <ele>173.3</ele>
        <time>2025-11-12T09:50:05.035Z</time>
      </trkpt>
      <trkpt lat="43.71979" lon="4.95134">
        <ele>173.1</ele>
        <time>2025-11-12T09:50:08.034Z</time>
      </trkpt>
      <trkpt lat="43.71976" lon="4.95135">
        <ele>172.9</ele>
        <time>2025-11-12T09:50:10.034Z</time>
      </trkpt>
      <trkpt lat="43.71973" lon="4.95136">
        <ele>172.8</ele>
        <time>2025-11-12T09:50:13.034Z</time>
      </trkpt>
      <trkpt lat="43.7197" lon="4.95137">
        <ele>172.6</ele>
        <time>2025-11-12T09:50:15.035Z</time>
      </trkpt>
      <trkpt lat="43.71967" lon="4.95138">
        <ele>172.6</ele>
        <time>2025-11-12T09:50:18.035Z</time>
      </trkpt>
      <trkpt lat="43.71965" lon="4.9514">
        <ele>172.6</ele>
        <time>2025-11-12T09:50:21.034Z</time>
      </trkpt>
      <trkpt lat="43.71962" lon="4.95143">
        <ele>172.9</ele>
        <time>2025-11-12T09:50:24.035Z</time>
      </trkpt>
      <trkpt lat="43.71961" lon="4.95145">
        <ele>172.9</ele>
        <time>2025-11-12T09:50:26.034Z</time>
      </trkpt>
      <trkpt lat="43.7196" lon="4.95148">
        <ele>173.3</ele>
        <time>2025-11-12T09:50:29.035Z</time>
      </trkpt>
      <trkpt lat="43.71957" lon="4.95151">
        <ele>173.4</ele>
        <time>2025-11-12T09:50:33.034Z</time>
      </trkpt>
      <trkpt lat="43.71956" lon="4.95155">
        <ele>173.7</ele>
        <time>2025-11-12T09:50:35.035Z</time>
      </trkpt>
      <trkpt lat="43.71954" lon="4.95158">
        <ele>173.8</ele>
        <time>2025-11-12T09:50:37.034Z</time>
      </trkpt>
      <trkpt lat="43.71953" lon="4.95162">
        <ele>174</ele>
        <time>2025-11-12T09:50:40.035Z</time>
      </trkpt>
      <trkpt lat="43.71952" lon="4.95167">
        <ele>174.4</ele>
        <time>2025-11-12T09:50:43.035Z</time>
      </trkpt>
      <trkpt lat="43.71952" lon="4.9517">
        <ele>174.9</ele>
        <time>2025-11-12T09:50:46.034Z</time>
      </trkpt>
      <trkpt lat="43.71952" lon="4.95174">
        <ele>175.5</ele>
        <time>2025-11-12T09:50:49.034Z</time>
      </trkpt>
      <trkpt lat="43.71953" lon="4.95178">
        <ele>176.2</ele>
        <time>2025-11-12T09:50:52.035Z</time>
      </trkpt>
      <trkpt lat="43.71953" lon="4.95181">
        <ele>176.8</ele>
        <time>2025-11-12T09:50:56.034Z</time>
      </trkpt>
      <trkpt lat="43.71953" lon="4.95184">
        <ele>177.2</ele>
        <time>2025-11-12T09:50:59.034Z</time>
      </trkpt>
      <trkpt lat="43.71952" lon="4.95188">
        <ele>177.6</ele>
        <time>2025-11-12T09:51:02.034Z</time>
      </trkpt>
      <trkpt lat="43.71952" lon="4.95191">
        <ele>178.1</ele>
        <time>2025-11-12T09:51:05.035Z</time>
      </trkpt>
      <trkpt lat="43.71952" lon="4.95194">
        <ele>178.5</ele>
        <time>2025-11-12T09:51:07.035Z</time>
      </trkpt>
      <trkpt lat="43.71952" lon="4.95198">
        <ele>178.9</ele>
        <time>2025-11-12T09:51:10.034Z</time>
      </trkpt>
      <trkpt lat="43.71953" lon="4.95202">
        <ele>179.3</ele>
        <time>2025-11-12T09:51:13.034Z</time>
      </trkpt>
      <trkpt lat="43.71952" lon="4.95206">
        <ele>179.5</ele>
        <time>2025-11-12T09:51:16.034Z</time>
      </trkpt>
      <trkpt lat="43.71951" lon="4.9521">
        <ele>179.4</ele>
        <time>2025-11-12T09:51:19.034Z</time>
      </trkpt>
      <trkpt lat="43.71948" lon="4.95212">
        <ele>179.1</ele>
        <time>2025-11-12T09:51:21.034Z</time>
      </trkpt>
      <trkpt lat="43.71946" lon="4.95211">
        <ele>178.6</ele>
        <time>2025-11-12T09:51:24.035Z</time>
      </trkpt>
      <trkpt lat="43.71944" lon="4.95209">
        <ele>178.1</ele>
        <time>2025-11-12T09:51:30.034Z</time>
      </trkpt>
      <trkpt lat="43.71943" lon="4.95206">
        <ele>177.6</ele>
        <time>2025-11-12T09:51:34.035Z</time>
      </trkpt>
      <trkpt lat="43.71941" lon="4.95202">
        <ele>177.2</ele>
        <time>2025-11-12T09:51:37.035Z</time>
      </trkpt>
      <trkpt lat="43.7194" lon="4.95199">
        <ele>176.9</ele>
        <time>2025-11-12T09:51:41.034Z</time>
      </trkpt>
      <trkpt lat="43.71939" lon="4.95195">
        <ele>176.6</ele>
        <time>2025-11-12T09:51:45.034Z</time>
      </trkpt>
      <trkpt lat="43.71937" lon="4.95192">
        <ele>176.1</ele>
        <time>2025-11-12T09:51:48.034Z</time>
      </trkpt>
      <trkpt lat="43.71935" lon="4.95189">
        <ele>175.6</ele>
        <time>2025-11-12T09:51:52.034Z</time>
      </trkpt>
      <trkpt lat="43.71933" lon="4.95187">
        <ele>175.2</ele>
        <time>2025-11-12T09:51:55.034Z</time>
      </trkpt>
      <trkpt lat="43.71931" lon="4.95183">
        <ele>174.6</ele>
        <time>2025-11-12T09:51:58.034Z</time>
      </trkpt>
      <trkpt lat="43.71929" lon="4.95182">
        <ele>174.3</ele>
        <time>2025-11-12T09:52:01.035Z</time>
      </trkpt>
      <trkpt lat="43.71927" lon="4.95179">
        <ele>173.8</ele>
        <time>2025-11-12T09:52:04.035Z</time>
      </trkpt>
      <trkpt lat="43.71925" lon="4.95177">
        <ele>173.5</ele>
        <time>2025-11-12T09:52:07.034Z</time>
      </trkpt>
      <trkpt lat="43.71923" lon="4.95173">
        <ele>173</ele>
        <time>2025-11-12T09:52:10.034Z</time>
      </trkpt>
      <trkpt lat="43.71922" lon="4.9517">
        <ele>172.6</ele>
        <time>2025-11-12T09:52:13.035Z</time>
      </trkpt>
      <trkpt lat="43.71921" lon="4.95166">
        <ele>172.1</ele>
        <time>2025-11-12T09:52:16.034Z</time>
      </trkpt>
      <trkpt lat="43.7192" lon="4.95163">
        <ele>171.9</ele>
        <time>2025-11-12T09:52:20.035Z</time>
      </trkpt>
      <trkpt lat="43.71919" lon="4.9516">
        <ele>171.6</ele>
        <time>2025-11-12T09:52:23.035Z</time>
      </trkpt>
      <trkpt lat="43.71917" lon="4.95157">
        <ele>171.3</ele>
        <time>2025-11-12T09:52:26.034Z</time>
      </trkpt>
      <trkpt lat="43.71916" lon="4.95153">
        <ele>171</ele>
        <time>2025-11-12T09:52:29.034Z</time>
      </trkpt>
      <trkpt lat="43.71916" lon="4.9515">
        <ele>170.7</ele>
        <time>2025-11-12T09:52:33.034Z</time>
      </trkpt>
      <trkpt lat="43.71915" lon="4.95146">
        <ele>170.4</ele>
        <time>2025-11-12T09:52:36.034Z</time>
      </trkpt>
      <trkpt lat="43.71914" lon="4.95142">
        <ele>170</ele>
        <time>2025-11-12T09:52:40.035Z</time>
      </trkpt>
      <trkpt lat="43.71913" lon="4.95138">
        <ele>169.7</ele>
        <time>2025-11-12T09:52:44.034Z</time>
      </trkpt>
      <trkpt lat="43.71914" lon="4.95135">
        <ele>169.5</ele>
        <time>2025-11-12T09:52:47.034Z</time>
      </trkpt>
      <trkpt lat="43.71914" lon="4.95132">
        <ele>169.2</ele>
        <time>2025-11-12T09:52:49.035Z</time>
      </trkpt>
      <trkpt lat="43.71913" lon="4.95128">
        <ele>169</ele>
        <time>2025-11-12T09:52:52.034Z</time>
      </trkpt>
      <trkpt lat="43.71912" lon="4.95124">
        <ele>168.6</ele>
        <time>2025-11-12T09:52:55.034Z</time>
      </trkpt>
      <trkpt lat="43.71912" lon="4.9512">
        <ele>168.3</ele>
        <time>2025-11-12T09:52:58.035Z</time>
      </trkpt>
      <trkpt lat="43.71913" lon="4.95116">
        <ele>168</ele>
        <time>2025-11-12T09:53:02.035Z</time>
      </trkpt>
      <trkpt lat="43.71913" lon="4.95112">
        <ele>167.8</ele>
        <time>2025-11-12T09:53:05.035Z</time>
      </trkpt>
      <trkpt lat="43.71913" lon="4.95109">
        <ele>167.6</ele>
        <time>2025-11-12T09:53:08.034Z</time>
      </trkpt>
      <trkpt lat="43.71912" lon="4.95105">
        <ele>167.5</ele>
        <time>2025-11-12T09:53:11.034Z</time>
      </trkpt>
      <trkpt lat="43.71912" lon="4.95102">
        <ele>167.3</ele>
        <time>2025-11-12T09:53:14.034Z</time>
      </trkpt>
      <trkpt lat="43.71912" lon="4.95098">
        <ele>167.2</ele>
        <time>2025-11-12T09:53:19.034Z</time>
      </trkpt>
      <trkpt lat="43.71911" lon="4.95094">
        <ele>167</ele>
        <time>2025-11-12T09:53:23.035Z</time>
      </trkpt>
      <trkpt lat="43.71911" lon="4.9509">
        <ele>166.8</ele>
        <time>2025-11-12T09:53:26.034Z</time>
      </trkpt>
      <trkpt lat="43.71911" lon="4.95086">
        <ele>166.7</ele>
        <time>2025-11-12T09:53:29.034Z</time>
      </trkpt>
      <trkpt lat="43.71911" lon="4.95083">
        <ele>166.6</ele>
        <time>2025-11-12T09:53:32.034Z</time>
      </trkpt>
      <trkpt lat="43.71912" lon="4.95079">
        <ele>166.4</ele>
        <time>2025-11-12T09:53:35.035Z</time>
      </trkpt>
      <trkpt lat="43.71912" lon="4.95074">
        <ele>166.1</ele>
        <time>2025-11-12T09:53:38.035Z</time>
      </trkpt>
      <trkpt lat="43.71912" lon="4.95071">
        <ele>165.9</ele>
        <time>2025-11-12T09:53:41.034Z</time>
      </trkpt>
      <trkpt lat="43.71912" lon="4.95066">
        <ele>165.6</ele>
        <time>2025-11-12T09:53:44.034Z</time>
      </trkpt>
      <trkpt lat="43.71912" lon="4.95062">
        <ele>165.4</ele>
        <time>2025-11-12T09:53:47.034Z</time>
      </trkpt>
      <trkpt lat="43.71913" lon="4.95059">
        <ele>165.2</ele>
        <time>2025-11-12T09:53:51.034Z</time>
      </trkpt>
      <trkpt lat="43.71913" lon="4.95055">
        <ele>165.1</ele>
        <time>2025-11-12T09:53:53.035Z</time>
      </trkpt>
      <trkpt lat="43.71913" lon="4.95051">
        <ele>165.7</ele>
        <time>2025-11-12T09:53:56.034Z</time>
      </trkpt>
      <trkpt lat="43.71914" lon="4.95048">
        <ele>166</ele>
        <time>2025-11-12T09:53:58.034Z</time>
      </trkpt>
      <trkpt lat="43.71915" lon="4.95045">
        <ele>166.3</ele>
        <time>2025-11-12T09:54:00.034Z</time>
      </trkpt>
      <trkpt lat="43.71916" lon="4.9504">
        <ele>166.9</ele>
        <time>2025-11-12T09:54:04.034Z</time>
      </trkpt>
      <trkpt lat="43.71918" lon="4.95037">
        <ele>167.1</ele>
        <time>2025-11-12T09:54:08.034Z</time>
      </trkpt>
      <trkpt lat="43.7192" lon="4.95033">
        <ele>167.6</ele>
        <time>2025-11-12T09:54:10.034Z</time>
      </trkpt>
      <trkpt lat="43.7192" lon="4.9503">
        <ele>168</ele>
        <time>2025-11-12T09:54:16.034Z</time>
      </trkpt>
      <trkpt lat="43.7192" lon="4.95027">
        <ele>168.4</ele>
        <time>2025-11-12T09:54:18.034Z</time>
      </trkpt>
      <trkpt lat="43.71921" lon="4.95024">
        <ele>169.2</ele>
        <time>2025-11-12T09:54:22.035Z</time>
      </trkpt>
      <trkpt lat="43.71924" lon="4.95023">
        <ele>169.6</ele>
        <time>2025-11-12T09:54:25.034Z</time>
      </trkpt>
      <trkpt lat="43.71926" lon="4.95023">
        <ele>169.7</ele>
        <time>2025-11-12T09:54:28.034Z</time>
      </trkpt>
      <trkpt lat="43.71929" lon="4.95022">
        <ele>169.9</ele>
        <time>2025-11-12T09:54:34.035Z</time>
      </trkpt>
      <trkpt lat="43.71932" lon="4.95021">
        <ele>170.3</ele>
        <time>2025-11-12T09:54:37.034Z</time>
      </trkpt>
      <trkpt lat="43.71934" lon="4.95019">
        <ele>170.7</ele>
        <time>2025-11-12T09:54:40.034Z</time>
      </trkpt>
      <trkpt lat="43.71937" lon="4.95018">
        <ele>170.9</ele>
        <time>2025-11-12T09:54:43.035Z</time>
      </trkpt>
      <trkpt lat="43.71938" lon="4.95015">
        <ele>171.4</ele>
        <time>2025-11-12T09:54:46.035Z</time>
      </trkpt>
      <trkpt lat="43.71939" lon="4.95012">
        <ele>171.7</ele>
        <time>2025-11-12T09:54:51.034Z</time>
      </trkpt>
      <trkpt lat="43.71941" lon="4.95009">
        <ele>172.1</ele>
        <time>2025-11-12T09:54:54.034Z</time>
      </trkpt>
      <trkpt lat="43.71941" lon="4.95006">
        <ele>172.5</ele>
        <time>2025-11-12T09:54:59.034Z</time>
      </trkpt>
      <trkpt lat="43.71942" lon="4.95002">
        <ele>173</ele>
        <time>2025-11-12T09:55:02.034Z</time>
      </trkpt>
      <trkpt lat="43.71943" lon="4.95">
        <ele>173.2</ele>
        <time>2025-11-12T09:55:07.034Z</time>
      </trkpt>
      <trkpt lat="43.71945" lon="4.94997">
        <ele>173.7</ele>
        <time>2025-11-12T09:55:10.034Z</time>
      </trkpt>
      <trkpt lat="43.71948" lon="4.94995">
        <ele>174.2</ele>
        <time>2025-11-12T09:55:14.035Z</time>
      </trkpt>
      <trkpt lat="43.7195" lon="4.94992">
        <ele>174.7</ele>
        <time>2025-11-12T09:55:17.034Z</time>
      </trkpt>
      <trkpt lat="43.71951" lon="4.94989">
        <ele>175.5</ele>
        <time>2025-11-12T09:55:21.034Z</time>
      </trkpt>
      <trkpt lat="43.71954" lon="4.94987">
        <ele>175.9</ele>
        <time>2025-11-12T10:00:06.034Z</time>
      </trkpt>
      <trkpt lat="43.71957" lon="4.94986">
        <ele>176.1</ele>
        <time>2025-11-12T10:00:09.034Z</time>
      </trkpt>
      <trkpt lat="43.71959" lon="4.94984">
        <ele>176.4</ele>
        <time>2025-11-12T10:00:11.034Z</time>
      </trkpt>
      <trkpt lat="43.71963" lon="4.94982">
        <ele>176.7</ele>
        <time>2025-11-12T10:00:14.034Z</time>
      </trkpt>
      <trkpt lat="43.71966" lon="4.9498">
        <ele>176.9</ele>
        <time>2025-11-12T10:00:17.034Z</time>
      </trkpt>
      <trkpt lat="43.71968" lon="4.94979">
        <ele>177.1</ele>
        <time>2025-11-12T10:00:19.035Z</time>
      </trkpt>
      <trkpt lat="43.71971" lon="4.94978">
        <ele>177.2</ele>
        <time>2025-11-12T10:00:21.035Z</time>
      </trkpt>
      <trkpt lat="43.71974" lon="4.94977">
        <ele>177.2</ele>
        <time>2025-11-12T10:00:23.034Z</time>
      </trkpt>
      <trkpt lat="43.71978" lon="4.94978">
        <ele>177</ele>
        <time>2025-11-12T10:00:25.035Z</time>
      </trkpt>
      <trkpt lat="43.7198" lon="4.94978">
        <ele>176.9</ele>
        <time>2025-11-12T10:00:27.035Z</time>
      </trkpt>
      <trkpt lat="43.71983" lon="4.94978">
        <ele>176.9</ele>
        <time>2025-11-12T10:00:29.034Z</time>
      </trkpt>
      <trkpt lat="43.71985" lon="4.94977">
        <ele>176.9</ele>
        <time>2025-11-12T10:00:32.035Z</time>
      </trkpt>
      <trkpt lat="43.71988" lon="4.94976">
        <ele>177</ele>
        <time>2025-11-12T10:00:35.034Z</time>
      </trkpt>
      <trkpt lat="43.71991" lon="4.94974">
        <ele>177.1</ele>
        <time>2025-11-12T10:00:38.035Z</time>
      </trkpt>
      <trkpt lat="43.71994" lon="4.94973">
        <ele>177.1</ele>
        <time>2025-11-12T10:00:41.035Z</time>
      </trkpt>
      <trkpt lat="43.71996" lon="4.94972">
        <ele>177.2</ele>
        <time>2025-11-12T10:00:43.035Z</time>
      </trkpt>
      <trkpt lat="43.72" lon="4.94971">
        <ele>177.2</ele>
        <time>2025-11-12T10:00:46.034Z</time>
      </trkpt>
      <trkpt lat="43.72003" lon="4.9497">
        <ele>177</ele>
        <time>2025-11-12T10:00:49.034Z</time>
      </trkpt>
      <trkpt lat="43.72006" lon="4.94968">
        <ele>177</ele>
        <time>2025-11-12T10:00:52.034Z</time>
      </trkpt>
      <trkpt lat="43.72009" lon="4.94967">
        <ele>177</ele>
        <time>2025-11-12T10:00:55.034Z</time>
      </trkpt>
      <trkpt lat="43.72011" lon="4.94966">
        <ele>176.9</ele>
        <time>2025-11-12T10:00:57.035Z</time>
      </trkpt>
      <trkpt lat="43.72014" lon="4.94965">
        <ele>176.8</ele>
        <time>2025-11-12T10:01:01.035Z</time>
      </trkpt>
      <trkpt lat="43.72017" lon="4.94964">
        <ele>176.7</ele>
        <time>2025-11-12T10:01:05.034Z</time>
      </trkpt>
      <trkpt lat="43.72019" lon="4.94963">
        <ele>176.7</ele>
        <time>2025-11-12T10:01:07.034Z</time>
      </trkpt>
      <trkpt lat="43.72022" lon="4.94962">
        <ele>176.5</ele>
        <time>2025-11-12T10:01:09.035Z</time>
      </trkpt>
      <trkpt lat="43.72025" lon="4.94961">
        <ele>176.4</ele>
        <time>2025-11-12T10:01:12.035Z</time>
      </trkpt>
      <trkpt lat="43.72028" lon="4.9496">
        <ele>176.4</ele>
        <time>2025-11-12T10:01:15.035Z</time>
      </trkpt>
      <trkpt lat="43.72031" lon="4.94958">
        <ele>176.4</ele>
        <time>2025-11-12T10:01:18.034Z</time>
      </trkpt>
      <trkpt lat="43.72033" lon="4.94956">
        <ele>176.4</ele>
        <time>2025-11-12T10:01:20.035Z</time>
      </trkpt>
      <trkpt lat="43.72035" lon="4.94955">
        <ele>176.4</ele>
        <time>2025-11-12T10:01:22.034Z</time>
      </trkpt>
      <trkpt lat="43.72037" lon="4.94953">
        <ele>176.5</ele>
        <time>2025-11-12T10:01:24.034Z</time>
      </trkpt>
      <trkpt lat="43.7204" lon="4.94951">
        <ele>176.5</ele>
        <time>2025-11-12T10:01:27.034Z</time>
      </trkpt>
      <trkpt lat="43.72042" lon="4.9495">
        <ele>176.5</ele>
        <time>2025-11-12T10:01:29.034Z</time>
      </trkpt>
      <trkpt lat="43.72044" lon="4.9495">
        <ele>176.4</ele>
        <time>2025-11-12T10:01:31.035Z</time>
      </trkpt>
      <trkpt lat="43.72047" lon="4.94949">
        <ele>176.3</ele>
        <time>2025-11-12T10:01:33.034Z</time>
      </trkpt>
      <trkpt lat="43.72049" lon="4.94947">
        <ele>176.3</ele>
        <time>2025-11-12T10:01:36.035Z</time>
      </trkpt>
      <trkpt lat="43.72051" lon="4.94945">
        <ele>176.2</ele>
        <time>2025-11-12T10:01:38.035Z</time>
      </trkpt>
      <trkpt lat="43.72054" lon="4.94944">
        <ele>176.2</ele>
        <time>2025-11-12T10:01:41.035Z</time>
      </trkpt>
      <trkpt lat="43.72056" lon="4.94942">
        <ele>176.3</ele>
        <time>2025-11-12T10:01:43.034Z</time>
      </trkpt>
      <trkpt lat="43.72058" lon="4.94939">
        <ele>176.4</ele>
        <time>2025-11-12T10:01:46.035Z</time>
      </trkpt>
      <trkpt lat="43.72061" lon="4.94937">
        <ele>176.5</ele>
        <time>2025-11-12T10:01:49.034Z</time>
      </trkpt>
      <trkpt lat="43.72063" lon="4.94935">
        <ele>176.7</ele>
        <time>2025-11-12T10:01:52.034Z</time>
      </trkpt>
      <trkpt lat="43.72066" lon="4.94933">
        <ele>176.7</ele>
        <time>2025-11-12T10:01:55.034Z</time>
      </trkpt>
      <trkpt lat="43.72068" lon="4.94931">
        <ele>176.8</ele>
        <time>2025-11-12T10:01:58.034Z</time>
      </trkpt>
      <trkpt lat="43.72071" lon="4.9493">
        <ele>176.7</ele>
        <time>2025-11-12T10:02:02.034Z</time>
      </trkpt>
      <trkpt lat="43.72073" lon="4.94929">
        <ele>176.7</ele>
        <time>2025-11-12T10:02:05.035Z</time>
      </trkpt>
      <trkpt lat="43.72075" lon="4.94927">
        <ele>176.7</ele>
        <time>2025-11-12T10:02:07.034Z</time>
      </trkpt>
      <trkpt lat="43.72077" lon="4.94925">
        <ele>176.8</ele>
        <time>2025-11-12T10:02:09.034Z</time>
      </trkpt>
      <trkpt lat="43.72079" lon="4.94923">
        <ele>176.9</ele>
        <time>2025-11-12T10:02:12.034Z</time>
      </trkpt>
      <trkpt lat="43.7208" lon="4.9492">
        <ele>177</ele>
        <time>2025-11-12T10:02:14.035Z</time>
      </trkpt>
      <trkpt lat="43.7208" lon="4.94916">
        <ele>177.3</ele>
        <time>2025-11-12T10:02:17.034Z</time>
      </trkpt>
      <trkpt lat="43.7208" lon="4.94913">
        <ele>177.7</ele>
        <time>2025-11-12T10:02:20.034Z</time>
      </trkpt>
      <trkpt lat="43.72078" lon="4.94909">
        <ele>178.3</ele>
        <time>2025-11-12T10:02:23.034Z</time>
      </trkpt>
      <trkpt lat="43.72077" lon="4.94906">
        <ele>178.7</ele>
        <time>2025-11-12T10:02:27.034Z</time>
      </trkpt>
      <trkpt lat="43.72077" lon="4.94903">
        <ele>179.1</ele>
        <time>2025-11-12T10:02:31.034Z</time>
      </trkpt>
      <trkpt lat="43.72075" lon="4.949">
        <ele>179.5</ele>
        <time>2025-11-12T10:02:41.035Z</time>
      </trkpt>
      <trkpt lat="43.72075" lon="4.94897">
        <ele>179.8</ele>
        <time>2025-11-12T10:02:44.035Z</time>
      </trkpt>
      <trkpt lat="43.72074" lon="4.94893">
        <ele>180.2</ele>
        <time>2025-11-12T10:02:47.035Z</time>
      </trkpt>
      <trkpt lat="43.72074" lon="4.9489">
        <ele>180.5</ele>
        <time>2025-11-12T10:02:51.034Z</time>
      </trkpt>
      <trkpt lat="43.72074" lon="4.94886">
        <ele>181.1</ele>
        <time>2025-11-12T10:02:54.034Z</time>
      </trkpt>
      <trkpt lat="43.72072" lon="4.94884">
        <ele>181.3</ele>
        <time>2025-11-12T10:02:58.035Z</time>
      </trkpt>
      <trkpt lat="43.72072" lon="4.9488">
        <ele>182.1</ele>
        <time>2025-11-12T10:03:02.034Z</time>
      </trkpt>
      <trkpt lat="43.7207" lon="4.94875">
        <ele>182.6</ele>
        <time>2025-11-12T10:03:05.034Z</time>
      </trkpt>
      <trkpt lat="43.7207" lon="4.94872">
        <ele>183.1</ele>
        <time>2025-11-12T10:03:08.034Z</time>
      </trkpt>
      <trkpt lat="43.7207" lon="4.94868">
        <ele>183.7</ele>
        <time>2025-11-12T10:03:11.034Z</time>
      </trkpt>
      <trkpt lat="43.7207" lon="4.94864">
        <ele>184.2</ele>
        <time>2025-11-12T10:03:15.034Z</time>
      </trkpt>
      <trkpt lat="43.72069" lon="4.94859">
        <ele>184.7</ele>
        <time>2025-11-12T10:03:18.034Z</time>
      </trkpt>
      <trkpt lat="43.72069" lon="4.94855">
        <ele>185.1</ele>
        <time>2025-11-12T10:03:21.034Z</time>
      </trkpt>
      <trkpt lat="43.72068" lon="4.94852">
        <ele>185.3</ele>
        <time>2025-11-12T10:03:25.034Z</time>
      </trkpt>
      <trkpt lat="43.72068" lon="4.94848">
        <ele>185.9</ele>
        <time>2025-11-12T10:03:28.035Z</time>
      </trkpt>
      <trkpt lat="43.72066" lon="4.94844">
        <ele>185.9</ele>
        <time>2025-11-12T10:03:31.034Z</time>
      </trkpt>
      <trkpt lat="43.72065" lon="4.94841">
        <ele>185.8</ele>
        <time>2025-11-12T10:03:33.034Z</time>
      </trkpt>
      <trkpt lat="43.72064" lon="4.94838">
        <ele>185.9</ele>
        <time>2025-11-12T10:03:38.034Z</time>
      </trkpt>
      <trkpt lat="43.72063" lon="4.94834">
        <ele>185.9</ele>
        <time>2025-11-12T10:03:41.035Z</time>
      </trkpt>
      <trkpt lat="43.72062" lon="4.94829">
        <ele>186.2</ele>
        <time>2025-11-12T10:03:47.035Z</time>
      </trkpt>
      <trkpt lat="43.72062" lon="4.94825">
        <ele>186.4</ele>
        <time>2025-11-12T10:03:50.034Z</time>
      </trkpt>
      <trkpt lat="43.72061" lon="4.94821">
        <ele>186.3</ele>
        <time>2025-11-12T10:03:54.034Z</time>
      </trkpt>
      <trkpt lat="43.7206" lon="4.94818">
        <ele>186.5</ele>
        <time>2025-11-12T10:03:57.034Z</time>
      </trkpt>
      <trkpt lat="43.7206" lon="4.94814">
        <ele>186.8</ele>
        <time>2025-11-12T10:04:00.035Z</time>
      </trkpt>
      <trkpt lat="43.72061" lon="4.94811">
        <ele>187.1</ele>
        <time>2025-11-12T10:04:03.034Z</time>
      </trkpt>
      <trkpt lat="43.72061" lon="4.94807">
        <ele>187.5</ele>
        <time>2025-11-12T10:04:06.035Z</time>
      </trkpt>
      <trkpt lat="43.72062" lon="4.94804">
        <ele>187.8</ele>
        <time>2025-11-12T10:04:08.034Z</time>
      </trkpt>
      <trkpt lat="43.72063" lon="4.948">
        <ele>188.4</ele>
        <time>2025-11-12T10:04:11.034Z</time>
      </trkpt>
      <trkpt lat="43.72063" lon="4.94796">
        <ele>188.7</ele>
        <time>2025-11-12T10:04:14.034Z</time>
      </trkpt>
      <trkpt lat="43.72065" lon="4.94794">
        <ele>189.3</ele>
        <time>2025-11-12T10:04:16.034Z</time>
      </trkpt>
      <trkpt lat="43.72066" lon="4.9479">
        <ele>189.6</ele>
        <time>2025-11-12T10:04:20.034Z</time>
      </trkpt>
      <trkpt lat="43.72065" lon="4.94786">
        <ele>189.8</ele>
        <time>2025-11-12T10:04:24.034Z</time>
      </trkpt>
      <trkpt lat="43.72066" lon="4.94783">
        <ele>190.2</ele>
        <time>2025-11-12T10:04:38.034Z</time>
      </trkpt>
      <trkpt lat="43.72067" lon="4.9478">
        <ele>190.7</ele>
        <time>2025-11-12T10:04:41.035Z</time>
      </trkpt>
      <trkpt lat="43.72067" lon="4.94777">
        <ele>190.7</ele>
        <time>2025-11-12T10:04:45.034Z</time>
      </trkpt>
      <trkpt lat="43.72067" lon="4.94773">
        <ele>190.8</ele>
        <time>2025-11-12T10:04:50.034Z</time>
      </trkpt>
      <trkpt lat="43.72067" lon="4.9477">
        <ele>191.1</ele>
        <time>2025-11-12T10:04:54.035Z</time>
      </trkpt>
      <trkpt lat="43.72069" lon="4.94767">
        <ele>191.7</ele>
        <time>2025-11-12T10:04:58.035Z</time>
      </trkpt>
      <trkpt lat="43.7207" lon="4.94763">
        <ele>192.3</ele>
        <time>2025-11-12T10:05:02.034Z</time>
      </trkpt>
      <trkpt lat="43.72071" lon="4.94759">
        <ele>192.7</ele>
        <time>2025-11-12T10:05:05.035Z</time>
      </trkpt>
      <trkpt lat="43.72072" lon="4.94755">
        <ele>193</ele>
        <time>2025-11-12T10:05:08.034Z</time>
      </trkpt>
      <trkpt lat="43.72072" lon="4.94752">
        <ele>193</ele>
        <time>2025-11-12T10:05:11.035Z</time>
      </trkpt>
      <trkpt lat="43.72071" lon="4.94749">
        <ele>192.9</ele>
        <time>2025-11-12T10:05:14.034Z</time>
      </trkpt>
      <trkpt lat="43.72072" lon="4.94745">
        <ele>193.2</ele>
        <time>2025-11-12T10:05:17.034Z</time>
      </trkpt>
      <trkpt lat="43.72073" lon="4.94742">
        <ele>193.6</ele>
        <time>2025-11-12T10:05:19.034Z</time>
      </trkpt>
      <trkpt lat="43.72074" lon="4.94739">
        <ele>193.8</ele>
        <time>2025-11-12T10:05:22.035Z</time>
      </trkpt>
      <trkpt lat="43.72075" lon="4.94733">
        <ele>194</ele>
        <time>2025-11-12T10:05:26.034Z</time>
      </trkpt>
      <trkpt lat="43.72074" lon="4.9473">
        <ele>193.8</ele>
        <time>2025-11-12T10:05:29.034Z</time>
      </trkpt>
      <trkpt lat="43.72074" lon="4.94727">
        <ele>194</ele>
        <time>2025-11-12T10:05:32.034Z</time>
      </trkpt>
      <trkpt lat="43.72075" lon="4.94723">
        <ele>194.1</ele>
        <time>2025-11-12T10:05:35.034Z</time>
      </trkpt>
      <trkpt lat="43.72075" lon="4.9472">
        <ele>194.3</ele>
        <time>2025-11-12T10:05:38.035Z</time>
      </trkpt>
      <trkpt lat="43.72076" lon="4.94716">
        <ele>194.5</ele>
        <time>2025-11-12T10:05:40.035Z</time>
      </trkpt>
      <trkpt lat="43.72077" lon="4.94713">
        <ele>194.7</ele>
        <time>2025-11-12T10:05:42.034Z</time>
      </trkpt>
      <trkpt lat="43.72078" lon="4.9471">
        <ele>194.7</ele>
        <time>2025-11-12T10:05:46.034Z</time>
      </trkpt>
      <trkpt lat="43.7208" lon="4.94706">
        <ele>194.7</ele>
        <time>2025-11-12T10:05:49.034Z</time>
      </trkpt>
      <trkpt lat="43.72082" lon="4.94704">
        <ele>194.5</ele>
        <time>2025-11-12T10:05:52.034Z</time>
      </trkpt>
      <trkpt lat="43.72085" lon="4.94701">
        <ele>195</ele>
        <time>2025-11-12T10:05:54.035Z</time>
      </trkpt>
      <trkpt lat="43.72085" lon="4.94698">
        <ele>195.2</ele>
        <time>2025-11-12T10:05:58.034Z</time>
      </trkpt>
      <trkpt lat="43.72086" lon="4.94694">
        <ele>195.5</ele>
        <time>2025-11-12T10:06:01.034Z</time>
      </trkpt>
      <trkpt lat="43.72088" lon="4.94692">
        <ele>196.2</ele>
        <time>2025-11-12T10:06:03.035Z</time>
      </trkpt>
      <trkpt lat="43.72089" lon="4.94689">
        <ele>197</ele>
        <time>2025-11-12T10:06:06.035Z</time>
      </trkpt>
      <trkpt lat="43.7209" lon="4.94685">
        <ele>197.3</ele>
        <time>2025-11-12T10:06:08.035Z</time>
      </trkpt>
      <trkpt lat="43.72092" lon="4.94683">
        <ele>197.9</ele>
        <time>2025-11-12T10:06:11.035Z</time>
      </trkpt>
      <trkpt lat="43.72093" lon="4.9468">
        <ele>198.2</ele>
        <time>2025-11-12T10:06:13.034Z</time>
      </trkpt>
      <trkpt lat="43.72095" lon="4.94677">
        <ele>198.6</ele>
        <time>2025-11-12T10:06:16.035Z</time>
      </trkpt>
      <trkpt lat="43.72097" lon="4.94676">
        <ele>199</ele>
        <time>2025-11-12T10:06:18.034Z</time>
      </trkpt>
      <trkpt lat="43.72101" lon="4.94674">
        <ele>199.4</ele>
        <time>2025-11-12T10:06:22.034Z</time>
      </trkpt>
      <trkpt lat="43.72103" lon="4.94672">
        <ele>199.5</ele>
        <time>2025-11-12T10:06:25.034Z</time>
      </trkpt>
      <trkpt lat="43.72105" lon="4.9467">
        <ele>199.3</ele>
        <time>2025-11-12T10:06:28.034Z</time>
      </trkpt>
      <trkpt lat="43.72107" lon="4.94668">
        <ele>198.9</ele>
        <time>2025-11-12T10:06:31.034Z</time>
      </trkpt>
      <trkpt lat="43.72109" lon="4.94665">
        <ele>198.9</ele>
        <time>2025-11-12T10:06:34.034Z</time>
      </trkpt>
      <trkpt lat="43.72111" lon="4.94663">
        <ele>199.1</ele>
        <time>2025-11-12T10:06:37.034Z</time>
      </trkpt>
      <trkpt lat="43.72114" lon="4.9466">
        <ele>199.8</ele>
        <time>2025-11-12T10:06:40.035Z</time>
      </trkpt>
      <trkpt lat="43.72116" lon="4.94657">
        <ele>200.5</ele>
        <time>2025-11-12T10:06:45.035Z</time>
      </trkpt>
      <trkpt lat="43.72119" lon="4.94655">
        <ele>201</ele>
        <time>2025-11-12T10:06:48.034Z</time>
      </trkpt>
      <trkpt lat="43.72121" lon="4.94653">
        <ele>201.3</ele>
        <time>2025-11-12T10:06:51.034Z</time>
      </trkpt>
      <trkpt lat="43.72123" lon="4.9465">
        <ele>201.4</ele>
        <time>2025-11-12T10:06:55.034Z</time>
      </trkpt>
      <trkpt lat="43.72125" lon="4.94647">
        <ele>201.3</ele>
        <time>2025-11-12T10:06:58.034Z</time>
      </trkpt>
      <trkpt lat="43.72126" lon="4.94645">
        <ele>201.3</ele>
        <time>2025-11-12T10:07:00.034Z</time>
      </trkpt>
      <trkpt lat="43.72129" lon="4.94642">
        <ele>201.2</ele>
        <time>2025-11-12T10:07:03.034Z</time>
      </trkpt>
      <trkpt lat="43.72132" lon="4.9464">
        <ele>200.9</ele>
        <time>2025-11-12T10:07:06.034Z</time>
      </trkpt>
      <trkpt lat="43.72134" lon="4.94637">
        <ele>201</ele>
        <time>2025-11-12T10:07:10.034Z</time>
      </trkpt>
      <trkpt lat="43.72137" lon="4.94637">
        <ele>201.1</ele>
        <time>2025-11-12T10:07:13.035Z</time>
      </trkpt>
      <trkpt lat="43.7214" lon="4.94635">
        <ele>201.5</ele>
        <time>2025-11-12T10:07:17.034Z</time>
      </trkpt>
      <trkpt lat="43.72142" lon="4.94633">
        <ele>202.1</ele>
        <time>2025-11-12T10:07:20.034Z</time>
      </trkpt>
      <trkpt lat="43.72144" lon="4.9463">
        <ele>202.5</ele>
        <time>2025-11-12T10:07:22.035Z</time>
      </trkpt>
      <trkpt lat="43.72145" lon="4.94627">
        <ele>202.8</ele>
        <time>2025-11-12T10:07:25.035Z</time>
      </trkpt>
      <trkpt lat="43.72148" lon="4.94625">
        <ele>203.3</ele>
        <time>2025-11-12T10:07:29.035Z</time>
      </trkpt>
      <trkpt lat="43.7215" lon="4.94623">
        <ele>203.7</ele>
        <time>2025-11-12T10:07:32.034Z</time>
      </trkpt>
      <trkpt lat="43.72153" lon="4.9462">
        <ele>204</ele>
        <time>2025-11-12T10:07:35.034Z</time>
      </trkpt>
      <trkpt lat="43.72154" lon="4.94618">
        <ele>204.2</ele>
        <time>2025-11-12T10:07:38.034Z</time>
      </trkpt>
      <trkpt lat="43.72156" lon="4.94615">
        <ele>204.3</ele>
        <time>2025-11-12T10:07:40.034Z</time>
      </trkpt>
      <trkpt lat="43.72158" lon="4.94613">
        <ele>204.4</ele>
        <time>2025-11-12T10:07:43.035Z</time>
      </trkpt>
      <trkpt lat="43.7216" lon="4.9461">
        <ele>204.7</ele>
        <time>2025-11-12T10:07:46.034Z</time>
      </trkpt>
      <trkpt lat="43.72162" lon="4.94607">
        <ele>205.1</ele>
        <time>2025-11-12T10:07:51.035Z</time>
      </trkpt>
      <trkpt lat="43.72164" lon="4.94605">
        <ele>205.4</ele>
        <time>2025-11-12T10:07:56.034Z</time>
      </trkpt>
      <trkpt lat="43.72166" lon="4.94601">
        <ele>205.7</ele>
        <time>2025-11-12T10:08:00.034Z</time>
      </trkpt>
      <trkpt lat="43.72168" lon="4.94598">
        <ele>206.2</ele>
        <time>2025-11-12T10:08:03.034Z</time>
      </trkpt>
      <trkpt lat="43.72169" lon="4.94595">
        <ele>206.7</ele>
        <time>2025-11-12T10:08:06.034Z</time>
      </trkpt>
      <trkpt lat="43.72172" lon="4.94593">
        <ele>207.2</ele>
        <time>2025-11-12T10:08:09.035Z</time>
      </trkpt>
      <trkpt lat="43.72174" lon="4.9459">
        <ele>207.7</ele>
        <time>2025-11-12T10:08:14.034Z</time>
      </trkpt>
      <trkpt lat="43.72176" lon="4.94588">
        <ele>208.1</ele>
        <time>2025-11-12T10:08:17.034Z</time>
      </trkpt>
      <trkpt lat="43.72179" lon="4.94586">
        <ele>208.4</ele>
        <time>2025-11-12T10:08:20.035Z</time>
      </trkpt>
      <trkpt lat="43.72181" lon="4.94585">
        <ele>208.7</ele>
        <time>2025-11-12T10:08:23.034Z</time>
      </trkpt>
      <trkpt lat="43.72184" lon="4.94584">
        <ele>208.8</ele>
        <time>2025-11-12T10:08:26.034Z</time>
      </trkpt>
      <trkpt lat="43.72186" lon="4.94581">
        <ele>209.5</ele>
        <time>2025-11-12T10:08:29.034Z</time>
      </trkpt>
      <trkpt lat="43.72189" lon="4.94579">
        <ele>210.1</ele>
        <time>2025-11-12T10:08:32.034Z</time>
      </trkpt>
      <trkpt lat="43.72191" lon="4.94577">
        <ele>210.5</ele>
        <time>2025-11-12T10:08:35.035Z</time>
      </trkpt>
      <trkpt lat="43.72194" lon="4.94577">
        <ele>210.6</ele>
        <time>2025-11-12T10:08:39.035Z</time>
      </trkpt>
      <trkpt lat="43.72196" lon="4.94576">
        <ele>211.2</ele>
        <time>2025-11-12T10:08:41.034Z</time>
      </trkpt>
      <trkpt lat="43.72198" lon="4.94575">
        <ele>211.8</ele>
        <time>2025-11-12T10:08:44.034Z</time>
      </trkpt>
      <trkpt lat="43.722" lon="4.94572">
        <ele>212.4</ele>
        <time>2025-11-12T10:08:48.034Z</time>
      </trkpt>
      <trkpt lat="43.72203" lon="4.94572">
        <ele>213</ele>
        <time>2025-11-12T10:08:52.034Z</time>
      </trkpt>
      <trkpt lat="43.72205" lon="4.94571">
        <ele>213.5</ele>
        <time>2025-11-12T10:08:55.034Z</time>
      </trkpt>
      <trkpt lat="43.72208" lon="4.9457">
        <ele>214.1</ele>
        <time>2025-11-12T10:09:00.035Z</time>
      </trkpt>
      <trkpt lat="43.7221" lon="4.94568">
        <ele>214.7</ele>
        <time>2025-11-12T10:09:03.035Z</time>
      </trkpt>
      <trkpt lat="43.72213" lon="4.94567">
        <ele>215.2</ele>
        <time>2025-11-12T10:09:06.035Z</time>
      </trkpt>
      <trkpt lat="43.72216" lon="4.94567">
        <ele>215.8</ele>
        <time>2025-11-12T10:09:09.035Z</time>
      </trkpt>
      <trkpt lat="43.72219" lon="4.94568">
        <ele>216.2</ele>
        <time>2025-11-12T10:09:12.034Z</time>
      </trkpt>
      <trkpt lat="43.72221" lon="4.94568">
        <ele>216.7</ele>
        <time>2025-11-12T10:09:15.034Z</time>
      </trkpt>
      <trkpt lat="43.72224" lon="4.94569">
        <ele>217.1</ele>
        <time>2025-11-12T10:09:18.034Z</time>
      </trkpt>
      <trkpt lat="43.72226" lon="4.9457">
        <ele>217.5</ele>
        <time>2025-11-12T10:09:22.034Z</time>
      </trkpt>
      <trkpt lat="43.72229" lon="4.94569">
        <ele>217.8</ele>
        <time>2025-11-12T10:09:27.034Z</time>
      </trkpt>
      <trkpt lat="43.72231" lon="4.94569">
        <ele>218.1</ele>
        <time>2025-11-12T10:09:30.034Z</time>
      </trkpt>
      <trkpt lat="43.72234" lon="4.94569">
        <ele>218.4</ele>
        <time>2025-11-12T10:09:33.034Z</time>
      </trkpt>
      <trkpt lat="43.72237" lon="4.94569">
        <ele>218.8</ele>
        <time>2025-11-12T10:09:37.034Z</time>
      </trkpt>
      <trkpt lat="43.72239" lon="4.94568">
        <ele>219.1</ele>
        <time>2025-11-12T10:09:40.034Z</time>
      </trkpt>
      <trkpt lat="43.72241" lon="4.94566">
        <ele>219.3</ele>
        <time>2025-11-12T10:09:43.035Z</time>
      </trkpt>
      <trkpt lat="43.72244" lon="4.94566">
        <ele>219.5</ele>
        <time>2025-11-12T10:09:46.034Z</time>
      </trkpt>
      <trkpt lat="43.72246" lon="4.94564">
        <ele>219.8</ele>
        <time>2025-11-12T10:09:48.035Z</time>
      </trkpt>
      <trkpt lat="43.72249" lon="4.94562">
        <ele>220.1</ele>
        <time>2025-11-12T10:09:50.034Z</time>
      </trkpt>
      <trkpt lat="43.72249" lon="4.94559">
        <ele>220</ele>
        <time>2025-11-12T10:10:04.034Z</time>
      </trkpt>
      <trkpt lat="43.72247" lon="4.94557">
        <ele>219.6</ele>
        <time>2025-11-12T10:10:15.034Z</time>
      </trkpt>
      <trkpt lat="43.72247" lon="4.94553">
        <ele>219.9</ele>
        <time>2025-11-12T10:10:18.035Z</time>
      </trkpt>
      <trkpt lat="43.72245" lon="4.9455">
        <ele>220.1</ele>
        <time>2025-11-12T10:10:21.034Z</time>
      </trkpt>
      <trkpt lat="43.72243" lon="4.94547">
        <ele>220.4</ele>
        <time>2025-11-12T10:10:24.034Z</time>
      </trkpt>
      <trkpt lat="43.72242" lon="4.94544">
        <ele>220.5</ele>
        <time>2025-11-12T10:10:26.034Z</time>
      </trkpt>
      <trkpt lat="43.7224" lon="4.94542">
        <ele>220.5</ele>
        <time>2025-11-12T10:10:29.034Z</time>
      </trkpt>
      <trkpt lat="43.72238" lon="4.94539">
        <ele>220.6</ele>
        <time>2025-11-12T10:10:31.034Z</time>
      </trkpt>
      <trkpt lat="43.72238" lon="4.94535">
        <ele>220.9</ele>
        <time>2025-11-12T10:10:33.034Z</time>
      </trkpt>
      <trkpt lat="43.72237" lon="4.94531">
        <ele>221.3</ele>
        <time>2025-11-12T10:10:36.034Z</time>
      </trkpt>
      <trkpt lat="43.72236" lon="4.94527">
        <ele>221.6</ele>
        <time>2025-11-12T10:10:39.034Z</time>
      </trkpt>
      <trkpt lat="43.72235" lon="4.94523">
        <ele>221.6</ele>
        <time>2025-11-12T10:10:42.034Z</time>
      </trkpt>
      <trkpt lat="43.72234" lon="4.9452">
        <ele>221.5</ele>
        <time>2025-11-12T10:10:45.035Z</time>
      </trkpt>
      <trkpt lat="43.72231" lon="4.94517">
        <ele>221.1</ele>
        <time>2025-11-12T10:10:48.035Z</time>
      </trkpt>
      <trkpt lat="43.72228" lon="4.94517">
        <ele>220.6</ele>
        <time>2025-11-12T10:10:51.034Z</time>
      </trkpt>
      <trkpt lat="43.72226" lon="4.94516">
        <ele>220.3</ele>
        <time>2025-11-12T10:10:53.035Z</time>
      </trkpt>
      <trkpt lat="43.72223" lon="4.94515">
        <ele>220</ele>
        <time>2025-11-12T10:10:55.034Z</time>
      </trkpt>
      <trkpt lat="43.72221" lon="4.94516">
        <ele>219.8</ele>
        <time>2025-11-12T10:10:57.035Z</time>
      </trkpt>
      <trkpt lat="43.72218" lon="4.94517">
        <ele>219.7</ele>
        <time>2025-11-12T10:11:00.035Z</time>
      </trkpt>
      <trkpt lat="43.72215" lon="4.94518">
        <ele>219.5</ele>
        <time>2025-11-12T10:11:02.034Z</time>
      </trkpt>
      <trkpt lat="43.72213" lon="4.9452">
        <ele>219.4</ele>
        <time>2025-11-12T10:11:04.034Z</time>
      </trkpt>
      <trkpt lat="43.72209" lon="4.94521">
        <ele>219.1</ele>
        <time>2025-11-12T10:11:07.034Z</time>
      </trkpt>
      <trkpt lat="43.72206" lon="4.94523">
        <ele>218.9</ele>
        <time>2025-11-12T10:11:10.034Z</time>
      </trkpt>
      <trkpt lat="43.72203" lon="4.94524">
        <ele>218.8</ele>
        <time>2025-11-12T10:11:13.034Z</time>
      </trkpt>
      <trkpt lat="43.722" lon="4.94524">
        <ele>218.8</ele>
        <time>2025-11-12T10:11:16.034Z</time>
      </trkpt>
      <trkpt lat="43.72198" lon="4.94521">
        <ele>219.3</ele>
        <time>2025-11-12T10:11:19.034Z</time>
      </trkpt>
      <trkpt lat="43.72197" lon="4.94518">
        <ele>220</ele>
        <time>2025-11-12T10:11:22.034Z</time>
      </trkpt>
      <trkpt lat="43.722" lon="4.94516">
        <ele>220.4</ele>
        <time>2025-11-12T10:11:26.034Z</time>
      </trkpt>
      <trkpt lat="43.72203" lon="4.94514">
        <ele>220.7</ele>
        <time>2025-11-12T10:11:35.035Z</time>
      </trkpt>
      <trkpt lat="43.72205" lon="4.94512">
        <ele>221</ele>
        <time>2025-11-12T10:11:38.035Z</time>
      </trkpt>
      <trkpt lat="43.72209" lon="4.94512">
        <ele>220.8</ele>
        <time>2025-11-12T10:11:41.034Z</time>
      </trkpt>
      <trkpt lat="43.72206" lon="4.94511">
        <ele>221.2</ele>
        <time>2025-11-12T10:11:56.034Z</time>
      </trkpt>
      <trkpt lat="43.72209" lon="4.94509">
        <ele>221.3</ele>
        <time>2025-11-12T10:15:37.035Z</time>
      </trkpt>
      <trkpt lat="43.72211" lon="4.94507">
        <ele>221.5</ele>
        <time>2025-11-12T10:15:40.034Z</time>
      </trkpt>
      <trkpt lat="43.72214" lon="4.94505">
        <ele>221.8</ele>
        <time>2025-11-12T10:15:43.035Z</time>
      </trkpt>
      <trkpt lat="43.72217" lon="4.94505">
        <ele>221.7</ele>
        <time>2025-11-12T10:15:46.034Z</time>
      </trkpt>
      <trkpt lat="43.72219" lon="4.94502">
        <ele>221.9</ele>
        <time>2025-11-12T10:15:48.034Z</time>
      </trkpt>
      <trkpt lat="43.72221" lon="4.945">
        <ele>222.1</ele>
        <time>2025-11-12T10:15:51.035Z</time>
      </trkpt>
      <trkpt lat="43.72223" lon="4.94499">
        <ele>222.5</ele>
        <time>2025-11-12T10:15:54.035Z</time>
      </trkpt>
      <trkpt lat="43.72226" lon="4.94497">
        <ele>223.3</ele>
        <time>2025-11-12T10:15:56.035Z</time>
      </trkpt>
      <trkpt lat="43.72227" lon="4.94495">
        <ele>224</ele>
        <time>2025-11-12T10:15:58.034Z</time>
      </trkpt>
      <trkpt lat="43.7223" lon="4.94493">
        <ele>224.7</ele>
        <time>2025-11-12T10:16:01.034Z</time>
      </trkpt>
      <trkpt lat="43.72232" lon="4.94489">
        <ele>225.9</ele>
        <time>2025-11-12T10:16:04.034Z</time>
      </trkpt>
      <trkpt lat="43.72234" lon="4.94486">
        <ele>226.6</ele>
        <time>2025-11-12T10:16:07.035Z</time>
      </trkpt>
      <trkpt lat="43.72236" lon="4.94484">
        <ele>226.8</ele>
        <time>2025-11-12T10:16:09.035Z</time>
      </trkpt>
      <trkpt lat="43.72237" lon="4.94481">
        <ele>227.2</ele>
        <time>2025-11-12T10:16:12.035Z</time>
      </trkpt>
      <trkpt lat="43.7224" lon="4.94479">
        <ele>227.3</ele>
        <time>2025-11-12T10:16:15.034Z</time>
      </trkpt>
      <trkpt lat="43.72243" lon="4.94478">
        <ele>227</ele>
        <time>2025-11-12T10:16:19.034Z</time>
      </trkpt>
      <trkpt lat="43.72245" lon="4.94476">
        <ele>226.8</ele>
        <time>2025-11-12T10:16:22.035Z</time>
      </trkpt>
      <trkpt lat="43.72247" lon="4.94472">
        <ele>227.1</ele>
        <time>2025-11-12T10:16:25.034Z</time>
      </trkpt>
      <trkpt lat="43.72249" lon="4.94471">
        <ele>226.6</ele>
        <time>2025-11-12T10:16:28.035Z</time>
      </trkpt>
      <trkpt lat="43.72252" lon="4.94469">
        <ele>227.5</ele>
        <time>2025-11-12T10:16:31.034Z</time>
      </trkpt>
      <trkpt lat="43.72253" lon="4.94467">
        <ele>228.8</ele>
        <time>2025-11-12T10:16:33.034Z</time>
      </trkpt>
      <trkpt lat="43.72255" lon="4.94465">
        <ele>229.6</ele>
        <time>2025-11-12T10:16:34.034Z</time>
      </trkpt>
      <trkpt lat="43.72257" lon="4.94461">
        <ele>231.1</ele>
        <time>2025-11-12T10:16:36.034Z</time>
      </trkpt>
      <trkpt lat="43.7226" lon="4.94458">
        <ele>231.8</ele>
        <time>2025-11-12T10:16:40.035Z</time>
      </trkpt>
      <trkpt lat="43.72262" lon="4.94457">
        <ele>231.9</ele>
        <time>2025-11-12T10:16:44.034Z</time>
      </trkpt>
      <trkpt lat="43.72265" lon="4.94456">
        <ele>232.1</ele>
        <time>2025-11-12T10:16:46.034Z</time>
      </trkpt>
      <trkpt lat="43.72267" lon="4.94454">
        <ele>232.1</ele>
        <time>2025-11-12T10:16:49.034Z</time>
      </trkpt>
      <trkpt lat="43.72269" lon="4.94452">
        <ele>232</ele>
        <time>2025-11-12T10:16:52.034Z</time>
      </trkpt>
      <trkpt lat="43.72271" lon="4.94449">
        <ele>231.7</ele>
        <time>2025-11-12T10:16:56.035Z</time>
      </trkpt>
      <trkpt lat="43.72274" lon="4.94448">
        <ele>231.1</ele>
        <time>2025-11-12T10:16:59.034Z</time>
      </trkpt>
      <trkpt lat="43.72276" lon="4.94445">
        <ele>230.6</ele>
        <time>2025-11-12T10:17:02.034Z</time>
      </trkpt>
      <trkpt lat="43.72277" lon="4.94442">
        <ele>231</ele>
        <time>2025-11-12T10:17:04.034Z</time>
      </trkpt>
      <trkpt lat="43.7228" lon="4.9444">
        <ele>232.2</ele>
        <time>2025-11-12T10:17:06.034Z</time>
      </trkpt>
      <trkpt lat="43.72282" lon="4.94437">
        <ele>233.6</ele>
        <time>2025-11-12T10:17:09.035Z</time>
      </trkpt>
      <trkpt lat="43.72284" lon="4.94436">
        <ele>234.6</ele>
        <time>2025-11-12T10:17:12.035Z</time>
      </trkpt>
      <trkpt lat="43.72286" lon="4.94433">
        <ele>235.7</ele>
        <time>2025-11-12T10:17:15.034Z</time>
      </trkpt>
      <trkpt lat="43.72289" lon="4.94433">
        <ele>236.2</ele>
        <time>2025-11-12T10:17:18.035Z</time>
      </trkpt>
      <trkpt lat="43.72291" lon="4.94433">
        <ele>236.7</ele>
        <time>2025-11-12T10:17:21.035Z</time>
      </trkpt>
      <trkpt lat="43.72293" lon="4.94434">
        <ele>236.9</ele>
        <time>2025-11-12T10:17:24.034Z</time>
      </trkpt>
      <trkpt lat="43.72296" lon="4.94436">
        <ele>237.4</ele>
        <time>2025-11-12T10:17:28.034Z</time>
      </trkpt>
      <trkpt lat="43.72296" lon="4.94439">
        <ele>237.3</ele>
        <time>2025-11-12T10:17:31.035Z</time>
      </trkpt>
      <trkpt lat="43.72296" lon="4.94444">
        <ele>237.1</ele>
        <time>2025-11-12T10:17:34.034Z</time>
      </trkpt>
      <trkpt lat="43.72295" lon="4.94447">
        <ele>237.1</ele>
        <time>2025-11-12T10:17:37.034Z</time>
      </trkpt>
      <trkpt lat="43.72294" lon="4.9445">
        <ele>237.4</ele>
        <time>2025-11-12T10:17:40.034Z</time>
      </trkpt>
      <trkpt lat="43.72293" lon="4.94453">
        <ele>237.6</ele>
        <time>2025-11-12T10:17:42.034Z</time>
      </trkpt>
      <trkpt lat="43.72291" lon="4.94457">
        <ele>238</ele>
        <time>2025-11-12T10:17:45.035Z</time>
      </trkpt>
      <trkpt lat="43.72289" lon="4.9446">
        <ele>237.6</ele>
        <time>2025-11-12T10:17:48.035Z</time>
      </trkpt>
      <trkpt lat="43.72288" lon="4.94462">
        <ele>237.5</ele>
        <time>2025-11-12T10:17:50.034Z</time>
      </trkpt>
      <trkpt lat="43.72286" lon="4.94465">
        <ele>237.3</ele>
        <time>2025-11-12T10:17:53.035Z</time>
      </trkpt>
      <trkpt lat="43.72285" lon="4.94468">
        <ele>237.3</ele>
        <time>2025-11-12T10:17:56.034Z</time>
      </trkpt>
      <trkpt lat="43.72284" lon="4.94471">
        <ele>237</ele>
        <time>2025-11-12T10:17:58.034Z</time>
      </trkpt>
      <trkpt lat="43.72282" lon="4.94474">
        <ele>236.8</ele>
        <time>2025-11-12T10:18:00.034Z</time>
      </trkpt>
      <trkpt lat="43.7228" lon="4.94477">
        <ele>236.6</ele>
        <time>2025-11-12T10:18:03.034Z</time>
      </trkpt>
      <trkpt lat="43.7228" lon="4.9448">
        <ele>237.2</ele>
        <time>2025-11-12T10:18:06.034Z</time>
      </trkpt>
      <trkpt lat="43.72279" lon="4.94484">
        <ele>237.5</ele>
        <time>2025-11-12T10:18:09.035Z</time>
      </trkpt>
      <trkpt lat="43.72277" lon="4.94487">
        <ele>237.3</ele>
        <time>2025-11-12T10:18:12.034Z</time>
      </trkpt>
      <trkpt lat="43.72276" lon="4.9449">
        <ele>237.4</ele>
        <time>2025-11-12T10:18:15.035Z</time>
      </trkpt>
      <trkpt lat="43.72276" lon="4.94493">
        <ele>238.2</ele>
        <time>2025-11-12T10:18:18.034Z</time>
      </trkpt>
      <trkpt lat="43.72275" lon="4.94497">
        <ele>238.8</ele>
        <time>2025-11-12T10:18:21.034Z</time>
      </trkpt>
      <trkpt lat="43.72275" lon="4.94501">
        <ele>239.1</ele>
        <time>2025-11-12T10:18:24.034Z</time>
      </trkpt>
      <trkpt lat="43.72275" lon="4.94504">
        <ele>238.9</ele>
        <time>2025-11-12T10:18:26.035Z</time>
      </trkpt>
      <trkpt lat="43.72276" lon="4.94508">
        <ele>239.3</ele>
        <time>2025-11-12T10:18:29.035Z</time>
      </trkpt>
      <trkpt lat="43.72276" lon="4.94512">
        <ele>239.1</ele>
        <time>2025-11-12T10:18:32.034Z</time>
      </trkpt>
      <trkpt lat="43.72276" lon="4.94516">
        <ele>239.1</ele>
        <time>2025-11-12T10:18:35.034Z</time>
      </trkpt>
      <trkpt lat="43.72277" lon="4.94519">
        <ele>239.4</ele>
        <time>2025-11-12T10:18:38.035Z</time>
      </trkpt>
      <trkpt lat="43.72279" lon="4.94522">
        <ele>240.1</ele>
        <time>2025-11-12T10:18:41.035Z</time>
      </trkpt>
      <trkpt lat="43.7228" lon="4.94526">
        <ele>240.2</ele>
        <time>2025-11-12T10:18:44.034Z</time>
      </trkpt>
      <trkpt lat="43.72281" lon="4.94529">
        <ele>240.2</ele>
        <time>2025-11-12T10:18:46.035Z</time>
      </trkpt>
      <trkpt lat="43.72282" lon="4.94532">
        <ele>239.8</ele>
        <time>2025-11-12T10:18:49.035Z</time>
      </trkpt>
      <trkpt lat="43.72283" lon="4.94536">
        <ele>239.4</ele>
        <time>2025-11-12T10:18:51.034Z</time>
      </trkpt>
      <trkpt lat="43.72285" lon="4.94537">
        <ele>239.6</ele>
        <time>2025-11-12T10:18:53.034Z</time>
      </trkpt>
      <trkpt lat="43.72287" lon="4.94539">
        <ele>239.9</ele>
        <time>2025-11-12T10:18:56.034Z</time>
      </trkpt>
      <trkpt lat="43.7229" lon="4.94541">
        <ele>240.3</ele>
        <time>2025-11-12T10:18:59.035Z</time>
      </trkpt>
      <trkpt lat="43.72293" lon="4.94541">
        <ele>241.2</ele>
        <time>2025-11-12T10:19:02.035Z</time>
      </trkpt>
      <trkpt lat="43.72296" lon="4.94543">
        <ele>241.6</ele>
        <time>2025-11-12T10:19:05.034Z</time>
      </trkpt>
      <trkpt lat="43.72299" lon="4.94545">
        <ele>242.3</ele>
        <time>2025-11-12T10:19:09.035Z</time>
      </trkpt>
      <trkpt lat="43.72302" lon="4.94547">
        <ele>242</ele>
        <time>2025-11-12T10:19:12.034Z</time>
      </trkpt>
      <trkpt lat="43.72305" lon="4.94549">
        <ele>242.5</ele>
        <time>2025-11-12T10:19:15.035Z</time>
      </trkpt>
      <trkpt lat="43.72307" lon="4.9455">
        <ele>242.4</ele>
        <time>2025-11-12T10:19:17.034Z</time>
      </trkpt>
      <trkpt lat="43.7231" lon="4.94551">
        <ele>242.6</ele>
        <time>2025-11-12T10:19:20.034Z</time>
      </trkpt>
      <trkpt lat="43.72313" lon="4.9455">
        <ele>243.1</ele>
        <time>2025-11-12T10:19:23.034Z</time>
      </trkpt>
      <trkpt lat="43.72315" lon="4.94551">
        <ele>243.2</ele>
        <time>2025-11-12T10:19:26.034Z</time>
      </trkpt>
      <trkpt lat="43.72318" lon="4.94553">
        <ele>242.8</ele>
        <time>2025-11-12T10:19:29.034Z</time>
      </trkpt>
      <trkpt lat="43.72321" lon="4.94554">
        <ele>242.9</ele>
        <time>2025-11-12T10:19:32.034Z</time>
      </trkpt>
      <trkpt lat="43.72323" lon="4.94554">
        <ele>243.1</ele>
        <time>2025-11-12T10:19:35.035Z</time>
      </trkpt>
      <trkpt lat="43.72326" lon="4.94555">
        <ele>243.1</ele>
        <time>2025-11-12T10:19:38.035Z</time>
      </trkpt>
      <trkpt lat="43.72328" lon="4.94557">
        <ele>242.6</ele>
        <time>2025-11-12T10:19:41.034Z</time>
      </trkpt>
      <trkpt lat="43.72331" lon="4.94556">
        <ele>243.5</ele>
        <time>2025-11-12T10:19:48.034Z</time>
      </trkpt>
      <trkpt lat="43.72334" lon="4.94557">
        <ele>243.6</ele>
        <time>2025-11-12T10:19:52.034Z</time>
      </trkpt>
      <trkpt lat="43.72336" lon="4.94558">
        <ele>243.4</ele>
        <time>2025-11-12T10:19:55.034Z</time>
      </trkpt>
      <trkpt lat="43.72339" lon="4.94557">
        <ele>243.9</ele>
        <time>2025-11-12T10:19:59.035Z</time>
      </trkpt>
      <trkpt lat="43.72341" lon="4.94556">
        <ele>244.3</ele>
        <time>2025-11-12T10:20:01.035Z</time>
      </trkpt>
      <trkpt lat="43.72344" lon="4.94555">
        <ele>244.9</ele>
        <time>2025-11-12T10:20:04.034Z</time>
      </trkpt>
      <trkpt lat="43.72347" lon="4.94556">
        <ele>245</ele>
        <time>2025-11-12T10:20:07.035Z</time>
      </trkpt>
      <trkpt lat="43.7235" lon="4.94555">
        <ele>245.5</ele>
        <time>2025-11-12T10:20:09.034Z</time>
      </trkpt>
      <trkpt lat="43.72351" lon="4.94552">
        <ele>246.6</ele>
        <time>2025-11-12T10:20:11.034Z</time>
      </trkpt>
      <trkpt lat="43.72354" lon="4.94552">
        <ele>246.7</ele>
        <time>2025-11-12T10:20:13.035Z</time>
      </trkpt>
      <trkpt lat="43.72357" lon="4.94553">
        <ele>246.7</ele>
        <time>2025-11-12T10:20:16.034Z</time>
      </trkpt>
      <trkpt lat="43.7236" lon="4.94554">
        <ele>246.6</ele>
        <time>2025-11-12T10:20:19.034Z</time>
      </trkpt>
      <trkpt lat="43.72362" lon="4.94553">
        <ele>247.2</ele>
        <time>2025-11-12T10:20:22.034Z</time>
      </trkpt>
      <trkpt lat="43.72365" lon="4.94553">
        <ele>247.2</ele>
        <time>2025-11-12T10:20:24.034Z</time>
      </trkpt>
      <trkpt lat="43.72367" lon="4.94553">
        <ele>247.1</ele>
        <time>2025-11-12T10:20:27.035Z</time>
      </trkpt>
      <trkpt lat="43.7237" lon="4.94552">
        <ele>247.6</ele>
        <time>2025-11-12T10:20:30.035Z</time>
      </trkpt>
      <trkpt lat="43.72373" lon="4.94553">
        <ele>247.4</ele>
        <time>2025-11-12T10:20:33.034Z</time>
      </trkpt>
      <trkpt lat="43.72375" lon="4.94552">
        <ele>248.1</ele>
        <time>2025-11-12T10:20:37.035Z</time>
      </trkpt>
      <trkpt lat="43.72378" lon="4.94551">
        <ele>248.4</ele>
        <time>2025-11-12T10:20:40.035Z</time>
      </trkpt>
      <trkpt lat="43.72381" lon="4.9455">
        <ele>248.8</ele>
        <time>2025-11-12T10:20:43.034Z</time>
      </trkpt>
      <trkpt lat="43.72384" lon="4.9455">
        <ele>249.1</ele>
        <time>2025-11-12T10:20:47.034Z</time>
      </trkpt>
      <trkpt lat="43.72387" lon="4.94549">
        <ele>249.6</ele>
        <time>2025-11-12T10:20:51.035Z</time>
      </trkpt>
      <trkpt lat="43.72389" lon="4.9455">
        <ele>249.4</ele>
        <time>2025-11-12T10:20:53.035Z</time>
      </trkpt>
      <trkpt lat="43.72392" lon="4.94548">
        <ele>249.5</ele>
        <time>2025-11-12T10:20:57.035Z</time>
      </trkpt>
      <trkpt lat="43.72394" lon="4.94547">
        <ele>250</ele>
        <time>2025-11-12T10:20:59.034Z</time>
      </trkpt>
      <trkpt lat="43.72397" lon="4.94546">
        <ele>250</ele>
        <time>2025-11-12T10:21:03.035Z</time>
      </trkpt>
      <trkpt lat="43.72399" lon="4.94545">
        <ele>250.2</ele>
        <time>2025-11-12T10:21:06.034Z</time>
      </trkpt>
      <trkpt lat="43.72402" lon="4.94544">
        <ele>250</ele>
        <time>2025-11-12T10:21:08.034Z</time>
      </trkpt>
      <trkpt lat="43.72403" lon="4.94541">
        <ele>251</ele>
        <time>2025-11-12T10:21:11.035Z</time>
      </trkpt>
      <trkpt lat="43.72405" lon="4.94539">
        <ele>251.5</ele>
        <time>2025-11-12T10:21:14.035Z</time>
      </trkpt>
      <trkpt lat="43.72407" lon="4.94537">
        <ele>251.8</ele>
        <time>2025-11-12T10:21:16.035Z</time>
      </trkpt>
      <trkpt lat="43.72409" lon="4.94535">
        <ele>252.2</ele>
        <time>2025-11-12T10:21:19.034Z</time>
      </trkpt>
      <trkpt lat="43.72412" lon="4.94533">
        <ele>252.2</ele>
        <time>2025-11-12T10:21:22.035Z</time>
      </trkpt>
      <trkpt lat="43.72414" lon="4.94531">
        <ele>252.5</ele>
        <time>2025-11-12T10:21:24.034Z</time>
      </trkpt>
      <trkpt lat="43.72416" lon="4.94529">
        <ele>252.8</ele>
        <time>2025-11-12T10:21:28.035Z</time>
      </trkpt>
      <trkpt lat="43.72418" lon="4.94527">
        <ele>252.8</ele>
        <time>2025-11-12T10:21:31.035Z</time>
      </trkpt>
      <trkpt lat="43.72418" lon="4.94524">
        <ele>253.8</ele>
        <time>2025-11-12T10:21:38.035Z</time>
      </trkpt>
      <trkpt lat="43.72419" lon="4.94527">
        <ele>252.4</ele>
        <time>2025-11-12T10:22:37.035Z</time>
      </trkpt>
      <trkpt lat="43.72422" lon="4.94524">
        <ele>252</ele>
        <time>2025-11-12T10:22:42.035Z</time>
      </trkpt>
      <trkpt lat="43.72424" lon="4.94521">
        <ele>252.4</ele>
        <time>2025-11-12T10:22:45.034Z</time>
      </trkpt>
      <trkpt lat="43.72426" lon="4.94519">
        <ele>252.2</ele>
        <time>2025-11-12T10:22:47.034Z</time>
      </trkpt>
      <trkpt lat="43.72427" lon="4.94516">
        <ele>252.3</ele>
        <time>2025-11-12T10:22:50.035Z</time>
      </trkpt>
      <trkpt lat="43.72429" lon="4.94513">
        <ele>252.4</ele>
        <time>2025-11-12T10:22:53.035Z</time>
      </trkpt>
      <trkpt lat="43.7243" lon="4.94509">
        <ele>252.8</ele>
        <time>2025-11-12T10:22:56.034Z</time>
      </trkpt>
      <trkpt lat="43.72431" lon="4.94506">
        <ele>253</ele>
        <time>2025-11-12T10:22:59.035Z</time>
      </trkpt>
      <trkpt lat="43.72432" lon="4.94503">
        <ele>253.4</ele>
        <time>2025-11-12T10:23:02.034Z</time>
      </trkpt>
      <trkpt lat="43.72432" lon="4.945">
        <ele>254.2</ele>
        <time>2025-11-12T10:23:05.035Z</time>
      </trkpt>
      <trkpt lat="43.72433" lon="4.94496">
        <ele>254.3</ele>
        <time>2025-11-12T10:23:08.034Z</time>
      </trkpt>
      <trkpt lat="43.72434" lon="4.94492">
        <ele>254.9</ele>
        <time>2025-11-12T10:23:11.035Z</time>
      </trkpt>
      <trkpt lat="43.72434" lon="4.94487">
        <ele>255.9</ele>
        <time>2025-11-12T10:23:14.035Z</time>
      </trkpt>
      <trkpt lat="43.72434" lon="4.94483">
        <ele>256.9</ele>
        <time>2025-11-12T10:23:17.034Z</time>
      </trkpt>
      <trkpt lat="43.72434" lon="4.94479">
        <ele>257.8</ele>
        <time>2025-11-12T10:23:20.034Z</time>
      </trkpt>
      <trkpt lat="43.72435" lon="4.94476">
        <ele>258.3</ele>
        <time>2025-11-12T10:23:22.035Z</time>
      </trkpt>
      <trkpt lat="43.72436" lon="4.94473">
        <ele>258.7</ele>
        <time>2025-11-12T10:23:24.035Z</time>
      </trkpt>
      <trkpt lat="43.72436" lon="4.9447">
        <ele>259.6</ele>
        <time>2025-11-12T10:23:26.035Z</time>
      </trkpt>
      <trkpt lat="43.72437" lon="4.94467">
        <ele>260.4</ele>
        <time>2025-11-12T10:23:28.034Z</time>
      </trkpt>
      <trkpt lat="43.7244" lon="4.94465">
        <ele>260.1</ele>
        <time>2025-11-12T10:23:32.035Z</time>
      </trkpt>
      <trkpt lat="43.72442" lon="4.94465">
        <ele>259.6</ele>
        <time>2025-11-12T10:23:35.035Z</time>
      </trkpt>
      <trkpt lat="43.72445" lon="4.94463">
        <ele>259.6</ele>
        <time>2025-11-12T10:23:37.034Z</time>
      </trkpt>
      <trkpt lat="43.72447" lon="4.94461">
        <ele>260.8</ele>
        <time>2025-11-12T10:23:39.035Z</time>
      </trkpt>
      <trkpt lat="43.72449" lon="4.9446">
        <ele>261</ele>
        <time>2025-11-12T10:23:42.035Z</time>
      </trkpt>
      <trkpt lat="43.72451" lon="4.94458">
        <ele>261.7</ele>
        <time>2025-11-12T10:23:44.035Z</time>
      </trkpt>
      <trkpt lat="43.72454" lon="4.94457">
        <ele>262.2</ele>
        <time>2025-11-12T10:23:46.034Z</time>
      </trkpt>
      <trkpt lat="43.72456" lon="4.94457">
        <ele>262.1</ele>
        <time>2025-11-12T10:23:49.035Z</time>
      </trkpt>
      <trkpt lat="43.72459" lon="4.94457">
        <ele>262.2</ele>
        <time>2025-11-12T10:23:52.035Z</time>
      </trkpt>
      <trkpt lat="43.72461" lon="4.94456">
        <ele>262.3</ele>
        <time>2025-11-12T10:23:55.034Z</time>
      </trkpt>
      <trkpt lat="43.72464" lon="4.94456">
        <ele>262.1</ele>
        <time>2025-11-12T10:24:00.034Z</time>
      </trkpt>
      <trkpt lat="43.72466" lon="4.94455">
        <ele>262.2</ele>
        <time>2025-11-12T10:24:03.034Z</time>
      </trkpt>
      <trkpt lat="43.72469" lon="4.94456">
        <ele>262</ele>
        <time>2025-11-12T10:24:06.035Z</time>
      </trkpt>
      <trkpt lat="43.72472" lon="4.94455">
        <ele>262.1</ele>
        <time>2025-11-12T10:24:10.035Z</time>
      </trkpt>
      <trkpt lat="43.72475" lon="4.94453">
        <ele>261.7</ele>
        <time>2025-11-12T10:24:13.035Z</time>
      </trkpt>
      <trkpt lat="43.72476" lon="4.9445">
        <ele>261.9</ele>
        <time>2025-11-12T10:24:15.035Z</time>
      </trkpt>
      <trkpt lat="43.72478" lon="4.94447">
        <ele>262.1</ele>
        <time>2025-11-12T10:24:19.035Z</time>
      </trkpt>
      <trkpt lat="43.72479" lon="4.94444">
        <ele>262.2</ele>
        <time>2025-11-12T10:24:21.034Z</time>
      </trkpt>
      <trkpt lat="43.72481" lon="4.94441">
        <ele>262.1</ele>
        <time>2025-11-12T10:24:24.035Z</time>
      </trkpt>
      <trkpt lat="43.72481" lon="4.94437">
        <ele>262.8</ele>
        <time>2025-11-12T10:24:27.035Z</time>
      </trkpt>
      <trkpt lat="43.72483" lon="4.94433">
        <ele>263.2</ele>
        <time>2025-11-12T10:24:30.035Z</time>
      </trkpt>
      <trkpt lat="43.72484" lon="4.9443">
        <ele>263.3</ele>
        <time>2025-11-12T10:24:32.035Z</time>
      </trkpt>
      <trkpt lat="43.72485" lon="4.94427">
        <ele>263.7</ele>
        <time>2025-11-12T10:24:35.034Z</time>
      </trkpt>
      <trkpt lat="43.72485" lon="4.94423">
        <ele>264</ele>
        <time>2025-11-12T10:24:37.034Z</time>
      </trkpt>
      <trkpt lat="43.72485" lon="4.9442">
        <ele>264.9</ele>
        <time>2025-11-12T10:24:40.035Z</time>
      </trkpt>
      <trkpt lat="43.72485" lon="4.94415">
        <ele>265.8</ele>
        <time>2025-11-12T10:24:44.034Z</time>
      </trkpt>
      <trkpt lat="43.72486" lon="4.94412">
        <ele>266.1</ele>
        <time>2025-11-12T10:24:47.034Z</time>
      </trkpt>
      <trkpt lat="43.72486" lon="4.94409">
        <ele>267</ele>
        <time>2025-11-12T10:24:49.034Z</time>
      </trkpt>
      <trkpt lat="43.72488" lon="4.94405">
        <ele>266.9</ele>
        <time>2025-11-12T10:24:52.034Z</time>
      </trkpt>
      <trkpt lat="43.7249" lon="4.94403">
        <ele>267</ele>
        <time>2025-11-12T10:24:54.035Z</time>
      </trkpt>
      <trkpt lat="43.72491" lon="4.94399">
        <ele>267.6</ele>
        <time>2025-11-12T10:24:58.034Z</time>
      </trkpt>
      <trkpt lat="43.72492" lon="4.94396">
        <ele>267.8</ele>
        <time>2025-11-12T10:25:01.034Z</time>
      </trkpt>
      <trkpt lat="43.72494" lon="4.94393">
        <ele>267.9</ele>
        <time>2025-11-12T10:25:03.034Z</time>
      </trkpt>
      <trkpt lat="43.72497" lon="4.94391">
        <ele>267.6</ele>
        <time>2025-11-12T10:25:05.035Z</time>
      </trkpt>
      <trkpt lat="43.72498" lon="4.94389">
        <ele>267.5</ele>
        <time>2025-11-12T10:25:07.035Z</time>
      </trkpt>
      <trkpt lat="43.72501" lon="4.94386">
        <ele>267.5</ele>
        <time>2025-11-12T10:25:10.035Z</time>
      </trkpt>
      <trkpt lat="43.72503" lon="4.94384">
        <ele>267.4</ele>
        <time>2025-11-12T10:25:12.035Z</time>
      </trkpt>
      <trkpt lat="43.72505" lon="4.94382">
        <ele>267.2</ele>
        <time>2025-11-12T10:25:14.035Z</time>
      </trkpt>
      <trkpt lat="43.72506" lon="4.9438">
        <ele>267.1</ele>
        <time>2025-11-12T10:25:17.035Z</time>
      </trkpt>
      <trkpt lat="43.72508" lon="4.94377">
        <ele>267</ele>
        <time>2025-11-12T10:25:20.035Z</time>
      </trkpt>
      <trkpt lat="43.7251" lon="4.94373">
        <ele>267</ele>
        <time>2025-11-12T10:25:23.035Z</time>
      </trkpt>
      <trkpt lat="43.72512" lon="4.94371">
        <ele>266.6</ele>
        <time>2025-11-12T10:25:25.035Z</time>
      </trkpt>
      <trkpt lat="43.72513" lon="4.94367">
        <ele>267.3</ele>
        <time>2025-11-12T10:25:29.034Z</time>
      </trkpt>
      <trkpt lat="43.72514" lon="4.94364">
        <ele>267.3</ele>
        <time>2025-11-12T10:25:32.034Z</time>
      </trkpt>
      <trkpt lat="43.72515" lon="4.9436">
        <ele>267.7</ele>
        <time>2025-11-12T10:25:35.034Z</time>
      </trkpt>
      <trkpt lat="43.72515" lon="4.94356">
        <ele>268.4</ele>
        <time>2025-11-12T10:25:37.035Z</time>
      </trkpt>
      <trkpt lat="43.72515" lon="4.94353">
        <ele>268.8</ele>
        <time>2025-11-12T10:25:39.035Z</time>
      </trkpt>
      <trkpt lat="43.72517" lon="4.94349">
        <ele>268.7</ele>
        <time>2025-11-12T10:25:42.034Z</time>
      </trkpt>
      <trkpt lat="43.72518" lon="4.94345">
        <ele>269.4</ele>
        <time>2025-11-12T10:25:46.034Z</time>
      </trkpt>
      <trkpt lat="43.72518" lon="4.94341">
        <ele>269.7</ele>
        <time>2025-11-12T10:25:49.035Z</time>
      </trkpt>
      <trkpt lat="43.72519" lon="4.94338">
        <ele>270.2</ele>
        <time>2025-11-12T10:25:51.035Z</time>
      </trkpt>
      <trkpt lat="43.72519" lon="4.94333">
        <ele>270.8</ele>
        <time>2025-11-12T10:25:55.035Z</time>
      </trkpt>
      <trkpt lat="43.72519" lon="4.94329">
        <ele>271.6</ele>
        <time>2025-11-12T10:25:58.035Z</time>
      </trkpt>
      <trkpt lat="43.7252" lon="4.94325">
        <ele>272</ele>
        <time>2025-11-12T10:26:01.034Z</time>
      </trkpt>
      <trkpt lat="43.72521" lon="4.94322">
        <ele>272</ele>
        <time>2025-11-12T10:26:03.035Z</time>
      </trkpt>
      <trkpt lat="43.72522" lon="4.94318">
        <ele>272.5</ele>
        <time>2025-11-12T10:26:06.034Z</time>
      </trkpt>
      <trkpt lat="43.72524" lon="4.94316">
        <ele>272.2</ele>
        <time>2025-11-12T10:26:09.035Z</time>
      </trkpt>
      <trkpt lat="43.72526" lon="4.94312">
        <ele>272.4</ele>
        <time>2025-11-12T10:26:13.035Z</time>
      </trkpt>
      <trkpt lat="43.72527" lon="4.9431">
        <ele>272.2</ele>
        <time>2025-11-12T10:26:15.034Z</time>
      </trkpt>
      <trkpt lat="43.7253" lon="4.94307">
        <ele>272.8</ele>
        <time>2025-11-12T10:26:18.035Z</time>
      </trkpt>
      <trkpt lat="43.72532" lon="4.94305">
        <ele>273.6</ele>
        <time>2025-11-12T10:26:21.034Z</time>
      </trkpt>
      <trkpt lat="43.72534" lon="4.94302">
        <ele>274.4</ele>
        <time>2025-11-12T10:26:23.035Z</time>
      </trkpt>
      <trkpt lat="43.72535" lon="4.94299">
        <ele>275.4</ele>
        <time>2025-11-12T10:26:26.034Z</time>
      </trkpt>
      <trkpt lat="43.72537" lon="4.94296">
        <ele>276.4</ele>
        <time>2025-11-12T10:26:29.035Z</time>
      </trkpt>
      <trkpt lat="43.72539" lon="4.94294">
        <ele>277.3</ele>
        <time>2025-11-12T10:26:32.034Z</time>
      </trkpt>
      <trkpt lat="43.72541" lon="4.94292">
        <ele>278</ele>
        <time>2025-11-12T10:26:35.034Z</time>
      </trkpt>
      <trkpt lat="43.72544" lon="4.94292">
        <ele>278.2</ele>
        <time>2025-11-12T10:26:38.034Z</time>
      </trkpt>
      <trkpt lat="43.72547" lon="4.94294">
        <ele>277.6</ele>
        <time>2025-11-12T10:26:41.035Z</time>
      </trkpt>
      <trkpt lat="43.7255" lon="4.94295">
        <ele>277.5</ele>
        <time>2025-11-12T10:26:43.034Z</time>
      </trkpt>
      <trkpt lat="43.72552" lon="4.94297">
        <ele>277.3</ele>
        <time>2025-11-12T10:26:46.034Z</time>
      </trkpt>
      <trkpt lat="43.72555" lon="4.94299">
        <ele>277</ele>
        <time>2025-11-12T10:26:48.035Z</time>
      </trkpt>
      <trkpt lat="43.72557" lon="4.94301">
        <ele>276.8</ele>
        <time>2025-11-12T10:26:50.035Z</time>
      </trkpt>
      <trkpt lat="43.72558" lon="4.94305">
        <ele>275.8</ele>
        <time>2025-11-12T10:26:53.034Z</time>
      </trkpt>
      <trkpt lat="43.72561" lon="4.94306">
        <ele>276.1</ele>
        <time>2025-11-12T10:26:56.034Z</time>
      </trkpt>
      <trkpt lat="43.72563" lon="4.94309">
        <ele>276.2</ele>
        <time>2025-11-12T10:27:00.034Z</time>
      </trkpt>
      <trkpt lat="43.72565" lon="4.9431">
        <ele>276.5</ele>
        <time>2025-11-12T10:27:02.035Z</time>
      </trkpt>
      <trkpt lat="43.72567" lon="4.94313">
        <ele>276.2</ele>
        <time>2025-11-12T10:27:05.034Z</time>
      </trkpt>
      <trkpt lat="43.72569" lon="4.94316">
        <ele>276.1</ele>
        <time>2025-11-12T10:27:08.035Z</time>
      </trkpt>
      <trkpt lat="43.72571" lon="4.94319">
        <ele>276.1</ele>
        <time>2025-11-12T10:27:11.035Z</time>
      </trkpt>
      <trkpt lat="43.72573" lon="4.9432">
        <ele>276.4</ele>
        <time>2025-11-12T10:27:14.035Z</time>
      </trkpt>
      <trkpt lat="43.72576" lon="4.94319">
        <ele>277.2</ele>
        <time>2025-11-12T10:27:17.034Z</time>
      </trkpt>
      <trkpt lat="43.72577" lon="4.94315">
        <ele>278.3</ele>
        <time>2025-11-12T10:27:21.034Z</time>
      </trkpt>
      <trkpt lat="43.72579" lon="4.94312">
        <ele>279.5</ele>
        <time>2025-11-12T10:27:24.035Z</time>
      </trkpt>
      <trkpt lat="43.72577" lon="4.94309">
        <ele>279.7</ele>
        <time>2025-11-12T10:27:27.034Z</time>
      </trkpt>
      <trkpt lat="43.72575" lon="4.94307">
        <ele>279.6</ele>
        <time>2025-11-12T10:27:30.034Z</time>
      </trkpt>
      <trkpt lat="43.72573" lon="4.94305">
        <ele>279.6</ele>
        <time>2025-11-12T10:27:33.034Z</time>
      </trkpt>
      <trkpt lat="43.72572" lon="4.94302">
        <ele>280.1</ele>
        <time>2025-11-12T10:27:37.035Z</time>
      </trkpt>
      <trkpt lat="43.72569" lon="4.943">
        <ele>279.9</ele>
        <time>2025-11-12T10:27:40.035Z</time>
      </trkpt>
      <trkpt lat="43.72566" lon="4.94298">
        <ele>280</ele>
        <time>2025-11-12T10:27:53.034Z</time>
      </trkpt>
      <trkpt lat="43.72565" lon="4.94295">
        <ele>280.6</ele>
        <time>2025-11-12T10:27:56.034Z</time>
      </trkpt>
      <trkpt lat="43.72563" lon="4.94292">
        <ele>280.8</ele>
        <time>2025-11-12T10:28:00.034Z</time>
      </trkpt>
      <trkpt lat="43.72561" lon="4.94289">
        <ele>281.4</ele>
        <time>2025-11-12T10:28:03.035Z</time>
      </trkpt>
      <trkpt lat="43.72559" lon="4.94286">
        <ele>281.6</ele>
        <time>2025-11-12T10:28:06.034Z</time>
      </trkpt>
      <trkpt lat="43.72557" lon="4.94283">
        <ele>281.7</ele>
        <time>2025-11-12T10:28:10.035Z</time>
      </trkpt>
      <trkpt lat="43.72554" lon="4.94281">
        <ele>282</ele>
        <time>2025-11-12T10:28:13.034Z</time>
      </trkpt>
      <trkpt lat="43.72553" lon="4.94279">
        <ele>282.5</ele>
        <time>2025-11-12T10:28:16.034Z</time>
      </trkpt>
      <trkpt lat="43.72551" lon="4.94277">
        <ele>283</ele>
        <time>2025-11-12T10:28:18.034Z</time>
      </trkpt>
      <trkpt lat="43.72548" lon="4.94274">
        <ele>283.6</ele>
        <time>2025-11-12T10:28:20.035Z</time>
      </trkpt>
      <trkpt lat="43.72546" lon="4.94272">
        <ele>284.3</ele>
        <time>2025-11-12T10:28:23.035Z</time>
      </trkpt>
      <trkpt lat="43.72545" lon="4.9427">
        <ele>284.7</ele>
        <time>2025-11-12T10:28:26.035Z</time>
      </trkpt>
      <trkpt lat="43.72542" lon="4.94269">
        <ele>284.5</ele>
        <time>2025-11-12T10:28:28.035Z</time>
      </trkpt>
      <trkpt lat="43.7254" lon="4.94268">
        <ele>284.6</ele>
        <time>2025-11-12T10:28:31.035Z</time>
      </trkpt>
      <trkpt lat="43.72537" lon="4.94268">
        <ele>284.3</ele>
        <time>2025-11-12T10:28:34.035Z</time>
      </trkpt>
      <trkpt lat="43.72535" lon="4.94268">
        <ele>283.9</ele>
        <time>2025-11-12T10:28:36.034Z</time>
      </trkpt>
      <trkpt lat="43.72532" lon="4.94268">
        <ele>283.5</ele>
        <time>2025-11-12T10:28:38.035Z</time>
      </trkpt>
      <trkpt lat="43.7253" lon="4.94269">
        <ele>283.1</ele>
        <time>2025-11-12T10:28:40.034Z</time>
      </trkpt>
      <trkpt lat="43.72527" lon="4.94269">
        <ele>282.9</ele>
        <time>2025-11-12T10:28:43.034Z</time>
      </trkpt>
      <trkpt lat="43.72524" lon="4.94271">
        <ele>283.4</ele>
        <time>2025-11-12T10:28:46.034Z</time>
      </trkpt>
      <trkpt lat="43.72522" lon="4.94272">
        <ele>283.5</ele>
        <time>2025-11-12T10:28:49.035Z</time>
      </trkpt>
      <trkpt lat="43.7252" lon="4.94272">
        <ele>284</ele>
        <time>2025-11-12T10:28:51.034Z</time>
      </trkpt>
      <trkpt lat="43.72518" lon="4.94274">
        <ele>284.1</ele>
        <time>2025-11-12T10:28:54.035Z</time>
      </trkpt>
      <trkpt lat="43.72516" lon="4.94277">
        <ele>283.9</ele>
        <time>2025-11-12T10:28:57.035Z</time>
      </trkpt>
      <trkpt lat="43.72513" lon="4.94278">
        <ele>284.1</ele>
        <time>2025-11-12T10:29:01.034Z</time>
      </trkpt>
      <trkpt lat="43.72511" lon="4.9428">
        <ele>284.1</ele>
        <time>2025-11-12T10:29:04.034Z</time>
      </trkpt>
      <trkpt lat="43.72509" lon="4.94283">
        <ele>284.2</ele>
        <time>2025-11-12T10:29:07.035Z</time>
      </trkpt>
      <trkpt lat="43.72506" lon="4.94285">
        <ele>284.3</ele>
        <time>2025-11-12T10:29:11.034Z</time>
      </trkpt>
      <trkpt lat="43.72505" lon="4.94288">
        <ele>284.4</ele>
        <time>2025-11-12T10:29:13.035Z</time>
      </trkpt>
      <trkpt lat="43.72502" lon="4.94291">
        <ele>284.4</ele>
        <time>2025-11-12T10:29:16.035Z</time>
      </trkpt>
      <trkpt lat="43.72501" lon="4.94294">
        <ele>284.4</ele>
        <time>2025-11-12T10:29:19.034Z</time>
      </trkpt>
      <trkpt lat="43.72499" lon="4.94296">
        <ele>284.6</ele>
        <time>2025-11-12T10:29:37.034Z</time>
      </trkpt>
      <trkpt lat="43.72497" lon="4.94297">
        <ele>284.8</ele>
        <time>2025-11-12T10:29:57.035Z</time>
      </trkpt>
      <trkpt lat="43.72495" lon="4.94299">
        <ele>284.9</ele>
        <time>2025-11-12T10:30:00.034Z</time>
      </trkpt>
      <trkpt lat="43.72493" lon="4.94302">
        <ele>285.2</ele>
        <time>2025-11-12T10:30:03.035Z</time>
      </trkpt>
      <trkpt lat="43.72491" lon="4.94302">
        <ele>285.6</ele>
        <time>2025-11-12T10:30:06.035Z</time>
      </trkpt>
      <trkpt lat="43.72488" lon="4.94303">
        <ele>286.1</ele>
        <time>2025-11-12T10:30:10.034Z</time>
      </trkpt>
      <trkpt lat="43.72486" lon="4.94304">
        <ele>286.6</ele>
        <time>2025-11-12T10:30:14.034Z</time>
      </trkpt>
      <trkpt lat="43.72484" lon="4.94303">
        <ele>287.2</ele>
        <time>2025-11-12T10:30:17.034Z</time>
      </trkpt>
      <trkpt lat="43.72483" lon="4.943">
        <ele>287.4</ele>
        <time>2025-11-12T10:30:20.034Z</time>
      </trkpt>
      <trkpt lat="43.72482" lon="4.94295">
        <ele>287.8</ele>
        <time>2025-11-12T10:30:24.035Z</time>
      </trkpt>
      <trkpt lat="43.72482" lon="4.94291">
        <ele>287.9</ele>
        <time>2025-11-12T10:30:28.035Z</time>
      </trkpt>
      <trkpt lat="43.72482" lon="4.94287">
        <ele>288.1</ele>
        <time>2025-11-12T10:30:31.035Z</time>
      </trkpt>
      <trkpt lat="43.72482" lon="4.94283">
        <ele>288.1</ele>
        <time>2025-11-12T10:30:33.034Z</time>
      </trkpt>
      <trkpt lat="43.72483" lon="4.9428">
        <ele>288.1</ele>
        <time>2025-11-12T10:30:36.035Z</time>
      </trkpt>
      <trkpt lat="43.72483" lon="4.94276">
        <ele>288.4</ele>
        <time>2025-11-12T10:30:39.035Z</time>
      </trkpt>
      <trkpt lat="43.72483" lon="4.94272">
        <ele>289</ele>
        <time>2025-11-12T10:30:42.034Z</time>
      </trkpt>
      <trkpt lat="43.72483" lon="4.94268">
        <ele>289.6</ele>
        <time>2025-11-12T10:30:45.035Z</time>
      </trkpt>
      <trkpt lat="43.72483" lon="4.94264">
        <ele>290.2</ele>
        <time>2025-11-12T10:30:48.035Z</time>
      </trkpt>
      <trkpt lat="43.72484" lon="4.9426">
        <ele>290.8</ele>
        <time>2025-11-12T10:30:52.034Z</time>
      </trkpt>
      <trkpt lat="43.72484" lon="4.94256">
        <ele>291.3</ele>
        <time>2025-11-12T10:30:56.035Z</time>
      </trkpt>
      <trkpt lat="43.72483" lon="4.94253">
        <ele>291.8</ele>
        <time>2025-11-12T10:31:00.034Z</time>
      </trkpt>
      <trkpt lat="43.72482" lon="4.9425">
        <ele>292.1</ele>
        <time>2025-11-12T10:31:03.034Z</time>
      </trkpt>
      <trkpt lat="43.72482" lon="4.94247">
        <ele>292.5</ele>
        <time>2025-11-12T10:31:07.035Z</time>
      </trkpt>
      <trkpt lat="43.72481" lon="4.94243">
        <ele>293</ele>
        <time>2025-11-12T10:31:10.035Z</time>
      </trkpt>
      <trkpt lat="43.7248" lon="4.9424">
        <ele>293.4</ele>
        <time>2025-11-12T10:31:12.035Z</time>
      </trkpt>
      <trkpt lat="43.7248" lon="4.94236">
        <ele>293.9</ele>
        <time>2025-11-12T10:31:16.035Z</time>
      </trkpt>
      <trkpt lat="43.7248" lon="4.94232">
        <ele>294.5</ele>
        <time>2025-11-12T10:31:20.035Z</time>
      </trkpt>
      <trkpt lat="43.72478" lon="4.94229">
        <ele>294.9</ele>
        <time>2025-11-12T10:31:23.034Z</time>
      </trkpt>
      <trkpt lat="43.72477" lon="4.94225">
        <ele>295.3</ele>
        <time>2025-11-12T10:31:27.034Z</time>
      </trkpt>
      <trkpt lat="43.72476" lon="4.94222">
        <ele>295.7</ele>
        <time>2025-11-12T10:31:30.035Z</time>
      </trkpt>
      <trkpt lat="43.72475" lon="4.94218">
        <ele>296.5</ele>
        <time>2025-11-12T10:31:33.035Z</time>
      </trkpt>
      <trkpt lat="43.72474" lon="4.94214">
        <ele>297.5</ele>
        <time>2025-11-12T10:31:37.034Z</time>
      </trkpt>
      <trkpt lat="43.72471" lon="4.94213">
        <ele>297.6</ele>
        <time>2025-11-12T10:31:40.035Z</time>
      </trkpt>
      <trkpt lat="43.72469" lon="4.9421">
        <ele>297.8</ele>
        <time>2025-11-12T10:31:43.035Z</time>
      </trkpt>
      <trkpt lat="43.72467" lon="4.94208">
        <ele>298.2</ele>
        <time>2025-11-12T10:31:46.034Z</time>
      </trkpt>
      <trkpt lat="43.72465" lon="4.94205">
        <ele>298.6</ele>
        <time>2025-11-12T10:31:49.035Z</time>
      </trkpt>
      <trkpt lat="43.72462" lon="4.94203">
        <ele>298.9</ele>
        <time>2025-11-12T10:31:52.035Z</time>
      </trkpt>
      <trkpt lat="43.7246" lon="4.94201">
        <ele>299</ele>
        <time>2025-11-12T10:31:55.035Z</time>
      </trkpt>
      <trkpt lat="43.72458" lon="4.942">
        <ele>299.2</ele>
        <time>2025-11-12T10:31:59.035Z</time>
      </trkpt>
      <trkpt lat="43.72455" lon="4.94198">
        <ele>299.3</ele>
        <time>2025-11-12T10:32:02.035Z</time>
      </trkpt>
      <trkpt lat="43.72453" lon="4.94198">
        <ele>299</ele>
        <time>2025-11-12T10:32:05.035Z</time>
      </trkpt>
      <trkpt lat="43.7245" lon="4.94197">
        <ele>298.8</ele>
        <time>2025-11-12T10:32:09.035Z</time>
      </trkpt>
      <trkpt lat="43.72447" lon="4.94196">
        <ele>298.9</ele>
        <time>2025-11-12T10:32:12.034Z</time>
      </trkpt>
      <trkpt lat="43.72445" lon="4.94195">
        <ele>298.8</ele>
        <time>2025-11-12T10:32:15.035Z</time>
      </trkpt>
      <trkpt lat="43.72442" lon="4.94194">
        <ele>299.1</ele>
        <time>2025-11-12T10:32:18.034Z</time>
      </trkpt>
      <trkpt lat="43.7244" lon="4.94192">
        <ele>299.4</ele>
        <time>2025-11-12T10:32:21.035Z</time>
      </trkpt>
      <trkpt lat="43.72437" lon="4.9419">
        <ele>299.7</ele>
        <time>2025-11-12T10:32:24.034Z</time>
      </trkpt>
      <trkpt lat="43.72434" lon="4.94188">
        <ele>300.4</ele>
        <time>2025-11-12T10:32:27.035Z</time>
      </trkpt>
      <trkpt lat="43.72432" lon="4.94186">
        <ele>300.7</ele>
        <time>2025-11-12T10:32:30.035Z</time>
      </trkpt>
      <trkpt lat="43.7243" lon="4.94184">
        <ele>301.1</ele>
        <time>2025-11-12T10:32:35.034Z</time>
      </trkpt>
      <trkpt lat="43.72428" lon="4.94181">
        <ele>301.8</ele>
        <time>2025-11-12T10:32:38.035Z</time>
      </trkpt>
      <trkpt lat="43.72425" lon="4.94178">
        <ele>302.2</ele>
        <time>2025-11-12T10:32:41.035Z</time>
      </trkpt>
      <trkpt lat="43.72422" lon="4.94176">
        <ele>302.2</ele>
        <time>2025-11-12T10:32:44.035Z</time>
      </trkpt>
      <trkpt lat="43.7242" lon="4.94174">
        <ele>302.4</ele>
        <time>2025-11-12T10:32:47.034Z</time>
      </trkpt>
      <trkpt lat="43.72418" lon="4.94172">
        <ele>302.7</ele>
        <time>2025-11-12T10:32:50.034Z</time>
      </trkpt>
      <trkpt lat="43.72417" lon="4.94169">
        <ele>303.4</ele>
        <time>2025-11-12T10:32:53.035Z</time>
      </trkpt>
      <trkpt lat="43.72416" lon="4.94166">
        <ele>304</ele>
        <time>2025-11-12T10:32:57.034Z</time>
      </trkpt>
      <trkpt lat="43.72415" lon="4.94163">
        <ele>304</ele>
        <time>2025-11-12T10:33:00.035Z</time>
      </trkpt>
      <trkpt lat="43.72415" lon="4.94159">
        <ele>304.2</ele>
        <time>2025-11-12T10:33:03.034Z</time>
      </trkpt>
      <trkpt lat="43.72415" lon="4.94155">
        <ele>304.3</ele>
        <time>2025-11-12T10:33:06.035Z</time>
      </trkpt>
      <trkpt lat="43.72414" lon="4.94152">
        <ele>304.4</ele>
        <time>2025-11-12T10:33:10.035Z</time>
      </trkpt>
      <trkpt lat="43.72415" lon="4.94148">
        <ele>304.6</ele>
        <time>2025-11-12T10:35:17.035Z</time>
      </trkpt>
      <trkpt lat="43.72416" lon="4.94145">
        <ele>304.8</ele>
        <time>2025-11-12T10:35:21.035Z</time>
      </trkpt>
      <trkpt lat="43.72419" lon="4.94146">
        <ele>305.2</ele>
        <time>2025-11-12T10:35:46.034Z</time>
      </trkpt>
      <trkpt lat="43.72422" lon="4.94145">
        <ele>305.6</ele>
        <time>2025-11-12T10:35:49.035Z</time>
      </trkpt>
      <trkpt lat="43.72425" lon="4.94144">
        <ele>306</ele>
        <time>2025-11-12T10:35:52.034Z</time>
      </trkpt>
      <trkpt lat="43.72427" lon="4.94144">
        <ele>306.4</ele>
        <time>2025-11-12T10:35:55.035Z</time>
      </trkpt>
      <trkpt lat="43.7243" lon="4.94142">
        <ele>306.9</ele>
        <time>2025-11-12T10:35:59.035Z</time>
      </trkpt>
      <trkpt lat="43.72432" lon="4.9414">
        <ele>307.2</ele>
        <time>2025-11-12T10:36:02.035Z</time>
      </trkpt>
      <trkpt lat="43.72435" lon="4.94139">
        <ele>307.6</ele>
        <time>2025-11-12T10:36:05.035Z</time>
      </trkpt>
      <trkpt lat="43.72437" lon="4.94137">
        <ele>307.5</ele>
        <time>2025-11-12T10:36:08.035Z</time>
      </trkpt>
      <trkpt lat="43.7244" lon="4.94137">
        <ele>307.8</ele>
        <time>2025-11-12T10:36:11.035Z</time>
      </trkpt>
      <trkpt lat="43.72442" lon="4.94136">
        <ele>307.7</ele>
        <time>2025-11-12T10:36:15.035Z</time>
      </trkpt>
      <trkpt lat="43.72444" lon="4.94134">
        <ele>307.7</ele>
        <time>2025-11-12T10:36:18.035Z</time>
      </trkpt>
      <trkpt lat="43.72446" lon="4.94133">
        <ele>307.6</ele>
        <time>2025-11-12T10:36:22.035Z</time>
      </trkpt>
      <trkpt lat="43.72449" lon="4.94132">
        <ele>307.5</ele>
        <time>2025-11-12T10:36:27.035Z</time>
      </trkpt>
      <trkpt lat="43.72451" lon="4.94132">
        <ele>307.8</ele>
        <time>2025-11-12T10:36:30.035Z</time>
      </trkpt>
      <trkpt lat="43.72454" lon="4.94132">
        <ele>308.1</ele>
        <time>2025-11-12T10:36:33.035Z</time>
      </trkpt>
      <trkpt lat="43.72456" lon="4.94131">
        <ele>308.3</ele>
        <time>2025-11-12T10:36:36.035Z</time>
      </trkpt>
      <trkpt lat="43.72459" lon="4.94131">
        <ele>308.5</ele>
        <time>2025-11-12T10:36:39.035Z</time>
      </trkpt>
      <trkpt lat="43.72461" lon="4.9413">
        <ele>308.5</ele>
        <time>2025-11-12T10:36:42.034Z</time>
      </trkpt>
      <trkpt lat="43.72464" lon="4.94129">
        <ele>308.8</ele>
        <time>2025-11-12T10:36:46.035Z</time>
      </trkpt>
      <trkpt lat="43.72467" lon="4.94128">
        <ele>309</ele>
        <time>2025-11-12T10:36:49.035Z</time>
      </trkpt>
      <trkpt lat="43.72469" lon="4.94128">
        <ele>309.3</ele>
        <time>2025-11-12T10:36:51.035Z</time>
      </trkpt>
      <trkpt lat="43.72473" lon="4.94127">
        <ele>309.6</ele>
        <time>2025-11-12T10:36:54.034Z</time>
      </trkpt>
      <trkpt lat="43.72476" lon="4.94127">
        <ele>309.9</ele>
        <time>2025-11-12T10:36:57.035Z</time>
      </trkpt>
      <trkpt lat="43.72479" lon="4.94126">
        <ele>310</ele>
        <time>2025-11-12T10:36:59.034Z</time>
      </trkpt>
      <trkpt lat="43.72482" lon="4.94125">
        <ele>310.2</ele>
        <time>2025-11-12T10:37:02.035Z</time>
      </trkpt>
      <trkpt lat="43.72484" lon="4.94125">
        <ele>310.6</ele>
        <time>2025-11-12T10:37:23.035Z</time>
      </trkpt>
      <trkpt lat="43.72487" lon="4.94124">
        <ele>310.7</ele>
        <time>2025-11-12T10:37:26.034Z</time>
      </trkpt>
      <trkpt lat="43.72489" lon="4.94122">
        <ele>310.8</ele>
        <time>2025-11-12T10:37:28.035Z</time>
      </trkpt>
      <trkpt lat="43.72492" lon="4.9412">
        <ele>311</ele>
        <time>2025-11-12T10:37:31.035Z</time>
      </trkpt>
      <trkpt lat="43.72494" lon="4.94119">
        <ele>311.3</ele>
        <time>2025-11-12T10:37:34.035Z</time>
      </trkpt>
      <trkpt lat="43.72497" lon="4.94118">
        <ele>311.7</ele>
        <time>2025-11-12T10:37:37.035Z</time>
      </trkpt>
      <trkpt lat="43.725" lon="4.94116">
        <ele>312.1</ele>
        <time>2025-11-12T10:37:40.034Z</time>
      </trkpt>
      <trkpt lat="43.72502" lon="4.94116">
        <ele>312.1</ele>
        <time>2025-11-12T10:37:42.035Z</time>
      </trkpt>
      <trkpt lat="43.72505" lon="4.94118">
        <ele>312</ele>
        <time>2025-11-12T10:37:45.035Z</time>
      </trkpt>
      <trkpt lat="43.72507" lon="4.94119">
        <ele>312</ele>
        <time>2025-11-12T10:37:47.035Z</time>
      </trkpt>
      <trkpt lat="43.72509" lon="4.9412">
        <ele>311.9</ele>
        <time>2025-11-12T10:37:49.034Z</time>
      </trkpt>
      <trkpt lat="43.72511" lon="4.94122">
        <ele>311.9</ele>
        <time>2025-11-12T10:37:51.035Z</time>
      </trkpt>
      <trkpt lat="43.72512" lon="4.94127">
        <ele>311.9</ele>
        <time>2025-11-12T10:37:54.035Z</time>
      </trkpt>
      <trkpt lat="43.72514" lon="4.9413">
        <ele>311.9</ele>
        <time>2025-11-12T10:37:56.034Z</time>
      </trkpt>
      <trkpt lat="43.72515" lon="4.94133">
        <ele>311.8</ele>
        <time>2025-11-12T10:37:58.035Z</time>
      </trkpt>
      <trkpt lat="43.72516" lon="4.94137">
        <ele>311.8</ele>
        <time>2025-11-12T10:38:01.034Z</time>
      </trkpt>
      <trkpt lat="43.72517" lon="4.9414">
        <ele>311.8</ele>
        <time>2025-11-12T10:38:03.034Z</time>
      </trkpt>
      <trkpt lat="43.72518" lon="4.94144">
        <ele>311.7</ele>
        <time>2025-11-12T10:38:06.034Z</time>
      </trkpt>
      <trkpt lat="43.7252" lon="4.94147">
        <ele>311.6</ele>
        <time>2025-11-12T10:38:09.035Z</time>
      </trkpt>
      <trkpt lat="43.72521" lon="4.94151">
        <ele>311.5</ele>
        <time>2025-11-12T10:38:12.035Z</time>
      </trkpt>
      <trkpt lat="43.72523" lon="4.94152">
        <ele>311.3</ele>
        <time>2025-11-12T10:38:14.035Z</time>
      </trkpt>
      <trkpt lat="43.72526" lon="4.94154">
        <ele>311.2</ele>
        <time>2025-11-12T10:38:16.035Z</time>
      </trkpt>
      <trkpt lat="43.72528" lon="4.94154">
        <ele>311</ele>
        <time>2025-11-12T10:38:18.035Z</time>
      </trkpt>
      <trkpt lat="43.7253" lon="4.94155">
        <ele>311</ele>
        <time>2025-11-12T10:38:20.035Z</time>
      </trkpt>
      <trkpt lat="43.72533" lon="4.94156">
        <ele>311</ele>
        <time>2025-11-12T10:38:22.035Z</time>
      </trkpt>
      <trkpt lat="43.72536" lon="4.94157">
        <ele>311</ele>
        <time>2025-11-12T10:38:25.034Z</time>
      </trkpt>
      <trkpt lat="43.72539" lon="4.94156">
        <ele>311</ele>
        <time>2025-11-12T10:38:28.034Z</time>
      </trkpt>
      <trkpt lat="43.72542" lon="4.94156">
        <ele>311</ele>
        <time>2025-11-12T10:38:31.035Z</time>
      </trkpt>
      <trkpt lat="43.72545" lon="4.94157">
        <ele>311</ele>
        <time>2025-11-12T10:38:34.035Z</time>
      </trkpt>
      <trkpt lat="43.72547" lon="4.94155">
        <ele>311</ele>
        <time>2025-11-12T10:38:36.035Z</time>
      </trkpt>
      <trkpt lat="43.7255" lon="4.94154">
        <ele>311</ele>
        <time>2025-11-12T10:38:38.034Z</time>
      </trkpt>
      <trkpt lat="43.72552" lon="4.94153">
        <ele>311</ele>
        <time>2025-11-12T10:38:40.035Z</time>
      </trkpt>
      <trkpt lat="43.72555" lon="4.94153">
        <ele>311</ele>
        <time>2025-11-12T10:38:43.034Z</time>
      </trkpt>
      <trkpt lat="43.72557" lon="4.94151">
        <ele>311.3</ele>
        <time>2025-11-12T10:38:45.035Z</time>
      </trkpt>
      <trkpt lat="43.72559" lon="4.9415">
        <ele>311.8</ele>
        <time>2025-11-12T10:38:48.035Z</time>
      </trkpt>
      <trkpt lat="43.72562" lon="4.94147">
        <ele>312.3</ele>
        <time>2025-11-12T10:38:53.035Z</time>
      </trkpt>
      <trkpt lat="43.72565" lon="4.94146">
        <ele>312.8</ele>
        <time>2025-11-12T10:38:55.035Z</time>
      </trkpt>
      <trkpt lat="43.72567" lon="4.94144">
        <ele>313.2</ele>
        <time>2025-11-12T10:38:57.035Z</time>
      </trkpt>
      <trkpt lat="43.72569" lon="4.94142">
        <ele>313.5</ele>
        <time>2025-11-12T10:39:00.034Z</time>
      </trkpt>
      <trkpt lat="43.72572" lon="4.94139">
        <ele>314</ele>
        <time>2025-11-12T10:39:03.035Z</time>
      </trkpt>
      <trkpt lat="43.72575" lon="4.94138">
        <ele>314.4</ele>
        <time>2025-11-12T10:39:06.034Z</time>
      </trkpt>
      <trkpt lat="43.72578" lon="4.94136">
        <ele>314.4</ele>
        <time>2025-11-12T10:39:09.035Z</time>
      </trkpt>
      <trkpt lat="43.7258" lon="4.94133">
        <ele>314.4</ele>
        <time>2025-11-12T10:39:12.034Z</time>
      </trkpt>
      <trkpt lat="43.72582" lon="4.94131">
        <ele>314.3</ele>
        <time>2025-11-12T10:39:15.034Z</time>
      </trkpt>
      <trkpt lat="43.72584" lon="4.94129">
        <ele>314.3</ele>
        <time>2025-11-12T10:39:19.035Z</time>
      </trkpt>
      <trkpt lat="43.72587" lon="4.94126">
        <ele>314.2</ele>
        <time>2025-11-12T10:39:22.035Z</time>
      </trkpt>
      <trkpt lat="43.72589" lon="4.94125">
        <ele>314.4</ele>
        <time>2025-11-12T10:39:24.035Z</time>
      </trkpt>
      <trkpt lat="43.72591" lon="4.94122">
        <ele>314.4</ele>
        <time>2025-11-12T10:39:27.035Z</time>
      </trkpt>
      <trkpt lat="43.72594" lon="4.94119">
        <ele>314.5</ele>
        <time>2025-11-12T10:39:30.034Z</time>
      </trkpt>
      <trkpt lat="43.72596" lon="4.94117">
        <ele>314.7</ele>
        <time>2025-11-12T10:39:32.035Z</time>
      </trkpt>
      <trkpt lat="43.72599" lon="4.94115">
        <ele>315</ele>
        <time>2025-11-12T10:39:35.035Z</time>
      </trkpt>
      <trkpt lat="43.72602" lon="4.94114">
        <ele>315.3</ele>
        <time>2025-11-12T10:39:38.034Z</time>
      </trkpt>
      <trkpt lat="43.72605" lon="4.94112">
        <ele>315.8</ele>
        <time>2025-11-12T10:39:41.035Z</time>
      </trkpt>
      <trkpt lat="43.72607" lon="4.9411">
        <ele>316.1</ele>
        <time>2025-11-12T10:39:43.034Z</time>
      </trkpt>
      <trkpt lat="43.7261" lon="4.94108">
        <ele>316.3</ele>
        <time>2025-11-12T10:39:46.035Z</time>
      </trkpt>
      <trkpt lat="43.72612" lon="4.94107">
        <ele>316.5</ele>
        <time>2025-11-12T10:39:48.034Z</time>
      </trkpt>
      <trkpt lat="43.72614" lon="4.94105">
        <ele>316.6</ele>
        <time>2025-11-12T10:39:50.035Z</time>
      </trkpt>
      <trkpt lat="43.72617" lon="4.94103">
        <ele>317</ele>
        <time>2025-11-12T10:39:53.034Z</time>
      </trkpt>
      <trkpt lat="43.72619" lon="4.94101">
        <ele>317</ele>
        <time>2025-11-12T10:39:55.035Z</time>
      </trkpt>
      <trkpt lat="43.7262" lon="4.94098">
        <ele>317</ele>
        <time>2025-11-12T10:39:57.034Z</time>
      </trkpt>
      <trkpt lat="43.72621" lon="4.94096">
        <ele>317</ele>
        <time>2025-11-12T10:39:59.035Z</time>
      </trkpt>
      <trkpt lat="43.72623" lon="4.94093">
        <ele>317.2</ele>
        <time>2025-11-12T10:40:01.035Z</time>
      </trkpt>
      <trkpt lat="43.72623" lon="4.94089">
        <ele>317</ele>
        <time>2025-11-12T10:40:05.034Z</time>
      </trkpt>
      <trkpt lat="43.72625" lon="4.94086">
        <ele>317.1</ele>
        <time>2025-11-12T10:40:07.035Z</time>
      </trkpt>
      <trkpt lat="43.72626" lon="4.94083">
        <ele>317.1</ele>
        <time>2025-11-12T10:40:09.035Z</time>
      </trkpt>
      <trkpt lat="43.72627" lon="4.94078">
        <ele>317.3</ele>
        <time>2025-11-12T10:40:12.035Z</time>
      </trkpt>
      <trkpt lat="43.72628" lon="4.94074">
        <ele>317.4</ele>
        <time>2025-11-12T10:40:15.035Z</time>
      </trkpt>
      <trkpt lat="43.72629" lon="4.94071">
        <ele>317.5</ele>
        <time>2025-11-12T10:40:17.035Z</time>
      </trkpt>
      <trkpt lat="43.72631" lon="4.94068">
        <ele>317.9</ele>
        <time>2025-11-12T10:40:20.035Z</time>
      </trkpt>
      <trkpt lat="43.72632" lon="4.94065">
        <ele>318.1</ele>
        <time>2025-11-12T10:40:22.035Z</time>
      </trkpt>
      <trkpt lat="43.72633" lon="4.94063">
        <ele>318.4</ele>
        <time>2025-11-12T10:40:24.035Z</time>
      </trkpt>
      <trkpt lat="43.72634" lon="4.94058">
        <ele>318.6</ele>
        <time>2025-11-12T10:40:27.034Z</time>
      </trkpt>
      <trkpt lat="43.72635" lon="4.94055">
        <ele>318.7</ele>
        <time>2025-11-12T10:40:30.034Z</time>
      </trkpt>
      <trkpt lat="43.72636" lon="4.94052">
        <ele>318.8</ele>
        <time>2025-11-12T10:40:32.035Z</time>
      </trkpt>
      <trkpt lat="43.72638" lon="4.94049">
        <ele>319</ele>
        <time>2025-11-12T10:40:35.035Z</time>
      </trkpt>
      <trkpt lat="43.72639" lon="4.94046">
        <ele>319</ele>
        <time>2025-11-12T10:40:37.035Z</time>
      </trkpt>
      <trkpt lat="43.72641" lon="4.94043">
        <ele>319</ele>
        <time>2025-11-12T10:40:40.034Z</time>
      </trkpt>
      <trkpt lat="43.72642" lon="4.9404">
        <ele>319</ele>
        <time>2025-11-12T10:40:42.035Z</time>
      </trkpt>
      <trkpt lat="43.72645" lon="4.94037">
        <ele>319.2</ele>
        <time>2025-11-12T10:40:44.035Z</time>
      </trkpt>
      <trkpt lat="43.72646" lon="4.94034">
        <ele>319.2</ele>
        <time>2025-11-12T10:40:46.034Z</time>
      </trkpt>
      <trkpt lat="43.72648" lon="4.94031">
        <ele>319.4</ele>
        <time>2025-11-12T10:40:49.035Z</time>
      </trkpt>
      <trkpt lat="43.72651" lon="4.94029">
        <ele>319.6</ele>
        <time>2025-11-12T10:40:51.034Z</time>
      </trkpt>
      <trkpt lat="43.72652" lon="4.94026">
        <ele>319.6</ele>
        <time>2025-11-12T10:40:54.035Z</time>
      </trkpt>
      <trkpt lat="43.72655" lon="4.94022">
        <ele>319.4</ele>
        <time>2025-11-12T10:40:57.035Z</time>
      </trkpt>
      <trkpt lat="43.72657" lon="4.94018">
        <ele>319.2</ele>
        <time>2025-11-12T10:41:00.035Z</time>
      </trkpt>
      <trkpt lat="43.72658" lon="4.94015">
        <ele>319.1</ele>
        <time>2025-11-12T10:41:02.035Z</time>
      </trkpt>
      <trkpt lat="43.7266" lon="4.94013">
        <ele>319.1</ele>
        <time>2025-11-12T10:41:04.035Z</time>
      </trkpt>
      <trkpt lat="43.72662" lon="4.9401">
        <ele>319.2</ele>
        <time>2025-11-12T10:41:07.035Z</time>
      </trkpt>
      <trkpt lat="43.72664" lon="4.94006">
        <ele>319.3</ele>
        <time>2025-11-12T10:41:10.035Z</time>
      </trkpt>
      <trkpt lat="43.72666" lon="4.94004">
        <ele>319.5</ele>
        <time>2025-11-12T10:41:12.034Z</time>
      </trkpt>
      <trkpt lat="43.72668" lon="4.94002">
        <ele>319.4</ele>
        <time>2025-11-12T10:41:15.035Z</time>
      </trkpt>
      <trkpt lat="43.72671" lon="4.93998">
        <ele>319.2</ele>
        <time>2025-11-12T10:41:18.035Z</time>
      </trkpt>
      <trkpt lat="43.72673" lon="4.93996">
        <ele>319.2</ele>
        <time>2025-11-12T10:41:21.035Z</time>
      </trkpt>
      <trkpt lat="43.72674" lon="4.93992">
        <ele>319</ele>
        <time>2025-11-12T10:41:23.034Z</time>
      </trkpt>
      <trkpt lat="43.72676" lon="4.9399">
        <ele>319.1</ele>
        <time>2025-11-12T10:41:25.034Z</time>
      </trkpt>
      <trkpt lat="43.72679" lon="4.93987">
        <ele>319.3</ele>
        <time>2025-11-12T10:41:28.035Z</time>
      </trkpt>
      <trkpt lat="43.72681" lon="4.93984">
        <ele>319.4</ele>
        <time>2025-11-12T10:41:30.035Z</time>
      </trkpt>
      <trkpt lat="43.72683" lon="4.93982">
        <ele>319.7</ele>
        <time>2025-11-12T10:41:32.035Z</time>
      </trkpt>
      <trkpt lat="43.72685" lon="4.93978">
        <ele>319.8</ele>
        <time>2025-11-12T10:41:35.035Z</time>
      </trkpt>
      <trkpt lat="43.72687" lon="4.93975">
        <ele>320.2</ele>
        <time>2025-11-12T10:41:38.035Z</time>
      </trkpt>
      <trkpt lat="43.72688" lon="4.93971">
        <ele>320.4</ele>
        <time>2025-11-12T10:41:41.035Z</time>
      </trkpt>
      <trkpt lat="43.72689" lon="4.93968">
        <ele>320.4</ele>
        <time>2025-11-12T10:41:43.035Z</time>
      </trkpt>
      <trkpt lat="43.72689" lon="4.93965">
        <ele>320.3</ele>
        <time>2025-11-12T10:41:45.034Z</time>
      </trkpt>
      <trkpt lat="43.7269" lon="4.93961">
        <ele>320.5</ele>
        <time>2025-11-12T10:41:47.035Z</time>
      </trkpt>
      <trkpt lat="43.72691" lon="4.93958">
        <ele>320.6</ele>
        <time>2025-11-12T10:41:49.035Z</time>
      </trkpt>
      <trkpt lat="43.72691" lon="4.93954">
        <ele>320.6</ele>
        <time>2025-11-12T10:41:52.035Z</time>
      </trkpt>
      <trkpt lat="43.72692" lon="4.93951">
        <ele>320.7</ele>
        <time>2025-11-12T10:41:55.035Z</time>
      </trkpt>
      <trkpt lat="43.72693" lon="4.93947">
        <ele>320.7</ele>
        <time>2025-11-12T10:41:57.034Z</time>
      </trkpt>
      <trkpt lat="43.72694" lon="4.93944">
        <ele>320.9</ele>
        <time>2025-11-12T10:42:00.035Z</time>
      </trkpt>
      <trkpt lat="43.72695" lon="4.9394">
        <ele>321.2</ele>
        <time>2025-11-12T10:42:03.035Z</time>
      </trkpt>
      <trkpt lat="43.72697" lon="4.93936">
        <ele>321.4</ele>
        <time>2025-11-12T10:42:06.035Z</time>
      </trkpt>
      <trkpt lat="43.72698" lon="4.93933">
        <ele>321.5</ele>
        <time>2025-11-12T10:42:08.035Z</time>
      </trkpt>
      <trkpt lat="43.72699" lon="4.9393">
        <ele>321.6</ele>
        <time>2025-11-12T10:42:11.035Z</time>
      </trkpt>
      <trkpt lat="43.727" lon="4.93927">
        <ele>321.7</ele>
        <time>2025-11-12T10:42:13.035Z</time>
      </trkpt>
      <trkpt lat="43.72702" lon="4.93923">
        <ele>321.7</ele>
        <time>2025-11-12T10:42:16.035Z</time>
      </trkpt>
      <trkpt lat="43.72703" lon="4.9392">
        <ele>321.7</ele>
        <time>2025-11-12T10:42:19.034Z</time>
      </trkpt>
      <trkpt lat="43.72706" lon="4.93919">
        <ele>321.6</ele>
        <time>2025-11-12T10:42:22.034Z</time>
      </trkpt>
      <trkpt lat="43.72709" lon="4.9392">
        <ele>321.5</ele>
        <time>2025-11-12T10:42:25.035Z</time>
      </trkpt>
      <trkpt lat="43.72712" lon="4.93919">
        <ele>321.5</ele>
        <time>2025-11-12T10:42:27.034Z</time>
      </trkpt>
      <trkpt lat="43.72715" lon="4.93919">
        <ele>321.4</ele>
        <time>2025-11-12T10:42:29.035Z</time>
      </trkpt>
      <trkpt lat="43.72718" lon="4.93919">
        <ele>321.3</ele>
        <time>2025-11-12T10:42:32.035Z</time>
      </trkpt>
      <trkpt lat="43.72721" lon="4.93919">
        <ele>321.2</ele>
        <time>2025-11-12T10:42:35.035Z</time>
      </trkpt>
      <trkpt lat="43.72724" lon="4.9392">
        <ele>321.1</ele>
        <time>2025-11-12T10:42:38.035Z</time>
      </trkpt>
      <trkpt lat="43.72727" lon="4.93919">
        <ele>320.9</ele>
        <time>2025-11-12T10:42:41.034Z</time>
      </trkpt>
      <trkpt lat="43.72731" lon="4.93919">
        <ele>320.7</ele>
        <time>2025-11-12T10:42:44.035Z</time>
      </trkpt>
      <trkpt lat="43.72733" lon="4.93919">
        <ele>320.5</ele>
        <time>2025-11-12T10:42:46.035Z</time>
      </trkpt>
      <trkpt lat="43.72737" lon="4.93921">
        <ele>320.2</ele>
        <time>2025-11-12T10:42:49.034Z</time>
      </trkpt>
      <trkpt lat="43.72739" lon="4.93922">
        <ele>319.9</ele>
        <time>2025-11-12T10:42:51.035Z</time>
      </trkpt>
      <trkpt lat="43.72741" lon="4.93921">
        <ele>319.7</ele>
        <time>2025-11-12T10:42:53.034Z</time>
      </trkpt>
      <trkpt lat="43.72744" lon="4.93922">
        <ele>319.4</ele>
        <time>2025-11-12T10:42:56.035Z</time>
      </trkpt>
      <trkpt lat="43.72746" lon="4.93922">
        <ele>319.3</ele>
        <time>2025-11-12T10:42:58.035Z</time>
      </trkpt>
      <trkpt lat="43.72749" lon="4.93919">
        <ele>319.5</ele>
        <time>2025-11-12T10:43:01.035Z</time>
      </trkpt>
      <trkpt lat="43.72752" lon="4.93918">
        <ele>319.8</ele>
        <time>2025-11-12T10:43:04.035Z</time>
      </trkpt>
      <trkpt lat="43.72754" lon="4.93915">
        <ele>320.2</ele>
        <time>2025-11-12T10:43:07.035Z</time>
      </trkpt>
      <trkpt lat="43.72756" lon="4.93913">
        <ele>320.3</ele>
        <time>2025-11-12T10:43:10.034Z</time>
      </trkpt>
      <trkpt lat="43.72758" lon="4.93911">
        <ele>320.4</ele>
        <time>2025-11-12T10:43:12.035Z</time>
      </trkpt>
      <trkpt lat="43.7276" lon="4.93908">
        <ele>320.6</ele>
        <time>2025-11-12T10:43:14.035Z</time>
      </trkpt>
      <trkpt lat="43.72762" lon="4.93906">
        <ele>321</ele>
        <time>2025-11-12T10:43:17.035Z</time>
      </trkpt>
      <trkpt lat="43.72764" lon="4.93903">
        <ele>321.3</ele>
        <time>2025-11-12T10:43:20.035Z</time>
      </trkpt>
      <trkpt lat="43.72766" lon="4.93901">
        <ele>321.6</ele>
        <time>2025-11-12T10:43:23.035Z</time>
      </trkpt>
      <trkpt lat="43.72767" lon="4.93897">
        <ele>322</ele>
        <time>2025-11-12T10:43:26.035Z</time>
      </trkpt>
      <trkpt lat="43.72769" lon="4.93894">
        <ele>322.5</ele>
        <time>2025-11-12T10:43:30.035Z</time>
      </trkpt>
      <trkpt lat="43.7277" lon="4.93891">
        <ele>322.9</ele>
        <time>2025-11-12T10:43:33.035Z</time>
      </trkpt>
      <trkpt lat="43.72771" lon="4.93888">
        <ele>323.3</ele>
        <time>2025-11-12T10:43:36.035Z</time>
      </trkpt>
      <trkpt lat="43.72771" lon="4.93883">
        <ele>323.1</ele>
        <time>2025-11-12T10:43:40.034Z</time>
      </trkpt>
      <trkpt lat="43.72772" lon="4.9388">
        <ele>323.2</ele>
        <time>2025-11-12T10:43:42.035Z</time>
      </trkpt>
      <trkpt lat="43.72773" lon="4.93876">
        <ele>323.5</ele>
        <time>2025-11-12T10:43:45.035Z</time>
      </trkpt>
      <trkpt lat="43.72774" lon="4.93873">
        <ele>323.8</ele>
        <time>2025-11-12T10:43:47.035Z</time>
      </trkpt>
      <trkpt lat="43.72775" lon="4.93869">
        <ele>323.8</ele>
        <time>2025-11-12T10:43:50.035Z</time>
      </trkpt>
      <trkpt lat="43.72776" lon="4.93865">
        <ele>324.1</ele>
        <time>2025-11-12T10:43:53.035Z</time>
      </trkpt>
      <trkpt lat="43.72777" lon="4.93863">
        <ele>324.7</ele>
        <time>2025-11-12T10:43:56.035Z</time>
      </trkpt>
      <trkpt lat="43.72779" lon="4.93861">
        <ele>325.2</ele>
        <time>2025-11-12T10:43:59.034Z</time>
      </trkpt>
      <trkpt lat="43.72781" lon="4.93859">
        <ele>325.3</ele>
        <time>2025-11-12T10:44:01.035Z</time>
      </trkpt>
      <trkpt lat="43.72783" lon="4.93856">
        <ele>325.4</ele>
        <time>2025-11-12T10:44:04.035Z</time>
      </trkpt>
      <trkpt lat="43.72785" lon="4.93853">
        <ele>325.6</ele>
        <time>2025-11-12T10:44:07.035Z</time>
      </trkpt>
      <trkpt lat="43.72787" lon="4.9385">
        <ele>325.7</ele>
        <time>2025-11-12T10:44:10.034Z</time>
      </trkpt>
      <trkpt lat="43.72789" lon="4.93847">
        <ele>325.7</ele>
        <time>2025-11-12T10:44:14.034Z</time>
      </trkpt>
      <trkpt lat="43.72791" lon="4.93845">
        <ele>326</ele>
        <time>2025-11-12T10:44:17.034Z</time>
      </trkpt>
      <trkpt lat="43.72794" lon="4.93843">
        <ele>326.6</ele>
        <time>2025-11-12T10:44:20.034Z</time>
      </trkpt>
      <trkpt lat="43.72796" lon="4.9384">
        <ele>326.7</ele>
        <time>2025-11-12T10:44:24.035Z</time>
      </trkpt>
      <trkpt lat="43.72798" lon="4.93838">
        <ele>327.2</ele>
        <time>2025-11-12T10:44:27.035Z</time>
      </trkpt>
      <trkpt lat="43.72801" lon="4.93838">
        <ele>328</ele>
        <time>2025-11-12T10:44:30.035Z</time>
      </trkpt>
      <trkpt lat="43.72804" lon="4.93837">
        <ele>328.8</ele>
        <time>2025-11-12T10:44:33.035Z</time>
      </trkpt>
      <trkpt lat="43.72807" lon="4.93836">
        <ele>329.3</ele>
        <time>2025-11-12T10:44:37.034Z</time>
      </trkpt>
      <trkpt lat="43.7281" lon="4.93837">
        <ele>329.3</ele>
        <time>2025-11-12T10:44:40.035Z</time>
      </trkpt>
      <trkpt lat="43.72812" lon="4.93839">
        <ele>329.5</ele>
        <time>2025-11-12T10:44:44.035Z</time>
      </trkpt>
      <trkpt lat="43.72814" lon="4.9384">
        <ele>329.6</ele>
        <time>2025-11-12T10:44:47.035Z</time>
      </trkpt>
      <trkpt lat="43.72817" lon="4.93842">
        <ele>329.8</ele>
        <time>2025-11-12T10:44:50.034Z</time>
      </trkpt>
      <trkpt lat="43.72819" lon="4.93845">
        <ele>330.2</ele>
        <time>2025-11-12T10:44:53.035Z</time>
      </trkpt>
      <trkpt lat="43.7282" lon="4.93847">
        <ele>330.5</ele>
        <time>2025-11-12T10:44:58.035Z</time>
      </trkpt>
      <trkpt lat="43.72823" lon="4.93849">
        <ele>330.8</ele>
        <time>2025-11-12T10:45:01.035Z</time>
      </trkpt>
      <trkpt lat="43.72825" lon="4.93852">
        <ele>331.2</ele>
        <time>2025-11-12T10:45:05.034Z</time>
      </trkpt>
      <trkpt lat="43.72827" lon="4.93855">
        <ele>331.7</ele>
        <time>2025-11-12T10:45:09.035Z</time>
      </trkpt>
      <trkpt lat="43.72829" lon="4.93858">
        <ele>332.2</ele>
        <time>2025-11-12T10:45:13.035Z</time>
      </trkpt>
      <trkpt lat="43.7283" lon="4.93861">
        <ele>332.8</ele>
        <time>2025-11-12T10:45:17.035Z</time>
      </trkpt>
      <trkpt lat="43.72832" lon="4.93862">
        <ele>333.1</ele>
        <time>2025-11-12T10:45:20.035Z</time>
      </trkpt>
      <trkpt lat="43.72833" lon="4.93866">
        <ele>333.8</ele>
        <time>2025-11-12T10:45:24.035Z</time>
      </trkpt>
      <trkpt lat="43.72836" lon="4.93868">
        <ele>334</ele>
        <time>2025-11-12T10:45:28.035Z</time>
      </trkpt>
      <trkpt lat="43.72838" lon="4.9387">
        <ele>334.2</ele>
        <time>2025-11-12T10:45:31.035Z</time>
      </trkpt>
      <trkpt lat="43.72839" lon="4.93873">
        <ele>334.5</ele>
        <time>2025-11-12T10:45:35.035Z</time>
      </trkpt>
      <trkpt lat="43.7284" lon="4.93876">
        <ele>334.8</ele>
        <time>2025-11-12T10:45:38.035Z</time>
      </trkpt>
      <trkpt lat="43.72843" lon="4.93879">
        <ele>334.9</ele>
        <time>2025-11-12T10:45:42.035Z</time>
      </trkpt>
      <trkpt lat="43.72845" lon="4.9388">
        <ele>335</ele>
        <time>2025-11-12T10:45:46.035Z</time>
      </trkpt>
      <trkpt lat="43.72847" lon="4.93884">
        <ele>335.2</ele>
        <time>2025-11-12T10:45:52.035Z</time>
      </trkpt>
      <trkpt lat="43.72848" lon="4.93888">
        <ele>335.8</ele>
        <time>2025-11-12T10:45:56.035Z</time>
      </trkpt>
      <trkpt lat="43.72849" lon="4.93892">
        <ele>335.3</ele>
        <time>2025-11-12T10:46:14.035Z</time>
      </trkpt>
      <trkpt lat="43.72852" lon="4.93891">
        <ele>335</ele>
        <time>2025-11-12T10:47:59.035Z</time>
      </trkpt>
      <trkpt lat="43.7285" lon="4.93892">
        <ele>335.1</ele>
        <time>2025-11-12T10:48:57.035Z</time>
      </trkpt>
      <trkpt lat="43.72847" lon="4.93891">
        <ele>335.7</ele>
        <time>2025-11-12T10:49:00.035Z</time>
      </trkpt>
      <trkpt lat="43.72845" lon="4.93891">
        <ele>336</ele>
        <time>2025-11-12T10:49:05.035Z</time>
      </trkpt>
      <trkpt lat="43.72843" lon="4.93891">
        <ele>336.3</ele>
        <time>2025-11-12T10:49:08.034Z</time>
      </trkpt>
      <trkpt lat="43.7284" lon="4.93891">
        <ele>336.8</ele>
        <time>2025-11-12T10:49:14.035Z</time>
      </trkpt>
      <trkpt lat="43.72838" lon="4.9389">
        <ele>337.2</ele>
        <time>2025-11-12T10:49:16.034Z</time>
      </trkpt>
      <trkpt lat="43.72835" lon="4.9389">
        <ele>337.5</ele>
        <time>2025-11-12T10:49:37.035Z</time>
      </trkpt>
      <trkpt lat="43.72833" lon="4.93891">
        <ele>337.7</ele>
        <time>2025-11-12T10:49:45.035Z</time>
      </trkpt>
      <trkpt lat="43.72832" lon="4.93893">
        <ele>337.1</ele>
        <time>2025-11-12T10:49:51.035Z</time>
      </trkpt>
      <trkpt lat="43.72834" lon="4.93895">
        <ele>337.1</ele>
        <time>2025-11-12T10:49:58.035Z</time>
      </trkpt>
      <trkpt lat="43.72834" lon="4.93891">
        <ele>337.5</ele>
        <time>2025-11-12T10:50:09.035Z</time>
      </trkpt>
      <trkpt lat="43.72836" lon="4.93897">
        <ele>336.5</ele>
        <time>2025-11-12T10:51:41.035Z</time>
      </trkpt>
      <trkpt lat="43.72835" lon="4.93893">
        <ele>337.1</ele>
        <time>2025-11-12T10:52:52.035Z</time>
      </trkpt>
      <trkpt lat="43.72833" lon="4.93893">
        <ele>337.3</ele>
        <time>2025-11-12T10:53:04.035Z</time>
      </trkpt>
      <trkpt lat="43.72833" lon="4.93896">
        <ele>336.8</ele>
        <time>2025-11-12T10:53:14.035Z</time>
      </trkpt>
      <trkpt lat="43.72835" lon="4.93895">
        <ele>337</ele>
        <time>2025-11-12T10:53:27.035Z</time>
      </trkpt>
      <trkpt lat="43.72833" lon="4.93892">
        <ele>337.4</ele>
        <time>2025-11-12T10:53:44.035Z</time>
      </trkpt>
      <trkpt lat="43.72833" lon="4.93889">
        <ele>337.8</ele>
        <time>2025-11-12T10:54:03.035Z</time>
      </trkpt>
      <trkpt lat="43.72835" lon="4.93888">
        <ele>337.6</ele>
        <time>2025-11-12T10:54:53.035Z</time>
      </trkpt>
      <trkpt lat="43.72834" lon="4.93891">
        <ele>337.7</ele>
        <time>2025-11-12T10:55:57.035Z</time>
      </trkpt>
      <trkpt lat="43.72831" lon="4.93888">
        <ele>337.6</ele>
        <time>2025-11-12T10:56:17.035Z</time>
      </trkpt>
      <trkpt lat="43.7283" lon="4.93885">
        <ele>337</ele>
        <time>2025-11-12T10:57:05.035Z</time>
      </trkpt>
      <trkpt lat="43.72832" lon="4.93887">
        <ele>337.5</ele>
        <time>2025-11-12T10:58:32.035Z</time>
      </trkpt>
      <trkpt lat="43.72834" lon="4.93889">
        <ele>337.9</ele>
        <time>2025-11-12T11:01:53.035Z</time>
      </trkpt>
      <trkpt lat="43.72834" lon="4.93893">
        <ele>337.3</ele>
        <time>2025-11-12T11:01:57.035Z</time>
      </trkpt>
      <trkpt lat="43.72833" lon="4.9389">
        <ele>337.7</ele>
        <time>2025-11-12T11:06:55.035Z</time>
      </trkpt>
      <trkpt lat="43.72833" lon="4.93887">
        <ele>337.6</ele>
        <time>2025-11-12T11:10:15.035Z</time>
      </trkpt>
      <trkpt lat="43.72831" lon="4.93885">
        <ele>336.9</ele>
        <time>2025-11-12T11:11:25.035Z</time>
      </trkpt>
      <trkpt lat="43.72829" lon="4.93887">
        <ele>337</ele>
        <time>2025-11-12T11:12:28.036Z</time>
      </trkpt>
      <trkpt lat="43.72832" lon="4.93885">
        <ele>337.1</ele>
        <time>2025-11-12T11:17:24.035Z</time>
      </trkpt>
      <trkpt lat="43.7283" lon="4.93887">
        <ele>337.1</ele>
        <time>2025-11-12T11:20:06.036Z</time>
      </trkpt>
      <trkpt lat="43.7283" lon="4.9389">
        <ele>337.4</ele>
        <time>2025-11-12T11:32:34.035Z</time>
      </trkpt>
      <trkpt lat="43.72831" lon="4.93886">
        <ele>337.1</ele>
        <time>2025-11-12T11:33:31.035Z</time>
      </trkpt>
      <trkpt lat="43.7283" lon="4.93883">
        <ele>336.5</ele>
        <time>2025-11-12T11:33:56.035Z</time>
      </trkpt>
      <trkpt lat="43.72832" lon="4.93885">
        <ele>337.1</ele>
        <time>2025-11-12T11:36:25.035Z</time>
      </trkpt>
      <trkpt lat="43.72835" lon="4.93884">
        <ele>336.9</ele>
        <time>2025-11-12T11:37:18.036Z</time>
      </trkpt>
      <trkpt lat="43.72837" lon="4.93882">
        <ele>336.3</ele>
        <time>2025-11-12T11:38:01.035Z</time>
      </trkpt>
      <trkpt lat="43.72839" lon="4.93885">
        <ele>336.5</ele>
        <time>2025-11-12T11:38:11.035Z</time>
      </trkpt>
      <trkpt lat="43.72841" lon="4.93887">
        <ele>336.5</ele>
        <time>2025-11-12T11:38:13.035Z</time>
      </trkpt>
      <trkpt lat="43.72844" lon="4.93887">
        <ele>336.2</ele>
        <time>2025-11-12T11:38:15.035Z</time>
      </trkpt>
      <trkpt lat="43.72846" lon="4.93884">
        <ele>335.4</ele>
        <time>2025-11-12T11:38:19.035Z</time>
      </trkpt>
      <trkpt lat="43.72845" lon="4.9388">
        <ele>334.8</ele>
        <time>2025-11-12T11:38:23.035Z</time>
      </trkpt>
      <trkpt lat="43.72844" lon="4.93877">
        <ele>334.5</ele>
        <time>2025-11-12T11:38:34.035Z</time>
      </trkpt>
      <trkpt lat="43.72841" lon="4.93874">
        <ele>334.3</ele>
        <time>2025-11-12T11:38:37.035Z</time>
      </trkpt>
      <trkpt lat="43.72839" lon="4.93871">
        <ele>334.1</ele>
        <time>2025-11-12T11:38:39.035Z</time>
      </trkpt>
      <trkpt lat="43.72837" lon="4.9387">
        <ele>334.2</ele>
        <time>2025-11-12T11:38:41.035Z</time>
      </trkpt>
      <trkpt lat="43.72836" lon="4.93867">
        <ele>333.7</ele>
        <time>2025-11-12T11:38:44.035Z</time>
      </trkpt>
      <trkpt lat="43.72834" lon="4.93864">
        <ele>333.5</ele>
        <time>2025-11-12T11:38:48.035Z</time>
      </trkpt>
      <trkpt lat="43.72832" lon="4.93862">
        <ele>333.1</ele>
        <time>2025-11-12T11:38:53.035Z</time>
      </trkpt>
      <trkpt lat="43.72831" lon="4.93859">
        <ele>332.5</ele>
        <time>2025-11-12T11:38:57.035Z</time>
      </trkpt>
      <trkpt lat="43.72829" lon="4.93856">
        <ele>332</ele>
        <time>2025-11-12T11:39:00.035Z</time>
      </trkpt>
      <trkpt lat="43.72827" lon="4.93855">
        <ele>331.7</ele>
        <time>2025-11-12T11:39:03.035Z</time>
      </trkpt>
      <trkpt lat="43.72825" lon="4.93852">
        <ele>331.3</ele>
        <time>2025-11-12T11:39:07.035Z</time>
      </trkpt>
      <trkpt lat="43.72823" lon="4.93849">
        <ele>330.8</ele>
        <time>2025-11-12T11:39:10.035Z</time>
      </trkpt>
      <trkpt lat="43.7282" lon="4.93848">
        <ele>330.6</ele>
        <time>2025-11-12T11:39:13.036Z</time>
      </trkpt>
      <trkpt lat="43.72818" lon="4.93846">
        <ele>330.4</ele>
        <time>2025-11-12T11:39:16.035Z</time>
      </trkpt>
      <trkpt lat="43.72817" lon="4.93844">
        <ele>330</ele>
        <time>2025-11-12T11:39:20.035Z</time>
      </trkpt>
      <trkpt lat="43.72815" lon="4.93842">
        <ele>329.9</ele>
        <time>2025-11-12T11:39:25.035Z</time>
      </trkpt>
      <trkpt lat="43.72813" lon="4.93841">
        <ele>329.7</ele>
        <time>2025-11-12T11:39:28.035Z</time>
      </trkpt>
      <trkpt lat="43.7281" lon="4.9384">
        <ele>329.6</ele>
        <time>2025-11-12T11:39:30.035Z</time>
      </trkpt>
      <trkpt lat="43.72808" lon="4.93838">
        <ele>329.4</ele>
        <time>2025-11-12T11:39:33.035Z</time>
      </trkpt>
      <trkpt lat="43.72805" lon="4.93837">
        <ele>329.3</ele>
        <time>2025-11-12T11:39:36.035Z</time>
      </trkpt>
      <trkpt lat="43.72802" lon="4.93836">
        <ele>328.3</ele>
        <time>2025-11-12T11:39:39.035Z</time>
      </trkpt>
      <trkpt lat="43.728" lon="4.93838">
        <ele>327.7</ele>
        <time>2025-11-12T11:39:48.035Z</time>
      </trkpt>
      <trkpt lat="43.72798" lon="4.9384">
        <ele>327.3</ele>
        <time>2025-11-12T11:39:52.035Z</time>
      </trkpt>
      <trkpt lat="43.72795" lon="4.93841">
        <ele>326.7</ele>
        <time>2025-11-12T11:39:56.036Z</time>
      </trkpt>
      <trkpt lat="43.72793" lon="4.93844">
        <ele>326.5</ele>
        <time>2025-11-12T11:40:00.035Z</time>
      </trkpt>
      <trkpt lat="43.72791" lon="4.93847">
        <ele>326.3</ele>
        <time>2025-11-12T11:40:03.035Z</time>
      </trkpt>
      <trkpt lat="43.72789" lon="4.9385">
        <ele>326.1</ele>
        <time>2025-11-12T11:40:06.035Z</time>
      </trkpt>
      <trkpt lat="43.72787" lon="4.93852">
        <ele>325.9</ele>
        <time>2025-11-12T11:40:08.035Z</time>
      </trkpt>
      <trkpt lat="43.72785" lon="4.93855">
        <ele>325.9</ele>
        <time>2025-11-12T11:40:11.035Z</time>
      </trkpt>
      <trkpt lat="43.72784" lon="4.93858">
        <ele>326.1</ele>
        <time>2025-11-12T11:40:15.036Z</time>
      </trkpt>
      <trkpt lat="43.72782" lon="4.93861">
        <ele>326</ele>
        <time>2025-11-12T11:40:18.035Z</time>
      </trkpt>
      <trkpt lat="43.7278" lon="4.93864">
        <ele>325.6</ele>
        <time>2025-11-12T11:40:20.035Z</time>
      </trkpt>
      <trkpt lat="43.72779" lon="4.93866">
        <ele>325.2</ele>
        <time>2025-11-12T11:40:23.035Z</time>
      </trkpt>
      <trkpt lat="43.72777" lon="4.93869">
        <ele>324.7</ele>
        <time>2025-11-12T11:40:26.035Z</time>
      </trkpt>
      <trkpt lat="43.72776" lon="4.93872">
        <ele>324.3</ele>
        <time>2025-11-12T11:40:30.036Z</time>
      </trkpt>
      <trkpt lat="43.72775" lon="4.93876">
        <ele>323.9</ele>
        <time>2025-11-12T11:40:33.035Z</time>
      </trkpt>
      <trkpt lat="43.72773" lon="4.9388">
        <ele>323.5</ele>
        <time>2025-11-12T11:40:36.035Z</time>
      </trkpt>
      <trkpt lat="43.72772" lon="4.93883">
        <ele>323.4</ele>
        <time>2025-11-12T11:40:39.035Z</time>
      </trkpt>
      <trkpt lat="43.72772" lon="4.93886">
        <ele>323.4</ele>
        <time>2025-11-12T11:40:42.035Z</time>
      </trkpt>
      <trkpt lat="43.72772" lon="4.9389">
        <ele>323.4</ele>
        <time>2025-11-12T11:40:45.035Z</time>
      </trkpt>
      <trkpt lat="43.7277" lon="4.93893">
        <ele>322.9</ele>
        <time>2025-11-12T11:40:52.035Z</time>
      </trkpt>
      <trkpt lat="43.72768" lon="4.93894">
        <ele>322.4</ele>
        <time>2025-11-12T11:40:54.035Z</time>
      </trkpt>
      <trkpt lat="43.72767" lon="4.93898">
        <ele>322</ele>
        <time>2025-11-12T11:41:00.035Z</time>
      </trkpt>
      <trkpt lat="43.72765" lon="4.939">
        <ele>321.5</ele>
        <time>2025-11-12T11:41:03.035Z</time>
      </trkpt>
      <trkpt lat="43.72763" lon="4.93903">
        <ele>321.1</ele>
        <time>2025-11-12T11:41:06.035Z</time>
      </trkpt>
      <trkpt lat="43.72761" lon="4.93904">
        <ele>320.8</ele>
        <time>2025-11-12T11:41:09.035Z</time>
      </trkpt>
      <trkpt lat="43.72759" lon="4.939">
        <ele>320.5</ele>
        <time>2025-11-12T11:41:15.035Z</time>
      </trkpt>
      <trkpt lat="43.72759" lon="4.93897">
        <ele>320.4</ele>
        <time>2025-11-12T11:41:18.035Z</time>
      </trkpt>
      <trkpt lat="43.7276" lon="4.93893">
        <ele>320.6</ele>
        <time>2025-11-12T11:41:21.035Z</time>
      </trkpt>
      <trkpt lat="43.72761" lon="4.9389">
        <ele>320.8</ele>
        <time>2025-11-12T11:41:24.035Z</time>
      </trkpt>
      <trkpt lat="43.72764" lon="4.93887">
        <ele>321.5</ele>
        <time>2025-11-12T11:41:27.035Z</time>
      </trkpt>
      <trkpt lat="43.72765" lon="4.93884">
        <ele>321.5</ele>
        <time>2025-11-12T11:41:33.035Z</time>
      </trkpt>
      <trkpt lat="43.72766" lon="4.9388">
        <ele>321.2</ele>
        <time>2025-11-12T11:41:37.035Z</time>
      </trkpt>
      <trkpt lat="43.72765" lon="4.93876">
        <ele>320.8</ele>
        <time>2025-11-12T11:41:40.035Z</time>
      </trkpt>
      <trkpt lat="43.72766" lon="4.93872">
        <ele>320.8</ele>
        <time>2025-11-12T11:41:43.035Z</time>
      </trkpt>
      <trkpt lat="43.72766" lon="4.93868">
        <ele>320.6</ele>
        <time>2025-11-12T11:41:46.035Z</time>
      </trkpt>
      <trkpt lat="43.72767" lon="4.93864">
        <ele>320.6</ele>
        <time>2025-11-12T11:41:50.035Z</time>
      </trkpt>
      <trkpt lat="43.72767" lon="4.93861">
        <ele>320.1</ele>
        <time>2025-11-12T11:41:53.035Z</time>
      </trkpt>
      <trkpt lat="43.72767" lon="4.93858">
        <ele>319.8</ele>
        <time>2025-11-12T11:41:55.035Z</time>
      </trkpt>
      <trkpt lat="43.72768" lon="4.93854">
        <ele>319.6</ele>
        <time>2025-11-12T11:41:58.036Z</time>
      </trkpt>
      <trkpt lat="43.7277" lon="4.93851">
        <ele>319.5</ele>
        <time>2025-11-12T11:42:01.035Z</time>
      </trkpt>
      <trkpt lat="43.72771" lon="4.93848">
        <ele>319.5</ele>
        <time>2025-11-12T11:42:03.035Z</time>
      </trkpt>
      <trkpt lat="43.72772" lon="4.93844">
        <ele>319.5</ele>
        <time>2025-11-12T11:42:06.035Z</time>
      </trkpt>
      <trkpt lat="43.72774" lon="4.93841">
        <ele>319.5</ele>
        <time>2025-11-12T11:42:09.035Z</time>
      </trkpt>
      <trkpt lat="43.72774" lon="4.93837">
        <ele>318.9</ele>
        <time>2025-11-12T11:42:12.035Z</time>
      </trkpt>
      <trkpt lat="43.72774" lon="4.93833">
        <ele>318.3</ele>
        <time>2025-11-12T11:42:15.035Z</time>
      </trkpt>
      <trkpt lat="43.72775" lon="4.9383">
        <ele>318.3</ele>
        <time>2025-11-12T11:42:18.035Z</time>
      </trkpt>
      <trkpt lat="43.72776" lon="4.93827">
        <ele>318.5</ele>
        <time>2025-11-12T11:42:21.035Z</time>
      </trkpt>
      <trkpt lat="43.72777" lon="4.93823">
        <ele>318.3</ele>
        <time>2025-11-12T11:42:24.035Z</time>
      </trkpt>
      <trkpt lat="43.72777" lon="4.93819">
        <ele>318</ele>
        <time>2025-11-12T11:42:27.035Z</time>
      </trkpt>
      <trkpt lat="43.72777" lon="4.93816">
        <ele>317.6</ele>
        <time>2025-11-12T11:42:30.035Z</time>
      </trkpt>
      <trkpt lat="43.72777" lon="4.93812">
        <ele>317.4</ele>
        <time>2025-11-12T11:42:33.035Z</time>
      </trkpt>
      <trkpt lat="43.72777" lon="4.93809">
        <ele>317.1</ele>
        <time>2025-11-12T11:42:36.035Z</time>
      </trkpt>
      <trkpt lat="43.72777" lon="4.93806">
        <ele>316.8</ele>
        <time>2025-11-12T11:42:39.035Z</time>
      </trkpt>
      <trkpt lat="43.72779" lon="4.93803">
        <ele>316.8</ele>
        <time>2025-11-12T11:42:42.035Z</time>
      </trkpt>
      <trkpt lat="43.72781" lon="4.938">
        <ele>316.6</ele>
        <time>2025-11-12T11:42:45.035Z</time>
      </trkpt>
      <trkpt lat="43.72783" lon="4.93796">
        <ele>316.4</ele>
        <time>2025-11-12T11:42:48.035Z</time>
      </trkpt>
      <trkpt lat="43.72785" lon="4.93793">
        <ele>316.2</ele>
        <time>2025-11-12T11:42:52.035Z</time>
      </trkpt>
      <trkpt lat="43.72786" lon="4.93789">
        <ele>315.6</ele>
        <time>2025-11-12T11:42:54.035Z</time>
      </trkpt>
      <trkpt lat="43.72788" lon="4.93787">
        <ele>315.4</ele>
        <time>2025-11-12T11:42:57.035Z</time>
      </trkpt>
      <trkpt lat="43.7279" lon="4.93785">
        <ele>315.5</ele>
        <time>2025-11-12T11:43:00.035Z</time>
      </trkpt>
      <trkpt lat="43.72792" lon="4.93783">
        <ele>315.2</ele>
        <time>2025-11-12T11:43:03.035Z</time>
      </trkpt>
      <trkpt lat="43.72794" lon="4.93781">
        <ele>315.2</ele>
        <time>2025-11-12T11:43:05.035Z</time>
      </trkpt>
      <trkpt lat="43.72797" lon="4.9378">
        <ele>315.4</ele>
        <time>2025-11-12T11:43:08.035Z</time>
      </trkpt>
      <trkpt lat="43.728" lon="4.93779">
        <ele>315.4</ele>
        <time>2025-11-12T11:43:12.035Z</time>
      </trkpt>
      <trkpt lat="43.72802" lon="4.93777">
        <ele>315.4</ele>
        <time>2025-11-12T11:43:15.035Z</time>
      </trkpt>
      <trkpt lat="43.72804" lon="4.93776">
        <ele>315.2</ele>
        <time>2025-11-12T11:43:18.035Z</time>
      </trkpt>
      <trkpt lat="43.72807" lon="4.93774">
        <ele>315</ele>
        <time>2025-11-12T11:43:21.035Z</time>
      </trkpt>
      <trkpt lat="43.7281" lon="4.93773">
        <ele>315.1</ele>
        <time>2025-11-12T11:43:24.035Z</time>
      </trkpt>
      <trkpt lat="43.72812" lon="4.93771">
        <ele>314.8</ele>
        <time>2025-11-12T11:43:27.035Z</time>
      </trkpt>
      <trkpt lat="43.72814" lon="4.9377">
        <ele>314.6</ele>
        <time>2025-11-12T11:43:30.036Z</time>
      </trkpt>
      <trkpt lat="43.72817" lon="4.93769">
        <ele>314.6</ele>
        <time>2025-11-12T11:43:33.035Z</time>
      </trkpt>
      <trkpt lat="43.72819" lon="4.93767">
        <ele>314.4</ele>
        <time>2025-11-12T11:43:36.035Z</time>
      </trkpt>
      <trkpt lat="43.72822" lon="4.93766">
        <ele>314.5</ele>
        <time>2025-11-12T11:43:39.035Z</time>
      </trkpt>
      <trkpt lat="43.72825" lon="4.93764">
        <ele>314.2</ele>
        <time>2025-11-12T11:43:42.035Z</time>
      </trkpt>
      <trkpt lat="43.72828" lon="4.93764">
        <ele>314.5</ele>
        <time>2025-11-12T11:43:45.035Z</time>
      </trkpt>
      <trkpt lat="43.72831" lon="4.93763">
        <ele>314.5</ele>
        <time>2025-11-12T11:43:48.035Z</time>
      </trkpt>
      <trkpt lat="43.72833" lon="4.93761">
        <ele>314.3</ele>
        <time>2025-11-12T11:43:51.035Z</time>
      </trkpt>
      <trkpt lat="43.72836" lon="4.9376">
        <ele>313.7</ele>
        <time>2025-11-12T11:43:54.035Z</time>
      </trkpt>
      <trkpt lat="43.72838" lon="4.93759">
        <ele>313.2</ele>
        <time>2025-11-12T11:43:57.035Z</time>
      </trkpt>
      <trkpt lat="43.7284" lon="4.93757">
        <ele>312.8</ele>
        <time>2025-11-12T11:43:59.036Z</time>
      </trkpt>
      <trkpt lat="43.72843" lon="4.93756">
        <ele>312.5</ele>
        <time>2025-11-12T11:44:02.035Z</time>
      </trkpt>
      <trkpt lat="43.72846" lon="4.93755">
        <ele>312.1</ele>
        <time>2025-11-12T11:44:05.035Z</time>
      </trkpt>
      <trkpt lat="43.72848" lon="4.93754">
        <ele>312</ele>
        <time>2025-11-12T11:44:08.035Z</time>
      </trkpt>
      <trkpt lat="43.72851" lon="4.93752">
        <ele>311.8</ele>
        <time>2025-11-12T11:44:11.035Z</time>
      </trkpt>
      <trkpt lat="43.72854" lon="4.93751">
        <ele>311.8</ele>
        <time>2025-11-12T11:44:15.035Z</time>
      </trkpt>
      <trkpt lat="43.72857" lon="4.9375">
        <ele>311.8</ele>
        <time>2025-11-12T11:44:18.036Z</time>
      </trkpt>
      <trkpt lat="43.72859" lon="4.93748">
        <ele>311.8</ele>
        <time>2025-11-12T11:44:21.035Z</time>
      </trkpt>
      <trkpt lat="43.72861" lon="4.93746">
        <ele>311.7</ele>
        <time>2025-11-12T11:44:23.035Z</time>
      </trkpt>
      <trkpt lat="43.72863" lon="4.93744">
        <ele>311.2</ele>
        <time>2025-11-12T11:44:27.036Z</time>
      </trkpt>
      <trkpt lat="43.72865" lon="4.93742">
        <ele>310.9</ele>
        <time>2025-11-12T11:44:30.036Z</time>
      </trkpt>
      <trkpt lat="43.72868" lon="4.93739">
        <ele>310.7</ele>
        <time>2025-11-12T11:44:33.035Z</time>
      </trkpt>
      <trkpt lat="43.7287" lon="4.93736">
        <ele>310.7</ele>
        <time>2025-11-12T11:44:35.036Z</time>
      </trkpt>
      <trkpt lat="43.72871" lon="4.93733">
        <ele>310.9</ele>
        <time>2025-11-12T11:44:38.035Z</time>
      </trkpt>
      <trkpt lat="43.72873" lon="4.9373">
        <ele>311.2</ele>
        <time>2025-11-12T11:44:44.035Z</time>
      </trkpt>
      <trkpt lat="43.72874" lon="4.93727">
        <ele>311.7</ele>
        <time>2025-11-12T11:44:47.035Z</time>
      </trkpt>
      <trkpt lat="43.72875" lon="4.93722">
        <ele>312.5</ele>
        <time>2025-11-12T11:44:51.036Z</time>
      </trkpt>
      <trkpt lat="43.72875" lon="4.93717">
        <ele>312.7</ele>
        <time>2025-11-12T11:44:54.035Z</time>
      </trkpt>
      <trkpt lat="43.72876" lon="4.93714">
        <ele>312.8</ele>
        <time>2025-11-12T11:44:56.035Z</time>
      </trkpt>
      <trkpt lat="43.72876" lon="4.93711">
        <ele>313</ele>
        <time>2025-11-12T11:44:59.035Z</time>
      </trkpt>
      <trkpt lat="43.72876" lon="4.93707">
        <ele>313.2</ele>
        <time>2025-11-12T11:45:01.035Z</time>
      </trkpt>
      <trkpt lat="43.72877" lon="4.93703">
        <ele>313.3</ele>
        <time>2025-11-12T11:45:05.035Z</time>
      </trkpt>
      <trkpt lat="43.72877" lon="4.937">
        <ele>313.6</ele>
        <time>2025-11-12T11:45:08.035Z</time>
      </trkpt>
      <trkpt lat="43.72878" lon="4.93696">
        <ele>314.1</ele>
        <time>2025-11-12T11:45:11.035Z</time>
      </trkpt>
      <trkpt lat="43.72878" lon="4.93693">
        <ele>314.1</ele>
        <time>2025-11-12T11:45:14.035Z</time>
      </trkpt>
      <trkpt lat="43.72879" lon="4.93689">
        <ele>314.3</ele>
        <time>2025-11-12T11:45:17.035Z</time>
      </trkpt>
      <trkpt lat="43.7288" lon="4.93685">
        <ele>314.4</ele>
        <time>2025-11-12T11:45:20.035Z</time>
      </trkpt>
      <trkpt lat="43.72881" lon="4.93681">
        <ele>314.6</ele>
        <time>2025-11-12T11:45:23.035Z</time>
      </trkpt>
      <trkpt lat="43.72881" lon="4.93678">
        <ele>314.7</ele>
        <time>2025-11-12T11:45:25.035Z</time>
      </trkpt>
      <trkpt lat="43.72881" lon="4.93673">
        <ele>314.5</ele>
        <time>2025-11-12T11:45:29.036Z</time>
      </trkpt>
      <trkpt lat="43.72882" lon="4.93669">
        <ele>314.5</ele>
        <time>2025-11-12T11:45:32.035Z</time>
      </trkpt>
      <trkpt lat="43.72882" lon="4.93665">
        <ele>315</ele>
        <time>2025-11-12T11:45:35.035Z</time>
      </trkpt>
      <trkpt lat="43.72881" lon="4.93661">
        <ele>315.2</ele>
        <time>2025-11-12T11:45:38.035Z</time>
      </trkpt>
      <trkpt lat="43.7288" lon="4.93658">
        <ele>315.3</ele>
        <time>2025-11-12T11:45:40.035Z</time>
      </trkpt>
      <trkpt lat="43.72878" lon="4.93654">
        <ele>315.4</ele>
        <time>2025-11-12T11:45:43.035Z</time>
      </trkpt>
      <trkpt lat="43.72878" lon="4.9365">
        <ele>315.8</ele>
        <time>2025-11-12T11:45:46.036Z</time>
      </trkpt>
      <trkpt lat="43.72876" lon="4.93647">
        <ele>315.8</ele>
        <time>2025-11-12T11:45:49.035Z</time>
      </trkpt>
      <trkpt lat="43.72873" lon="4.93645">
        <ele>315.3</ele>
        <time>2025-11-12T11:45:52.035Z</time>
      </trkpt>
      <trkpt lat="43.72871" lon="4.93643">
        <ele>315.2</ele>
        <time>2025-11-12T11:45:55.035Z</time>
      </trkpt>
      <trkpt lat="43.72869" lon="4.93641">
        <ele>314.7</ele>
        <time>2025-11-12T11:45:58.035Z</time>
      </trkpt>
      <trkpt lat="43.72866" lon="4.9364">
        <ele>314.2</ele>
        <time>2025-11-12T11:46:00.035Z</time>
      </trkpt>
      <trkpt lat="43.72864" lon="4.9364">
        <ele>313.5</ele>
        <time>2025-11-12T11:46:02.035Z</time>
      </trkpt>
      <trkpt lat="43.72861" lon="4.93639">
        <ele>312.9</ele>
        <time>2025-11-12T11:46:04.035Z</time>
      </trkpt>
      <trkpt lat="43.72859" lon="4.93638">
        <ele>312.6</ele>
        <time>2025-11-12T11:46:07.035Z</time>
      </trkpt>
      <trkpt lat="43.72857" lon="4.93635">
        <ele>312.5</ele>
        <time>2025-11-12T11:46:12.035Z</time>
      </trkpt>
      <trkpt lat="43.72854" lon="4.93634">
        <ele>312.2</ele>
        <time>2025-11-12T11:46:15.035Z</time>
      </trkpt>
      <trkpt lat="43.72852" lon="4.93632">
        <ele>312</ele>
        <time>2025-11-12T11:46:18.035Z</time>
      </trkpt>
      <trkpt lat="43.7285" lon="4.93629">
        <ele>312</ele>
        <time>2025-11-12T11:46:21.035Z</time>
      </trkpt>
      <trkpt lat="43.72848" lon="4.93626">
        <ele>312</ele>
        <time>2025-11-12T11:46:24.035Z</time>
      </trkpt>
      <trkpt lat="43.72847" lon="4.93623">
        <ele>312.1</ele>
        <time>2025-11-12T11:46:26.035Z</time>
      </trkpt>
      <trkpt lat="43.72845" lon="4.93619">
        <ele>312.3</ele>
        <time>2025-11-12T11:46:29.036Z</time>
      </trkpt>
      <trkpt lat="43.72845" lon="4.93616">
        <ele>312.7</ele>
        <time>2025-11-12T11:46:32.035Z</time>
      </trkpt>
      <trkpt lat="43.72846" lon="4.93613">
        <ele>313.2</ele>
        <time>2025-11-12T11:46:34.035Z</time>
      </trkpt>
      <trkpt lat="43.72848" lon="4.93609">
        <ele>313.4</ele>
        <time>2025-11-12T11:46:37.035Z</time>
      </trkpt>
      <trkpt lat="43.7285" lon="4.93607">
        <ele>313.5</ele>
        <time>2025-11-12T11:46:40.035Z</time>
      </trkpt>
      <trkpt lat="43.72852" lon="4.93604">
        <ele>313.5</ele>
        <time>2025-11-12T11:46:43.035Z</time>
      </trkpt>
      <trkpt lat="43.72854" lon="4.93603">
        <ele>313.5</ele>
        <time>2025-11-12T11:46:45.035Z</time>
      </trkpt>
      <trkpt lat="43.72857" lon="4.93602">
        <ele>313.7</ele>
        <time>2025-11-12T11:46:48.035Z</time>
      </trkpt>
      <trkpt lat="43.7286" lon="4.93603">
        <ele>314</ele>
        <time>2025-11-12T11:46:51.035Z</time>
      </trkpt>
      <trkpt lat="43.72862" lon="4.93603">
        <ele>314.1</ele>
        <time>2025-11-12T11:46:53.035Z</time>
      </trkpt>
      <trkpt lat="43.72864" lon="4.93604">
        <ele>314.1</ele>
        <time>2025-11-12T11:46:56.035Z</time>
      </trkpt>
      <trkpt lat="43.72867" lon="4.93605">
        <ele>314.1</ele>
        <time>2025-11-12T11:46:59.036Z</time>
      </trkpt>
      <trkpt lat="43.72869" lon="4.93606">
        <ele>314.3</ele>
        <time>2025-11-12T11:47:01.036Z</time>
      </trkpt>
      <trkpt lat="43.72872" lon="4.93608">
        <ele>314.5</ele>
        <time>2025-11-12T11:47:04.035Z</time>
      </trkpt>
      <trkpt lat="43.72874" lon="4.9361">
        <ele>314.8</ele>
        <time>2025-11-12T11:47:07.035Z</time>
      </trkpt>
      <trkpt lat="43.72877" lon="4.9361">
        <ele>314.8</ele>
        <time>2025-11-12T11:47:09.035Z</time>
      </trkpt>
      <trkpt lat="43.7288" lon="4.9361">
        <ele>314.8</ele>
        <time>2025-11-12T11:47:11.035Z</time>
      </trkpt>
      <trkpt lat="43.72882" lon="4.93612">
        <ele>315.1</ele>
        <time>2025-11-12T11:47:13.035Z</time>
      </trkpt>
      <trkpt lat="43.72885" lon="4.93614">
        <ele>315.5</ele>
        <time>2025-11-12T11:47:16.036Z</time>
      </trkpt>
      <trkpt lat="43.72887" lon="4.93615">
        <ele>315.8</ele>
        <time>2025-11-12T11:47:19.036Z</time>
      </trkpt>
      <trkpt lat="43.7289" lon="4.93615">
        <ele>316.1</ele>
        <time>2025-11-12T11:47:22.035Z</time>
      </trkpt>
      <trkpt lat="43.72892" lon="4.93616">
        <ele>316.6</ele>
        <time>2025-11-12T11:47:24.035Z</time>
      </trkpt>
      <trkpt lat="43.72895" lon="4.93615">
        <ele>317</ele>
        <time>2025-11-12T11:47:26.035Z</time>
      </trkpt>
      <trkpt lat="43.72898" lon="4.93614">
        <ele>317.2</ele>
        <time>2025-11-12T11:47:30.035Z</time>
      </trkpt>
      <trkpt lat="43.72901" lon="4.93613">
        <ele>317.6</ele>
        <time>2025-11-12T11:47:33.035Z</time>
      </trkpt>
      <trkpt lat="43.72903" lon="4.93611">
        <ele>317.6</ele>
        <time>2025-11-12T11:47:35.035Z</time>
      </trkpt>
      <trkpt lat="43.72906" lon="4.93608">
        <ele>317.5</ele>
        <time>2025-11-12T11:47:38.035Z</time>
      </trkpt>
      <trkpt lat="43.72909" lon="4.93606">
        <ele>317.7</ele>
        <time>2025-11-12T11:47:41.035Z</time>
      </trkpt>
      <trkpt lat="43.72911" lon="4.93604">
        <ele>317.7</ele>
        <time>2025-11-12T11:47:44.035Z</time>
      </trkpt>
      <trkpt lat="43.72913" lon="4.93601">
        <ele>317.6</ele>
        <time>2025-11-12T11:47:47.036Z</time>
      </trkpt>
      <trkpt lat="43.72914" lon="4.93597">
        <ele>317.2</ele>
        <time>2025-11-12T11:47:51.035Z</time>
      </trkpt>
      <trkpt lat="43.72915" lon="4.93594">
        <ele>317.1</ele>
        <time>2025-11-12T11:47:54.035Z</time>
      </trkpt>
      <trkpt lat="43.72915" lon="4.93591">
        <ele>316.6</ele>
        <time>2025-11-12T11:47:56.035Z</time>
      </trkpt>
      <trkpt lat="43.72916" lon="4.93588">
        <ele>316.5</ele>
        <time>2025-11-12T11:47:58.035Z</time>
      </trkpt>
      <trkpt lat="43.72917" lon="4.93584">
        <ele>316.1</ele>
        <time>2025-11-12T11:48:01.035Z</time>
      </trkpt>
      <trkpt lat="43.72918" lon="4.93581">
        <ele>315.6</ele>
        <time>2025-11-12T11:48:03.036Z</time>
      </trkpt>
      <trkpt lat="43.72919" lon="4.93578">
        <ele>315</ele>
        <time>2025-11-12T11:48:05.035Z</time>
      </trkpt>
      <trkpt lat="43.7292" lon="4.93575">
        <ele>314.4</ele>
        <time>2025-11-12T11:48:08.035Z</time>
      </trkpt>
      <trkpt lat="43.72922" lon="4.93573">
        <ele>313.9</ele>
        <time>2025-11-12T11:48:12.035Z</time>
      </trkpt>
      <trkpt lat="43.72924" lon="4.93572">
        <ele>313.6</ele>
        <time>2025-11-12T11:48:16.035Z</time>
      </trkpt>
      <trkpt lat="43.72928" lon="4.93572">
        <ele>313.4</ele>
        <time>2025-11-12T11:48:19.036Z</time>
      </trkpt>
      <trkpt lat="43.7293" lon="4.93573">
        <ele>313.5</ele>
        <time>2025-11-12T11:48:21.035Z</time>
      </trkpt>
      <trkpt lat="43.72932" lon="4.93573">
        <ele>313.6</ele>
        <time>2025-11-12T11:48:23.035Z</time>
      </trkpt>
      <trkpt lat="43.72935" lon="4.93575">
        <ele>313.8</ele>
        <time>2025-11-12T11:48:26.035Z</time>
      </trkpt>
      <trkpt lat="43.72938" lon="4.93576">
        <ele>314.1</ele>
        <time>2025-11-12T11:48:28.035Z</time>
      </trkpt>
      <trkpt lat="43.7294" lon="4.93577">
        <ele>314.2</ele>
        <time>2025-11-12T11:48:30.035Z</time>
      </trkpt>
      <trkpt lat="43.72943" lon="4.93579">
        <ele>314.6</ele>
        <time>2025-11-12T11:48:33.035Z</time>
      </trkpt>
      <trkpt lat="43.72945" lon="4.9358">
        <ele>315</ele>
        <time>2025-11-12T11:48:36.035Z</time>
      </trkpt>
      <trkpt lat="43.72948" lon="4.93579">
        <ele>315.4</ele>
        <time>2025-11-12T11:48:38.035Z</time>
      </trkpt>
      <trkpt lat="43.7295" lon="4.93578">
        <ele>315.3</ele>
        <time>2025-11-12T11:48:40.035Z</time>
      </trkpt>
      <trkpt lat="43.72953" lon="4.93577">
        <ele>315.7</ele>
        <time>2025-11-12T11:48:43.035Z</time>
      </trkpt>
      <trkpt lat="43.72956" lon="4.93576">
        <ele>315.7</ele>
        <time>2025-11-12T11:48:46.036Z</time>
      </trkpt>
      <trkpt lat="43.72958" lon="4.93573">
        <ele>315.2</ele>
        <time>2025-11-12T11:48:49.035Z</time>
      </trkpt>
      <trkpt lat="43.7296" lon="4.93571">
        <ele>315.1</ele>
        <time>2025-11-12T11:48:51.035Z</time>
      </trkpt>
      <trkpt lat="43.72962" lon="4.93568">
        <ele>314.7</ele>
        <time>2025-11-12T11:48:54.035Z</time>
      </trkpt>
      <trkpt lat="43.72963" lon="4.93564">
        <ele>314</ele>
        <time>2025-11-12T11:48:57.035Z</time>
      </trkpt>
      <trkpt lat="43.72964" lon="4.93562">
        <ele>313.7</ele>
        <time>2025-11-12T11:49:00.035Z</time>
      </trkpt>
      <trkpt lat="43.72966" lon="4.93559">
        <ele>313.4</ele>
        <time>2025-11-12T11:49:03.035Z</time>
      </trkpt>
      <trkpt lat="43.72967" lon="4.93556">
        <ele>313</ele>
        <time>2025-11-12T11:49:06.036Z</time>
      </trkpt>
      <trkpt lat="43.72968" lon="4.93553">
        <ele>312.5</ele>
        <time>2025-11-12T11:49:09.035Z</time>
      </trkpt>
      <trkpt lat="43.7297" lon="4.9355">
        <ele>312.3</ele>
        <time>2025-11-12T11:49:11.036Z</time>
      </trkpt>
      <trkpt lat="43.72972" lon="4.93547">
        <ele>312.1</ele>
        <time>2025-11-12T11:49:14.035Z</time>
      </trkpt>
      <trkpt lat="43.72974" lon="4.93546">
        <ele>311.9</ele>
        <time>2025-11-12T11:49:17.035Z</time>
      </trkpt>
      <trkpt lat="43.72976" lon="4.93543">
        <ele>311.5</ele>
        <time>2025-11-12T11:49:19.035Z</time>
      </trkpt>
      <trkpt lat="43.72978" lon="4.93543">
        <ele>311.5</ele>
        <time>2025-11-12T11:49:21.035Z</time>
      </trkpt>
      <trkpt lat="43.72981" lon="4.93542">
        <ele>311.5</ele>
        <time>2025-11-12T11:49:24.035Z</time>
      </trkpt>
      <trkpt lat="43.72984" lon="4.93542">
        <ele>311.7</ele>
        <time>2025-11-12T11:49:26.035Z</time>
      </trkpt>
      <trkpt lat="43.72987" lon="4.93541">
        <ele>311.6</ele>
        <time>2025-11-12T11:49:29.035Z</time>
      </trkpt>
      <trkpt lat="43.7299" lon="4.93539">
        <ele>311.4</ele>
        <time>2025-11-12T11:49:32.035Z</time>
      </trkpt>
      <trkpt lat="43.72992" lon="4.93539">
        <ele>311.3</ele>
        <time>2025-11-12T11:49:35.035Z</time>
      </trkpt>
      <trkpt lat="43.72995" lon="4.93538">
        <ele>311.2</ele>
        <time>2025-11-12T11:49:38.035Z</time>
      </trkpt>
      <trkpt lat="43.72999" lon="4.93537">
        <ele>311.4</ele>
        <time>2025-11-12T11:49:41.035Z</time>
      </trkpt>
      <trkpt lat="43.73001" lon="4.93537">
        <ele>311.5</ele>
        <time>2025-11-12T11:49:44.035Z</time>
      </trkpt>
      <trkpt lat="43.73004" lon="4.93537">
        <ele>311.7</ele>
        <time>2025-11-12T11:49:46.035Z</time>
      </trkpt>
      <trkpt lat="43.73006" lon="4.93537">
        <ele>311.9</ele>
        <time>2025-11-12T11:49:49.036Z</time>
      </trkpt>
      <trkpt lat="43.73009" lon="4.93536">
        <ele>312.1</ele>
        <time>2025-11-12T11:49:52.035Z</time>
      </trkpt>
      <trkpt lat="43.73013" lon="4.93535">
        <ele>312.2</ele>
        <time>2025-11-12T11:49:55.035Z</time>
      </trkpt>
      <trkpt lat="43.73015" lon="4.93534">
        <ele>312.2</ele>
        <time>2025-11-12T11:49:57.035Z</time>
      </trkpt>
      <trkpt lat="43.73017" lon="4.93532">
        <ele>312</ele>
        <time>2025-11-12T11:49:59.035Z</time>
      </trkpt>
      <trkpt lat="43.73019" lon="4.93531">
        <ele>312.1</ele>
        <time>2025-11-12T11:50:02.035Z</time>
      </trkpt>
      <trkpt lat="43.73021" lon="4.93528">
        <ele>312</ele>
        <time>2025-11-12T11:50:05.036Z</time>
      </trkpt>
      <trkpt lat="43.73023" lon="4.93526">
        <ele>311.9</ele>
        <time>2025-11-12T11:50:08.036Z</time>
      </trkpt>
      <trkpt lat="43.73024" lon="4.93523">
        <ele>311.7</ele>
        <time>2025-11-12T11:50:10.036Z</time>
      </trkpt>
      <trkpt lat="43.73026" lon="4.9352">
        <ele>311.5</ele>
        <time>2025-11-12T11:50:13.035Z</time>
      </trkpt>
      <trkpt lat="43.73027" lon="4.93516">
        <ele>311.1</ele>
        <time>2025-11-12T11:50:16.035Z</time>
      </trkpt>
      <trkpt lat="43.73027" lon="4.93512">
        <ele>310.5</ele>
        <time>2025-11-12T11:50:19.035Z</time>
      </trkpt>
      <trkpt lat="43.73027" lon="4.93509">
        <ele>310.2</ele>
        <time>2025-11-12T11:50:22.035Z</time>
      </trkpt>
      <trkpt lat="43.73027" lon="4.93505">
        <ele>309.4</ele>
        <time>2025-11-12T11:50:25.035Z</time>
      </trkpt>
      <trkpt lat="43.73028" lon="4.93501">
        <ele>309.1</ele>
        <time>2025-11-12T11:50:28.035Z</time>
      </trkpt>
      <trkpt lat="43.73028" lon="4.93498">
        <ele>309</ele>
        <time>2025-11-12T11:50:31.035Z</time>
      </trkpt>
      <trkpt lat="43.73029" lon="4.93494">
        <ele>308.9</ele>
        <time>2025-11-12T11:50:33.035Z</time>
      </trkpt>
      <trkpt lat="43.73029" lon="4.9349">
        <ele>308.6</ele>
        <time>2025-11-12T11:50:35.035Z</time>
      </trkpt>
      <trkpt lat="43.73028" lon="4.93486">
        <ele>308</ele>
        <time>2025-11-12T11:50:38.035Z</time>
      </trkpt>
      <trkpt lat="43.73028" lon="4.93482">
        <ele>307.7</ele>
        <time>2025-11-12T11:50:41.036Z</time>
      </trkpt>
      <trkpt lat="43.73027" lon="4.93479">
        <ele>307.3</ele>
        <time>2025-11-12T11:50:43.035Z</time>
      </trkpt>
      <trkpt lat="43.73027" lon="4.93475">
        <ele>306.9</ele>
        <time>2025-11-12T11:50:46.035Z</time>
      </trkpt>
      <trkpt lat="43.73027" lon="4.93471">
        <ele>306.6</ele>
        <time>2025-11-12T11:50:49.035Z</time>
      </trkpt>
      <trkpt lat="43.73027" lon="4.93468">
        <ele>306.7</ele>
        <time>2025-11-12T11:50:52.036Z</time>
      </trkpt>
      <trkpt lat="43.73026" lon="4.93465">
        <ele>306.1</ele>
        <time>2025-11-12T11:50:55.035Z</time>
      </trkpt>
      <trkpt lat="43.73025" lon="4.93461">
        <ele>305.7</ele>
        <time>2025-11-12T11:50:58.036Z</time>
      </trkpt>
      <trkpt lat="43.73024" lon="4.93457">
        <ele>305.2</ele>
        <time>2025-11-12T11:51:01.035Z</time>
      </trkpt>
      <trkpt lat="43.73023" lon="4.93453">
        <ele>304.7</ele>
        <time>2025-11-12T11:51:05.036Z</time>
      </trkpt>
      <trkpt lat="43.73022" lon="4.93449">
        <ele>304.3</ele>
        <time>2025-11-12T11:51:08.035Z</time>
      </trkpt>
      <trkpt lat="43.7302" lon="4.93446">
        <ele>303.8</ele>
        <time>2025-11-12T11:51:10.035Z</time>
      </trkpt>
      <trkpt lat="43.73021" lon="4.93442">
        <ele>303.6</ele>
        <time>2025-11-12T11:51:13.035Z</time>
      </trkpt>
      <trkpt lat="43.73021" lon="4.93439">
        <ele>303.1</ele>
        <time>2025-11-12T11:51:16.035Z</time>
      </trkpt>
      <trkpt lat="43.73022" lon="4.93435">
        <ele>303.1</ele>
        <time>2025-11-12T11:51:19.036Z</time>
      </trkpt>
      <trkpt lat="43.73023" lon="4.93432">
        <ele>302.8</ele>
        <time>2025-11-12T11:51:22.036Z</time>
      </trkpt>
      <trkpt lat="43.73024" lon="4.93428">
        <ele>302.6</ele>
        <time>2025-11-12T11:51:25.036Z</time>
      </trkpt>
      <trkpt lat="43.73026" lon="4.93425">
        <ele>302.7</ele>
        <time>2025-11-12T11:51:28.035Z</time>
      </trkpt>
      <trkpt lat="43.73027" lon="4.93421">
        <ele>302.4</ele>
        <time>2025-11-12T11:51:31.035Z</time>
      </trkpt>
      <trkpt lat="43.73029" lon="4.93417">
        <ele>302.3</ele>
        <time>2025-11-12T11:51:34.035Z</time>
      </trkpt>
      <trkpt lat="43.73031" lon="4.93414">
        <ele>302.1</ele>
        <time>2025-11-12T11:51:37.035Z</time>
      </trkpt>
      <trkpt lat="43.73032" lon="4.93411">
        <ele>301.8</ele>
        <time>2025-11-12T11:51:39.035Z</time>
      </trkpt>
      <trkpt lat="43.73033" lon="4.93408">
        <ele>301.5</ele>
        <time>2025-11-12T11:51:42.035Z</time>
      </trkpt>
      <trkpt lat="43.73035" lon="4.93405">
        <ele>301.1</ele>
        <time>2025-11-12T11:51:46.035Z</time>
      </trkpt>
      <trkpt lat="43.73035" lon="4.934">
        <ele>300.4</ele>
        <time>2025-11-12T11:51:49.036Z</time>
      </trkpt>
      <trkpt lat="43.73035" lon="4.93396">
        <ele>299.9</ele>
        <time>2025-11-12T11:51:52.035Z</time>
      </trkpt>
      <trkpt lat="43.73036" lon="4.93391">
        <ele>299.3</ele>
        <time>2025-11-12T11:51:55.035Z</time>
      </trkpt>
      <trkpt lat="43.73037" lon="4.93388">
        <ele>298.9</ele>
        <time>2025-11-12T11:51:58.035Z</time>
      </trkpt>
      <trkpt lat="43.73038" lon="4.93385">
        <ele>298.6</ele>
        <time>2025-11-12T11:52:01.035Z</time>
      </trkpt>
      <trkpt lat="43.73039" lon="4.93382">
        <ele>298.3</ele>
        <time>2025-11-12T11:52:04.035Z</time>
      </trkpt>
      <trkpt lat="43.73042" lon="4.9338">
        <ele>298.2</ele>
        <time>2025-11-12T11:52:07.035Z</time>
      </trkpt>
      <trkpt lat="43.73044" lon="4.93377">
        <ele>297.9</ele>
        <time>2025-11-12T11:52:10.035Z</time>
      </trkpt>
      <trkpt lat="43.73046" lon="4.93375">
        <ele>297.9</ele>
        <time>2025-11-12T11:52:12.035Z</time>
      </trkpt>
      <trkpt lat="43.73049" lon="4.93374">
        <ele>297.9</ele>
        <time>2025-11-12T11:52:15.036Z</time>
      </trkpt>
      <trkpt lat="43.73052" lon="4.93374">
        <ele>298</ele>
        <time>2025-11-12T11:52:18.035Z</time>
      </trkpt>
      <trkpt lat="43.73055" lon="4.93373">
        <ele>298.1</ele>
        <time>2025-11-12T11:52:21.035Z</time>
      </trkpt>
      <trkpt lat="43.73058" lon="4.93373">
        <ele>298.3</ele>
        <time>2025-11-12T11:52:24.035Z</time>
      </trkpt>
      <trkpt lat="43.73061" lon="4.93373">
        <ele>298.3</ele>
        <time>2025-11-12T11:52:27.035Z</time>
      </trkpt>
      <trkpt lat="43.73064" lon="4.93372">
        <ele>298.3</ele>
        <time>2025-11-12T11:52:30.035Z</time>
      </trkpt>
      <trkpt lat="43.73066" lon="4.93372">
        <ele>298.3</ele>
        <time>2025-11-12T11:52:32.035Z</time>
      </trkpt>
      <trkpt lat="43.73069" lon="4.93372">
        <ele>298.4</ele>
        <time>2025-11-12T11:52:35.035Z</time>
      </trkpt>
      <trkpt lat="43.73072" lon="4.93372">
        <ele>298.5</ele>
        <time>2025-11-12T11:52:38.035Z</time>
      </trkpt>
      <trkpt lat="43.73074" lon="4.93369">
        <ele>298.1</ele>
        <time>2025-11-12T11:52:41.035Z</time>
      </trkpt>
      <trkpt lat="43.73077" lon="4.93367">
        <ele>297.9</ele>
        <time>2025-11-12T11:52:43.035Z</time>
      </trkpt>
      <trkpt lat="43.73079" lon="4.93366">
        <ele>297.7</ele>
        <time>2025-11-12T11:52:46.035Z</time>
      </trkpt>
      <trkpt lat="43.73082" lon="4.93365">
        <ele>297.6</ele>
        <time>2025-11-12T11:52:49.035Z</time>
      </trkpt>
      <trkpt lat="43.73084" lon="4.93363">
        <ele>297.3</ele>
        <time>2025-11-12T11:52:51.035Z</time>
      </trkpt>
      <trkpt lat="43.73085" lon="4.93361">
        <ele>297</ele>
        <time>2025-11-12T11:52:53.035Z</time>
      </trkpt>
      <trkpt lat="43.73088" lon="4.93359">
        <ele>296.7</ele>
        <time>2025-11-12T11:52:55.035Z</time>
      </trkpt>
      <trkpt lat="43.7309" lon="4.93357">
        <ele>296.4</ele>
        <time>2025-11-12T11:52:57.035Z</time>
      </trkpt>
      <trkpt lat="43.73092" lon="4.93356">
        <ele>296.2</ele>
        <time>2025-11-12T11:53:00.035Z</time>
      </trkpt>
      <trkpt lat="43.73095" lon="4.93354">
        <ele>296.1</ele>
        <time>2025-11-12T11:53:03.035Z</time>
      </trkpt>
      <trkpt lat="43.73097" lon="4.93353">
        <ele>296</ele>
        <time>2025-11-12T11:53:05.035Z</time>
      </trkpt>
      <trkpt lat="43.731" lon="4.9335">
        <ele>295.6</ele>
        <time>2025-11-12T11:53:08.035Z</time>
      </trkpt>
      <trkpt lat="43.73102" lon="4.93348">
        <ele>295.5</ele>
        <time>2025-11-12T11:53:12.035Z</time>
      </trkpt>
      <trkpt lat="43.73104" lon="4.93347">
        <ele>295.4</ele>
        <time>2025-11-12T11:53:14.035Z</time>
      </trkpt>
      <trkpt lat="43.73106" lon="4.93344">
        <ele>295.1</ele>
        <time>2025-11-12T11:53:17.035Z</time>
      </trkpt>
      <trkpt lat="43.73107" lon="4.93341">
        <ele>294.8</ele>
        <time>2025-11-12T11:53:19.035Z</time>
      </trkpt>
      <trkpt lat="43.73108" lon="4.93337">
        <ele>294.3</ele>
        <time>2025-11-12T11:53:22.035Z</time>
      </trkpt>
      <trkpt lat="43.73109" lon="4.93334">
        <ele>293.9</ele>
        <time>2025-11-12T11:53:24.035Z</time>
      </trkpt>
      <trkpt lat="43.73111" lon="4.93331">
        <ele>293.6</ele>
        <time>2025-11-12T11:53:27.036Z</time>
      </trkpt>
      <trkpt lat="43.73113" lon="4.93328">
        <ele>293.4</ele>
        <time>2025-11-12T11:53:30.035Z</time>
      </trkpt>
      <trkpt lat="43.73115" lon="4.93325">
        <ele>293.3</ele>
        <time>2025-11-12T11:53:33.035Z</time>
      </trkpt>
      <trkpt lat="43.73117" lon="4.93322">
        <ele>293.2</ele>
        <time>2025-11-12T11:53:36.036Z</time>
      </trkpt>
      <trkpt lat="43.73118" lon="4.93319">
        <ele>292.8</ele>
        <time>2025-11-12T11:53:39.035Z</time>
      </trkpt>
      <trkpt lat="43.7312" lon="4.93316">
        <ele>292.6</ele>
        <time>2025-11-12T11:53:42.035Z</time>
      </trkpt>
      <trkpt lat="43.73121" lon="4.93313">
        <ele>292.3</ele>
        <time>2025-11-12T11:53:45.035Z</time>
      </trkpt>
      <trkpt lat="43.73123" lon="4.9331">
        <ele>291.9</ele>
        <time>2025-11-12T11:53:48.036Z</time>
      </trkpt>
      <trkpt lat="43.73124" lon="4.93306">
        <ele>291.6</ele>
        <time>2025-11-12T11:53:51.036Z</time>
      </trkpt>
      <trkpt lat="43.73125" lon="4.93303">
        <ele>291.4</ele>
        <time>2025-11-12T11:53:53.036Z</time>
      </trkpt>
      <trkpt lat="43.73126" lon="4.933">
        <ele>291.2</ele>
        <time>2025-11-12T11:53:55.035Z</time>
      </trkpt>
      <trkpt lat="43.73128" lon="4.93296">
        <ele>291</ele>
        <time>2025-11-12T11:53:58.035Z</time>
      </trkpt>
      <trkpt lat="43.73128" lon="4.93291">
        <ele>290.6</ele>
        <time>2025-11-12T11:54:01.035Z</time>
      </trkpt>
      <trkpt lat="43.73128" lon="4.93288">
        <ele>290.3</ele>
        <time>2025-11-12T11:54:03.035Z</time>
      </trkpt>
      <trkpt lat="43.73128" lon="4.93284">
        <ele>290</ele>
        <time>2025-11-12T11:54:06.035Z</time>
      </trkpt>
      <trkpt lat="43.73128" lon="4.93281">
        <ele>289.6</ele>
        <time>2025-11-12T11:54:09.035Z</time>
      </trkpt>
      <trkpt lat="43.73126" lon="4.93277">
        <ele>289.2</ele>
        <time>2025-11-12T11:54:12.035Z</time>
      </trkpt>
      <trkpt lat="43.73125" lon="4.93272">
        <ele>288.8</ele>
        <time>2025-11-12T11:54:15.036Z</time>
      </trkpt>
      <trkpt lat="43.73123" lon="4.9327">
        <ele>288.6</ele>
        <time>2025-11-12T11:54:17.035Z</time>
      </trkpt>
      <trkpt lat="43.73121" lon="4.93267">
        <ele>288.3</ele>
        <time>2025-11-12T11:54:19.035Z</time>
      </trkpt>
      <trkpt lat="43.73119" lon="4.93265">
        <ele>288</ele>
        <time>2025-11-12T11:54:21.035Z</time>
      </trkpt>
      <trkpt lat="43.73117" lon="4.93262">
        <ele>287.7</ele>
        <time>2025-11-12T11:54:24.035Z</time>
      </trkpt>
      <trkpt lat="43.73115" lon="4.93258">
        <ele>287.4</ele>
        <time>2025-11-12T11:54:27.035Z</time>
      </trkpt>
      <trkpt lat="43.73113" lon="4.93256">
        <ele>287.2</ele>
        <time>2025-11-12T11:54:30.035Z</time>
      </trkpt>
      <trkpt lat="43.73111" lon="4.93253">
        <ele>287</ele>
        <time>2025-11-12T11:54:33.035Z</time>
      </trkpt>
      <trkpt lat="43.73108" lon="4.9325">
        <ele>286.7</ele>
        <time>2025-11-12T11:54:36.035Z</time>
      </trkpt>
      <trkpt lat="43.73106" lon="4.93248">
        <ele>286.3</ele>
        <time>2025-11-12T11:54:39.035Z</time>
      </trkpt>
      <trkpt lat="43.73103" lon="4.93247">
        <ele>286</ele>
        <time>2025-11-12T11:54:41.035Z</time>
      </trkpt>
      <trkpt lat="43.731" lon="4.93245">
        <ele>285.6</ele>
        <time>2025-11-12T11:54:43.035Z</time>
      </trkpt>
      <trkpt lat="43.73098" lon="4.93244">
        <ele>285.2</ele>
        <time>2025-11-12T11:54:45.035Z</time>
      </trkpt>
      <trkpt lat="43.73096" lon="4.93242">
        <ele>284.9</ele>
        <time>2025-11-12T11:54:47.035Z</time>
      </trkpt>
      <trkpt lat="43.73094" lon="4.93239">
        <ele>284.6</ele>
        <time>2025-11-12T11:54:49.035Z</time>
      </trkpt>
      <trkpt lat="43.73092" lon="4.93237">
        <ele>284.3</ele>
        <time>2025-11-12T11:54:51.035Z</time>
      </trkpt>
      <trkpt lat="43.73089" lon="4.93234">
        <ele>283.9</ele>
        <time>2025-11-12T11:54:54.035Z</time>
      </trkpt>
      <trkpt lat="43.73086" lon="4.93231">
        <ele>283.6</ele>
        <time>2025-11-12T11:54:57.036Z</time>
      </trkpt>
      <trkpt lat="43.73084" lon="4.93229">
        <ele>283.3</ele>
        <time>2025-11-12T11:54:59.035Z</time>
      </trkpt>
      <trkpt lat="43.73082" lon="4.93227">
        <ele>283.1</ele>
        <time>2025-11-12T11:55:01.036Z</time>
      </trkpt>
      <trkpt lat="43.7308" lon="4.93224">
        <ele>283</ele>
        <time>2025-11-12T11:55:04.035Z</time>
      </trkpt>
      <trkpt lat="43.73078" lon="4.93221">
        <ele>282.8</ele>
        <time>2025-11-12T11:55:07.035Z</time>
      </trkpt>
      <trkpt lat="43.73077" lon="4.93218">
        <ele>282.5</ele>
        <time>2025-11-12T11:55:09.035Z</time>
      </trkpt>
      <trkpt lat="43.73076" lon="4.93215">
        <ele>282.3</ele>
        <time>2025-11-12T11:55:12.035Z</time>
      </trkpt>
      <trkpt lat="43.73075" lon="4.93211">
        <ele>282</ele>
        <time>2025-11-12T11:55:15.035Z</time>
      </trkpt>
      <trkpt lat="43.73074" lon="4.93207">
        <ele>281.7</ele>
        <time>2025-11-12T11:55:17.035Z</time>
      </trkpt>
      <trkpt lat="43.73073" lon="4.93203">
        <ele>281.5</ele>
        <time>2025-11-12T11:55:20.035Z</time>
      </trkpt>
      <trkpt lat="43.73074" lon="4.93198">
        <ele>281.2</ele>
        <time>2025-11-12T11:55:23.035Z</time>
      </trkpt>
      <trkpt lat="43.73074" lon="4.93195">
        <ele>281</ele>
        <time>2025-11-12T11:55:25.035Z</time>
      </trkpt>
      <trkpt lat="43.73075" lon="4.93191">
        <ele>281</ele>
        <time>2025-11-12T11:55:28.035Z</time>
      </trkpt>
      <trkpt lat="43.73075" lon="4.93187">
        <ele>280.9</ele>
        <time>2025-11-12T11:55:31.035Z</time>
      </trkpt>
      <trkpt lat="43.73076" lon="4.93182">
        <ele>280.9</ele>
        <time>2025-11-12T11:55:34.036Z</time>
      </trkpt>
      <trkpt lat="43.73076" lon="4.93179">
        <ele>280.9</ele>
        <time>2025-11-12T11:55:36.035Z</time>
      </trkpt>
      <trkpt lat="43.73077" lon="4.93176">
        <ele>280.8</ele>
        <time>2025-11-12T11:55:38.035Z</time>
      </trkpt>
      <trkpt lat="43.73077" lon="4.93173">
        <ele>280.8</ele>
        <time>2025-11-12T11:55:40.035Z</time>
      </trkpt>
      <trkpt lat="43.73077" lon="4.93169">
        <ele>280.8</ele>
        <time>2025-11-12T11:55:42.035Z</time>
      </trkpt>
      <trkpt lat="43.73078" lon="4.93166">
        <ele>280.8</ele>
        <time>2025-11-12T11:55:44.035Z</time>
      </trkpt>
      <trkpt lat="43.73079" lon="4.93163">
        <ele>280.7</ele>
        <time>2025-11-12T11:55:46.036Z</time>
      </trkpt>
      <trkpt lat="43.7308" lon="4.9316">
        <ele>280.6</ele>
        <time>2025-11-12T11:55:48.035Z</time>
      </trkpt>
      <trkpt lat="43.73082" lon="4.93157">
        <ele>280.6</ele>
        <time>2025-11-12T11:55:51.035Z</time>
      </trkpt>
      <trkpt lat="43.73083" lon="4.93153">
        <ele>280.5</ele>
        <time>2025-11-12T11:55:53.035Z</time>
      </trkpt>
      <trkpt lat="43.73084" lon="4.9315">
        <ele>280.4</ele>
        <time>2025-11-12T11:55:55.035Z</time>
      </trkpt>
      <trkpt lat="43.73086" lon="4.93147">
        <ele>280.2</ele>
        <time>2025-11-12T11:55:58.035Z</time>
      </trkpt>
      <trkpt lat="43.73087" lon="4.93144">
        <ele>280.1</ele>
        <time>2025-11-12T11:56:00.035Z</time>
      </trkpt>
      <trkpt lat="43.73088" lon="4.93141">
        <ele>280.1</ele>
        <time>2025-11-12T11:56:02.035Z</time>
      </trkpt>
      <trkpt lat="43.73089" lon="4.93137">
        <ele>280</ele>
        <time>2025-11-12T11:56:05.035Z</time>
      </trkpt>
      <trkpt lat="43.7309" lon="4.93133">
        <ele>279.9</ele>
        <time>2025-11-12T11:56:08.035Z</time>
      </trkpt>
      <trkpt lat="43.73092" lon="4.93129">
        <ele>279.9</ele>
        <time>2025-11-12T11:56:11.035Z</time>
      </trkpt>
      <trkpt lat="43.73093" lon="4.93126">
        <ele>279.8</ele>
        <time>2025-11-12T11:56:13.035Z</time>
      </trkpt>
      <trkpt lat="43.73093" lon="4.93123">
        <ele>279.8</ele>
        <time>2025-11-12T11:56:15.036Z</time>
      </trkpt>
      <trkpt lat="43.73095" lon="4.93118">
        <ele>279.9</ele>
        <time>2025-11-12T11:56:18.035Z</time>
      </trkpt>
      <trkpt lat="43.73095" lon="4.93115">
        <ele>279.9</ele>
        <time>2025-11-12T11:56:20.035Z</time>
      </trkpt>
      <trkpt lat="43.73096" lon="4.93112">
        <ele>279.9</ele>
        <time>2025-11-12T11:56:22.035Z</time>
      </trkpt>
      <trkpt lat="43.73097" lon="4.93109">
        <ele>279.8</ele>
        <time>2025-11-12T11:56:24.035Z</time>
      </trkpt>
      <trkpt lat="43.73098" lon="4.93106">
        <ele>279.6</ele>
        <time>2025-11-12T11:56:26.035Z</time>
      </trkpt>
      <trkpt lat="43.73099" lon="4.93102">
        <ele>279.3</ele>
        <time>2025-11-12T11:56:29.036Z</time>
      </trkpt>
      <trkpt lat="43.731" lon="4.93099">
        <ele>279.2</ele>
        <time>2025-11-12T11:56:31.036Z</time>
      </trkpt>
      <trkpt lat="43.73101" lon="4.93096">
        <ele>279</ele>
        <time>2025-11-12T11:56:33.035Z</time>
      </trkpt>
      <trkpt lat="43.73103" lon="4.93092">
        <ele>278.8</ele>
        <time>2025-11-12T11:56:36.036Z</time>
      </trkpt>
      <trkpt lat="43.73104" lon="4.93089">
        <ele>278.7</ele>
        <time>2025-11-12T11:56:38.035Z</time>
      </trkpt>
      <trkpt lat="43.73106" lon="4.93086">
        <ele>278.7</ele>
        <time>2025-11-12T11:56:41.035Z</time>
      </trkpt>
      <trkpt lat="43.73107" lon="4.93083">
        <ele>278.5</ele>
        <time>2025-11-12T11:56:43.036Z</time>
      </trkpt>
      <trkpt lat="43.73109" lon="4.93079">
        <ele>278.3</ele>
        <time>2025-11-12T11:56:46.036Z</time>
      </trkpt>
      <trkpt lat="43.73111" lon="4.93076">
        <ele>278.2</ele>
        <time>2025-11-12T11:56:49.035Z</time>
      </trkpt>
      <trkpt lat="43.73114" lon="4.93073">
        <ele>278.1</ele>
        <time>2025-11-12T11:56:52.035Z</time>
      </trkpt>
      <trkpt lat="43.73115" lon="4.9307">
        <ele>277.8</ele>
        <time>2025-11-12T11:56:54.035Z</time>
      </trkpt>
      <trkpt lat="43.73116" lon="4.93067">
        <ele>277.6</ele>
        <time>2025-11-12T11:56:56.035Z</time>
      </trkpt>
      <trkpt lat="43.73118" lon="4.93064">
        <ele>277.4</ele>
        <time>2025-11-12T11:56:58.035Z</time>
      </trkpt>
      <trkpt lat="43.73119" lon="4.93061">
        <ele>277.3</ele>
        <time>2025-11-12T11:57:01.035Z</time>
      </trkpt>
      <trkpt lat="43.73121" lon="4.93057">
        <ele>277.2</ele>
        <time>2025-11-12T11:57:04.035Z</time>
      </trkpt>
      <trkpt lat="43.73122" lon="4.93054">
        <ele>277.1</ele>
        <time>2025-11-12T11:57:07.036Z</time>
      </trkpt>
      <trkpt lat="43.73124" lon="4.9305">
        <ele>277</ele>
        <time>2025-11-12T11:57:10.035Z</time>
      </trkpt>
      <trkpt lat="43.73125" lon="4.93047">
        <ele>276.9</ele>
        <time>2025-11-12T11:57:12.036Z</time>
      </trkpt>
      <trkpt lat="43.73126" lon="4.93043">
        <ele>276.8</ele>
        <time>2025-11-12T11:57:14.036Z</time>
      </trkpt>
      <trkpt lat="43.73127" lon="4.93039">
        <ele>276.5</ele>
        <time>2025-11-12T11:57:17.035Z</time>
      </trkpt>
      <trkpt lat="43.73128" lon="4.93035">
        <ele>276.4</ele>
        <time>2025-11-12T11:57:19.035Z</time>
      </trkpt>
      <trkpt lat="43.73129" lon="4.93032">
        <ele>276.2</ele>
        <time>2025-11-12T11:57:21.035Z</time>
      </trkpt>
      <trkpt lat="43.7313" lon="4.93029">
        <ele>276.1</ele>
        <time>2025-11-12T11:57:24.035Z</time>
      </trkpt>
      <trkpt lat="43.73131" lon="4.93026">
        <ele>276.1</ele>
        <time>2025-11-12T11:57:26.035Z</time>
      </trkpt>
      <trkpt lat="43.73132" lon="4.93022">
        <ele>276.1</ele>
        <time>2025-11-12T11:57:29.036Z</time>
      </trkpt>
      <trkpt lat="43.73133" lon="4.93018">
        <ele>276.1</ele>
        <time>2025-11-12T11:57:32.035Z</time>
      </trkpt>
      <trkpt lat="43.73134" lon="4.93015">
        <ele>276.1</ele>
        <time>2025-11-12T11:57:34.036Z</time>
      </trkpt>
      <trkpt lat="43.73135" lon="4.93011">
        <ele>276.1</ele>
        <time>2025-11-12T11:57:36.035Z</time>
      </trkpt>
      <trkpt lat="43.73136" lon="4.93008">
        <ele>276</ele>
        <time>2025-11-12T11:57:38.036Z</time>
      </trkpt>
      <trkpt lat="43.73136" lon="4.93004">
        <ele>275.9</ele>
        <time>2025-11-12T11:57:41.035Z</time>
      </trkpt>
      <trkpt lat="43.73137" lon="4.93">
        <ele>275.9</ele>
        <time>2025-11-12T11:57:43.035Z</time>
      </trkpt>
      <trkpt lat="43.73138" lon="4.92997">
        <ele>275.8</ele>
        <time>2025-11-12T11:57:45.035Z</time>
      </trkpt>
      <trkpt lat="43.73138" lon="4.92993">
        <ele>275.7</ele>
        <time>2025-11-12T11:57:47.036Z</time>
      </trkpt>
      <trkpt lat="43.73139" lon="4.9299">
        <ele>275.6</ele>
        <time>2025-11-12T11:57:49.035Z</time>
      </trkpt>
      <trkpt lat="43.7314" lon="4.92986">
        <ele>275.6</ele>
        <time>2025-11-12T11:57:52.035Z</time>
      </trkpt>
      <trkpt lat="43.73142" lon="4.92982">
        <ele>275.7</ele>
        <time>2025-11-12T11:57:55.035Z</time>
      </trkpt>
      <trkpt lat="43.73142" lon="4.92978">
        <ele>275.7</ele>
        <time>2025-11-12T11:57:57.035Z</time>
      </trkpt>
      <trkpt lat="43.73143" lon="4.92974">
        <ele>275.6</ele>
        <time>2025-11-12T11:58:00.035Z</time>
      </trkpt>
      <trkpt lat="43.73144" lon="4.9297">
        <ele>275.7</ele>
        <time>2025-11-12T11:58:03.035Z</time>
      </trkpt>
      <trkpt lat="43.73145" lon="4.92967">
        <ele>275.6</ele>
        <time>2025-11-12T11:58:05.035Z</time>
      </trkpt>
      <trkpt lat="43.73146" lon="4.92964">
        <ele>275.7</ele>
        <time>2025-11-12T11:58:07.035Z</time>
      </trkpt>
      <trkpt lat="43.73147" lon="4.92961">
        <ele>275.6</ele>
        <time>2025-11-12T11:58:09.035Z</time>
      </trkpt>
      <trkpt lat="43.73148" lon="4.92958">
        <ele>275.6</ele>
        <time>2025-11-12T11:58:12.035Z</time>
      </trkpt>
      <trkpt lat="43.73148" lon="4.92953">
        <ele>275.4</ele>
        <time>2025-11-12T11:58:15.035Z</time>
      </trkpt>
      <trkpt lat="43.73148" lon="4.9295">
        <ele>275.2</ele>
        <time>2025-11-12T11:58:18.035Z</time>
      </trkpt>
      <trkpt lat="43.73148" lon="4.92946">
        <ele>275.1</ele>
        <time>2025-11-12T11:58:21.035Z</time>
      </trkpt>
      <trkpt lat="43.73149" lon="4.92942">
        <ele>274.9</ele>
        <time>2025-11-12T11:58:24.035Z</time>
      </trkpt>
      <trkpt lat="43.73148" lon="4.92937">
        <ele>274.5</ele>
        <time>2025-11-12T11:58:27.035Z</time>
      </trkpt>
      <trkpt lat="43.73147" lon="4.92934">
        <ele>274.3</ele>
        <time>2025-11-12T11:58:29.036Z</time>
      </trkpt>
      <trkpt lat="43.73146" lon="4.92931">
        <ele>274</ele>
        <time>2025-11-12T11:58:31.035Z</time>
      </trkpt>
      <trkpt lat="43.73145" lon="4.92928">
        <ele>273.8</ele>
        <time>2025-11-12T11:58:34.035Z</time>
      </trkpt>
      <trkpt lat="43.73143" lon="4.92924">
        <ele>273.5</ele>
        <time>2025-11-12T11:58:37.035Z</time>
      </trkpt>
      <trkpt lat="43.73141" lon="4.92922">
        <ele>273.3</ele>
        <time>2025-11-12T11:58:40.035Z</time>
      </trkpt>
      <trkpt lat="43.73139" lon="4.9292">
        <ele>273.1</ele>
        <time>2025-11-12T11:58:42.035Z</time>
      </trkpt>
      <trkpt lat="43.73136" lon="4.92917">
        <ele>272.7</ele>
        <time>2025-11-12T11:58:45.035Z</time>
      </trkpt>
      <trkpt lat="43.73134" lon="4.92915">
        <ele>272.5</ele>
        <time>2025-11-12T11:58:47.035Z</time>
      </trkpt>
      <trkpt lat="43.73132" lon="4.92913">
        <ele>272.3</ele>
        <time>2025-11-12T11:58:49.035Z</time>
      </trkpt>
      <trkpt lat="43.7313" lon="4.92911">
        <ele>272.2</ele>
        <time>2025-11-12T11:58:51.036Z</time>
      </trkpt>
      <trkpt lat="43.73127" lon="4.92909">
        <ele>272</ele>
        <time>2025-11-12T11:58:53.035Z</time>
      </trkpt>
      <trkpt lat="43.73125" lon="4.92906">
        <ele>271.9</ele>
        <time>2025-11-12T11:58:56.035Z</time>
      </trkpt>
      <trkpt lat="43.73122" lon="4.92905">
        <ele>271.7</ele>
        <time>2025-11-12T11:58:59.035Z</time>
      </trkpt>
      <trkpt lat="43.7312" lon="4.92903">
        <ele>271.6</ele>
        <time>2025-11-12T11:59:02.035Z</time>
      </trkpt>
      <trkpt lat="43.73117" lon="4.92902">
        <ele>271.5</ele>
        <time>2025-11-12T11:59:05.035Z</time>
      </trkpt>
      <trkpt lat="43.73115" lon="4.929">
        <ele>271.5</ele>
        <time>2025-11-12T11:59:08.036Z</time>
      </trkpt>
      <trkpt lat="43.73113" lon="4.92898">
        <ele>271.4</ele>
        <time>2025-11-12T11:59:10.035Z</time>
      </trkpt>
      <trkpt lat="43.7311" lon="4.92896">
        <ele>271.3</ele>
        <time>2025-11-12T11:59:13.035Z</time>
      </trkpt>
      <trkpt lat="43.73108" lon="4.92894">
        <ele>271.3</ele>
        <time>2025-11-12T11:59:15.035Z</time>
      </trkpt>
      <trkpt lat="43.73106" lon="4.92892">
        <ele>271.2</ele>
        <time>2025-11-12T11:59:17.035Z</time>
      </trkpt>
      <trkpt lat="43.73103" lon="4.92889">
        <ele>271.1</ele>
        <time>2025-11-12T11:59:19.035Z</time>
      </trkpt>
      <trkpt lat="43.73101" lon="4.92887">
        <ele>270.9</ele>
        <time>2025-11-12T11:59:22.035Z</time>
      </trkpt>
      <trkpt lat="43.73099" lon="4.92885">
        <ele>270.7</ele>
        <time>2025-11-12T11:59:24.035Z</time>
      </trkpt>
      <trkpt lat="43.73097" lon="4.92883">
        <ele>270.4</ele>
        <time>2025-11-12T11:59:26.036Z</time>
      </trkpt>
      <trkpt lat="43.73094" lon="4.92881">
        <ele>270.2</ele>
        <time>2025-11-12T11:59:29.036Z</time>
      </trkpt>
      <trkpt lat="43.73091" lon="4.92878">
        <ele>269.9</ele>
        <time>2025-11-12T11:59:32.036Z</time>
      </trkpt>
      <trkpt lat="43.73088" lon="4.92875">
        <ele>269.5</ele>
        <time>2025-11-12T11:59:35.035Z</time>
      </trkpt>
      <trkpt lat="43.73085" lon="4.92875">
        <ele>269.2</ele>
        <time>2025-11-12T11:59:37.035Z</time>
      </trkpt>
      <trkpt lat="43.73083" lon="4.92873">
        <ele>268.9</ele>
        <time>2025-11-12T11:59:40.035Z</time>
      </trkpt>
      <trkpt lat="43.73081" lon="4.9287">
        <ele>268.8</ele>
        <time>2025-11-12T11:59:42.036Z</time>
      </trkpt>
      <trkpt lat="43.73078" lon="4.92867">
        <ele>268.6</ele>
        <time>2025-11-12T11:59:45.035Z</time>
      </trkpt>
      <trkpt lat="43.73076" lon="4.92865">
        <ele>268.4</ele>
        <time>2025-11-12T11:59:47.035Z</time>
      </trkpt>
      <trkpt lat="43.73074" lon="4.92864">
        <ele>268.3</ele>
        <time>2025-11-12T11:59:49.035Z</time>
      </trkpt>
      <trkpt lat="43.73071" lon="4.92862">
        <ele>268.1</ele>
        <time>2025-11-12T11:59:52.035Z</time>
      </trkpt>
      <trkpt lat="43.73069" lon="4.92859">
        <ele>268</ele>
        <time>2025-11-12T11:59:55.035Z</time>
      </trkpt>
      <trkpt lat="43.73067" lon="4.92857">
        <ele>267.9</ele>
        <time>2025-11-12T11:59:58.035Z</time>
      </trkpt>
      <trkpt lat="43.73065" lon="4.92854">
        <ele>267.8</ele>
        <time>2025-11-12T12:00:01.035Z</time>
      </trkpt>
      <trkpt lat="43.73063" lon="4.92852">
        <ele>267.6</ele>
        <time>2025-11-12T12:00:03.035Z</time>
      </trkpt>
      <trkpt lat="43.7306" lon="4.9285">
        <ele>267.4</ele>
        <time>2025-11-12T12:00:06.035Z</time>
      </trkpt>
      <trkpt lat="43.73057" lon="4.92848">
        <ele>267.1</ele>
        <time>2025-11-12T12:00:10.035Z</time>
      </trkpt>
      <trkpt lat="43.73056" lon="4.92846">
        <ele>267</ele>
        <time>2025-11-12T12:00:12.035Z</time>
      </trkpt>
      <trkpt lat="43.73053" lon="4.92844">
        <ele>266.7</ele>
        <time>2025-11-12T12:00:15.035Z</time>
      </trkpt>
      <trkpt lat="43.73051" lon="4.92842">
        <ele>266.5</ele>
        <time>2025-11-12T12:00:17.035Z</time>
      </trkpt>
      <trkpt lat="43.73048" lon="4.9284">
        <ele>266.2</ele>
        <time>2025-11-12T12:00:19.035Z</time>
      </trkpt>
      <trkpt lat="43.73045" lon="4.92837">
        <ele>265.9</ele>
        <time>2025-11-12T12:00:22.035Z</time>
      </trkpt>
      <trkpt lat="43.73043" lon="4.92833">
        <ele>265.7</ele>
        <time>2025-11-12T12:00:25.035Z</time>
      </trkpt>
      <trkpt lat="43.73042" lon="4.92831">
        <ele>265.4</ele>
        <time>2025-11-12T12:00:27.035Z</time>
      </trkpt>
      <trkpt lat="43.7304" lon="4.92828">
        <ele>265.1</ele>
        <time>2025-11-12T12:00:30.036Z</time>
      </trkpt>
      <trkpt lat="43.73039" lon="4.92824">
        <ele>264.9</ele>
        <time>2025-11-12T12:00:32.035Z</time>
      </trkpt>
      <trkpt lat="43.73038" lon="4.92821">
        <ele>264.6</ele>
        <time>2025-11-12T12:00:34.036Z</time>
      </trkpt>
      <trkpt lat="43.73036" lon="4.92819">
        <ele>264.4</ele>
        <time>2025-11-12T12:00:36.035Z</time>
      </trkpt>
      <trkpt lat="43.73034" lon="4.92816">
        <ele>264.1</ele>
        <time>2025-11-12T12:00:39.035Z</time>
      </trkpt>
      <trkpt lat="43.73033" lon="4.92813">
        <ele>263.8</ele>
        <time>2025-11-12T12:00:42.035Z</time>
      </trkpt>
      <trkpt lat="43.73031" lon="4.92809">
        <ele>263.5</ele>
        <time>2025-11-12T12:00:45.035Z</time>
      </trkpt>
      <trkpt lat="43.73029" lon="4.92805">
        <ele>263.1</ele>
        <time>2025-11-12T12:00:48.035Z</time>
      </trkpt>
      <trkpt lat="43.73029" lon="4.92802">
        <ele>262.8</ele>
        <time>2025-11-12T12:00:50.035Z</time>
      </trkpt>
      <trkpt lat="43.73028" lon="4.92799">
        <ele>262.5</ele>
        <time>2025-11-12T12:00:53.036Z</time>
      </trkpt>
      <trkpt lat="43.73028" lon="4.92795">
        <ele>262.2</ele>
        <time>2025-11-12T12:00:56.035Z</time>
      </trkpt>
      <trkpt lat="43.73029" lon="4.92791">
        <ele>262</ele>
        <time>2025-11-12T12:00:59.035Z</time>
      </trkpt>
      <trkpt lat="43.7303" lon="4.92788">
        <ele>261.8</ele>
        <time>2025-11-12T12:01:02.035Z</time>
      </trkpt>
      <trkpt lat="43.73031" lon="4.92784">
        <ele>261.7</ele>
        <time>2025-11-12T12:01:05.035Z</time>
      </trkpt>
      <trkpt lat="43.73033" lon="4.92781">
        <ele>261.6</ele>
        <time>2025-11-12T12:01:07.036Z</time>
      </trkpt>
      <trkpt lat="43.73035" lon="4.92779">
        <ele>261.6</ele>
        <time>2025-11-12T12:01:09.035Z</time>
      </trkpt>
      <trkpt lat="43.73037" lon="4.92775">
        <ele>261.4</ele>
        <time>2025-11-12T12:01:12.035Z</time>
      </trkpt>
      <trkpt lat="43.7304" lon="4.92772">
        <ele>261.2</ele>
        <time>2025-11-12T12:01:15.035Z</time>
      </trkpt>
      <trkpt lat="43.73042" lon="4.92769">
        <ele>261.1</ele>
        <time>2025-11-12T12:01:18.035Z</time>
      </trkpt>
      <trkpt lat="43.73043" lon="4.92767">
        <ele>260.9</ele>
        <time>2025-11-12T12:01:20.036Z</time>
      </trkpt>
      <trkpt lat="43.73045" lon="4.92764">
        <ele>260.7</ele>
        <time>2025-11-12T12:01:22.035Z</time>
      </trkpt>
      <trkpt lat="43.73046" lon="4.92762">
        <ele>260.6</ele>
        <time>2025-11-12T12:01:24.036Z</time>
      </trkpt>
      <trkpt lat="43.73049" lon="4.92759">
        <ele>260.5</ele>
        <time>2025-11-12T12:01:27.035Z</time>
      </trkpt>
      <trkpt lat="43.73051" lon="4.92756">
        <ele>260.3</ele>
        <time>2025-11-12T12:01:29.036Z</time>
      </trkpt>
      <trkpt lat="43.73053" lon="4.92753">
        <ele>260.1</ele>
        <time>2025-11-12T12:01:32.035Z</time>
      </trkpt>
      <trkpt lat="43.73055" lon="4.92751">
        <ele>260.1</ele>
        <time>2025-11-12T12:01:34.035Z</time>
      </trkpt>
      <trkpt lat="43.73056" lon="4.92748">
        <ele>259.8</ele>
        <time>2025-11-12T12:01:36.036Z</time>
      </trkpt>
      <trkpt lat="43.73059" lon="4.92744">
        <ele>259.5</ele>
        <time>2025-11-12T12:01:39.036Z</time>
      </trkpt>
      <trkpt lat="43.73061" lon="4.92743">
        <ele>259.5</ele>
        <time>2025-11-12T12:01:42.035Z</time>
      </trkpt>
      <trkpt lat="43.73063" lon="4.9274">
        <ele>259.4</ele>
        <time>2025-11-12T12:01:44.035Z</time>
      </trkpt>
      <trkpt lat="43.73065" lon="4.92739">
        <ele>259.4</ele>
        <time>2025-11-12T12:01:46.035Z</time>
      </trkpt>
      <trkpt lat="43.73068" lon="4.92737">
        <ele>259.4</ele>
        <time>2025-11-12T12:01:49.036Z</time>
      </trkpt>
      <trkpt lat="43.7307" lon="4.92734">
        <ele>259.3</ele>
        <time>2025-11-12T12:01:51.035Z</time>
      </trkpt>
      <trkpt lat="43.73072" lon="4.92732">
        <ele>259.1</ele>
        <time>2025-11-12T12:01:53.036Z</time>
      </trkpt>
      <trkpt lat="43.73074" lon="4.9273">
        <ele>259</ele>
        <time>2025-11-12T12:01:56.035Z</time>
      </trkpt>
      <trkpt lat="43.73076" lon="4.92728">
        <ele>259.1</ele>
        <time>2025-11-12T12:01:58.035Z</time>
      </trkpt>
      <trkpt lat="43.73079" lon="4.92726">
        <ele>259</ele>
        <time>2025-11-12T12:02:00.035Z</time>
      </trkpt>
      <trkpt lat="43.7308" lon="4.92724">
        <ele>258.9</ele>
        <time>2025-11-12T12:02:02.036Z</time>
      </trkpt>
      <trkpt lat="43.73083" lon="4.92721">
        <ele>258.7</ele>
        <time>2025-11-12T12:02:05.035Z</time>
      </trkpt>
      <trkpt lat="43.73085" lon="4.92719">
        <ele>258.5</ele>
        <time>2025-11-12T12:02:08.035Z</time>
      </trkpt>
      <trkpt lat="43.73087" lon="4.92717">
        <ele>258.5</ele>
        <time>2025-11-12T12:02:11.035Z</time>
      </trkpt>
      <trkpt lat="43.7309" lon="4.92715">
        <ele>258.5</ele>
        <time>2025-11-12T12:02:14.035Z</time>
      </trkpt>
      <trkpt lat="43.73093" lon="4.92713">
        <ele>258.3</ele>
        <time>2025-11-12T12:02:16.035Z</time>
      </trkpt>
      <trkpt lat="43.73094" lon="4.92711">
        <ele>258.2</ele>
        <time>2025-11-12T12:02:18.035Z</time>
      </trkpt>
      <trkpt lat="43.73097" lon="4.92709">
        <ele>258.1</ele>
        <time>2025-11-12T12:02:20.035Z</time>
      </trkpt>
      <trkpt lat="43.731" lon="4.92708">
        <ele>258.2</ele>
        <time>2025-11-12T12:02:22.035Z</time>
      </trkpt>
      <trkpt lat="43.73103" lon="4.92706">
        <ele>258.2</ele>
        <time>2025-11-12T12:02:24.035Z</time>
      </trkpt>
      <trkpt lat="43.73105" lon="4.92703">
        <ele>257.9</ele>
        <time>2025-11-12T12:02:27.035Z</time>
      </trkpt>
      <trkpt lat="43.73107" lon="4.927">
        <ele>257.6</ele>
        <time>2025-11-12T12:02:30.035Z</time>
      </trkpt>
      <trkpt lat="43.73109" lon="4.92698">
        <ele>257.5</ele>
        <time>2025-11-12T12:02:32.036Z</time>
      </trkpt>
      <trkpt lat="43.73112" lon="4.92696">
        <ele>257.3</ele>
        <time>2025-11-12T12:02:35.036Z</time>
      </trkpt>
      <trkpt lat="43.73114" lon="4.92693">
        <ele>257</ele>
        <time>2025-11-12T12:02:38.035Z</time>
      </trkpt>
      <trkpt lat="43.73117" lon="4.92691">
        <ele>256.7</ele>
        <time>2025-11-12T12:02:40.035Z</time>
      </trkpt>
      <trkpt lat="43.73119" lon="4.92688">
        <ele>256.3</ele>
        <time>2025-11-12T12:02:43.035Z</time>
      </trkpt>
      <trkpt lat="43.7312" lon="4.92685">
        <ele>255.8</ele>
        <time>2025-11-12T12:02:45.035Z</time>
      </trkpt>
      <trkpt lat="43.73122" lon="4.92683">
        <ele>255.4</ele>
        <time>2025-11-12T12:02:47.035Z</time>
      </trkpt>
      <trkpt lat="43.73125" lon="4.92681">
        <ele>255.3</ele>
        <time>2025-11-12T12:02:49.036Z</time>
      </trkpt>
      <trkpt lat="43.73127" lon="4.92678">
        <ele>255</ele>
        <time>2025-11-12T12:02:52.035Z</time>
      </trkpt>
      <trkpt lat="43.73129" lon="4.92677">
        <ele>254.8</ele>
        <time>2025-11-12T12:02:54.035Z</time>
      </trkpt>
      <trkpt lat="43.73132" lon="4.92674">
        <ele>254.6</ele>
        <time>2025-11-12T12:02:57.035Z</time>
      </trkpt>
      <trkpt lat="43.73135" lon="4.92671">
        <ele>254.4</ele>
        <time>2025-11-12T12:03:00.035Z</time>
      </trkpt>
      <trkpt lat="43.73137" lon="4.92669">
        <ele>254.2</ele>
        <time>2025-11-12T12:03:03.036Z</time>
      </trkpt>
      <trkpt lat="43.73139" lon="4.92666">
        <ele>253.9</ele>
        <time>2025-11-12T12:03:06.035Z</time>
      </trkpt>
      <trkpt lat="43.73141" lon="4.92663">
        <ele>253.7</ele>
        <time>2025-11-12T12:03:09.036Z</time>
      </trkpt>
      <trkpt lat="43.73144" lon="4.92661">
        <ele>253.6</ele>
        <time>2025-11-12T12:03:12.035Z</time>
      </trkpt>
      <trkpt lat="43.73146" lon="4.92659">
        <ele>253.6</ele>
        <time>2025-11-12T12:03:14.035Z</time>
      </trkpt>
      <trkpt lat="43.73148" lon="4.92657">
        <ele>253.4</ele>
        <time>2025-11-12T12:03:16.035Z</time>
      </trkpt>
      <trkpt lat="43.7315" lon="4.92655">
        <ele>253.1</ele>
        <time>2025-11-12T12:03:19.035Z</time>
      </trkpt>
      <trkpt lat="43.73152" lon="4.92653">
        <ele>253</ele>
        <time>2025-11-12T12:03:21.035Z</time>
      </trkpt>
      <trkpt lat="43.73154" lon="4.92651">
        <ele>252.8</ele>
        <time>2025-11-12T12:03:23.035Z</time>
      </trkpt>
      <trkpt lat="43.73156" lon="4.92649">
        <ele>252.4</ele>
        <time>2025-11-12T12:03:25.035Z</time>
      </trkpt>
      <trkpt lat="43.73157" lon="4.92646">
        <ele>251.9</ele>
        <time>2025-11-12T12:03:28.035Z</time>
      </trkpt>
      <trkpt lat="43.73159" lon="4.92642">
        <ele>251.4</ele>
        <time>2025-11-12T12:03:31.036Z</time>
      </trkpt>
      <trkpt lat="43.7316" lon="4.9264">
        <ele>250.9</ele>
        <time>2025-11-12T12:03:33.036Z</time>
      </trkpt>
      <trkpt lat="43.73162" lon="4.92637">
        <ele>250.7</ele>
        <time>2025-11-12T12:03:36.035Z</time>
      </trkpt>
      <trkpt lat="43.73161" lon="4.92633">
        <ele>250.4</ele>
        <time>2025-11-12T12:03:40.035Z</time>
      </trkpt>
      <trkpt lat="43.73158" lon="4.92631">
        <ele>250.1</ele>
        <time>2025-11-12T12:03:43.036Z</time>
      </trkpt>
      <trkpt lat="43.73156" lon="4.92629">
        <ele>249.9</ele>
        <time>2025-11-12T12:03:45.035Z</time>
      </trkpt>
      <trkpt lat="43.73155" lon="4.92626">
        <ele>249.7</ele>
        <time>2025-11-12T12:03:47.035Z</time>
      </trkpt>
      <trkpt lat="43.73153" lon="4.92623">
        <ele>249.4</ele>
        <time>2025-11-12T12:03:50.035Z</time>
      </trkpt>
      <trkpt lat="43.73151" lon="4.92622">
        <ele>249.2</ele>
        <time>2025-11-12T12:03:52.035Z</time>
      </trkpt>
      <trkpt lat="43.73148" lon="4.92619">
        <ele>248.9</ele>
        <time>2025-11-12T12:03:55.035Z</time>
      </trkpt>
      <trkpt lat="43.73146" lon="4.92616">
        <ele>248.6</ele>
        <time>2025-11-12T12:03:58.035Z</time>
      </trkpt>
      <trkpt lat="43.73143" lon="4.92613">
        <ele>248.3</ele>
        <time>2025-11-12T12:06:58.035Z</time>
      </trkpt>
      <trkpt lat="43.7314" lon="4.92611">
        <ele>248.1</ele>
        <time>2025-11-12T12:07:00.035Z</time>
      </trkpt>
      <trkpt lat="43.73138" lon="4.9261">
        <ele>248</ele>
        <time>2025-11-12T12:07:02.035Z</time>
      </trkpt>
      <trkpt lat="43.73136" lon="4.92607">
        <ele>247.9</ele>
        <time>2025-11-12T12:07:06.035Z</time>
      </trkpt>
      <trkpt lat="43.73134" lon="4.92604">
        <ele>247.9</ele>
        <time>2025-11-12T12:07:09.035Z</time>
      </trkpt>
      <trkpt lat="43.73132" lon="4.92601">
        <ele>247.8</ele>
        <time>2025-11-12T12:07:12.035Z</time>
      </trkpt>
      <trkpt lat="43.7313" lon="4.92599">
        <ele>247.8</ele>
        <time>2025-11-12T12:07:14.035Z</time>
      </trkpt>
      <trkpt lat="43.73128" lon="4.92597">
        <ele>247.8</ele>
        <time>2025-11-12T12:07:16.036Z</time>
      </trkpt>
      <trkpt lat="43.73125" lon="4.92595">
        <ele>247.8</ele>
        <time>2025-11-12T12:07:19.036Z</time>
      </trkpt>
      <trkpt lat="43.73123" lon="4.92593">
        <ele>247.8</ele>
        <time>2025-11-12T12:07:22.035Z</time>
      </trkpt>
      <trkpt lat="43.73119" lon="4.92592">
        <ele>247.8</ele>
        <time>2025-11-12T12:07:25.035Z</time>
      </trkpt>
      <trkpt lat="43.73117" lon="4.9259">
        <ele>247.8</ele>
        <time>2025-11-12T12:07:27.036Z</time>
      </trkpt>
      <trkpt lat="43.73114" lon="4.92588">
        <ele>247.8</ele>
        <time>2025-11-12T12:07:30.035Z</time>
      </trkpt>
      <trkpt lat="43.73111" lon="4.92588">
        <ele>247.8</ele>
        <time>2025-11-12T12:07:32.035Z</time>
      </trkpt>
      <trkpt lat="43.73108" lon="4.92586">
        <ele>247.9</ele>
        <time>2025-11-12T12:07:34.035Z</time>
      </trkpt>
      <trkpt lat="43.73105" lon="4.92584">
        <ele>248</ele>
        <time>2025-11-12T12:07:36.035Z</time>
      </trkpt>
      <trkpt lat="43.73104" lon="4.92583">
        <ele>248.1</ele>
        <time>2025-11-12T12:07:38.035Z</time>
      </trkpt>
      <trkpt lat="43.73101" lon="4.92584">
        <ele>248</ele>
        <time>2025-11-12T12:07:43.035Z</time>
      </trkpt>
      <trkpt lat="43.73098" lon="4.9258">
        <ele>248.5</ele>
        <time>2025-11-12T12:07:45.035Z</time>
      </trkpt>
      <trkpt lat="43.73095" lon="4.9258">
        <ele>248.5</ele>
        <time>2025-11-12T12:07:46.036Z</time>
      </trkpt>
      <trkpt lat="43.73093" lon="4.92582">
        <ele>248.2</ele>
        <time>2025-11-12T12:07:50.035Z</time>
      </trkpt>
      <trkpt lat="43.7309" lon="4.92581">
        <ele>248.4</ele>
        <time>2025-11-12T12:07:52.036Z</time>
      </trkpt>
      <trkpt lat="43.73086" lon="4.9258">
        <ele>248.5</ele>
        <time>2025-11-12T12:07:54.035Z</time>
      </trkpt>
      <trkpt lat="43.73084" lon="4.92579">
        <ele>248.6</ele>
        <time>2025-11-12T12:07:56.035Z</time>
      </trkpt>
      <trkpt lat="43.73081" lon="4.92579">
        <ele>248.5</ele>
        <time>2025-11-12T12:07:59.035Z</time>
      </trkpt>
      <trkpt lat="43.73078" lon="4.92576">
        <ele>248.7</ele>
        <time>2025-11-12T12:08:01.035Z</time>
      </trkpt>
      <trkpt lat="43.73076" lon="4.92578">
        <ele>248.4</ele>
        <time>2025-11-12T12:08:06.035Z</time>
      </trkpt>
      <trkpt lat="43.73073" lon="4.92576">
        <ele>248.6</ele>
        <time>2025-11-12T12:08:08.035Z</time>
      </trkpt>
      <trkpt lat="43.73071" lon="4.92574">
        <ele>248.8</ele>
        <time>2025-11-12T12:08:09.036Z</time>
      </trkpt>
      <trkpt lat="43.73068" lon="4.92573">
        <ele>248.8</ele>
        <time>2025-11-12T12:08:13.035Z</time>
      </trkpt>
      <trkpt lat="43.73065" lon="4.92571">
        <ele>248.8</ele>
        <time>2025-11-12T12:08:16.035Z</time>
      </trkpt>
      <trkpt lat="43.73063" lon="4.92568">
        <ele>249.1</ele>
        <time>2025-11-12T12:08:18.035Z</time>
      </trkpt>
      <trkpt lat="43.73061" lon="4.92566">
        <ele>249.2</ele>
        <time>2025-11-12T12:08:20.036Z</time>
      </trkpt>
      <trkpt lat="43.73058" lon="4.92565">
        <ele>249.2</ele>
        <time>2025-11-12T12:08:23.035Z</time>
      </trkpt>
      <trkpt lat="43.73057" lon="4.92562">
        <ele>249.3</ele>
        <time>2025-11-12T12:08:25.035Z</time>
      </trkpt>
      <trkpt lat="43.73053" lon="4.92561">
        <ele>249.3</ele>
        <time>2025-11-12T12:08:29.035Z</time>
      </trkpt>
      <trkpt lat="43.73051" lon="4.92558">
        <ele>249.5</ele>
        <time>2025-11-12T12:08:31.035Z</time>
      </trkpt>
      <trkpt lat="43.73049" lon="4.92556">
        <ele>249.7</ele>
        <time>2025-11-12T12:08:33.035Z</time>
      </trkpt>
      <trkpt lat="43.73046" lon="4.92552">
        <ele>250</ele>
        <time>2025-11-12T12:08:36.035Z</time>
      </trkpt>
      <trkpt lat="43.73043" lon="4.9255">
        <ele>250.2</ele>
        <time>2025-11-12T12:08:39.035Z</time>
      </trkpt>
      <trkpt lat="43.73041" lon="4.92547">
        <ele>250.5</ele>
        <time>2025-11-12T12:08:43.035Z</time>
      </trkpt>
      <trkpt lat="43.73039" lon="4.92545">
        <ele>250.6</ele>
        <time>2025-11-12T12:08:45.035Z</time>
      </trkpt>
      <trkpt lat="43.73036" lon="4.92542">
        <ele>250.8</ele>
        <time>2025-11-12T12:08:48.035Z</time>
      </trkpt>
      <trkpt lat="43.73033" lon="4.9254">
        <ele>250.9</ele>
        <time>2025-11-12T12:08:50.035Z</time>
      </trkpt>
      <trkpt lat="43.73031" lon="4.92539">
        <ele>250.9</ele>
        <time>2025-11-12T12:08:52.035Z</time>
      </trkpt>
      <trkpt lat="43.73028" lon="4.92536">
        <ele>251.1</ele>
        <time>2025-11-12T12:08:55.035Z</time>
      </trkpt>
      <trkpt lat="43.73025" lon="4.92534">
        <ele>251.3</ele>
        <time>2025-11-12T12:08:58.035Z</time>
      </trkpt>
      <trkpt lat="43.73022" lon="4.92533">
        <ele>251.3</ele>
        <time>2025-11-12T12:09:01.035Z</time>
      </trkpt>
      <trkpt lat="43.7302" lon="4.92532">
        <ele>251.3</ele>
        <time>2025-11-12T12:09:03.035Z</time>
      </trkpt>
      <trkpt lat="43.73018" lon="4.92531">
        <ele>251.3</ele>
        <time>2025-11-12T12:09:06.035Z</time>
      </trkpt>
      <trkpt lat="43.73016" lon="4.92529">
        <ele>251.4</ele>
        <time>2025-11-12T12:09:08.035Z</time>
      </trkpt>
      <trkpt lat="43.73013" lon="4.92528">
        <ele>251.4</ele>
        <time>2025-11-12T12:09:10.035Z</time>
      </trkpt>
      <trkpt lat="43.73011" lon="4.92527">
        <ele>251.5</ele>
        <time>2025-11-12T12:09:13.035Z</time>
      </trkpt>
      <trkpt lat="43.73008" lon="4.92526">
        <ele>251.6</ele>
        <time>2025-11-12T12:09:15.035Z</time>
      </trkpt>
      <trkpt lat="43.73006" lon="4.92523">
        <ele>251.8</ele>
        <time>2025-11-12T12:09:17.036Z</time>
      </trkpt>
      <trkpt lat="43.73003" lon="4.92522">
        <ele>251.9</ele>
        <time>2025-11-12T12:09:19.035Z</time>
      </trkpt>
      <trkpt lat="43.73001" lon="4.9252">
        <ele>252.2</ele>
        <time>2025-11-12T12:09:21.035Z</time>
      </trkpt>
      <trkpt lat="43.72999" lon="4.92518">
        <ele>252.4</ele>
        <time>2025-11-12T12:09:24.035Z</time>
      </trkpt>
      <trkpt lat="43.72996" lon="4.92517">
        <ele>252.4</ele>
        <time>2025-11-12T12:09:26.035Z</time>
      </trkpt>
      <trkpt lat="43.72993" lon="4.92515">
        <ele>252.6</ele>
        <time>2025-11-12T12:09:29.035Z</time>
      </trkpt>
      <trkpt lat="43.7299" lon="4.92515">
        <ele>252.5</ele>
        <time>2025-11-12T12:09:32.035Z</time>
      </trkpt>
      <trkpt lat="43.72988" lon="4.92514">
        <ele>252.5</ele>
        <time>2025-11-12T12:09:34.035Z</time>
      </trkpt>
      <trkpt lat="43.72986" lon="4.92512">
        <ele>252.7</ele>
        <time>2025-11-12T12:09:36.035Z</time>
      </trkpt>
      <trkpt lat="43.72983" lon="4.92511">
        <ele>252.8</ele>
        <time>2025-11-12T12:09:38.036Z</time>
      </trkpt>
      <trkpt lat="43.72981" lon="4.92511">
        <ele>252.8</ele>
        <time>2025-11-12T12:09:40.036Z</time>
      </trkpt>
      <trkpt lat="43.72978" lon="4.92511">
        <ele>252.7</ele>
        <time>2025-11-12T12:09:42.035Z</time>
      </trkpt>
      <trkpt lat="43.72976" lon="4.9251">
        <ele>252.7</ele>
        <time>2025-11-12T12:09:44.035Z</time>
      </trkpt>
      <trkpt lat="43.72973" lon="4.92509">
        <ele>252.8</ele>
        <time>2025-11-12T12:09:46.035Z</time>
      </trkpt>
      <trkpt lat="43.72971" lon="4.92507">
        <ele>252.8</ele>
        <time>2025-11-12T12:09:49.035Z</time>
      </trkpt>
      <trkpt lat="43.72968" lon="4.92506">
        <ele>252.8</ele>
        <time>2025-11-12T12:09:52.035Z</time>
      </trkpt>
      <trkpt lat="43.72966" lon="4.92505">
        <ele>252.8</ele>
        <time>2025-11-12T12:09:55.035Z</time>
      </trkpt>
      <trkpt lat="43.72963" lon="4.92504">
        <ele>252.7</ele>
        <time>2025-11-12T12:09:58.035Z</time>
      </trkpt>
      <trkpt lat="43.7296" lon="4.92503">
        <ele>252.6</ele>
        <time>2025-11-12T12:10:01.035Z</time>
      </trkpt>
      <trkpt lat="43.72957" lon="4.92504">
        <ele>252.4</ele>
        <time>2025-11-12T12:10:04.035Z</time>
      </trkpt>
      <trkpt lat="43.72954" lon="4.92502">
        <ele>252.3</ele>
        <time>2025-11-12T12:10:07.036Z</time>
      </trkpt>
      <trkpt lat="43.72951" lon="4.92501">
        <ele>252.3</ele>
        <time>2025-11-12T12:10:10.035Z</time>
      </trkpt>
      <trkpt lat="43.72948" lon="4.92501">
        <ele>252.2</ele>
        <time>2025-11-12T12:10:12.035Z</time>
      </trkpt>
      <trkpt lat="43.72946" lon="4.925">
        <ele>252.1</ele>
        <time>2025-11-12T12:10:14.035Z</time>
      </trkpt>
      <trkpt lat="43.72943" lon="4.92499">
        <ele>252.2</ele>
        <time>2025-11-12T12:10:16.035Z</time>
      </trkpt>
      <trkpt lat="43.7294" lon="4.92498">
        <ele>252.4</ele>
        <time>2025-11-12T12:10:19.035Z</time>
      </trkpt>
      <trkpt lat="43.72937" lon="4.92497">
        <ele>252.3</ele>
        <time>2025-11-12T12:10:23.035Z</time>
      </trkpt>
      <trkpt lat="43.72934" lon="4.92497">
        <ele>252.2</ele>
        <time>2025-11-12T12:10:25.035Z</time>
      </trkpt>
      <trkpt lat="43.72931" lon="4.92497">
        <ele>252.2</ele>
        <time>2025-11-12T12:10:27.036Z</time>
      </trkpt>
      <trkpt lat="43.72929" lon="4.92496">
        <ele>252.2</ele>
        <time>2025-11-12T12:10:29.035Z</time>
      </trkpt>
      <trkpt lat="43.72926" lon="4.92494">
        <ele>252.5</ele>
        <time>2025-11-12T12:10:31.035Z</time>
      </trkpt>
      <trkpt lat="43.72923" lon="4.92493">
        <ele>252.5</ele>
        <time>2025-11-12T12:10:34.035Z</time>
      </trkpt>
      <trkpt lat="43.7292" lon="4.92493">
        <ele>252.5</ele>
        <time>2025-11-12T12:10:36.035Z</time>
      </trkpt>
      <trkpt lat="43.72918" lon="4.92492">
        <ele>252.6</ele>
        <time>2025-11-12T12:10:38.035Z</time>
      </trkpt>
      <trkpt lat="43.72915" lon="4.92491">
        <ele>252.4</ele>
        <time>2025-11-12T12:10:40.035Z</time>
      </trkpt>
      <trkpt lat="43.72912" lon="4.92491">
        <ele>252.2</ele>
        <time>2025-11-12T12:10:42.036Z</time>
      </trkpt>
      <trkpt lat="43.7291" lon="4.92489">
        <ele>252.4</ele>
        <time>2025-11-12T12:10:44.035Z</time>
      </trkpt>
      <trkpt lat="43.72908" lon="4.92488">
        <ele>252.5</ele>
        <time>2025-11-12T12:10:47.035Z</time>
      </trkpt>
      <trkpt lat="43.72906" lon="4.92486">
        <ele>252.5</ele>
        <time>2025-11-12T12:10:49.035Z</time>
      </trkpt>
      <trkpt lat="43.72903" lon="4.92484">
        <ele>252.6</ele>
        <time>2025-11-12T12:10:54.035Z</time>
      </trkpt>
      <trkpt lat="43.729" lon="4.92483">
        <ele>252.5</ele>
        <time>2025-11-12T12:10:57.036Z</time>
      </trkpt>
      <trkpt lat="43.72898" lon="4.92482">
        <ele>252.4</ele>
        <time>2025-11-12T12:10:59.035Z</time>
      </trkpt>
      <trkpt lat="43.72896" lon="4.92481">
        <ele>252.5</ele>
        <time>2025-11-12T12:11:01.035Z</time>
      </trkpt>
      <trkpt lat="43.72893" lon="4.9248">
        <ele>252.3</ele>
        <time>2025-11-12T12:11:04.035Z</time>
      </trkpt>
      <trkpt lat="43.7289" lon="4.92478">
        <ele>252.3</ele>
        <time>2025-11-12T12:11:06.035Z</time>
      </trkpt>
      <trkpt lat="43.72889" lon="4.92475">
        <ele>252.6</ele>
        <time>2025-11-12T12:11:08.035Z</time>
      </trkpt>
      <trkpt lat="43.72887" lon="4.92473">
        <ele>252.7</ele>
        <time>2025-11-12T12:11:10.035Z</time>
      </trkpt>
      <trkpt lat="43.72885" lon="4.9247">
        <ele>252.8</ele>
        <time>2025-11-12T12:11:12.035Z</time>
      </trkpt>
      <trkpt lat="43.72883" lon="4.92467">
        <ele>252.8</ele>
        <time>2025-11-12T12:11:15.035Z</time>
      </trkpt>
      <trkpt lat="43.72881" lon="4.92464">
        <ele>252.8</ele>
        <time>2025-11-12T12:11:17.035Z</time>
      </trkpt>
      <trkpt lat="43.7288" lon="4.92461">
        <ele>252.8</ele>
        <time>2025-11-12T12:11:19.035Z</time>
      </trkpt>
      <trkpt lat="43.72879" lon="4.92458">
        <ele>252.8</ele>
        <time>2025-11-12T12:11:21.035Z</time>
      </trkpt>
      <trkpt lat="43.72877" lon="4.92454">
        <ele>252.8</ele>
        <time>2025-11-12T12:11:24.035Z</time>
      </trkpt>
      <trkpt lat="43.72876" lon="4.92451">
        <ele>252.9</ele>
        <time>2025-11-12T12:11:26.035Z</time>
      </trkpt>
      <trkpt lat="43.72877" lon="4.92447">
        <ele>253.2</ele>
        <time>2025-11-12T12:11:29.035Z</time>
      </trkpt>
      <trkpt lat="43.72877" lon="4.92443">
        <ele>253.3</ele>
        <time>2025-11-12T12:11:32.035Z</time>
      </trkpt>
      <trkpt lat="43.72878" lon="4.92438">
        <ele>253.1</ele>
        <time>2025-11-12T12:11:35.035Z</time>
      </trkpt>
      <trkpt lat="43.72879" lon="4.92435">
        <ele>253</ele>
        <time>2025-11-12T12:11:38.035Z</time>
      </trkpt>
      <trkpt lat="43.72882" lon="4.92431">
        <ele>253.1</ele>
        <time>2025-11-12T12:11:41.035Z</time>
      </trkpt>
      <trkpt lat="43.72885" lon="4.92428">
        <ele>253.4</ele>
        <time>2025-11-12T12:11:44.035Z</time>
      </trkpt>
      <trkpt lat="43.72887" lon="4.92426">
        <ele>253.6</ele>
        <time>2025-11-12T12:11:46.035Z</time>
      </trkpt>
      <trkpt lat="43.72889" lon="4.92423">
        <ele>253.8</ele>
        <time>2025-11-12T12:11:48.035Z</time>
      </trkpt>
      <trkpt lat="43.72891" lon="4.92421">
        <ele>253.9</ele>
        <time>2025-11-12T12:11:50.035Z</time>
      </trkpt>
      <trkpt lat="43.72893" lon="4.92419">
        <ele>254.1</ele>
        <time>2025-11-12T12:11:52.035Z</time>
      </trkpt>
      <trkpt lat="43.72896" lon="4.92417">
        <ele>254.3</ele>
        <time>2025-11-12T12:11:55.035Z</time>
      </trkpt>
      <trkpt lat="43.72899" lon="4.92414">
        <ele>254.5</ele>
        <time>2025-11-12T12:11:58.035Z</time>
      </trkpt>
      <trkpt lat="43.72902" lon="4.92413">
        <ele>254.7</ele>
        <time>2025-11-12T12:12:01.035Z</time>
      </trkpt>
      <trkpt lat="43.72904" lon="4.92411">
        <ele>254.8</ele>
        <time>2025-11-12T12:12:04.035Z</time>
      </trkpt>
      <trkpt lat="43.72906" lon="4.9241">
        <ele>254.9</ele>
        <time>2025-11-12T12:12:07.035Z</time>
      </trkpt>
      <trkpt lat="43.72909" lon="4.92408">
        <ele>255.1</ele>
        <time>2025-11-12T12:12:09.035Z</time>
      </trkpt>
      <trkpt lat="43.72911" lon="4.92406">
        <ele>255.2</ele>
        <time>2025-11-12T12:12:11.035Z</time>
      </trkpt>
      <trkpt lat="43.72914" lon="4.92404">
        <ele>255.3</ele>
        <time>2025-11-12T12:12:13.035Z</time>
      </trkpt>
      <trkpt lat="43.72916" lon="4.92403">
        <ele>255.4</ele>
        <time>2025-11-12T12:12:15.035Z</time>
      </trkpt>
      <trkpt lat="43.72919" lon="4.92402">
        <ele>255.8</ele>
        <time>2025-11-12T12:12:19.035Z</time>
      </trkpt>
      <trkpt lat="43.72921" lon="4.924">
        <ele>255.8</ele>
        <time>2025-11-12T12:12:21.035Z</time>
      </trkpt>
      <trkpt lat="43.72924" lon="4.92399">
        <ele>256.1</ele>
        <time>2025-11-12T12:12:23.035Z</time>
      </trkpt>
      <trkpt lat="43.72927" lon="4.92398">
        <ele>256.5</ele>
        <time>2025-11-12T12:12:25.035Z</time>
      </trkpt>
      <trkpt lat="43.72929" lon="4.92397">
        <ele>256.8</ele>
        <time>2025-11-12T12:12:27.035Z</time>
      </trkpt>
      <trkpt lat="43.72932" lon="4.92395">
        <ele>256.9</ele>
        <time>2025-11-12T12:12:30.036Z</time>
      </trkpt>
      <trkpt lat="43.72934" lon="4.92394">
        <ele>257.1</ele>
        <time>2025-11-12T12:12:32.035Z</time>
      </trkpt>
      <trkpt lat="43.72936" lon="4.92393">
        <ele>257.3</ele>
        <time>2025-11-12T12:12:34.035Z</time>
      </trkpt>
      <trkpt lat="43.72939" lon="4.92391">
        <ele>257.4</ele>
        <time>2025-11-12T12:12:37.035Z</time>
      </trkpt>
      <trkpt lat="43.72942" lon="4.92389">
        <ele>257.6</ele>
        <time>2025-11-12T12:12:39.035Z</time>
      </trkpt>
      <trkpt lat="43.72944" lon="4.92387">
        <ele>257.7</ele>
        <time>2025-11-12T12:12:42.035Z</time>
      </trkpt>
      <trkpt lat="43.72947" lon="4.92385">
        <ele>258</ele>
        <time>2025-11-12T12:12:45.035Z</time>
      </trkpt>
      <trkpt lat="43.72949" lon="4.92384">
        <ele>258.3</ele>
        <time>2025-11-12T12:12:48.035Z</time>
      </trkpt>
      <trkpt lat="43.72952" lon="4.92381">
        <ele>258.6</ele>
        <time>2025-11-12T12:12:51.035Z</time>
      </trkpt>
      <trkpt lat="43.72954" lon="4.92379">
        <ele>258.8</ele>
        <time>2025-11-12T12:12:53.035Z</time>
      </trkpt>
      <trkpt lat="43.72957" lon="4.92377">
        <ele>259.1</ele>
        <time>2025-11-12T12:12:56.035Z</time>
      </trkpt>
      <trkpt lat="43.7296" lon="4.92376">
        <ele>259.5</ele>
        <time>2025-11-12T12:12:58.035Z</time>
      </trkpt>
      <trkpt lat="43.72962" lon="4.92373">
        <ele>259.5</ele>
        <time>2025-11-12T12:13:01.035Z</time>
      </trkpt>
      <trkpt lat="43.72965" lon="4.92371">
        <ele>259.6</ele>
        <time>2025-11-12T12:13:04.035Z</time>
      </trkpt>
      <trkpt lat="43.72968" lon="4.9237">
        <ele>259.9</ele>
        <time>2025-11-12T12:13:07.035Z</time>
      </trkpt>
      <trkpt lat="43.7297" lon="4.92368">
        <ele>260.1</ele>
        <time>2025-11-12T12:13:09.035Z</time>
      </trkpt>
      <trkpt lat="43.72972" lon="4.92366">
        <ele>260</ele>
        <time>2025-11-12T12:13:11.035Z</time>
      </trkpt>
      <trkpt lat="43.72974" lon="4.92364">
        <ele>260</ele>
        <time>2025-11-12T12:13:14.035Z</time>
      </trkpt>
      <trkpt lat="43.72976" lon="4.92362">
        <ele>260</ele>
        <time>2025-11-12T12:13:17.035Z</time>
      </trkpt>
      <trkpt lat="43.72978" lon="4.9236">
        <ele>260.3</ele>
        <time>2025-11-12T12:13:19.036Z</time>
      </trkpt>
      <trkpt lat="43.7298" lon="4.92358">
        <ele>260.6</ele>
        <time>2025-11-12T12:13:21.035Z</time>
      </trkpt>
      <trkpt lat="43.72982" lon="4.92355">
        <ele>260.6</ele>
        <time>2025-11-12T12:13:23.035Z</time>
      </trkpt>
      <trkpt lat="43.72984" lon="4.92354">
        <ele>261.1</ele>
        <time>2025-11-12T12:13:26.035Z</time>
      </trkpt>
      <trkpt lat="43.72987" lon="4.92352">
        <ele>261.4</ele>
        <time>2025-11-12T12:13:29.035Z</time>
      </trkpt>
      <trkpt lat="43.7299" lon="4.92351">
        <ele>261.9</ele>
        <time>2025-11-12T12:13:32.035Z</time>
      </trkpt>
      <trkpt lat="43.72992" lon="4.9235">
        <ele>262.2</ele>
        <time>2025-11-12T12:13:35.035Z</time>
      </trkpt>
      <trkpt lat="43.72994" lon="4.92347">
        <ele>262.1</ele>
        <time>2025-11-12T12:13:38.035Z</time>
      </trkpt>
      <trkpt lat="43.72997" lon="4.92346">
        <ele>262.6</ele>
        <time>2025-11-12T12:13:41.035Z</time>
      </trkpt>
      <trkpt lat="43.72998" lon="4.92343">
        <ele>262.3</ele>
        <time>2025-11-12T12:13:43.035Z</time>
      </trkpt>
      <trkpt lat="43.73001" lon="4.9234">
        <ele>262.5</ele>
        <time>2025-11-12T12:13:46.035Z</time>
      </trkpt>
      <trkpt lat="43.73004" lon="4.92338">
        <ele>262.7</ele>
        <time>2025-11-12T12:13:48.035Z</time>
      </trkpt>
      <trkpt lat="43.73006" lon="4.92336">
        <ele>262.9</ele>
        <time>2025-11-12T12:13:51.035Z</time>
      </trkpt>
      <trkpt lat="43.73008" lon="4.92333">
        <ele>262.9</ele>
        <time>2025-11-12T12:13:55.036Z</time>
      </trkpt>
      <trkpt lat="43.7301" lon="4.9233">
        <ele>263.3</ele>
        <time>2025-11-12T12:13:57.035Z</time>
      </trkpt>
      <trkpt lat="43.73012" lon="4.92326">
        <ele>263.7</ele>
        <time>2025-11-12T12:14:00.035Z</time>
      </trkpt>
      <trkpt lat="43.73013" lon="4.92323">
        <ele>263.8</ele>
        <time>2025-11-12T12:14:02.036Z</time>
      </trkpt>
      <trkpt lat="43.73014" lon="4.9232">
        <ele>264.1</ele>
        <time>2025-11-12T12:14:04.035Z</time>
      </trkpt>
      <trkpt lat="43.73015" lon="4.92316">
        <ele>264.2</ele>
        <time>2025-11-12T12:14:07.035Z</time>
      </trkpt>
      <trkpt lat="43.73016" lon="4.92313">
        <ele>264.2</ele>
        <time>2025-11-12T12:14:09.035Z</time>
      </trkpt>
      <trkpt lat="43.73018" lon="4.9231">
        <ele>264.4</ele>
        <time>2025-11-12T12:14:12.035Z</time>
      </trkpt>
      <trkpt lat="43.73019" lon="4.92305">
        <ele>264.3</ele>
        <time>2025-11-12T12:14:15.035Z</time>
      </trkpt>
      <trkpt lat="43.73019" lon="4.92302">
        <ele>264.3</ele>
        <time>2025-11-12T12:14:17.035Z</time>
      </trkpt>
      <trkpt lat="43.7302" lon="4.92299">
        <ele>264.4</ele>
        <time>2025-11-12T12:14:19.035Z</time>
      </trkpt>
      <trkpt lat="43.73021" lon="4.92295">
        <ele>264.5</ele>
        <time>2025-11-12T12:14:21.035Z</time>
      </trkpt>
      <trkpt lat="43.73022" lon="4.92292">
        <ele>264.5</ele>
        <time>2025-11-12T12:14:24.035Z</time>
      </trkpt>
      <trkpt lat="43.73024" lon="4.92289">
        <ele>264.5</ele>
        <time>2025-11-12T12:14:27.035Z</time>
      </trkpt>
      <trkpt lat="43.73026" lon="4.92287">
        <ele>264.5</ele>
        <time>2025-11-12T12:14:29.035Z</time>
      </trkpt>
      <trkpt lat="43.73028" lon="4.92285">
        <ele>264.5</ele>
        <time>2025-11-12T12:14:31.035Z</time>
      </trkpt>
      <trkpt lat="43.73031" lon="4.92282">
        <ele>264.9</ele>
        <time>2025-11-12T12:14:34.035Z</time>
      </trkpt>
      <trkpt lat="43.73033" lon="4.9228">
        <ele>265.2</ele>
        <time>2025-11-12T12:14:37.035Z</time>
      </trkpt>
      <trkpt lat="43.73036" lon="4.92278">
        <ele>265.7</ele>
        <time>2025-11-12T12:14:40.035Z</time>
      </trkpt>
      <trkpt lat="43.73038" lon="4.92276">
        <ele>266</ele>
        <time>2025-11-12T12:14:43.035Z</time>
      </trkpt>
      <trkpt lat="43.73041" lon="4.92274">
        <ele>266.1</ele>
        <time>2025-11-12T12:14:45.035Z</time>
      </trkpt>
      <trkpt lat="43.73043" lon="4.92272">
        <ele>266.3</ele>
        <time>2025-11-12T12:14:47.035Z</time>
      </trkpt>
      <trkpt lat="43.73044" lon="4.9227">
        <ele>266.3</ele>
        <time>2025-11-12T12:14:49.035Z</time>
      </trkpt>
      <trkpt lat="43.73047" lon="4.92266">
        <ele>266.3</ele>
        <time>2025-11-12T12:14:52.035Z</time>
      </trkpt>
      <trkpt lat="43.73048" lon="4.92264">
        <ele>266.2</ele>
        <time>2025-11-12T12:14:55.035Z</time>
      </trkpt>
      <trkpt lat="43.7305" lon="4.92261">
        <ele>266.3</ele>
        <time>2025-11-12T12:14:57.035Z</time>
      </trkpt>
      <trkpt lat="43.73052" lon="4.92257">
        <ele>266.2</ele>
        <time>2025-11-12T12:15:00.035Z</time>
      </trkpt>
      <trkpt lat="43.73053" lon="4.92255">
        <ele>266.1</ele>
        <time>2025-11-12T12:15:02.035Z</time>
      </trkpt>
      <trkpt lat="43.73055" lon="4.92252">
        <ele>266</ele>
        <time>2025-11-12T12:15:04.035Z</time>
      </trkpt>
      <trkpt lat="43.73056" lon="4.92248">
        <ele>265.8</ele>
        <time>2025-11-12T12:15:07.035Z</time>
      </trkpt>
      <trkpt lat="43.73058" lon="4.92246">
        <ele>265.7</ele>
        <time>2025-11-12T12:15:11.035Z</time>
      </trkpt>
      <trkpt lat="43.7306" lon="4.92244">
        <ele>265.6</ele>
        <time>2025-11-12T12:15:14.035Z</time>
      </trkpt>
      <trkpt lat="43.73062" lon="4.92241">
        <ele>265.4</ele>
        <time>2025-11-12T12:15:21.035Z</time>
      </trkpt>
      <trkpt lat="43.73063" lon="4.92238">
        <ele>265</ele>
        <time>2025-11-12T12:15:26.035Z</time>
      </trkpt>
      <trkpt lat="43.73066" lon="4.92236">
        <ele>264.9</ele>
        <time>2025-11-12T12:17:39.035Z</time>
      </trkpt>
      <trkpt lat="43.73069" lon="4.92235">
        <ele>264.9</ele>
        <time>2025-11-12T12:17:41.035Z</time>
      </trkpt>
      <trkpt lat="43.73072" lon="4.92234">
        <ele>265</ele>
        <time>2025-11-12T12:17:43.035Z</time>
      </trkpt>
      <trkpt lat="43.73074" lon="4.92233">
        <ele>264.9</ele>
        <time>2025-11-12T12:17:45.035Z</time>
      </trkpt>
      <trkpt lat="43.73077" lon="4.92232">
        <ele>265.1</ele>
        <time>2025-11-12T12:17:48.035Z</time>
      </trkpt>
      <trkpt lat="43.73079" lon="4.92233">
        <ele>265.5</ele>
        <time>2025-11-12T12:17:50.035Z</time>
      </trkpt>
      <trkpt lat="43.73082" lon="4.92234">
        <ele>265.8</ele>
        <time>2025-11-12T12:17:52.035Z</time>
      </trkpt>
      <trkpt lat="43.73084" lon="4.92234">
        <ele>265.9</ele>
        <time>2025-11-12T12:17:55.035Z</time>
      </trkpt>
      <trkpt lat="43.73087" lon="4.92235">
        <ele>265.9</ele>
        <time>2025-11-12T12:17:58.035Z</time>
      </trkpt>
      <trkpt lat="43.73089" lon="4.92234">
        <ele>265.5</ele>
        <time>2025-11-12T12:18:00.035Z</time>
      </trkpt>
      <trkpt lat="43.73092" lon="4.92234">
        <ele>265.4</ele>
        <time>2025-11-12T12:18:02.035Z</time>
      </trkpt>
      <trkpt lat="43.73095" lon="4.92235">
        <ele>265.5</ele>
        <time>2025-11-12T12:18:05.035Z</time>
      </trkpt>
      <trkpt lat="43.73097" lon="4.92236">
        <ele>265.5</ele>
        <time>2025-11-12T12:18:07.035Z</time>
      </trkpt>
      <trkpt lat="43.73099" lon="4.92238">
        <ele>265.7</ele>
        <time>2025-11-12T12:18:09.035Z</time>
      </trkpt>
      <trkpt lat="43.73102" lon="4.92238">
        <ele>265.7</ele>
        <time>2025-11-12T12:18:11.035Z</time>
      </trkpt>
      <trkpt lat="43.73105" lon="4.92239">
        <ele>265.4</ele>
        <time>2025-11-12T12:18:14.035Z</time>
      </trkpt>
      <trkpt lat="43.73108" lon="4.92239">
        <ele>265.3</ele>
        <time>2025-11-12T12:18:16.035Z</time>
      </trkpt>
      <trkpt lat="43.7311" lon="4.92241">
        <ele>265.4</ele>
        <time>2025-11-12T12:18:20.035Z</time>
      </trkpt>
      <trkpt lat="43.73112" lon="4.92241">
        <ele>265.6</ele>
        <time>2025-11-12T12:18:22.035Z</time>
      </trkpt>
      <trkpt lat="43.73114" lon="4.92239">
        <ele>265.7</ele>
        <time>2025-11-12T12:18:25.035Z</time>
      </trkpt>
      <trkpt lat="43.73117" lon="4.92236">
        <ele>266</ele>
        <time>2025-11-12T12:18:28.035Z</time>
      </trkpt>
      <trkpt lat="43.73119" lon="4.92234">
        <ele>265.9</ele>
        <time>2025-11-12T12:18:30.035Z</time>
      </trkpt>
      <trkpt lat="43.7312" lon="4.9223">
        <ele>265.6</ele>
        <time>2025-11-12T12:18:32.035Z</time>
      </trkpt>
      <trkpt lat="43.73121" lon="4.92227">
        <ele>265.3</ele>
        <time>2025-11-12T12:18:34.035Z</time>
      </trkpt>
      <trkpt lat="43.73121" lon="4.92224">
        <ele>264.8</ele>
        <time>2025-11-12T12:18:36.035Z</time>
      </trkpt>
      <trkpt lat="43.73123" lon="4.92221">
        <ele>265</ele>
        <time>2025-11-12T12:18:38.035Z</time>
      </trkpt>
      <trkpt lat="43.73124" lon="4.92217">
        <ele>264.9</ele>
        <time>2025-11-12T12:18:41.035Z</time>
      </trkpt>
      <trkpt lat="43.73124" lon="4.92213">
        <ele>264.6</ele>
        <time>2025-11-12T12:18:43.035Z</time>
      </trkpt>
      <trkpt lat="43.73126" lon="4.92209">
        <ele>264.6</ele>
        <time>2025-11-12T12:18:46.035Z</time>
      </trkpt>
      <trkpt lat="43.73125" lon="4.92205">
        <ele>264.3</ele>
        <time>2025-11-12T12:18:49.035Z</time>
      </trkpt>
      <trkpt lat="43.73125" lon="4.92201">
        <ele>264</ele>
        <time>2025-11-12T12:18:51.035Z</time>
      </trkpt>
      <trkpt lat="43.73126" lon="4.92197">
        <ele>263.9</ele>
        <time>2025-11-12T12:18:54.035Z</time>
      </trkpt>
      <trkpt lat="43.73127" lon="4.92194">
        <ele>263.7</ele>
        <time>2025-11-12T12:18:56.035Z</time>
      </trkpt>
      <trkpt lat="43.73127" lon="4.9219">
        <ele>263.5</ele>
        <time>2025-11-12T12:18:58.035Z</time>
      </trkpt>
      <trkpt lat="43.73128" lon="4.92187">
        <ele>263.3</ele>
        <time>2025-11-12T12:19:00.035Z</time>
      </trkpt>
      <trkpt lat="43.73128" lon="4.92183">
        <ele>263.1</ele>
        <time>2025-11-12T12:19:02.035Z</time>
      </trkpt>
      <trkpt lat="43.73128" lon="4.9218">
        <ele>262.7</ele>
        <time>2025-11-12T12:19:04.035Z</time>
      </trkpt>
      <trkpt lat="43.73128" lon="4.92175">
        <ele>262.4</ele>
        <time>2025-11-12T12:19:07.035Z</time>
      </trkpt>
      <trkpt lat="43.73129" lon="4.92172">
        <ele>262.1</ele>
        <time>2025-11-12T12:19:10.035Z</time>
      </trkpt>
      <trkpt lat="43.73129" lon="4.92175">
        <ele>262.4</ele>
        <time>2025-11-12T12:19:26.035Z</time>
      </trkpt>
      <trkpt lat="43.73129" lon="4.92171">
        <ele>262</ele>
        <time>2025-11-12T12:19:47.035Z</time>
      </trkpt>
      <trkpt lat="43.73128" lon="4.92168">
        <ele>261.7</ele>
        <time>2025-11-12T12:19:49.036Z</time>
      </trkpt>
      <trkpt lat="43.73128" lon="4.92164">
        <ele>261.7</ele>
        <time>2025-11-12T12:19:52.035Z</time>
      </trkpt>
      <trkpt lat="43.73127" lon="4.9216">
        <ele>261.7</ele>
        <time>2025-11-12T12:19:55.035Z</time>
      </trkpt>
      <trkpt lat="43.73127" lon="4.92156">
        <ele>261.8</ele>
        <time>2025-11-12T12:19:58.035Z</time>
      </trkpt>
      <trkpt lat="43.73126" lon="4.92152">
        <ele>261.8</ele>
        <time>2025-11-12T12:20:01.035Z</time>
      </trkpt>
      <trkpt lat="43.73125" lon="4.92148">
        <ele>261.8</ele>
        <time>2025-11-12T12:20:03.035Z</time>
      </trkpt>
      <trkpt lat="43.73124" lon="4.92145">
        <ele>261.8</ele>
        <time>2025-11-12T12:20:05.035Z</time>
      </trkpt>
      <trkpt lat="43.73123" lon="4.92142">
        <ele>261.8</ele>
        <time>2025-11-12T12:20:08.035Z</time>
      </trkpt>
      <trkpt lat="43.73121" lon="4.92139">
        <ele>261.8</ele>
        <time>2025-11-12T12:20:11.035Z</time>
      </trkpt>
      <trkpt lat="43.7312" lon="4.92134">
        <ele>262.1</ele>
        <time>2025-11-12T12:20:14.035Z</time>
      </trkpt>
      <trkpt lat="43.73119" lon="4.9213">
        <ele>262.3</ele>
        <time>2025-11-12T12:20:17.035Z</time>
      </trkpt>
      <trkpt lat="43.73118" lon="4.92126">
        <ele>262.6</ele>
        <time>2025-11-12T12:20:19.035Z</time>
      </trkpt>
      <trkpt lat="43.73118" lon="4.92122">
        <ele>262.9</ele>
        <time>2025-11-12T12:20:22.035Z</time>
      </trkpt>
      <trkpt lat="43.73117" lon="4.92118">
        <ele>263.1</ele>
        <time>2025-11-12T12:20:25.035Z</time>
      </trkpt>
      <trkpt lat="43.73115" lon="4.92114">
        <ele>263.2</ele>
        <time>2025-11-12T12:20:27.035Z</time>
      </trkpt>
      <trkpt lat="43.73115" lon="4.92111">
        <ele>263.4</ele>
        <time>2025-11-12T12:20:30.035Z</time>
      </trkpt>
      <trkpt lat="43.73113" lon="4.92108">
        <ele>263.6</ele>
        <time>2025-11-12T12:20:32.035Z</time>
      </trkpt>
      <trkpt lat="43.73112" lon="4.92105">
        <ele>264</ele>
        <time>2025-11-12T12:20:34.035Z</time>
      </trkpt>
      <trkpt lat="43.73111" lon="4.92102">
        <ele>264.2</ele>
        <time>2025-11-12T12:20:37.035Z</time>
      </trkpt>
      <trkpt lat="43.73109" lon="4.92099">
        <ele>264.4</ele>
        <time>2025-11-12T12:20:40.035Z</time>
      </trkpt>
      <trkpt lat="43.73108" lon="4.92095">
        <ele>264.7</ele>
        <time>2025-11-12T12:20:42.035Z</time>
      </trkpt>
      <trkpt lat="43.73107" lon="4.92092">
        <ele>264.8</ele>
        <time>2025-11-12T12:20:44.035Z</time>
      </trkpt>
      <trkpt lat="43.73105" lon="4.9209">
        <ele>264.7</ele>
        <time>2025-11-12T12:20:46.035Z</time>
      </trkpt>
      <trkpt lat="43.73102" lon="4.92088">
        <ele>264.6</ele>
        <time>2025-11-12T12:20:48.035Z</time>
      </trkpt>
      <trkpt lat="43.731" lon="4.92087">
        <ele>264.4</ele>
        <time>2025-11-12T12:20:50.035Z</time>
      </trkpt>
      <trkpt lat="43.73097" lon="4.92085">
        <ele>264.2</ele>
        <time>2025-11-12T12:20:53.035Z</time>
      </trkpt>
      <trkpt lat="43.73095" lon="4.92082">
        <ele>264.3</ele>
        <time>2025-11-12T12:20:55.035Z</time>
      </trkpt>
      <trkpt lat="43.73092" lon="4.92081">
        <ele>264.2</ele>
        <time>2025-11-12T12:20:58.035Z</time>
      </trkpt>
      <trkpt lat="43.73089" lon="4.92079">
        <ele>264.1</ele>
        <time>2025-11-12T12:21:01.035Z</time>
      </trkpt>
      <trkpt lat="43.73086" lon="4.92077">
        <ele>263.9</ele>
        <time>2025-11-12T12:21:03.035Z</time>
      </trkpt>
      <trkpt lat="43.73083" lon="4.92075">
        <ele>263.8</ele>
        <time>2025-11-12T12:21:06.035Z</time>
      </trkpt>
      <trkpt lat="43.73081" lon="4.92073">
        <ele>263.7</ele>
        <time>2025-11-12T12:21:08.035Z</time>
      </trkpt>
      <trkpt lat="43.73079" lon="4.9207">
        <ele>263.9</ele>
        <time>2025-11-12T12:21:10.035Z</time>
      </trkpt>
      <trkpt lat="43.73076" lon="4.92068">
        <ele>263.9</ele>
        <time>2025-11-12T12:21:13.035Z</time>
      </trkpt>
      <trkpt lat="43.73074" lon="4.92066">
        <ele>263.8</ele>
        <time>2025-11-12T12:21:16.035Z</time>
      </trkpt>
      <trkpt lat="43.73072" lon="4.92064">
        <ele>263.9</ele>
        <time>2025-11-12T12:21:18.035Z</time>
      </trkpt>
      <trkpt lat="43.73069" lon="4.92061">
        <ele>263.9</ele>
        <time>2025-11-12T12:21:21.035Z</time>
      </trkpt>
      <trkpt lat="43.73066" lon="4.92059">
        <ele>263.7</ele>
        <time>2025-11-12T12:21:24.035Z</time>
      </trkpt>
      <trkpt lat="43.73064" lon="4.92056">
        <ele>263.9</ele>
        <time>2025-11-12T12:21:27.035Z</time>
      </trkpt>
      <trkpt lat="43.73062" lon="4.92053">
        <ele>263.8</ele>
        <time>2025-11-12T12:21:29.035Z</time>
      </trkpt>
      <trkpt lat="43.7306" lon="4.92051">
        <ele>263.6</ele>
        <time>2025-11-12T12:21:31.035Z</time>
      </trkpt>
      <trkpt lat="43.73058" lon="4.92048">
        <ele>263.6</ele>
        <time>2025-11-12T12:21:34.035Z</time>
      </trkpt>
      <trkpt lat="43.73056" lon="4.92046">
        <ele>263.5</ele>
        <time>2025-11-12T12:21:39.035Z</time>
      </trkpt>
      <trkpt lat="43.73055" lon="4.92042">
        <ele>263.7</ele>
        <time>2025-11-12T12:21:42.035Z</time>
      </trkpt>
      <trkpt lat="43.73052" lon="4.92041">
        <ele>263.1</ele>
        <time>2025-11-12T12:22:13.035Z</time>
      </trkpt>
      <trkpt lat="43.73049" lon="4.9204">
        <ele>262.6</ele>
        <time>2025-11-12T12:22:17.035Z</time>
      </trkpt>
      <trkpt lat="43.73047" lon="4.92039">
        <ele>262.1</ele>
        <time>2025-11-12T12:22:20.035Z</time>
      </trkpt>
      <trkpt lat="43.73044" lon="4.92037">
        <ele>261.6</ele>
        <time>2025-11-12T12:22:23.035Z</time>
      </trkpt>
      <trkpt lat="43.73042" lon="4.92036">
        <ele>261.1</ele>
        <time>2025-11-12T12:22:26.035Z</time>
      </trkpt>
      <trkpt lat="43.7304" lon="4.92035">
        <ele>260.6</ele>
        <time>2025-11-12T12:22:28.035Z</time>
      </trkpt>
      <trkpt lat="43.73038" lon="4.92033">
        <ele>260.5</ele>
        <time>2025-11-12T12:22:33.035Z</time>
      </trkpt>
      <trkpt lat="43.73036" lon="4.92031">
        <ele>260.1</ele>
        <time>2025-11-12T12:22:36.035Z</time>
      </trkpt>
      <trkpt lat="43.73033" lon="4.92029">
        <ele>259.5</ele>
        <time>2025-11-12T12:22:40.035Z</time>
      </trkpt>
      <trkpt lat="43.73031" lon="4.92027">
        <ele>258.8</ele>
        <time>2025-11-12T12:22:43.035Z</time>
      </trkpt>
      <trkpt lat="43.73028" lon="4.92025">
        <ele>258</ele>
        <time>2025-11-12T12:22:46.035Z</time>
      </trkpt>
      <trkpt lat="43.73026" lon="4.92022">
        <ele>257.5</ele>
        <time>2025-11-12T12:22:50.035Z</time>
      </trkpt>
      <trkpt lat="43.73023" lon="4.9202">
        <ele>256.9</ele>
        <time>2025-11-12T12:22:53.035Z</time>
      </trkpt>
      <trkpt lat="43.73021" lon="4.92019">
        <ele>256.4</ele>
        <time>2025-11-12T12:22:55.035Z</time>
      </trkpt>
      <trkpt lat="43.7302" lon="4.92017">
        <ele>256.1</ele>
        <time>2025-11-12T12:22:57.035Z</time>
      </trkpt>
      <trkpt lat="43.73018" lon="4.92015">
        <ele>255.6</ele>
        <time>2025-11-12T12:22:59.035Z</time>
      </trkpt>
      <trkpt lat="43.73015" lon="4.92012">
        <ele>255.1</ele>
        <time>2025-11-12T12:23:02.035Z</time>
      </trkpt>
      <trkpt lat="43.73013" lon="4.92011">
        <ele>254.7</ele>
        <time>2025-11-12T12:23:04.035Z</time>
      </trkpt>
      <trkpt lat="43.73011" lon="4.92008">
        <ele>254.2</ele>
        <time>2025-11-12T12:23:07.035Z</time>
      </trkpt>
      <trkpt lat="43.73009" lon="4.92005">
        <ele>253.7</ele>
        <time>2025-11-12T12:23:11.035Z</time>
      </trkpt>
      <trkpt lat="43.73006" lon="4.92002">
        <ele>253.3</ele>
        <time>2025-11-12T12:23:14.035Z</time>
      </trkpt>
      <trkpt lat="43.73004" lon="4.92001">
        <ele>252.8</ele>
        <time>2025-11-12T12:23:26.035Z</time>
      </trkpt>
      <trkpt lat="43.73003" lon="4.91997">
        <ele>252.3</ele>
        <time>2025-11-12T12:23:30.035Z</time>
      </trkpt>
      <trkpt lat="43.73001" lon="4.91995">
        <ele>251.7</ele>
        <time>2025-11-12T12:23:34.035Z</time>
      </trkpt>
      <trkpt lat="43.73" lon="4.91992">
        <ele>251.1</ele>
        <time>2025-11-12T12:23:37.035Z</time>
      </trkpt>
      <trkpt lat="43.72998" lon="4.91989">
        <ele>250.3</ele>
        <time>2025-11-12T12:23:40.035Z</time>
      </trkpt>
      <trkpt lat="43.72995" lon="4.91988">
        <ele>249.6</ele>
        <time>2025-11-12T12:23:43.035Z</time>
      </trkpt>
      <trkpt lat="43.72994" lon="4.91985">
        <ele>249</ele>
        <time>2025-11-12T12:23:46.035Z</time>
      </trkpt>
      <trkpt lat="43.72992" lon="4.91983">
        <ele>248.5</ele>
        <time>2025-11-12T12:23:48.035Z</time>
      </trkpt>
      <trkpt lat="43.72989" lon="4.9198">
        <ele>247.8</ele>
        <time>2025-11-12T12:23:51.035Z</time>
      </trkpt>
      <trkpt lat="43.72987" lon="4.91978">
        <ele>247.4</ele>
        <time>2025-11-12T12:23:54.035Z</time>
      </trkpt>
      <trkpt lat="43.72986" lon="4.91975">
        <ele>247</ele>
        <time>2025-11-12T12:23:57.035Z</time>
      </trkpt>
      <trkpt lat="43.72984" lon="4.91973">
        <ele>246.7</ele>
        <time>2025-11-12T12:24:00.035Z</time>
      </trkpt>
      <trkpt lat="43.72982" lon="4.9197">
        <ele>246</ele>
        <time>2025-11-12T12:24:03.035Z</time>
      </trkpt>
      <trkpt lat="43.72979" lon="4.91969">
        <ele>245.5</ele>
        <time>2025-11-12T12:24:06.035Z</time>
      </trkpt>
      <trkpt lat="43.72977" lon="4.91967">
        <ele>244.9</ele>
        <time>2025-11-12T12:24:09.035Z</time>
      </trkpt>
      <trkpt lat="43.72974" lon="4.91964">
        <ele>244.3</ele>
        <time>2025-11-12T12:24:12.035Z</time>
      </trkpt>
      <trkpt lat="43.72972" lon="4.91961">
        <ele>243.7</ele>
        <time>2025-11-12T12:24:15.035Z</time>
      </trkpt>
      <trkpt lat="43.7297" lon="4.91958">
        <ele>243.1</ele>
        <time>2025-11-12T12:24:18.035Z</time>
      </trkpt>
      <trkpt lat="43.72968" lon="4.91957">
        <ele>242.7</ele>
        <time>2025-11-12T12:24:21.034Z</time>
      </trkpt>
      <trkpt lat="43.72966" lon="4.91954">
        <ele>242.3</ele>
        <time>2025-11-12T12:24:24.035Z</time>
      </trkpt>
      <trkpt lat="43.72964" lon="4.91952">
        <ele>242</ele>
        <time>2025-11-12T12:24:27.035Z</time>
      </trkpt>
      <trkpt lat="43.72961" lon="4.9195">
        <ele>241.7</ele>
        <time>2025-11-12T12:24:30.035Z</time>
      </trkpt>
      <trkpt lat="43.72959" lon="4.91949">
        <ele>241.5</ele>
        <time>2025-11-12T12:24:37.035Z</time>
      </trkpt>
      <trkpt lat="43.72956" lon="4.91946">
        <ele>241.4</ele>
        <time>2025-11-12T12:24:40.035Z</time>
      </trkpt>
      <trkpt lat="43.72954" lon="4.91944">
        <ele>241.3</ele>
        <time>2025-11-12T12:24:43.035Z</time>
      </trkpt>
      <trkpt lat="43.72952" lon="4.91942">
        <ele>240.9</ele>
        <time>2025-11-12T12:24:45.035Z</time>
      </trkpt>
      <trkpt lat="43.7295" lon="4.9194">
        <ele>240.5</ele>
        <time>2025-11-12T12:24:47.035Z</time>
      </trkpt>
      <trkpt lat="43.72948" lon="4.91939">
        <ele>240.4</ele>
        <time>2025-11-12T12:24:49.035Z</time>
      </trkpt>
      <trkpt lat="43.72945" lon="4.91936">
        <ele>240.1</ele>
        <time>2025-11-12T12:24:52.035Z</time>
      </trkpt>
      <trkpt lat="43.72943" lon="4.91934">
        <ele>239.5</ele>
        <time>2025-11-12T12:24:56.035Z</time>
      </trkpt>
      <trkpt lat="43.72941" lon="4.91932">
        <ele>238.9</ele>
        <time>2025-11-12T12:24:58.035Z</time>
      </trkpt>
      <trkpt lat="43.72939" lon="4.91928">
        <ele>238.3</ele>
        <time>2025-11-12T12:25:01.035Z</time>
      </trkpt>
      <trkpt lat="43.72937" lon="4.91926">
        <ele>237.7</ele>
        <time>2025-11-12T12:25:05.034Z</time>
      </trkpt>
      <trkpt lat="43.72934" lon="4.91924">
        <ele>237.2</ele>
        <time>2025-11-12T12:25:08.035Z</time>
      </trkpt>
      <trkpt lat="43.72933" lon="4.91921">
        <ele>236.9</ele>
        <time>2025-11-12T12:25:10.035Z</time>
      </trkpt>
      <trkpt lat="43.7293" lon="4.91919">
        <ele>236.5</ele>
        <time>2025-11-12T12:25:13.035Z</time>
      </trkpt>
      <trkpt lat="43.72928" lon="4.91917">
        <ele>236.2</ele>
        <time>2025-11-12T12:25:16.035Z</time>
      </trkpt>
      <trkpt lat="43.72925" lon="4.91916">
        <ele>235.7</ele>
        <time>2025-11-12T12:25:19.035Z</time>
      </trkpt>
      <trkpt lat="43.72923" lon="4.91913">
        <ele>235.2</ele>
        <time>2025-11-12T12:25:21.034Z</time>
      </trkpt>
      <trkpt lat="43.7292" lon="4.91912">
        <ele>234.8</ele>
        <time>2025-11-12T12:25:24.035Z</time>
      </trkpt>
      <trkpt lat="43.72918" lon="4.91911">
        <ele>234.4</ele>
        <time>2025-11-12T12:25:27.035Z</time>
      </trkpt>
      <trkpt lat="43.72915" lon="4.9191">
        <ele>233.9</ele>
        <time>2025-11-12T12:25:30.035Z</time>
      </trkpt>
      <trkpt lat="43.72912" lon="4.91908">
        <ele>233.2</ele>
        <time>2025-11-12T12:25:33.035Z</time>
      </trkpt>
      <trkpt lat="43.7291" lon="4.91906">
        <ele>232.5</ele>
        <time>2025-11-12T12:25:36.035Z</time>
      </trkpt>
      <trkpt lat="43.72908" lon="4.91903">
        <ele>231.9</ele>
        <time>2025-11-12T12:25:40.035Z</time>
      </trkpt>
      <trkpt lat="43.72906" lon="4.919">
        <ele>231.4</ele>
        <time>2025-11-12T12:25:44.035Z</time>
      </trkpt>
      <trkpt lat="43.72905" lon="4.91897">
        <ele>231.1</ele>
        <time>2025-11-12T12:25:48.035Z</time>
      </trkpt>
      <trkpt lat="43.72904" lon="4.91893">
        <ele>230.8</ele>
        <time>2025-11-12T12:25:52.035Z</time>
      </trkpt>
      <trkpt lat="43.72902" lon="4.91891">
        <ele>230.4</ele>
        <time>2025-11-12T12:25:55.035Z</time>
      </trkpt>
      <trkpt lat="43.729" lon="4.91889">
        <ele>230.2</ele>
        <time>2025-11-12T12:25:58.035Z</time>
      </trkpt>
      <trkpt lat="43.72898" lon="4.91887">
        <ele>229.6</ele>
        <time>2025-11-12T12:26:01.035Z</time>
      </trkpt>
      <trkpt lat="43.72895" lon="4.91885">
        <ele>229</ele>
        <time>2025-11-12T12:26:04.035Z</time>
      </trkpt>
      <trkpt lat="43.72893" lon="4.91883">
        <ele>228.4</ele>
        <time>2025-11-12T12:26:15.035Z</time>
      </trkpt>
      <trkpt lat="43.72891" lon="4.91882">
        <ele>228.2</ele>
        <time>2025-11-12T12:26:18.035Z</time>
      </trkpt>
      <trkpt lat="43.72889" lon="4.9188">
        <ele>227.7</ele>
        <time>2025-11-12T12:26:24.035Z</time>
      </trkpt>
      <trkpt lat="43.72887" lon="4.91878">
        <ele>227</ele>
        <time>2025-11-12T12:26:27.035Z</time>
      </trkpt>
      <trkpt lat="43.72885" lon="4.91876">
        <ele>226.4</ele>
        <time>2025-11-12T12:26:31.034Z</time>
      </trkpt>
      <trkpt lat="43.72883" lon="4.91873">
        <ele>225.7</ele>
        <time>2025-11-12T12:26:35.035Z</time>
      </trkpt>
      <trkpt lat="43.72881" lon="4.91871">
        <ele>225.1</ele>
        <time>2025-11-12T12:26:39.035Z</time>
      </trkpt>
      <trkpt lat="43.72879" lon="4.91868">
        <ele>224.5</ele>
        <time>2025-11-12T12:26:43.035Z</time>
      </trkpt>
      <trkpt lat="43.72877" lon="4.91866">
        <ele>224.1</ele>
        <time>2025-11-12T12:26:47.035Z</time>
      </trkpt>
      <trkpt lat="43.72875" lon="4.91863">
        <ele>223.6</ele>
        <time>2025-11-12T12:26:50.035Z</time>
      </trkpt>
      <trkpt lat="43.72873" lon="4.91861">
        <ele>223.2</ele>
        <time>2025-11-12T12:26:54.035Z</time>
      </trkpt>
      <trkpt lat="43.72872" lon="4.91858">
        <ele>222.6</ele>
        <time>2025-11-12T12:26:56.035Z</time>
      </trkpt>
      <trkpt lat="43.7287" lon="4.91854">
        <ele>221.8</ele>
        <time>2025-11-12T12:27:00.035Z</time>
      </trkpt>
      <trkpt lat="43.72868" lon="4.91852">
        <ele>221.4</ele>
        <time>2025-11-12T12:27:03.035Z</time>
      </trkpt>
      <trkpt lat="43.72865" lon="4.91851">
        <ele>221</ele>
        <time>2025-11-12T12:27:07.035Z</time>
      </trkpt>
      <trkpt lat="43.72864" lon="4.91849">
        <ele>220.5</ele>
        <time>2025-11-12T12:27:10.035Z</time>
      </trkpt>
      <trkpt lat="43.72862" lon="4.91846">
        <ele>219.9</ele>
        <time>2025-11-12T12:27:13.035Z</time>
      </trkpt>
      <trkpt lat="43.7286" lon="4.91844">
        <ele>219.4</ele>
        <time>2025-11-12T12:27:16.035Z</time>
      </trkpt>
      <trkpt lat="43.72857" lon="4.91843">
        <ele>219</ele>
        <time>2025-11-12T12:27:19.035Z</time>
      </trkpt>
      <trkpt lat="43.72854" lon="4.91843">
        <ele>218.7</ele>
        <time>2025-11-12T12:27:22.035Z</time>
      </trkpt>
      <trkpt lat="43.72852" lon="4.91842">
        <ele>218.3</ele>
        <time>2025-11-12T12:27:24.035Z</time>
      </trkpt>
      <trkpt lat="43.7285" lon="4.91843">
        <ele>218.2</ele>
        <time>2025-11-12T12:27:28.035Z</time>
      </trkpt>
      <trkpt lat="43.72847" lon="4.91843">
        <ele>217.9</ele>
        <time>2025-11-12T12:27:32.035Z</time>
      </trkpt>
      <trkpt lat="43.72844" lon="4.91845">
        <ele>218</ele>
        <time>2025-11-12T12:27:35.035Z</time>
      </trkpt>
      <trkpt lat="43.72842" lon="4.91846">
        <ele>217.9</ele>
        <time>2025-11-12T12:27:47.035Z</time>
      </trkpt>
      <trkpt lat="43.72839" lon="4.91847">
        <ele>217.6</ele>
        <time>2025-11-12T12:28:21.035Z</time>
      </trkpt>
      <trkpt lat="43.72842" lon="4.91847">
        <ele>217.8</ele>
        <time>2025-11-12T12:28:42.035Z</time>
      </trkpt>
      <trkpt lat="43.72839" lon="4.91846">
        <ele>217.6</ele>
        <time>2025-11-12T12:28:49.035Z</time>
      </trkpt>
      <trkpt lat="43.72836" lon="4.91847">
        <ele>217.3</ele>
        <time>2025-11-12T12:28:53.035Z</time>
      </trkpt>
      <trkpt lat="43.72834" lon="4.91846">
        <ele>217</ele>
        <time>2025-11-12T12:28:56.035Z</time>
      </trkpt>
      <trkpt lat="43.72831" lon="4.91847">
        <ele>217.8</ele>
        <time>2025-11-12T12:29:00.035Z</time>
      </trkpt>
      <trkpt lat="43.72828" lon="4.91846">
        <ele>218.6</ele>
        <time>2025-11-12T12:29:03.035Z</time>
      </trkpt>
      <trkpt lat="43.72826" lon="4.91846">
        <ele>219.4</ele>
        <time>2025-11-12T12:29:07.035Z</time>
      </trkpt>
      <trkpt lat="43.72823" lon="4.91844">
        <ele>220.3</ele>
        <time>2025-11-12T12:29:12.035Z</time>
      </trkpt>
      <trkpt lat="43.72821" lon="4.91843">
        <ele>221</ele>
        <time>2025-11-12T12:29:16.035Z</time>
      </trkpt>
      <trkpt lat="43.72818" lon="4.91843">
        <ele>221.9</ele>
        <time>2025-11-12T12:29:20.035Z</time>
      </trkpt>
      <trkpt lat="43.72816" lon="4.91842">
        <ele>222.7</ele>
        <time>2025-11-12T12:29:28.035Z</time>
      </trkpt>
      <trkpt lat="43.72814" lon="4.91843">
        <ele>223.5</ele>
        <time>2025-11-12T12:29:38.035Z</time>
      </trkpt>
      <trkpt lat="43.72812" lon="4.91846">
        <ele>224.3</ele>
        <time>2025-11-12T12:29:42.035Z</time>
      </trkpt>
      <trkpt lat="43.7281" lon="4.91847">
        <ele>225</ele>
        <time>2025-11-12T12:29:47.035Z</time>
      </trkpt>
      <trkpt lat="43.72808" lon="4.91849">
        <ele>225.8</ele>
        <time>2025-11-12T12:29:54.035Z</time>
      </trkpt>
      <trkpt lat="43.72806" lon="4.91852">
        <ele>226.6</ele>
        <time>2025-11-12T12:30:03.035Z</time>
      </trkpt>
      <trkpt lat="43.72803" lon="4.91854">
        <ele>226.9</ele>
        <time>2025-11-12T12:30:12.035Z</time>
      </trkpt>
      <trkpt lat="43.72803" lon="4.91858">
        <ele>227.1</ele>
        <time>2025-11-12T12:30:19.035Z</time>
      </trkpt>
      <trkpt lat="43.72801" lon="4.91859">
        <ele>227.4</ele>
        <time>2025-11-12T12:30:22.035Z</time>
      </trkpt>
      <trkpt lat="43.728" lon="4.91863">
        <ele>227.9</ele>
        <time>2025-11-12T12:30:44.035Z</time>
      </trkpt>
      <trkpt lat="43.72799" lon="4.91866">
        <ele>228.4</ele>
        <time>2025-11-12T12:30:48.035Z</time>
      </trkpt>
      <trkpt lat="43.72797" lon="4.91868">
        <ele>229.1</ele>
        <time>2025-11-12T12:30:53.035Z</time>
      </trkpt>
      <trkpt lat="43.72796" lon="4.91871">
        <ele>229.8</ele>
        <time>2025-11-12T12:31:00.035Z</time>
      </trkpt>
      <trkpt lat="43.72796" lon="4.91875">
        <ele>230.4</ele>
        <time>2025-11-12T12:31:04.035Z</time>
      </trkpt>
      <trkpt lat="43.72795" lon="4.91879">
        <ele>231.2</ele>
        <time>2025-11-12T12:31:11.035Z</time>
      </trkpt>
      <trkpt lat="43.72793" lon="4.91881">
        <ele>231.9</ele>
        <time>2025-11-12T12:31:16.035Z</time>
      </trkpt>
      <trkpt lat="43.72791" lon="4.91882">
        <ele>232.5</ele>
        <time>2025-11-12T12:31:21.035Z</time>
      </trkpt>
      <trkpt lat="43.7279" lon="4.91886">
        <ele>233.4</ele>
        <time>2025-11-12T12:31:30.035Z</time>
      </trkpt>
      <trkpt lat="43.72789" lon="4.9189">
        <ele>234.3</ele>
        <time>2025-11-12T12:31:35.034Z</time>
      </trkpt>
      <trkpt lat="43.72789" lon="4.91893">
        <ele>235.1</ele>
        <time>2025-11-12T12:31:40.035Z</time>
      </trkpt>
      <trkpt lat="43.72788" lon="4.91896">
        <ele>236.1</ele>
        <time>2025-11-12T12:31:44.035Z</time>
      </trkpt>
      <trkpt lat="43.72787" lon="4.91899">
        <ele>237.3</ele>
        <time>2025-11-12T12:31:55.035Z</time>
      </trkpt>
      <trkpt lat="43.72787" lon="4.91903">
        <ele>238.1</ele>
        <time>2025-11-12T12:32:01.035Z</time>
      </trkpt>
      <trkpt lat="43.72785" lon="4.91903">
        <ele>238.5</ele>
        <time>2025-11-12T12:32:38.035Z</time>
      </trkpt>
      <trkpt lat="43.72785" lon="4.91906">
        <ele>239.4</ele>
        <time>2025-11-12T12:32:43.035Z</time>
      </trkpt>
      <trkpt lat="43.72785" lon="4.91909">
        <ele>240.5</ele>
        <time>2025-11-12T12:32:48.035Z</time>
      </trkpt>
      <trkpt lat="43.72784" lon="4.91913">
        <ele>241.5</ele>
        <time>2025-11-12T12:32:56.035Z</time>
      </trkpt>
      <trkpt lat="43.72785" lon="4.91916">
        <ele>242.2</ele>
        <time>2025-11-12T12:33:01.035Z</time>
      </trkpt>
      <trkpt lat="43.72784" lon="4.91919">
        <ele>243.4</ele>
        <time>2025-11-12T12:33:07.035Z</time>
      </trkpt>
      <trkpt lat="43.72785" lon="4.91923">
        <ele>244.3</ele>
        <time>2025-11-12T12:33:15.035Z</time>
      </trkpt>
      <trkpt lat="43.72785" lon="4.91928">
        <ele>245.8</ele>
        <time>2025-11-12T12:33:26.035Z</time>
      </trkpt>
      <trkpt lat="43.72783" lon="4.91931">
        <ele>247.1</ele>
        <time>2025-11-12T12:33:36.035Z</time>
      </trkpt>
      <trkpt lat="43.72782" lon="4.91934">
        <ele>248.4</ele>
        <time>2025-11-12T12:33:44.035Z</time>
      </trkpt>
      <trkpt lat="43.72781" lon="4.91937">
        <ele>249.8</ele>
        <time>2025-11-12T12:33:56.034Z</time>
      </trkpt>
      <trkpt lat="43.72779" lon="4.9194">
        <ele>251.1</ele>
        <time>2025-11-12T12:34:02.035Z</time>
      </trkpt>
      <trkpt lat="43.72778" lon="4.91943">
        <ele>252.4</ele>
        <time>2025-11-12T12:34:19.035Z</time>
      </trkpt>
      <trkpt lat="43.72778" lon="4.91947">
        <ele>253.5</ele>
        <time>2025-11-12T12:34:24.035Z</time>
      </trkpt>
      <trkpt lat="43.72779" lon="4.9195">
        <ele>254.2</ele>
        <time>2025-11-12T12:34:34.035Z</time>
      </trkpt>
      <trkpt lat="43.72779" lon="4.91953">
        <ele>254.9</ele>
        <time>2025-11-12T12:34:42.035Z</time>
      </trkpt>
      <trkpt lat="43.72779" lon="4.91957">
        <ele>255.7</ele>
        <time>2025-11-12T12:34:50.035Z</time>
      </trkpt>
      <trkpt lat="43.72777" lon="4.91959">
        <ele>256.6</ele>
        <time>2025-11-12T12:34:56.034Z</time>
      </trkpt>
      <trkpt lat="43.72776" lon="4.91961">
        <ele>257.2</ele>
        <time>2025-11-12T12:35:01.035Z</time>
      </trkpt>
      <trkpt lat="43.72778" lon="4.91963">
        <ele>257.8</ele>
        <time>2025-11-12T12:35:05.035Z</time>
      </trkpt>
      <trkpt lat="43.72776" lon="4.91966">
        <ele>258.5</ele>
        <time>2025-11-12T12:35:13.034Z</time>
      </trkpt>
      <trkpt lat="43.72775" lon="4.91969">
        <ele>259.2</ele>
        <time>2025-11-12T12:35:18.035Z</time>
      </trkpt>
      <trkpt lat="43.72776" lon="4.91973">
        <ele>260</ele>
        <time>2025-11-12T12:35:24.034Z</time>
      </trkpt>
      <trkpt lat="43.72775" lon="4.91977">
        <ele>260.3</ele>
        <time>2025-11-12T12:35:31.035Z</time>
      </trkpt>
      <trkpt lat="43.72775" lon="4.9198">
        <ele>260.6</ele>
        <time>2025-11-12T12:35:37.035Z</time>
      </trkpt>
      <trkpt lat="43.72775" lon="4.91984">
        <ele>260.9</ele>
        <time>2025-11-12T12:35:43.035Z</time>
      </trkpt>
      <trkpt lat="43.72775" lon="4.91988">
        <ele>261.1</ele>
        <time>2025-11-12T12:35:48.034Z</time>
      </trkpt>
      <trkpt lat="43.72773" lon="4.91991">
        <ele>261.3</ele>
        <time>2025-11-12T12:36:53.035Z</time>
      </trkpt>
      <trkpt lat="43.72771" lon="4.91992">
        <ele>261.4</ele>
        <time>2025-11-12T12:37:40.035Z</time>
      </trkpt>
      <trkpt lat="43.72768" lon="4.91992">
        <ele>261.5</ele>
        <time>2025-11-12T12:38:22.035Z</time>
      </trkpt>
      <trkpt lat="43.72765" lon="4.91994">
        <ele>261.5</ele>
        <time>2025-11-12T12:38:26.035Z</time>
      </trkpt>
      <trkpt lat="43.72762" lon="4.91994">
        <ele>261.5</ele>
        <time>2025-11-12T12:38:29.035Z</time>
      </trkpt>
      <trkpt lat="43.7276" lon="4.91994">
        <ele>261.5</ele>
        <time>2025-11-12T12:38:32.035Z</time>
      </trkpt>
      <trkpt lat="43.72758" lon="4.91993">
        <ele>261.5</ele>
        <time>2025-11-12T12:38:35.035Z</time>
      </trkpt>
      <trkpt lat="43.72756" lon="4.9199">
        <ele>261.3</ele>
        <time>2025-11-12T12:38:39.034Z</time>
      </trkpt>
      <trkpt lat="43.72753" lon="4.91989">
        <ele>261.2</ele>
        <time>2025-11-12T12:38:44.035Z</time>
      </trkpt>
      <trkpt lat="43.7275" lon="4.91989">
        <ele>261.2</ele>
        <time>2025-11-12T12:38:49.035Z</time>
      </trkpt>
      <trkpt lat="43.72748" lon="4.91989">
        <ele>260.6</ele>
        <time>2025-11-12T12:38:53.034Z</time>
      </trkpt>
      <trkpt lat="43.72746" lon="4.91988">
        <ele>259.9</ele>
        <time>2025-11-12T12:38:58.035Z</time>
      </trkpt>
      <trkpt lat="43.72743" lon="4.91988">
        <ele>259.2</ele>
        <time>2025-11-12T12:39:02.034Z</time>
      </trkpt>
      <trkpt lat="43.7274" lon="4.91986">
        <ele>258.2</ele>
        <time>2025-11-12T12:39:11.035Z</time>
      </trkpt>
      <trkpt lat="43.72737" lon="4.91986">
        <ele>257.5</ele>
        <time>2025-11-12T12:39:18.034Z</time>
      </trkpt>
      <trkpt lat="43.72735" lon="4.91986">
        <ele>256.9</ele>
        <time>2025-11-12T12:39:20.034Z</time>
      </trkpt>
      <trkpt lat="43.72733" lon="4.91985">
        <ele>256.3</ele>
        <time>2025-11-12T12:39:27.035Z</time>
      </trkpt>
      <trkpt lat="43.7273" lon="4.91985">
        <ele>255.6</ele>
        <time>2025-11-12T12:39:30.035Z</time>
      </trkpt>
      <trkpt lat="43.72728" lon="4.91984">
        <ele>255</ele>
        <time>2025-11-12T12:39:34.035Z</time>
      </trkpt>
      <trkpt lat="43.72725" lon="4.91983">
        <ele>254.4</ele>
        <time>2025-11-12T12:39:38.035Z</time>
      </trkpt>
      <trkpt lat="43.72723" lon="4.91982">
        <ele>253.8</ele>
        <time>2025-11-12T12:39:44.035Z</time>
      </trkpt>
      <trkpt lat="43.72721" lon="4.91982">
        <ele>253.2</ele>
        <time>2025-11-12T12:39:48.035Z</time>
      </trkpt>
      <trkpt lat="43.72718" lon="4.91981">
        <ele>252.6</ele>
        <time>2025-11-12T12:39:52.035Z</time>
      </trkpt>
      <trkpt lat="43.72716" lon="4.9198">
        <ele>252</ele>
        <time>2025-11-12T12:39:57.034Z</time>
      </trkpt>
      <trkpt lat="43.72714" lon="4.91978">
        <ele>251.6</ele>
        <time>2025-11-12T12:40:03.035Z</time>
      </trkpt>
      <trkpt lat="43.72711" lon="4.91978">
        <ele>250.8</ele>
        <time>2025-11-12T12:40:08.035Z</time>
      </trkpt>
      <trkpt lat="43.72709" lon="4.91976">
        <ele>250.3</ele>
        <time>2025-11-12T12:40:14.035Z</time>
      </trkpt>
      <trkpt lat="43.72706" lon="4.91976">
        <ele>249.7</ele>
        <time>2025-11-12T12:40:19.035Z</time>
      </trkpt>
      <trkpt lat="43.72703" lon="4.91975">
        <ele>249</ele>
        <time>2025-11-12T12:40:24.034Z</time>
      </trkpt>
      <trkpt lat="43.72701" lon="4.91974">
        <ele>248.5</ele>
        <time>2025-11-12T12:40:30.035Z</time>
      </trkpt>
      <trkpt lat="43.72698" lon="4.91972">
        <ele>248</ele>
        <time>2025-11-12T12:40:34.034Z</time>
      </trkpt>
      <trkpt lat="43.72696" lon="4.91971">
        <ele>247.1</ele>
        <time>2025-11-12T12:40:38.035Z</time>
      </trkpt>
      <trkpt lat="43.72694" lon="4.9197">
        <ele>246.5</ele>
        <time>2025-11-12T12:40:42.035Z</time>
      </trkpt>
      <trkpt lat="43.72692" lon="4.91969">
        <ele>245.7</ele>
        <time>2025-11-12T12:40:46.035Z</time>
      </trkpt>
      <trkpt lat="43.72689" lon="4.91968">
        <ele>245</ele>
        <time>2025-11-12T12:40:52.035Z</time>
      </trkpt>
      <trkpt lat="43.72686" lon="4.91967">
        <ele>244.2</ele>
        <time>2025-11-12T12:40:56.034Z</time>
      </trkpt>
      <trkpt lat="43.72684" lon="4.91966">
        <ele>243.6</ele>
        <time>2025-11-12T12:41:01.035Z</time>
      </trkpt>
      <trkpt lat="43.7268" lon="4.91965">
        <ele>242.8</ele>
        <time>2025-11-12T12:41:05.035Z</time>
      </trkpt>
      <trkpt lat="43.72677" lon="4.91964">
        <ele>242.1</ele>
        <time>2025-11-12T12:41:09.035Z</time>
      </trkpt>
      <trkpt lat="43.72675" lon="4.91963">
        <ele>241.5</ele>
        <time>2025-11-12T12:41:13.035Z</time>
      </trkpt>
      <trkpt lat="43.72672" lon="4.91962">
        <ele>241</ele>
        <time>2025-11-12T12:41:17.035Z</time>
      </trkpt>
      <trkpt lat="43.7267" lon="4.91959">
        <ele>240.5</ele>
        <time>2025-11-12T12:41:20.035Z</time>
      </trkpt>
      <trkpt lat="43.72667" lon="4.91958">
        <ele>240.1</ele>
        <time>2025-11-12T12:41:24.034Z</time>
      </trkpt>
      <trkpt lat="43.72664" lon="4.91957">
        <ele>239.9</ele>
        <time>2025-11-12T12:41:27.035Z</time>
      </trkpt>
      <trkpt lat="43.72662" lon="4.91957">
        <ele>239.8</ele>
        <time>2025-11-12T12:41:30.034Z</time>
      </trkpt>
      <trkpt lat="43.7266" lon="4.91956">
        <ele>239.7</ele>
        <time>2025-11-12T12:41:33.034Z</time>
      </trkpt>
      <trkpt lat="43.72657" lon="4.91956">
        <ele>239.6</ele>
        <time>2025-11-12T12:41:36.035Z</time>
      </trkpt>
      <trkpt lat="43.72654" lon="4.91954">
        <ele>239.5</ele>
        <time>2025-11-12T12:41:40.035Z</time>
      </trkpt>
      <trkpt lat="43.72651" lon="4.91954">
        <ele>239.4</ele>
        <time>2025-11-12T12:41:43.035Z</time>
      </trkpt>
      <trkpt lat="43.72648" lon="4.91953">
        <ele>239.4</ele>
        <time>2025-11-12T12:41:46.035Z</time>
      </trkpt>
      <trkpt lat="43.72646" lon="4.91952">
        <ele>239.4</ele>
        <time>2025-11-12T12:41:50.035Z</time>
      </trkpt>
      <trkpt lat="43.72643" lon="4.9195">
        <ele>239.5</ele>
        <time>2025-11-12T12:41:53.035Z</time>
      </trkpt>
      <trkpt lat="43.72641" lon="4.91948">
        <ele>239.6</ele>
        <time>2025-11-12T12:41:55.035Z</time>
      </trkpt>
      <trkpt lat="43.72639" lon="4.91946">
        <ele>239.8</ele>
        <time>2025-11-12T12:41:57.034Z</time>
      </trkpt>
      <trkpt lat="43.72637" lon="4.91945">
        <ele>239.6</ele>
        <time>2025-11-12T12:42:00.035Z</time>
      </trkpt>
      <trkpt lat="43.72635" lon="4.91942">
        <ele>239</ele>
        <time>2025-11-12T12:42:03.034Z</time>
      </trkpt>
      <trkpt lat="43.72633" lon="4.91939">
        <ele>238.4</ele>
        <time>2025-11-12T12:42:06.035Z</time>
      </trkpt>
      <trkpt lat="43.72631" lon="4.91937">
        <ele>237.8</ele>
        <time>2025-11-12T12:42:10.035Z</time>
      </trkpt>
      <trkpt lat="43.7263" lon="4.91934">
        <ele>237.4</ele>
        <time>2025-11-12T12:42:13.035Z</time>
      </trkpt>
      <trkpt lat="43.72629" lon="4.91931">
        <ele>237</ele>
        <time>2025-11-12T12:42:18.035Z</time>
      </trkpt>
      <trkpt lat="43.72627" lon="4.91929">
        <ele>236.5</ele>
        <time>2025-11-12T12:42:22.035Z</time>
      </trkpt>
      <trkpt lat="43.72625" lon="4.91926">
        <ele>236</ele>
        <time>2025-11-12T12:42:25.035Z</time>
      </trkpt>
      <trkpt lat="43.72624" lon="4.91923">
        <ele>235.7</ele>
        <time>2025-11-12T12:42:28.035Z</time>
      </trkpt>
      <trkpt lat="43.72622" lon="4.9192">
        <ele>235.2</ele>
        <time>2025-11-12T12:42:32.035Z</time>
      </trkpt>
      <trkpt lat="43.72621" lon="4.91917">
        <ele>234.8</ele>
        <time>2025-11-12T12:42:34.035Z</time>
      </trkpt>
      <trkpt lat="43.72619" lon="4.91914">
        <ele>234.3</ele>
        <time>2025-11-12T12:42:37.035Z</time>
      </trkpt>
      <trkpt lat="43.72618" lon="4.91912">
        <ele>233.8</ele>
        <time>2025-11-12T12:42:41.035Z</time>
      </trkpt>
      <trkpt lat="43.72616" lon="4.9191">
        <ele>233.2</ele>
        <time>2025-11-12T12:42:44.035Z</time>
      </trkpt>
      <trkpt lat="43.72614" lon="4.91907">
        <ele>232.8</ele>
        <time>2025-11-12T12:42:47.034Z</time>
      </trkpt>
      <trkpt lat="43.72613" lon="4.91904">
        <ele>232.3</ele>
        <time>2025-11-12T12:42:50.035Z</time>
      </trkpt>
      <trkpt lat="43.72611" lon="4.91901">
        <ele>231.9</ele>
        <time>2025-11-12T12:42:53.035Z</time>
      </trkpt>
      <trkpt lat="43.72609" lon="4.91899">
        <ele>231.5</ele>
        <time>2025-11-12T12:42:56.035Z</time>
      </trkpt>
      <trkpt lat="43.72606" lon="4.91896">
        <ele>231.3</ele>
        <time>2025-11-12T12:42:59.035Z</time>
      </trkpt>
      <trkpt lat="43.72603" lon="4.91895">
        <ele>231.2</ele>
        <time>2025-11-12T12:43:02.035Z</time>
      </trkpt>
      <trkpt lat="43.72601" lon="4.91897">
        <ele>231</ele>
        <time>2025-11-12T12:43:23.034Z</time>
      </trkpt>
      <trkpt lat="43.726" lon="4.919">
        <ele>230.8</ele>
        <time>2025-11-12T12:43:27.035Z</time>
      </trkpt>
      <trkpt lat="43.72599" lon="4.91903">
        <ele>230.5</ele>
        <time>2025-11-12T12:43:32.035Z</time>
      </trkpt>
      <trkpt lat="43.72597" lon="4.91905">
        <ele>230</ele>
        <time>2025-11-12T12:43:36.034Z</time>
      </trkpt>
      <trkpt lat="43.72596" lon="4.91908">
        <ele>229.6</ele>
        <time>2025-11-12T12:45:22.035Z</time>
      </trkpt>
      <trkpt lat="43.72594" lon="4.91909">
        <ele>229</ele>
        <time>2025-11-12T12:45:26.035Z</time>
      </trkpt>
      <trkpt lat="43.72593" lon="4.91912">
        <ele>228.4</ele>
        <time>2025-11-12T12:45:34.035Z</time>
      </trkpt>
      <trkpt lat="43.7259" lon="4.91914">
        <ele>227.4</ele>
        <time>2025-11-12T12:45:39.035Z</time>
      </trkpt>
      <trkpt lat="43.72589" lon="4.91917">
        <ele>226.7</ele>
        <time>2025-11-12T12:45:44.035Z</time>
      </trkpt>
      <trkpt lat="43.72588" lon="4.9192">
        <ele>226.1</ele>
        <time>2025-11-12T12:45:48.034Z</time>
      </trkpt>
      <trkpt lat="43.72586" lon="4.91924">
        <ele>225.4</ele>
        <time>2025-11-12T12:45:52.034Z</time>
      </trkpt>
      <trkpt lat="43.72586" lon="4.91927">
        <ele>225</ele>
        <time>2025-11-12T12:45:55.035Z</time>
      </trkpt>
      <trkpt lat="43.72584" lon="4.9193">
        <ele>224.3</ele>
        <time>2025-11-12T12:45:59.035Z</time>
      </trkpt>
      <trkpt lat="43.72582" lon="4.91933">
        <ele>223.5</ele>
        <time>2025-11-12T12:46:03.035Z</time>
      </trkpt>
      <trkpt lat="43.72581" lon="4.91935">
        <ele>222.8</ele>
        <time>2025-11-12T12:46:06.034Z</time>
      </trkpt>
      <trkpt lat="43.7258" lon="4.91939">
        <ele>222.3</ele>
        <time>2025-11-12T12:46:10.035Z</time>
      </trkpt>
      <trkpt lat="43.72579" lon="4.91943">
        <ele>221.6</ele>
        <time>2025-11-12T12:46:13.035Z</time>
      </trkpt>
      <trkpt lat="43.72578" lon="4.91946">
        <ele>221.1</ele>
        <time>2025-11-12T12:46:15.034Z</time>
      </trkpt>
      <trkpt lat="43.72577" lon="4.91948">
        <ele>220.6</ele>
        <time>2025-11-12T12:46:18.035Z</time>
      </trkpt>
      <trkpt lat="43.72575" lon="4.9195">
        <ele>220.1</ele>
        <time>2025-11-12T12:46:22.035Z</time>
      </trkpt>
      <trkpt lat="43.72572" lon="4.91952">
        <ele>219.4</ele>
        <time>2025-11-12T12:46:25.035Z</time>
      </trkpt>
      <trkpt lat="43.72571" lon="4.91955">
        <ele>219</ele>
        <time>2025-11-12T12:46:32.035Z</time>
      </trkpt>
      <trkpt lat="43.72569" lon="4.91958">
        <ele>218.5</ele>
        <time>2025-11-12T12:46:36.034Z</time>
      </trkpt>
      <trkpt lat="43.72567" lon="4.91961">
        <ele>217.9</ele>
        <time>2025-11-12T12:46:40.035Z</time>
      </trkpt>
      <trkpt lat="43.72567" lon="4.91964">
        <ele>218</ele>
        <time>2025-11-12T12:46:43.034Z</time>
      </trkpt>
      <trkpt lat="43.72565" lon="4.91966">
        <ele>217.6</ele>
        <time>2025-11-12T12:46:46.034Z</time>
      </trkpt>
      <trkpt lat="43.72565" lon="4.91969">
        <ele>217.6</ele>
        <time>2025-11-12T12:46:50.035Z</time>
      </trkpt>
      <trkpt lat="43.72563" lon="4.91971">
        <ele>216.9</ele>
        <time>2025-11-12T12:46:55.035Z</time>
      </trkpt>
      <trkpt lat="43.7256" lon="4.91973">
        <ele>215.8</ele>
        <time>2025-11-12T12:46:58.035Z</time>
      </trkpt>
      <trkpt lat="43.72558" lon="4.91975">
        <ele>214.5</ele>
        <time>2025-11-12T12:47:04.035Z</time>
      </trkpt>
      <trkpt lat="43.72555" lon="4.91978">
        <ele>213</ele>
        <time>2025-11-12T12:47:08.034Z</time>
      </trkpt>
      <trkpt lat="43.72553" lon="4.9198">
        <ele>211.9</ele>
        <time>2025-11-12T12:47:12.034Z</time>
      </trkpt>
      <trkpt lat="43.7255" lon="4.91982">
        <ele>210.6</ele>
        <time>2025-11-12T12:47:17.035Z</time>
      </trkpt>
      <trkpt lat="43.72548" lon="4.91984">
        <ele>209.6</ele>
        <time>2025-11-12T12:47:21.035Z</time>
      </trkpt>
      <trkpt lat="43.72546" lon="4.91986">
        <ele>208.8</ele>
        <time>2025-11-12T12:47:27.034Z</time>
      </trkpt>
      <trkpt lat="43.72544" lon="4.91987">
        <ele>207.9</ele>
        <time>2025-11-12T12:47:30.035Z</time>
      </trkpt>
      <trkpt lat="43.72542" lon="4.91988">
        <ele>207.2</ele>
        <time>2025-11-12T12:47:36.035Z</time>
      </trkpt>
      <trkpt lat="43.7254" lon="4.91991">
        <ele>206.8</ele>
        <time>2025-11-12T12:47:44.035Z</time>
      </trkpt>
      <trkpt lat="43.72538" lon="4.91992">
        <ele>206</ele>
        <time>2025-11-12T12:47:47.034Z</time>
      </trkpt>
      <trkpt lat="43.72535" lon="4.91994">
        <ele>205.3</ele>
        <time>2025-11-12T12:47:53.034Z</time>
      </trkpt>
      <trkpt lat="43.72533" lon="4.91995">
        <ele>204.7</ele>
        <time>2025-11-12T12:47:57.034Z</time>
      </trkpt>
      <trkpt lat="43.7253" lon="4.91994">
        <ele>203.8</ele>
        <time>2025-11-12T12:48:05.034Z</time>
      </trkpt>
      <trkpt lat="43.72527" lon="4.91995">
        <ele>203.2</ele>
        <time>2025-11-12T12:48:12.035Z</time>
      </trkpt>
      <trkpt lat="43.72525" lon="4.91996">
        <ele>202.7</ele>
        <time>2025-11-12T12:48:18.034Z</time>
      </trkpt>
      <trkpt lat="43.72523" lon="4.91997">
        <ele>202.2</ele>
        <time>2025-11-12T12:48:23.034Z</time>
      </trkpt>
      <trkpt lat="43.7252" lon="4.91995">
        <ele>201.3</ele>
        <time>2025-11-12T12:48:29.035Z</time>
      </trkpt>
      <trkpt lat="43.72517" lon="4.91996">
        <ele>200.7</ele>
        <time>2025-11-12T12:48:37.035Z</time>
      </trkpt>
      <trkpt lat="43.72515" lon="4.91996">
        <ele>200.1</ele>
        <time>2025-11-12T12:48:41.035Z</time>
      </trkpt>
      <trkpt lat="43.72513" lon="4.91995">
        <ele>199.5</ele>
        <time>2025-11-12T12:48:45.035Z</time>
      </trkpt>
      <trkpt lat="43.7251" lon="4.91995">
        <ele>198.9</ele>
        <time>2025-11-12T12:48:49.034Z</time>
      </trkpt>
      <trkpt lat="43.72507" lon="4.91994">
        <ele>198.2</ele>
        <time>2025-11-12T12:48:54.035Z</time>
      </trkpt>
      <trkpt lat="43.72504" lon="4.91994">
        <ele>197.6</ele>
        <time>2025-11-12T12:48:56.035Z</time>
      </trkpt>
      <trkpt lat="43.72502" lon="4.91995">
        <ele>196.8</ele>
        <time>2025-11-12T12:48:58.035Z</time>
      </trkpt>
      <trkpt lat="43.725" lon="4.91997">
        <ele>195.7</ele>
        <time>2025-11-12T12:49:02.035Z</time>
      </trkpt>
      <trkpt lat="43.72498" lon="4.92">
        <ele>195</ele>
        <time>2025-11-12T12:49:05.035Z</time>
      </trkpt>
      <trkpt lat="43.72496" lon="4.92001">
        <ele>195</ele>
        <time>2025-11-12T12:49:07.034Z</time>
      </trkpt>
      <trkpt lat="43.72493" lon="4.92004">
        <ele>195.3</ele>
        <time>2025-11-12T12:49:10.034Z</time>
      </trkpt>
      <trkpt lat="43.72491" lon="4.92006">
        <ele>195.2</ele>
        <time>2025-11-12T12:49:13.035Z</time>
      </trkpt>
      <trkpt lat="43.72488" lon="4.92005">
        <ele>194.8</ele>
        <time>2025-11-12T12:49:16.034Z</time>
      </trkpt>
      <trkpt lat="43.72485" lon="4.92004">
        <ele>194.6</ele>
        <time>2025-11-12T12:49:19.035Z</time>
      </trkpt>
      <trkpt lat="43.72483" lon="4.92007">
        <ele>194.4</ele>
        <time>2025-11-12T12:49:22.034Z</time>
      </trkpt>
      <trkpt lat="43.7248" lon="4.92008">
        <ele>194</ele>
        <time>2025-11-12T12:49:25.034Z</time>
      </trkpt>
      <trkpt lat="43.72478" lon="4.92011">
        <ele>193.4</ele>
        <time>2025-11-12T12:49:28.035Z</time>
      </trkpt>
      <trkpt lat="43.72475" lon="4.92012">
        <ele>192.9</ele>
        <time>2025-11-12T12:49:33.035Z</time>
      </trkpt>
      <trkpt lat="43.72472" lon="4.92013">
        <ele>192.2</ele>
        <time>2025-11-12T12:49:36.035Z</time>
      </trkpt>
      <trkpt lat="43.72469" lon="4.92013">
        <ele>191.9</ele>
        <time>2025-11-12T12:49:40.034Z</time>
      </trkpt>
      <trkpt lat="43.72468" lon="4.92016">
        <ele>191.3</ele>
        <time>2025-11-12T12:49:44.034Z</time>
      </trkpt>
      <trkpt lat="43.72465" lon="4.92018">
        <ele>190.8</ele>
        <time>2025-11-12T12:49:47.035Z</time>
      </trkpt>
      <trkpt lat="43.72463" lon="4.92021">
        <ele>190</ele>
        <time>2025-11-12T12:49:50.034Z</time>
      </trkpt>
      <trkpt lat="43.72462" lon="4.92025">
        <ele>189.2</ele>
        <time>2025-11-12T12:49:54.035Z</time>
      </trkpt>
      <trkpt lat="43.72461" lon="4.92028">
        <ele>188.3</ele>
        <time>2025-11-12T12:49:58.034Z</time>
      </trkpt>
      <trkpt lat="43.7246" lon="4.92031">
        <ele>188</ele>
        <time>2025-11-12T12:50:01.034Z</time>
      </trkpt>
      <trkpt lat="43.7246" lon="4.92034">
        <ele>187.7</ele>
        <time>2025-11-12T12:50:04.035Z</time>
      </trkpt>
      <trkpt lat="43.72458" lon="4.92036">
        <ele>187.3</ele>
        <time>2025-11-12T12:50:07.034Z</time>
      </trkpt>
      <trkpt lat="43.72458" lon="4.9204">
        <ele>187.1</ele>
        <time>2025-11-12T12:50:10.035Z</time>
      </trkpt>
      <trkpt lat="43.72456" lon="4.92043">
        <ele>186.6</ele>
        <time>2025-11-12T12:50:13.034Z</time>
      </trkpt>
      <trkpt lat="43.72454" lon="4.92045">
        <ele>186.3</ele>
        <time>2025-11-12T12:50:16.034Z</time>
      </trkpt>
      <trkpt lat="43.72451" lon="4.92046">
        <ele>186</ele>
        <time>2025-11-12T12:50:18.034Z</time>
      </trkpt>
      <trkpt lat="43.72449" lon="4.92046">
        <ele>185.7</ele>
        <time>2025-11-12T12:50:20.035Z</time>
      </trkpt>
      <trkpt lat="43.72446" lon="4.92047">
        <ele>185.4</ele>
        <time>2025-11-12T12:50:23.034Z</time>
      </trkpt>
      <trkpt lat="43.72443" lon="4.92049">
        <ele>185.2</ele>
        <time>2025-11-12T12:50:25.034Z</time>
      </trkpt>
      <trkpt lat="43.7244" lon="4.9205">
        <ele>185.1</ele>
        <time>2025-11-12T12:50:28.034Z</time>
      </trkpt>
      <trkpt lat="43.72437" lon="4.92052">
        <ele>184.8</ele>
        <time>2025-11-12T12:50:31.034Z</time>
      </trkpt>
      <trkpt lat="43.72435" lon="4.92054">
        <ele>184.5</ele>
        <time>2025-11-12T12:50:33.035Z</time>
      </trkpt>
      <trkpt lat="43.72432" lon="4.92056">
        <ele>184.2</ele>
        <time>2025-11-12T12:50:36.034Z</time>
      </trkpt>
      <trkpt lat="43.7243" lon="4.92057">
        <ele>184.1</ele>
        <time>2025-11-12T12:50:39.035Z</time>
      </trkpt>
      <trkpt lat="43.72427" lon="4.9206">
        <ele>184.2</ele>
        <time>2025-11-12T12:50:42.035Z</time>
      </trkpt>
      <trkpt lat="43.72424" lon="4.92061">
        <ele>184</ele>
        <time>2025-11-12T12:50:45.035Z</time>
      </trkpt>
      <trkpt lat="43.72421" lon="4.92063">
        <ele>183.8</ele>
        <time>2025-11-12T12:50:48.034Z</time>
      </trkpt>
      <trkpt lat="43.72419" lon="4.92064">
        <ele>183.6</ele>
        <time>2025-11-12T12:50:50.035Z</time>
      </trkpt>
      <trkpt lat="43.72417" lon="4.92066">
        <ele>183.4</ele>
        <time>2025-11-12T12:50:53.035Z</time>
      </trkpt>
      <trkpt lat="43.72415" lon="4.92069">
        <ele>183.6</ele>
        <time>2025-11-12T12:50:56.034Z</time>
      </trkpt>
      <trkpt lat="43.72413" lon="4.92072">
        <ele>183.7</ele>
        <time>2025-11-12T12:50:59.035Z</time>
      </trkpt>
      <trkpt lat="43.72411" lon="4.92075">
        <ele>183.6</ele>
        <time>2025-11-12T12:51:03.035Z</time>
      </trkpt>
      <trkpt lat="43.72412" lon="4.92078">
        <ele>183.6</ele>
        <time>2025-11-12T12:53:03.034Z</time>
      </trkpt>
      <trkpt lat="43.7241" lon="4.9208">
        <ele>183.4</ele>
        <time>2025-11-12T12:56:41.034Z</time>
      </trkpt>
      <trkpt lat="43.72407" lon="4.92082">
        <ele>183.1</ele>
        <time>2025-11-12T12:56:44.034Z</time>
      </trkpt>
      <trkpt lat="43.72405" lon="4.92084">
        <ele>183</ele>
        <time>2025-11-12T12:56:48.035Z</time>
      </trkpt>
      <trkpt lat="43.72403" lon="4.92086">
        <ele>183.2</ele>
        <time>2025-11-12T12:56:51.034Z</time>
      </trkpt>
      <trkpt lat="43.724" lon="4.92087">
        <ele>183.1</ele>
        <time>2025-11-12T12:56:53.035Z</time>
      </trkpt>
      <trkpt lat="43.72398" lon="4.92089">
        <ele>183.2</ele>
        <time>2025-11-12T12:56:55.034Z</time>
      </trkpt>
      <trkpt lat="43.72396" lon="4.92089">
        <ele>182.9</ele>
        <time>2025-11-12T12:56:58.034Z</time>
      </trkpt>
      <trkpt lat="43.72393" lon="4.9209">
        <ele>182.6</ele>
        <time>2025-11-12T12:57:00.034Z</time>
      </trkpt>
      <trkpt lat="43.72391" lon="4.92091">
        <ele>182.3</ele>
        <time>2025-11-12T12:57:03.035Z</time>
      </trkpt>
      <trkpt lat="43.72388" lon="4.92092">
        <ele>182.2</ele>
        <time>2025-11-12T12:57:05.034Z</time>
      </trkpt>
      <trkpt lat="43.72386" lon="4.92094">
        <ele>182.3</ele>
        <time>2025-11-12T12:57:08.035Z</time>
      </trkpt>
      <trkpt lat="43.72383" lon="4.92095">
        <ele>182.2</ele>
        <time>2025-11-12T12:57:11.035Z</time>
      </trkpt>
      <trkpt lat="43.72381" lon="4.92097">
        <ele>182.3</ele>
        <time>2025-11-12T12:57:14.034Z</time>
      </trkpt>
      <trkpt lat="43.72378" lon="4.92097">
        <ele>182</ele>
        <time>2025-11-12T12:57:17.034Z</time>
      </trkpt>
      <trkpt lat="43.72375" lon="4.92098">
        <ele>181.8</ele>
        <time>2025-11-12T12:57:20.034Z</time>
      </trkpt>
      <trkpt lat="43.72372" lon="4.92098">
        <ele>181.5</ele>
        <time>2025-11-12T12:57:24.035Z</time>
      </trkpt>
      <trkpt lat="43.7237" lon="4.92098">
        <ele>181.3</ele>
        <time>2025-11-12T12:57:26.035Z</time>
      </trkpt>
      <trkpt lat="43.72367" lon="4.92099">
        <ele>181</ele>
        <time>2025-11-12T12:57:29.034Z</time>
      </trkpt>
      <trkpt lat="43.72364" lon="4.921">
        <ele>180.7</ele>
        <time>2025-11-12T12:57:31.035Z</time>
      </trkpt>
      <trkpt lat="43.72361" lon="4.921">
        <ele>180.4</ele>
        <time>2025-11-12T12:57:34.034Z</time>
      </trkpt>
      <trkpt lat="43.72359" lon="4.92098">
        <ele>180.4</ele>
        <time>2025-11-12T12:57:36.034Z</time>
      </trkpt>
      <trkpt lat="43.72357" lon="4.92096">
        <ele>180.4</ele>
        <time>2025-11-12T12:57:38.035Z</time>
      </trkpt>
      <trkpt lat="43.72354" lon="4.92096">
        <ele>180.4</ele>
        <time>2025-11-12T12:57:40.034Z</time>
      </trkpt>
      <trkpt lat="43.72352" lon="4.92097">
        <ele>180.3</ele>
        <time>2025-11-12T12:57:43.035Z</time>
      </trkpt>
      <trkpt lat="43.72349" lon="4.92098">
        <ele>180.3</ele>
        <time>2025-11-12T12:57:45.035Z</time>
      </trkpt>
      <trkpt lat="43.72349" lon="4.92101">
        <ele>180.4</ele>
        <time>2025-11-12T12:57:49.035Z</time>
      </trkpt>
      <trkpt lat="43.72349" lon="4.92104">
        <ele>180.6</ele>
        <time>2025-11-12T12:57:52.034Z</time>
      </trkpt>
      <trkpt lat="43.72347" lon="4.92108">
        <ele>180.8</ele>
        <time>2025-11-12T12:57:56.034Z</time>
      </trkpt>
      <trkpt lat="43.72346" lon="4.92111">
        <ele>181.1</ele>
        <time>2025-11-12T12:58:01.035Z</time>
      </trkpt>
      <trkpt lat="43.72344" lon="4.92112">
        <ele>181.4</ele>
        <time>2025-11-12T12:58:09.034Z</time>
      </trkpt>
      <trkpt lat="43.72342" lon="4.92114">
        <ele>182</ele>
        <time>2025-11-12T12:58:15.034Z</time>
      </trkpt>
      <trkpt lat="43.72339" lon="4.92114">
        <ele>182.3</ele>
        <time>2025-11-12T12:58:19.034Z</time>
      </trkpt>
      <trkpt lat="43.72337" lon="4.92117">
        <ele>183.1</ele>
        <time>2025-11-12T12:58:23.035Z</time>
      </trkpt>
      <trkpt lat="43.72335" lon="4.92118">
        <ele>183.5</ele>
        <time>2025-11-12T12:58:28.035Z</time>
      </trkpt>
      <trkpt lat="43.72334" lon="4.92121">
        <ele>184.3</ele>
        <time>2025-11-12T12:58:32.034Z</time>
      </trkpt>
      <trkpt lat="43.72331" lon="4.92121">
        <ele>184.8</ele>
        <time>2025-11-12T12:58:36.034Z</time>
      </trkpt>
      <trkpt lat="43.7233" lon="4.92123">
        <ele>185.7</ele>
        <time>2025-11-12T12:58:41.035Z</time>
      </trkpt>
      <trkpt lat="43.72328" lon="4.92126">
        <ele>186.8</ele>
        <time>2025-11-12T12:58:49.035Z</time>
      </trkpt>
      <trkpt lat="43.72327" lon="4.92129">
        <ele>187.7</ele>
        <time>2025-11-12T12:59:00.035Z</time>
      </trkpt>
      <trkpt lat="43.72325" lon="4.92131">
        <ele>188.6</ele>
        <time>2025-11-12T12:59:08.035Z</time>
      </trkpt>
      <trkpt lat="43.72324" lon="4.92134">
        <ele>189.7</ele>
        <time>2025-11-12T12:59:19.034Z</time>
      </trkpt>
      <trkpt lat="43.72321" lon="4.92136">
        <ele>190.7</ele>
        <time>2025-11-12T12:59:26.034Z</time>
      </trkpt>
      <trkpt lat="43.72321" lon="4.92139">
        <ele>191.6</ele>
        <time>2025-11-12T12:59:33.035Z</time>
      </trkpt>
      <trkpt lat="43.7232" lon="4.92142">
        <ele>192.3</ele>
        <time>2025-11-12T12:59:41.034Z</time>
      </trkpt>
      <trkpt lat="43.72319" lon="4.92145">
        <ele>192.8</ele>
        <time>2025-11-12T12:59:46.034Z</time>
      </trkpt>
      <trkpt lat="43.72317" lon="4.92147">
        <ele>193.6</ele>
        <time>2025-11-12T12:59:53.034Z</time>
      </trkpt>
      <trkpt lat="43.72316" lon="4.9215">
        <ele>194.5</ele>
        <time>2025-11-12T12:59:58.034Z</time>
      </trkpt>
      <trkpt lat="43.72314" lon="4.92152">
        <ele>195.4</ele>
        <time>2025-11-12T13:00:06.035Z</time>
      </trkpt>
      <trkpt lat="43.72312" lon="4.92154">
        <ele>196.4</ele>
        <time>2025-11-12T13:00:12.035Z</time>
      </trkpt>
      <trkpt lat="43.7231" lon="4.92156">
        <ele>197.5</ele>
        <time>2025-11-12T13:00:18.035Z</time>
      </trkpt>
      <trkpt lat="43.7231" lon="4.9216">
        <ele>197.9</ele>
        <time>2025-11-12T13:00:23.035Z</time>
      </trkpt>
      <trkpt lat="43.72309" lon="4.92162">
        <ele>199</ele>
        <time>2025-11-12T13:00:32.035Z</time>
      </trkpt>
      <trkpt lat="43.72307" lon="4.92165">
        <ele>200</ele>
        <time>2025-11-12T13:00:38.034Z</time>
      </trkpt>
      <trkpt lat="43.72306" lon="4.92167">
        <ele>200.9</ele>
        <time>2025-11-12T13:00:43.035Z</time>
      </trkpt>
      <trkpt lat="43.72303" lon="4.92169">
        <ele>201.2</ele>
        <time>2025-11-12T13:00:46.034Z</time>
      </trkpt>
      <trkpt lat="43.72301" lon="4.92169">
        <ele>201.5</ele>
        <time>2025-11-12T13:00:54.035Z</time>
      </trkpt>
      <trkpt lat="43.72298" lon="4.9217">
        <ele>201.9</ele>
        <time>2025-11-12T13:00:59.035Z</time>
      </trkpt>
      <trkpt lat="43.72296" lon="4.92173">
        <ele>202.2</ele>
        <time>2025-11-12T13:01:03.034Z</time>
      </trkpt>
      <trkpt lat="43.72293" lon="4.92174">
        <ele>202.7</ele>
        <time>2025-11-12T13:01:08.034Z</time>
      </trkpt>
      <trkpt lat="43.72291" lon="4.92177">
        <ele>203.1</ele>
        <time>2025-11-12T13:01:12.035Z</time>
      </trkpt>
      <trkpt lat="43.72289" lon="4.92178">
        <ele>203.7</ele>
        <time>2025-11-12T13:01:16.034Z</time>
      </trkpt>
      <trkpt lat="43.72286" lon="4.92179">
        <ele>204.4</ele>
        <time>2025-11-12T13:01:25.034Z</time>
      </trkpt>
      <trkpt lat="43.72284" lon="4.92181">
        <ele>205</ele>
        <time>2025-11-12T13:01:29.035Z</time>
      </trkpt>
      <trkpt lat="43.72282" lon="4.92182">
        <ele>205.6</ele>
        <time>2025-11-12T13:02:01.034Z</time>
      </trkpt>
      <trkpt lat="43.72279" lon="4.92183">
        <ele>206.5</ele>
        <time>2025-11-12T13:02:05.034Z</time>
      </trkpt>
      <trkpt lat="43.72277" lon="4.92185">
        <ele>207.2</ele>
        <time>2025-11-12T13:02:09.034Z</time>
      </trkpt>
      <trkpt lat="43.72274" lon="4.92186">
        <ele>208</ele>
        <time>2025-11-12T13:02:13.035Z</time>
      </trkpt>
      <trkpt lat="43.72272" lon="4.92187">
        <ele>208.7</ele>
        <time>2025-11-12T13:02:19.035Z</time>
      </trkpt>
      <trkpt lat="43.7227" lon="4.92188">
        <ele>209.5</ele>
        <time>2025-11-12T13:02:21.034Z</time>
      </trkpt>
      <trkpt lat="43.72267" lon="4.92187">
        <ele>210.2</ele>
        <time>2025-11-12T13:02:24.034Z</time>
      </trkpt>
      <trkpt lat="43.72264" lon="4.92187">
        <ele>211</ele>
        <time>2025-11-12T13:02:29.034Z</time>
      </trkpt>
      <trkpt lat="43.72261" lon="4.92188">
        <ele>211.8</ele>
        <time>2025-11-12T13:02:35.034Z</time>
      </trkpt>
      <trkpt lat="43.72259" lon="4.92188">
        <ele>212.5</ele>
        <time>2025-11-12T13:02:40.035Z</time>
      </trkpt>
      <trkpt lat="43.72257" lon="4.92189">
        <ele>213.1</ele>
        <time>2025-11-12T13:02:45.034Z</time>
      </trkpt>
      <trkpt lat="43.72255" lon="4.92187">
        <ele>213.7</ele>
        <time>2025-11-12T13:03:10.034Z</time>
      </trkpt>
      <trkpt lat="43.72252" lon="4.92187">
        <ele>214.5</ele>
        <time>2025-11-12T13:03:29.035Z</time>
      </trkpt>
      <trkpt lat="43.72249" lon="4.92186">
        <ele>215.1</ele>
        <time>2025-11-12T13:03:39.034Z</time>
      </trkpt>
      <trkpt lat="43.72247" lon="4.92185">
        <ele>215.6</ele>
        <time>2025-11-12T13:03:46.034Z</time>
      </trkpt>
      <trkpt lat="43.72245" lon="4.92183">
        <ele>215.9</ele>
        <time>2025-11-12T13:03:51.034Z</time>
      </trkpt>
      <trkpt lat="43.72243" lon="4.92182">
        <ele>216.3</ele>
        <time>2025-11-12T13:03:56.034Z</time>
      </trkpt>
      <trkpt lat="43.7224" lon="4.92182">
        <ele>216.8</ele>
        <time>2025-11-12T13:04:00.034Z</time>
      </trkpt>
      <trkpt lat="43.72238" lon="4.92183">
        <ele>217.2</ele>
        <time>2025-11-12T13:04:04.035Z</time>
      </trkpt>
      <trkpt lat="43.72236" lon="4.92184">
        <ele>217.8</ele>
        <time>2025-11-12T13:04:07.034Z</time>
      </trkpt>
      <trkpt lat="43.72234" lon="4.92186">
        <ele>218.5</ele>
        <time>2025-11-12T13:04:10.035Z</time>
      </trkpt>
      <trkpt lat="43.72232" lon="4.92189">
        <ele>219.4</ele>
        <time>2025-11-12T13:04:14.035Z</time>
      </trkpt>
      <trkpt lat="43.7223" lon="4.92192">
        <ele>220.3</ele>
        <time>2025-11-12T13:04:17.034Z</time>
      </trkpt>
      <trkpt lat="43.72228" lon="4.92195">
        <ele>221.3</ele>
        <time>2025-11-12T13:04:20.034Z</time>
      </trkpt>
      <trkpt lat="43.72226" lon="4.92197">
        <ele>221.6</ele>
        <time>2025-11-12T13:04:23.034Z</time>
      </trkpt>
      <trkpt lat="43.72224" lon="4.922">
        <ele>221.8</ele>
        <time>2025-11-12T13:04:27.034Z</time>
      </trkpt>
      <trkpt lat="43.72222" lon="4.92204">
        <ele>222</ele>
        <time>2025-11-12T13:04:32.035Z</time>
      </trkpt>
      <trkpt lat="43.7222" lon="4.92207">
        <ele>221.7</ele>
        <time>2025-11-12T13:04:35.034Z</time>
      </trkpt>
      <trkpt lat="43.72218" lon="4.92209">
        <ele>221.6</ele>
        <time>2025-11-12T13:04:38.035Z</time>
      </trkpt>
      <trkpt lat="43.72215" lon="4.92211">
        <ele>221.6</ele>
        <time>2025-11-12T13:04:41.034Z</time>
      </trkpt>
      <trkpt lat="43.72213" lon="4.92213">
        <ele>221.8</ele>
        <time>2025-11-12T13:04:44.034Z</time>
      </trkpt>
      <trkpt lat="43.72211" lon="4.92214">
        <ele>222</ele>
        <time>2025-11-12T13:04:48.034Z</time>
      </trkpt>
      <trkpt lat="43.72209" lon="4.92217">
        <ele>222.4</ele>
        <time>2025-11-12T13:04:52.035Z</time>
      </trkpt>
      <trkpt lat="43.72208" lon="4.92221">
        <ele>223</ele>
        <time>2025-11-12T13:04:56.034Z</time>
      </trkpt>
      <trkpt lat="43.72206" lon="4.92223">
        <ele>223.5</ele>
        <time>2025-11-12T13:04:59.034Z</time>
      </trkpt>
      <trkpt lat="43.72204" lon="4.92225">
        <ele>223.5</ele>
        <time>2025-11-12T13:05:02.034Z</time>
      </trkpt>
      <trkpt lat="43.72202" lon="4.92227">
        <ele>223.9</ele>
        <time>2025-11-12T13:05:04.035Z</time>
      </trkpt>
      <trkpt lat="43.722" lon="4.92229">
        <ele>224.2</ele>
        <time>2025-11-12T13:05:06.035Z</time>
      </trkpt>
      <trkpt lat="43.72197" lon="4.9223">
        <ele>224.7</ele>
        <time>2025-11-12T13:05:09.034Z</time>
      </trkpt>
      <trkpt lat="43.72195" lon="4.92232">
        <ele>225.2</ele>
        <time>2025-11-12T13:05:12.035Z</time>
      </trkpt>
      <trkpt lat="43.72193" lon="4.92234">
        <ele>225.3</ele>
        <time>2025-11-12T13:05:17.034Z</time>
      </trkpt>
      <trkpt lat="43.72191" lon="4.92235">
        <ele>225.6</ele>
        <time>2025-11-12T13:05:20.034Z</time>
      </trkpt>
      <trkpt lat="43.72189" lon="4.92237">
        <ele>225.8</ele>
        <time>2025-11-12T13:05:23.034Z</time>
      </trkpt>
      <trkpt lat="43.72186" lon="4.92239">
        <ele>226.3</ele>
        <time>2025-11-12T13:05:29.035Z</time>
      </trkpt>
      <trkpt lat="43.72184" lon="4.92241">
        <ele>226.7</ele>
        <time>2025-11-12T13:05:33.035Z</time>
      </trkpt>
      <trkpt lat="43.72182" lon="4.92243">
        <ele>227.3</ele>
        <time>2025-11-12T13:05:37.034Z</time>
      </trkpt>
      <trkpt lat="43.72181" lon="4.92246">
        <ele>227.9</ele>
        <time>2025-11-12T13:05:41.034Z</time>
      </trkpt>
      <trkpt lat="43.7218" lon="4.92249">
        <ele>228.5</ele>
        <time>2025-11-12T13:05:47.034Z</time>
      </trkpt>
      <trkpt lat="43.72178" lon="4.92252">
        <ele>229.3</ele>
        <time>2025-11-12T13:05:52.035Z</time>
      </trkpt>
      <trkpt lat="43.72176" lon="4.92254">
        <ele>229.9</ele>
        <time>2025-11-12T13:06:00.035Z</time>
      </trkpt>
      <trkpt lat="43.72174" lon="4.92257">
        <ele>230.8</ele>
        <time>2025-11-12T13:06:06.034Z</time>
      </trkpt>
      <trkpt lat="43.72172" lon="4.9226">
        <ele>231.6</ele>
        <time>2025-11-12T13:06:10.034Z</time>
      </trkpt>
      <trkpt lat="43.7217" lon="4.92262">
        <ele>232.7</ele>
        <time>2025-11-12T13:06:16.034Z</time>
      </trkpt>
      <trkpt lat="43.72168" lon="4.92265">
        <ele>233.4</ele>
        <time>2025-11-12T13:06:21.035Z</time>
      </trkpt>
      <trkpt lat="43.72166" lon="4.92267">
        <ele>234.2</ele>
        <time>2025-11-12T13:06:24.034Z</time>
      </trkpt>
      <trkpt lat="43.72164" lon="4.92269">
        <ele>234.2</ele>
        <time>2025-11-12T13:06:28.034Z</time>
      </trkpt>
      <trkpt lat="43.72162" lon="4.92272">
        <ele>234.4</ele>
        <time>2025-11-12T13:06:32.035Z</time>
      </trkpt>
      <trkpt lat="43.7216" lon="4.92275">
        <ele>234.7</ele>
        <time>2025-11-12T13:06:37.034Z</time>
      </trkpt>
      <trkpt lat="43.72159" lon="4.92277">
        <ele>234.9</ele>
        <time>2025-11-12T13:06:40.034Z</time>
      </trkpt>
      <trkpt lat="43.72157" lon="4.92279">
        <ele>234.9</ele>
        <time>2025-11-12T13:06:43.034Z</time>
      </trkpt>
      <trkpt lat="43.72155" lon="4.92281">
        <ele>234.7</ele>
        <time>2025-11-12T13:06:46.035Z</time>
      </trkpt>
      <trkpt lat="43.72153" lon="4.92284">
        <ele>234.7</ele>
        <time>2025-11-12T13:06:49.034Z</time>
      </trkpt>
      <trkpt lat="43.72151" lon="4.92287">
        <ele>234.7</ele>
        <time>2025-11-12T13:06:51.035Z</time>
      </trkpt>
      <trkpt lat="43.72149" lon="4.92289">
        <ele>234.9</ele>
        <time>2025-11-12T13:06:54.034Z</time>
      </trkpt>
      <trkpt lat="43.72146" lon="4.9229">
        <ele>235.3</ele>
        <time>2025-11-12T13:06:58.035Z</time>
      </trkpt>
      <trkpt lat="43.72145" lon="4.92293">
        <ele>235.7</ele>
        <time>2025-11-12T13:07:02.035Z</time>
      </trkpt>
      <trkpt lat="43.72142" lon="4.92296">
        <ele>236.2</ele>
        <time>2025-11-12T13:07:05.034Z</time>
      </trkpt>
      <trkpt lat="43.72141" lon="4.923">
        <ele>236.8</ele>
        <time>2025-11-12T13:07:08.035Z</time>
      </trkpt>
      <trkpt lat="43.72138" lon="4.92302">
        <ele>237.5</ele>
        <time>2025-11-12T13:07:11.034Z</time>
      </trkpt>
      <trkpt lat="43.72136" lon="4.92304">
        <ele>237.3</ele>
        <time>2025-11-12T13:07:13.034Z</time>
      </trkpt>
      <trkpt lat="43.72134" lon="4.92307">
        <ele>236.9</ele>
        <time>2025-11-12T13:07:16.034Z</time>
      </trkpt>
      <trkpt lat="43.72134" lon="4.92311">
        <ele>236</ele>
        <time>2025-11-12T13:07:19.034Z</time>
      </trkpt>
      <trkpt lat="43.72132" lon="4.92314">
        <ele>235.4</ele>
        <time>2025-11-12T13:07:22.034Z</time>
      </trkpt>
      <trkpt lat="43.72129" lon="4.92317">
        <ele>235</ele>
        <time>2025-11-12T13:07:25.034Z</time>
      </trkpt>
      <trkpt lat="43.72128" lon="4.92319">
        <ele>234.7</ele>
        <time>2025-11-12T13:07:27.034Z</time>
      </trkpt>
      <trkpt lat="43.72126" lon="4.92323">
        <ele>234.5</ele>
        <time>2025-11-12T13:07:30.034Z</time>
      </trkpt>
      <trkpt lat="43.72124" lon="4.92326">
        <ele>234.5</ele>
        <time>2025-11-12T13:07:32.034Z</time>
      </trkpt>
      <trkpt lat="43.72122" lon="4.92329">
        <ele>234.6</ele>
        <time>2025-11-12T13:07:35.034Z</time>
      </trkpt>
      <trkpt lat="43.7212" lon="4.92331">
        <ele>235</ele>
        <time>2025-11-12T13:07:38.035Z</time>
      </trkpt>
      <trkpt lat="43.72119" lon="4.92334">
        <ele>235.1</ele>
        <time>2025-11-12T13:07:41.034Z</time>
      </trkpt>
      <trkpt lat="43.72117" lon="4.92337">
        <ele>235.3</ele>
        <time>2025-11-12T13:07:44.034Z</time>
      </trkpt>
      <trkpt lat="43.72116" lon="4.9234">
        <ele>235.4</ele>
        <time>2025-11-12T13:07:47.034Z</time>
      </trkpt>
      <trkpt lat="43.72114" lon="4.92342">
        <ele>235.6</ele>
        <time>2025-11-12T13:07:50.034Z</time>
      </trkpt>
      <trkpt lat="43.72113" lon="4.92345">
        <ele>235.6</ele>
        <time>2025-11-12T13:07:52.035Z</time>
      </trkpt>
      <trkpt lat="43.72111" lon="4.92348">
        <ele>235.9</ele>
        <time>2025-11-12T13:07:54.034Z</time>
      </trkpt>
      <trkpt lat="43.72109" lon="4.92351">
        <ele>235.6</ele>
        <time>2025-11-12T13:07:57.034Z</time>
      </trkpt>
      <trkpt lat="43.72107" lon="4.92353">
        <ele>235.3</ele>
        <time>2025-11-12T13:08:00.034Z</time>
      </trkpt>
      <trkpt lat="43.72106" lon="4.92357">
        <ele>235.2</ele>
        <time>2025-11-12T13:08:03.034Z</time>
      </trkpt>
      <trkpt lat="43.72105" lon="4.9236">
        <ele>235.2</ele>
        <time>2025-11-12T13:08:06.034Z</time>
      </trkpt>
      <trkpt lat="43.72103" lon="4.92362">
        <ele>235.2</ele>
        <time>2025-11-12T13:08:09.035Z</time>
      </trkpt>
      <trkpt lat="43.72101" lon="4.92365">
        <ele>235.2</ele>
        <time>2025-11-12T13:08:12.035Z</time>
      </trkpt>
      <trkpt lat="43.72099" lon="4.92367">
        <ele>235.3</ele>
        <time>2025-11-12T13:08:15.035Z</time>
      </trkpt>
      <trkpt lat="43.72097" lon="4.9237">
        <ele>235.6</ele>
        <time>2025-11-12T13:08:18.034Z</time>
      </trkpt>
      <trkpt lat="43.72094" lon="4.92372">
        <ele>236</ele>
        <time>2025-11-12T13:08:21.034Z</time>
      </trkpt>
      <trkpt lat="43.72092" lon="4.92374">
        <ele>236.6</ele>
        <time>2025-11-12T13:08:24.034Z</time>
      </trkpt>
      <trkpt lat="43.7209" lon="4.92377">
        <ele>237.3</ele>
        <time>2025-11-12T13:08:28.035Z</time>
      </trkpt>
      <trkpt lat="43.72089" lon="4.92381">
        <ele>237.9</ele>
        <time>2025-11-12T13:08:33.034Z</time>
      </trkpt>
      <trkpt lat="43.72086" lon="4.92384">
        <ele>239.2</ele>
        <time>2025-11-12T13:08:39.034Z</time>
      </trkpt>
      <trkpt lat="43.72084" lon="4.92387">
        <ele>240.6</ele>
        <time>2025-11-12T13:08:45.034Z</time>
      </trkpt>
      <trkpt lat="43.72082" lon="4.9239">
        <ele>240.9</ele>
        <time>2025-11-12T13:08:47.034Z</time>
      </trkpt>
      <trkpt lat="43.7208" lon="4.92393">
        <ele>240.6</ele>
        <time>2025-11-12T13:08:51.034Z</time>
      </trkpt>
      <trkpt lat="43.72078" lon="4.92396">
        <ele>240.5</ele>
        <time>2025-11-12T13:08:55.035Z</time>
      </trkpt>
      <trkpt lat="43.72076" lon="4.92396">
        <ele>240.4</ele>
        <time>2025-11-12T13:11:44.035Z</time>
      </trkpt>
      <trkpt lat="43.72075" lon="4.924">
        <ele>240.3</ele>
        <time>2025-11-12T13:11:49.034Z</time>
      </trkpt>
      <trkpt lat="43.72073" lon="4.92402">
        <ele>240.2</ele>
        <time>2025-11-12T13:11:54.034Z</time>
      </trkpt>
      <trkpt lat="43.72071" lon="4.92405">
        <ele>240.2</ele>
        <time>2025-11-12T13:12:07.034Z</time>
      </trkpt>
      <trkpt lat="43.72069" lon="4.92408">
        <ele>240.2</ele>
        <time>2025-11-12T13:12:15.034Z</time>
      </trkpt>
      <trkpt lat="43.72067" lon="4.9241">
        <ele>240.2</ele>
        <time>2025-11-12T13:12:20.035Z</time>
      </trkpt>
      <trkpt lat="43.72066" lon="4.92413">
        <ele>240.3</ele>
        <time>2025-11-12T13:12:24.034Z</time>
      </trkpt>
      <trkpt lat="43.72064" lon="4.92416">
        <ele>240.4</ele>
        <time>2025-11-12T13:12:33.034Z</time>
      </trkpt>
      <trkpt lat="43.72062" lon="4.92418">
        <ele>240.3</ele>
        <time>2025-11-12T13:12:36.034Z</time>
      </trkpt>
      <trkpt lat="43.72062" lon="4.92422">
        <ele>239.9</ele>
        <time>2025-11-12T13:12:41.034Z</time>
      </trkpt>
      <trkpt lat="43.72061" lon="4.92425">
        <ele>239.6</ele>
        <time>2025-11-12T13:12:44.034Z</time>
      </trkpt>
      <trkpt lat="43.72059" lon="4.92429">
        <ele>239.3</ele>
        <time>2025-11-12T13:12:47.034Z</time>
      </trkpt>
      <trkpt lat="43.72058" lon="4.92432">
        <ele>239.1</ele>
        <time>2025-11-12T13:12:51.034Z</time>
      </trkpt>
      <trkpt lat="43.72058" lon="4.92435">
        <ele>238.7</ele>
        <time>2025-11-12T13:12:54.034Z</time>
      </trkpt>
      <trkpt lat="43.72058" lon="4.92438">
        <ele>238.3</ele>
        <time>2025-11-12T13:12:56.034Z</time>
      </trkpt>
      <trkpt lat="43.72058" lon="4.92442">
        <ele>237.9</ele>
        <time>2025-11-12T13:12:58.034Z</time>
      </trkpt>
      <trkpt lat="43.72058" lon="4.92446">
        <ele>237.6</ele>
        <time>2025-11-12T13:13:00.034Z</time>
      </trkpt>
      <trkpt lat="43.72058" lon="4.92449">
        <ele>237.6</ele>
        <time>2025-11-12T13:13:02.035Z</time>
      </trkpt>
      <trkpt lat="43.72059" lon="4.92453">
        <ele>237.4</ele>
        <time>2025-11-12T13:13:05.034Z</time>
      </trkpt>
      <trkpt lat="43.72059" lon="4.92457">
        <ele>237.4</ele>
        <time>2025-11-12T13:13:09.035Z</time>
      </trkpt>
      <trkpt lat="43.7206" lon="4.92462">
        <ele>237.2</ele>
        <time>2025-11-12T13:13:12.034Z</time>
      </trkpt>
      <trkpt lat="43.7206" lon="4.92465">
        <ele>237.2</ele>
        <time>2025-11-12T13:13:15.034Z</time>
      </trkpt>
      <trkpt lat="43.72059" lon="4.92468">
        <ele>237.4</ele>
        <time>2025-11-12T13:13:18.034Z</time>
      </trkpt>
      <trkpt lat="43.72059" lon="4.92471">
        <ele>237.4</ele>
        <time>2025-11-12T13:13:21.034Z</time>
      </trkpt>
      <trkpt lat="43.72058" lon="4.92474">
        <ele>237.4</ele>
        <time>2025-11-12T13:13:24.035Z</time>
      </trkpt>
      <trkpt lat="43.72058" lon="4.92478">
        <ele>237.5</ele>
        <time>2025-11-12T13:13:27.034Z</time>
      </trkpt>
      <trkpt lat="43.72057" lon="4.92482">
        <ele>237.8</ele>
        <time>2025-11-12T13:13:31.034Z</time>
      </trkpt>
      <trkpt lat="43.72056" lon="4.92485">
        <ele>237.9</ele>
        <time>2025-11-12T13:13:34.034Z</time>
      </trkpt>
      <trkpt lat="43.72056" lon="4.92489">
        <ele>238</ele>
        <time>2025-11-12T13:13:37.035Z</time>
      </trkpt>
      <trkpt lat="43.72055" lon="4.92491">
        <ele>238</ele>
        <time>2025-11-12T13:13:39.034Z</time>
      </trkpt>
      <trkpt lat="43.72054" lon="4.92495">
        <ele>238</ele>
        <time>2025-11-12T13:13:41.034Z</time>
      </trkpt>
      <trkpt lat="43.72053" lon="4.92497">
        <ele>238.1</ele>
        <time>2025-11-12T13:13:43.034Z</time>
      </trkpt>
      <trkpt lat="43.72051" lon="4.925">
        <ele>238.2</ele>
        <time>2025-11-12T13:13:45.034Z</time>
      </trkpt>
      <trkpt lat="43.72048" lon="4.92501">
        <ele>238.3</ele>
        <time>2025-11-12T13:13:47.034Z</time>
      </trkpt>
      <trkpt lat="43.72046" lon="4.92503">
        <ele>238.6</ele>
        <time>2025-11-12T13:13:49.034Z</time>
      </trkpt>
      <trkpt lat="43.72043" lon="4.92505">
        <ele>238.7</ele>
        <time>2025-11-12T13:13:52.034Z</time>
      </trkpt>
      <trkpt lat="43.72041" lon="4.92506">
        <ele>238.8</ele>
        <time>2025-11-12T13:13:54.034Z</time>
      </trkpt>
      <trkpt lat="43.72039" lon="4.92508">
        <ele>239</ele>
        <time>2025-11-12T13:13:56.034Z</time>
      </trkpt>
      <trkpt lat="43.72036" lon="4.9251">
        <ele>239</ele>
        <time>2025-11-12T13:13:58.034Z</time>
      </trkpt>
      <trkpt lat="43.72034" lon="4.92511">
        <ele>239</ele>
        <time>2025-11-12T13:14:01.034Z</time>
      </trkpt>
      <trkpt lat="43.72031" lon="4.92512">
        <ele>239</ele>
        <time>2025-11-12T13:14:03.034Z</time>
      </trkpt>
      <trkpt lat="43.72029" lon="4.92513">
        <ele>239</ele>
        <time>2025-11-12T13:14:05.034Z</time>
      </trkpt>
      <trkpt lat="43.72026" lon="4.92514">
        <ele>238.8</ele>
        <time>2025-11-12T13:14:07.034Z</time>
      </trkpt>
      <trkpt lat="43.72024" lon="4.92515">
        <ele>238.5</ele>
        <time>2025-11-12T13:14:09.034Z</time>
      </trkpt>
      <trkpt lat="43.72022" lon="4.92516">
        <ele>238.2</ele>
        <time>2025-11-12T13:14:11.033Z</time>
      </trkpt>
      <trkpt lat="43.72019" lon="4.92519">
        <ele>237.8</ele>
        <time>2025-11-12T13:14:14.034Z</time>
      </trkpt>
      <trkpt lat="43.72017" lon="4.92521">
        <ele>237.6</ele>
        <time>2025-11-12T13:14:16.034Z</time>
      </trkpt>
      <trkpt lat="43.72015" lon="4.92523">
        <ele>237.4</ele>
        <time>2025-11-12T13:14:18.034Z</time>
      </trkpt>
      <trkpt lat="43.72012" lon="4.92526">
        <ele>237.2</ele>
        <time>2025-11-12T13:14:21.034Z</time>
      </trkpt>
      <trkpt lat="43.72011" lon="4.92528">
        <ele>237.2</ele>
        <time>2025-11-12T13:14:23.034Z</time>
      </trkpt>
      <trkpt lat="43.72009" lon="4.92531">
        <ele>237.1</ele>
        <time>2025-11-12T13:14:27.034Z</time>
      </trkpt>
      <trkpt lat="43.72007" lon="4.92534">
        <ele>237</ele>
        <time>2025-11-12T13:14:30.034Z</time>
      </trkpt>
      <trkpt lat="43.72005" lon="4.92537">
        <ele>236.9</ele>
        <time>2025-11-12T13:14:33.034Z</time>
      </trkpt>
      <trkpt lat="43.72003" lon="4.9254">
        <ele>236.9</ele>
        <time>2025-11-12T13:14:36.034Z</time>
      </trkpt>
      <trkpt lat="43.72002" lon="4.92543">
        <ele>236.8</ele>
        <time>2025-11-12T13:14:39.034Z</time>
      </trkpt>
      <trkpt lat="43.72" lon="4.92546">
        <ele>236.6</ele>
        <time>2025-11-12T13:14:42.034Z</time>
      </trkpt>
      <trkpt lat="43.71998" lon="4.92549">
        <ele>236.6</ele>
        <time>2025-11-12T13:14:45.034Z</time>
      </trkpt>
      <trkpt lat="43.71995" lon="4.92551">
        <ele>236.7</ele>
        <time>2025-11-12T13:14:49.034Z</time>
      </trkpt>
      <trkpt lat="43.71993" lon="4.92553">
        <ele>236.8</ele>
        <time>2025-11-12T13:14:52.034Z</time>
      </trkpt>
      <trkpt lat="43.71991" lon="4.92554">
        <ele>236.9</ele>
        <time>2025-11-12T13:14:54.034Z</time>
      </trkpt>
      <trkpt lat="43.71989" lon="4.92554">
        <ele>236.8</ele>
        <time>2025-11-12T13:14:57.035Z</time>
      </trkpt>
      <trkpt lat="43.71986" lon="4.92554">
        <ele>236.8</ele>
        <time>2025-11-12T13:15:06.034Z</time>
      </trkpt>
      <trkpt lat="43.71983" lon="4.92553">
        <ele>236.6</ele>
        <time>2025-11-12T13:15:50.034Z</time>
      </trkpt>
      <trkpt lat="43.7198" lon="4.92554">
        <ele>236.8</ele>
        <time>2025-11-12T13:16:00.034Z</time>
      </trkpt>
      <trkpt lat="43.71978" lon="4.92555">
        <ele>237</ele>
        <time>2025-11-12T13:16:04.034Z</time>
      </trkpt>
      <trkpt lat="43.71975" lon="4.92556">
        <ele>236.9</ele>
        <time>2025-11-12T13:16:09.034Z</time>
      </trkpt>
      <trkpt lat="43.71973" lon="4.92555">
        <ele>236.8</ele>
        <time>2025-11-12T13:16:11.034Z</time>
      </trkpt>
      <trkpt lat="43.7197" lon="4.92556">
        <ele>236.7</ele>
        <time>2025-11-12T13:16:14.034Z</time>
      </trkpt>
      <trkpt lat="43.71967" lon="4.92558">
        <ele>236</ele>
        <time>2025-11-12T13:16:17.034Z</time>
      </trkpt>
      <trkpt lat="43.71965" lon="4.92558">
        <ele>235.7</ele>
        <time>2025-11-12T13:16:19.034Z</time>
      </trkpt>
      <trkpt lat="43.71963" lon="4.9256">
        <ele>235.3</ele>
        <time>2025-11-12T13:16:21.034Z</time>
      </trkpt>
      <trkpt lat="43.71961" lon="4.92561">
        <ele>235</ele>
        <time>2025-11-12T13:16:24.034Z</time>
      </trkpt>
      <trkpt lat="43.71958" lon="4.92562">
        <ele>234.6</ele>
        <time>2025-11-12T13:16:27.034Z</time>
      </trkpt>
      <trkpt lat="43.71955" lon="4.92563">
        <ele>234.3</ele>
        <time>2025-11-12T13:16:30.034Z</time>
      </trkpt>
      <trkpt lat="43.71952" lon="4.92564">
        <ele>234.1</ele>
        <time>2025-11-12T13:16:33.034Z</time>
      </trkpt>
      <trkpt lat="43.71949" lon="4.92565">
        <ele>234</ele>
        <time>2025-11-12T13:16:36.034Z</time>
      </trkpt>
      <trkpt lat="43.71947" lon="4.92566">
        <ele>233.9</ele>
        <time>2025-11-12T13:16:39.034Z</time>
      </trkpt>
      <trkpt lat="43.71945" lon="4.92567">
        <ele>233.8</ele>
        <time>2025-11-12T13:16:43.034Z</time>
      </trkpt>
      <trkpt lat="43.71942" lon="4.92569">
        <ele>233.7</ele>
        <time>2025-11-12T13:16:46.034Z</time>
      </trkpt>
      <trkpt lat="43.7194" lon="4.92569">
        <ele>233.4</ele>
        <time>2025-11-12T13:16:49.034Z</time>
      </trkpt>
      <trkpt lat="43.71937" lon="4.9257">
        <ele>233.2</ele>
        <time>2025-11-12T13:16:54.034Z</time>
      </trkpt>
      <trkpt lat="43.71935" lon="4.9257">
        <ele>233</ele>
        <time>2025-11-12T13:17:03.034Z</time>
      </trkpt>
      <trkpt lat="43.71932" lon="4.92571">
        <ele>232.8</ele>
        <time>2025-11-12T13:17:08.034Z</time>
      </trkpt>
      <trkpt lat="43.7193" lon="4.9257">
        <ele>232.5</ele>
        <time>2025-11-12T13:17:13.034Z</time>
      </trkpt>
      <trkpt lat="43.71927" lon="4.92569">
        <ele>232.1</ele>
        <time>2025-11-12T13:17:18.034Z</time>
      </trkpt>
      <trkpt lat="43.71924" lon="4.92567">
        <ele>231.5</ele>
        <time>2025-11-12T13:17:24.034Z</time>
      </trkpt>
      <trkpt lat="43.71922" lon="4.92566">
        <ele>231.1</ele>
        <time>2025-11-12T13:17:27.034Z</time>
      </trkpt>
      <trkpt lat="43.71919" lon="4.92565">
        <ele>230.7</ele>
        <time>2025-11-12T13:17:30.034Z</time>
      </trkpt>
      <trkpt lat="43.71917" lon="4.92566">
        <ele>230.5</ele>
        <time>2025-11-12T13:17:35.034Z</time>
      </trkpt>
      <trkpt lat="43.71914" lon="4.92565">
        <ele>229.9</ele>
        <time>2025-11-12T13:17:39.034Z</time>
      </trkpt>
      <trkpt lat="43.71912" lon="4.92564">
        <ele>229.4</ele>
        <time>2025-11-12T13:17:42.034Z</time>
      </trkpt>
      <trkpt lat="43.7191" lon="4.92562">
        <ele>228.9</ele>
        <time>2025-11-12T13:17:46.034Z</time>
      </trkpt>
      <trkpt lat="43.71907" lon="4.92561">
        <ele>228.4</ele>
        <time>2025-11-12T13:17:51.034Z</time>
      </trkpt>
      <trkpt lat="43.71905" lon="4.9256">
        <ele>228</ele>
        <time>2025-11-12T13:17:55.034Z</time>
      </trkpt>
      <trkpt lat="43.71902" lon="4.92559">
        <ele>227.6</ele>
        <time>2025-11-12T13:17:58.034Z</time>
      </trkpt>
      <trkpt lat="43.719" lon="4.92556">
        <ele>227.2</ele>
        <time>2025-11-12T13:18:01.034Z</time>
      </trkpt>
      <trkpt lat="43.71897" lon="4.92556">
        <ele>226.9</ele>
        <time>2025-11-12T13:18:04.034Z</time>
      </trkpt>
      <trkpt lat="43.71894" lon="4.92556">
        <ele>226.6</ele>
        <time>2025-11-12T13:18:08.034Z</time>
      </trkpt>
      <trkpt lat="43.71892" lon="4.92556">
        <ele>226.3</ele>
        <time>2025-11-12T13:18:10.034Z</time>
      </trkpt>
      <trkpt lat="43.71889" lon="4.92557">
        <ele>226</ele>
        <time>2025-11-12T13:18:13.034Z</time>
      </trkpt>
      <trkpt lat="43.71887" lon="4.92559">
        <ele>225.9</ele>
        <time>2025-11-12T13:18:16.034Z</time>
      </trkpt>
      <trkpt lat="43.71884" lon="4.9256">
        <ele>225.7</ele>
        <time>2025-11-12T13:18:19.034Z</time>
      </trkpt>
      <trkpt lat="43.71881" lon="4.9256">
        <ele>225.6</ele>
        <time>2025-11-12T13:18:22.034Z</time>
      </trkpt>
      <trkpt lat="43.71879" lon="4.92561">
        <ele>225.5</ele>
        <time>2025-11-12T13:18:24.034Z</time>
      </trkpt>
      <trkpt lat="43.71876" lon="4.92563">
        <ele>225.3</ele>
        <time>2025-11-12T13:18:27.034Z</time>
      </trkpt>
      <trkpt lat="43.71873" lon="4.92561">
        <ele>225.3</ele>
        <time>2025-11-12T13:18:30.034Z</time>
      </trkpt>
      <trkpt lat="43.71871" lon="4.92561">
        <ele>225.4</ele>
        <time>2025-11-12T13:18:33.034Z</time>
      </trkpt>
      <trkpt lat="43.71868" lon="4.9256">
        <ele>225.4</ele>
        <time>2025-11-12T13:18:37.034Z</time>
      </trkpt>
      <trkpt lat="43.71865" lon="4.92559">
        <ele>225.4</ele>
        <time>2025-11-12T13:18:40.034Z</time>
      </trkpt>
      <trkpt lat="43.71862" lon="4.9256">
        <ele>225.2</ele>
        <time>2025-11-12T13:18:42.034Z</time>
      </trkpt>
      <trkpt lat="43.7186" lon="4.92561">
        <ele>225</ele>
        <time>2025-11-12T13:18:44.034Z</time>
      </trkpt>
      <trkpt lat="43.71856" lon="4.92561">
        <ele>224.9</ele>
        <time>2025-11-12T13:18:47.034Z</time>
      </trkpt>
      <trkpt lat="43.71853" lon="4.92561">
        <ele>224.8</ele>
        <time>2025-11-12T13:18:50.034Z</time>
      </trkpt>
      <trkpt lat="43.7185" lon="4.92562">
        <ele>224.5</ele>
        <time>2025-11-12T13:18:53.034Z</time>
      </trkpt>
      <trkpt lat="43.71848" lon="4.92564">
        <ele>224.1</ele>
        <time>2025-11-12T13:18:55.034Z</time>
      </trkpt>
      <trkpt lat="43.71846" lon="4.92566">
        <ele>223.8</ele>
        <time>2025-11-12T13:18:58.034Z</time>
      </trkpt>
      <trkpt lat="43.71843" lon="4.92568">
        <ele>223.4</ele>
        <time>2025-11-12T13:19:01.034Z</time>
      </trkpt>
      <trkpt lat="43.71841" lon="4.92568">
        <ele>223.3</ele>
        <time>2025-11-12T13:19:04.034Z</time>
      </trkpt>
      <trkpt lat="43.71838" lon="4.92568">
        <ele>223.3</ele>
        <time>2025-11-12T13:19:06.034Z</time>
      </trkpt>
      <trkpt lat="43.71835" lon="4.92568">
        <ele>223.3</ele>
        <time>2025-11-12T13:19:08.034Z</time>
      </trkpt>
      <trkpt lat="43.71833" lon="4.92566">
        <ele>223.4</ele>
        <time>2025-11-12T13:19:11.034Z</time>
      </trkpt>
      <trkpt lat="43.7183" lon="4.92565">
        <ele>223.5</ele>
        <time>2025-11-12T13:19:14.034Z</time>
      </trkpt>
      <trkpt lat="43.71828" lon="4.92566">
        <ele>223.2</ele>
        <time>2025-11-12T13:19:17.034Z</time>
      </trkpt>
      <trkpt lat="43.71825" lon="4.92566">
        <ele>223</ele>
        <time>2025-11-12T13:19:20.034Z</time>
      </trkpt>
      <trkpt lat="43.71822" lon="4.92565">
        <ele>222.9</ele>
        <time>2025-11-12T13:19:22.034Z</time>
      </trkpt>
      <trkpt lat="43.71819" lon="4.92567">
        <ele>222.6</ele>
        <time>2025-11-12T13:19:25.034Z</time>
      </trkpt>
      <trkpt lat="43.71817" lon="4.92567">
        <ele>222.4</ele>
        <time>2025-11-12T13:19:28.034Z</time>
      </trkpt>
      <trkpt lat="43.71814" lon="4.92565">
        <ele>222.5</ele>
        <time>2025-11-12T13:19:31.034Z</time>
      </trkpt>
      <trkpt lat="43.71812" lon="4.92562">
        <ele>222.7</ele>
        <time>2025-11-12T13:19:34.034Z</time>
      </trkpt>
      <trkpt lat="43.71809" lon="4.92559">
        <ele>222.8</ele>
        <time>2025-11-12T13:19:42.034Z</time>
      </trkpt>
      <trkpt lat="43.71807" lon="4.92556">
        <ele>223.1</ele>
        <time>2025-11-12T13:19:48.034Z</time>
      </trkpt>
      <trkpt lat="43.71807" lon="4.92552">
        <ele>221.8</ele>
        <time>2025-11-12T13:19:54.034Z</time>
      </trkpt>
      <trkpt lat="43.71805" lon="4.92549">
        <ele>220.7</ele>
        <time>2025-11-12T13:20:05.034Z</time>
      </trkpt>
      <trkpt lat="43.71804" lon="4.92546">
        <ele>219.7</ele>
        <time>2025-11-12T13:20:09.034Z</time>
      </trkpt>
      <trkpt lat="43.71803" lon="4.92542">
        <ele>218.3</ele>
        <time>2025-11-12T13:20:20.034Z</time>
      </trkpt>
      <trkpt lat="43.71801" lon="4.92539">
        <ele>217.2</ele>
        <time>2025-11-12T13:20:23.034Z</time>
      </trkpt>
      <trkpt lat="43.71798" lon="4.92536">
        <ele>216.1</ele>
        <time>2025-11-12T13:20:26.034Z</time>
      </trkpt>
      <trkpt lat="43.71797" lon="4.92534">
        <ele>215.3</ele>
        <time>2025-11-12T13:20:29.034Z</time>
      </trkpt>
      <trkpt lat="43.71794" lon="4.92532">
        <ele>214.7</ele>
        <time>2025-11-12T13:20:32.034Z</time>
      </trkpt>
      <trkpt lat="43.71792" lon="4.92529">
        <ele>213.9</ele>
        <time>2025-11-12T13:20:35.034Z</time>
      </trkpt>
      <trkpt lat="43.7179" lon="4.92526">
        <ele>213.2</ele>
        <time>2025-11-12T13:20:39.034Z</time>
      </trkpt>
      <trkpt lat="43.71788" lon="4.92524">
        <ele>212.8</ele>
        <time>2025-11-12T13:20:42.034Z</time>
      </trkpt>
      <trkpt lat="43.71786" lon="4.92521">
        <ele>212.5</ele>
        <time>2025-11-12T13:20:45.034Z</time>
      </trkpt>
      <trkpt lat="43.71786" lon="4.92516">
        <ele>212</ele>
        <time>2025-11-12T13:20:48.034Z</time>
      </trkpt>
      <trkpt lat="43.71785" lon="4.92513">
        <ele>211.8</ele>
        <time>2025-11-12T13:20:50.034Z</time>
      </trkpt>
      <trkpt lat="43.71784" lon="4.92509">
        <ele>211.6</ele>
        <time>2025-11-12T13:20:53.034Z</time>
      </trkpt>
      <trkpt lat="43.71782" lon="4.92506">
        <ele>211.5</ele>
        <time>2025-11-12T13:20:56.034Z</time>
      </trkpt>
      <trkpt lat="43.71781" lon="4.92502">
        <ele>211.4</ele>
        <time>2025-11-12T13:21:00.034Z</time>
      </trkpt>
      <trkpt lat="43.71779" lon="4.925">
        <ele>211.7</ele>
        <time>2025-11-12T13:21:04.034Z</time>
      </trkpt>
      <trkpt lat="43.71779" lon="4.92497">
        <ele>211.5</ele>
        <time>2025-11-12T13:21:40.034Z</time>
      </trkpt>
      <trkpt lat="43.71777" lon="4.92493">
        <ele>211.1</ele>
        <time>2025-11-12T13:24:14.034Z</time>
      </trkpt>
      <trkpt lat="43.71773" lon="4.92493">
        <ele>210.5</ele>
        <time>2025-11-12T13:24:18.033Z</time>
      </trkpt>
      <trkpt lat="43.7177" lon="4.92491">
        <ele>209.8</ele>
        <time>2025-11-12T13:24:27.034Z</time>
      </trkpt>
      <trkpt lat="43.71768" lon="4.9249">
        <ele>209.2</ele>
        <time>2025-11-12T13:24:32.034Z</time>
      </trkpt>
      <trkpt lat="43.71766" lon="4.92488">
        <ele>208.7</ele>
        <time>2025-11-12T13:24:37.034Z</time>
      </trkpt>
      <trkpt lat="43.71763" lon="4.92488">
        <ele>208.2</ele>
        <time>2025-11-12T13:24:41.034Z</time>
      </trkpt>
      <trkpt lat="43.7176" lon="4.92488">
        <ele>207.8</ele>
        <time>2025-11-12T13:24:47.033Z</time>
      </trkpt>
      <trkpt lat="43.71757" lon="4.92487">
        <ele>207.1</ele>
        <time>2025-11-12T13:24:54.034Z</time>
      </trkpt>
      <trkpt lat="43.71754" lon="4.92486">
        <ele>206.7</ele>
        <time>2025-11-12T13:24:57.034Z</time>
      </trkpt>
      <trkpt lat="43.71751" lon="4.92485">
        <ele>206.2</ele>
        <time>2025-11-12T13:25:00.034Z</time>
      </trkpt>
      <trkpt lat="43.71748" lon="4.92485">
        <ele>205.5</ele>
        <time>2025-11-12T13:25:05.034Z</time>
      </trkpt>
      <trkpt lat="43.71745" lon="4.92486">
        <ele>204.7</ele>
        <time>2025-11-12T13:25:12.034Z</time>
      </trkpt>
      <trkpt lat="43.71742" lon="4.92486">
        <ele>204</ele>
        <time>2025-11-12T13:25:16.034Z</time>
      </trkpt>
      <trkpt lat="43.7174" lon="4.92487">
        <ele>203.4</ele>
        <time>2025-11-12T13:25:20.034Z</time>
      </trkpt>
      <trkpt lat="43.71737" lon="4.92486">
        <ele>202.5</ele>
        <time>2025-11-12T13:25:25.034Z</time>
      </trkpt>
      <trkpt lat="43.71735" lon="4.92488">
        <ele>202</ele>
        <time>2025-11-12T13:25:30.033Z</time>
      </trkpt>
      <trkpt lat="43.71732" lon="4.92489">
        <ele>201.5</ele>
        <time>2025-11-12T13:25:35.034Z</time>
      </trkpt>
      <trkpt lat="43.7173" lon="4.92487">
        <ele>200.7</ele>
        <time>2025-11-12T13:25:39.034Z</time>
      </trkpt>
      <trkpt lat="43.71727" lon="4.92489">
        <ele>200.1</ele>
        <time>2025-11-12T13:25:47.034Z</time>
      </trkpt>
      <trkpt lat="43.71725" lon="4.92488">
        <ele>199.4</ele>
        <time>2025-11-12T13:25:54.034Z</time>
      </trkpt>
      <trkpt lat="43.71723" lon="4.9249">
        <ele>199</ele>
        <time>2025-11-12T13:25:59.034Z</time>
      </trkpt>
      <trkpt lat="43.7172" lon="4.9249">
        <ele>198.1</ele>
        <time>2025-11-12T13:26:04.034Z</time>
      </trkpt>
      <trkpt lat="43.71717" lon="4.9249">
        <ele>197.1</ele>
        <time>2025-11-12T13:26:19.034Z</time>
      </trkpt>
      <trkpt lat="43.71715" lon="4.9249">
        <ele>196.2</ele>
        <time>2025-11-12T13:26:22.034Z</time>
      </trkpt>
      <trkpt lat="43.71711" lon="4.92491">
        <ele>194.9</ele>
        <time>2025-11-12T13:26:31.034Z</time>
      </trkpt>
      <trkpt lat="43.71708" lon="4.92491">
        <ele>193.8</ele>
        <time>2025-11-12T13:26:36.033Z</time>
      </trkpt>
      <trkpt lat="43.71705" lon="4.92492">
        <ele>193</ele>
        <time>2025-11-12T13:26:40.033Z</time>
      </trkpt>
      <trkpt lat="43.71703" lon="4.92492">
        <ele>192.1</ele>
        <time>2025-11-12T13:26:43.034Z</time>
      </trkpt>
      <trkpt lat="43.71701" lon="4.92494">
        <ele>191.5</ele>
        <time>2025-11-12T13:26:47.034Z</time>
      </trkpt>
      <trkpt lat="43.71698" lon="4.92494">
        <ele>190.5</ele>
        <time>2025-11-12T13:26:51.034Z</time>
      </trkpt>
      <trkpt lat="43.71695" lon="4.92493">
        <ele>189.6</ele>
        <time>2025-11-12T13:26:55.034Z</time>
      </trkpt>
      <trkpt lat="43.71692" lon="4.92493">
        <ele>188.7</ele>
        <time>2025-11-12T13:27:09.034Z</time>
      </trkpt>
      <trkpt lat="43.7169" lon="4.92495">
        <ele>188.3</ele>
        <time>2025-11-12T13:27:13.034Z</time>
      </trkpt>
      <trkpt lat="43.71687" lon="4.92497">
        <ele>187.6</ele>
        <time>2025-11-12T13:27:16.034Z</time>
      </trkpt>
      <trkpt lat="43.71685" lon="4.92499">
        <ele>187.2</ele>
        <time>2025-11-12T13:27:22.034Z</time>
      </trkpt>
      <trkpt lat="43.71683" lon="4.92501">
        <ele>186.7</ele>
        <time>2025-11-12T13:27:26.034Z</time>
      </trkpt>
      <trkpt lat="43.71679" lon="4.92501">
        <ele>185.7</ele>
        <time>2025-11-12T13:27:31.033Z</time>
      </trkpt>
      <trkpt lat="43.71677" lon="4.92502">
        <ele>185.2</ele>
        <time>2025-11-12T13:27:35.034Z</time>
      </trkpt>
      <trkpt lat="43.71674" lon="4.92502">
        <ele>184.5</ele>
        <time>2025-11-12T13:27:39.033Z</time>
      </trkpt>
      <trkpt lat="43.71672" lon="4.92502">
        <ele>183.7</ele>
        <time>2025-11-12T13:27:43.034Z</time>
      </trkpt>
      <trkpt lat="43.71669" lon="4.92502">
        <ele>183</ele>
        <time>2025-11-12T13:27:47.034Z</time>
      </trkpt>
      <trkpt lat="43.71667" lon="4.92502">
        <ele>182.4</ele>
        <time>2025-11-12T13:27:51.034Z</time>
      </trkpt>
      <trkpt lat="43.71664" lon="4.92502">
        <ele>182.1</ele>
        <time>2025-11-12T13:27:54.034Z</time>
      </trkpt>
      <trkpt lat="43.71662" lon="4.92502">
        <ele>181.9</ele>
        <time>2025-11-12T13:27:57.034Z</time>
      </trkpt>
      <trkpt lat="43.7166" lon="4.92499">
        <ele>181.6</ele>
        <time>2025-11-12T13:28:03.033Z</time>
      </trkpt>
      <trkpt lat="43.71657" lon="4.92498">
        <ele>181.5</ele>
        <time>2025-11-12T13:28:06.034Z</time>
      </trkpt>
      <trkpt lat="43.71654" lon="4.92499">
        <ele>181.3</ele>
        <time>2025-11-12T13:28:09.034Z</time>
      </trkpt>
      <trkpt lat="43.71652" lon="4.92501">
        <ele>181.1</ele>
        <time>2025-11-12T13:28:13.033Z</time>
      </trkpt>
      <trkpt lat="43.71649" lon="4.92504">
        <ele>181.1</ele>
        <time>2025-11-12T13:28:16.033Z</time>
      </trkpt>
      <trkpt lat="43.71647" lon="4.92506">
        <ele>181.2</ele>
        <time>2025-11-12T13:28:19.034Z</time>
      </trkpt>
      <trkpt lat="43.71645" lon="4.92508">
        <ele>181.2</ele>
        <time>2025-11-12T13:28:22.034Z</time>
      </trkpt>
      <trkpt lat="43.71642" lon="4.92508">
        <ele>180.9</ele>
        <time>2025-11-12T13:28:25.034Z</time>
      </trkpt>
      <trkpt lat="43.7164" lon="4.92511">
        <ele>180.9</ele>
        <time>2025-11-12T13:28:29.034Z</time>
      </trkpt>
      <trkpt lat="43.71637" lon="4.9251">
        <ele>180.5</ele>
        <time>2025-11-12T13:28:34.034Z</time>
      </trkpt>
      <trkpt lat="43.71635" lon="4.92512">
        <ele>180.2</ele>
        <time>2025-11-12T13:28:43.034Z</time>
      </trkpt>
      <trkpt lat="43.71632" lon="4.92511">
        <ele>179.8</ele>
        <time>2025-11-12T13:28:45.033Z</time>
      </trkpt>
      <trkpt lat="43.71629" lon="4.92511">
        <ele>179.4</ele>
        <time>2025-11-12T13:28:48.034Z</time>
      </trkpt>
      <trkpt lat="43.71626" lon="4.9251">
        <ele>179</ele>
        <time>2025-11-12T13:28:51.034Z</time>
      </trkpt>
      <trkpt lat="43.71623" lon="4.92509">
        <ele>178.6</ele>
        <time>2025-11-12T13:28:54.034Z</time>
      </trkpt>
      <trkpt lat="43.7162" lon="4.9251">
        <ele>178.2</ele>
        <time>2025-11-12T13:28:58.034Z</time>
      </trkpt>
      <trkpt lat="43.71617" lon="4.9251">
        <ele>177.8</ele>
        <time>2025-11-12T13:29:01.034Z</time>
      </trkpt>
      <trkpt lat="43.71614" lon="4.92509">
        <ele>177.4</ele>
        <time>2025-11-12T13:29:05.033Z</time>
      </trkpt>
      <trkpt lat="43.71612" lon="4.9251">
        <ele>177.2</ele>
        <time>2025-11-12T13:29:09.033Z</time>
      </trkpt>
      <trkpt lat="43.71609" lon="4.92509">
        <ele>177.2</ele>
        <time>2025-11-12T13:29:11.034Z</time>
      </trkpt>
      <trkpt lat="43.71607" lon="4.9251">
        <ele>177.6</ele>
        <time>2025-11-12T13:29:14.034Z</time>
      </trkpt>
      <trkpt lat="43.71603" lon="4.92511">
        <ele>177.8</ele>
        <time>2025-11-12T13:29:17.034Z</time>
      </trkpt>
      <trkpt lat="43.716" lon="4.92513">
        <ele>177.9</ele>
        <time>2025-11-12T13:29:20.034Z</time>
      </trkpt>
      <trkpt lat="43.71598" lon="4.92515">
        <ele>177.8</ele>
        <time>2025-11-12T13:29:23.034Z</time>
      </trkpt>
      <trkpt lat="43.71595" lon="4.92517">
        <ele>177.5</ele>
        <time>2025-11-12T13:29:26.034Z</time>
      </trkpt>
      <trkpt lat="43.71594" lon="4.9252">
        <ele>177</ele>
        <time>2025-11-12T13:29:29.034Z</time>
      </trkpt>
      <trkpt lat="43.71592" lon="4.92523">
        <ele>176.2</ele>
        <time>2025-11-12T13:29:32.034Z</time>
      </trkpt>
      <trkpt lat="43.71591" lon="4.92526">
        <ele>175.4</ele>
        <time>2025-11-12T13:29:38.034Z</time>
      </trkpt>
      <trkpt lat="43.71589" lon="4.92528">
        <ele>174.7</ele>
        <time>2025-11-12T13:29:41.034Z</time>
      </trkpt>
      <trkpt lat="43.71587" lon="4.92531">
        <ele>174.6</ele>
        <time>2025-11-12T13:29:44.034Z</time>
      </trkpt>
      <trkpt lat="43.71586" lon="4.92535">
        <ele>174.7</ele>
        <time>2025-11-12T13:29:47.034Z</time>
      </trkpt>
      <trkpt lat="43.71585" lon="4.92538">
        <ele>174.6</ele>
        <time>2025-11-12T13:29:51.033Z</time>
      </trkpt>
      <trkpt lat="43.71582" lon="4.9254">
        <ele>174.6</ele>
        <time>2025-11-12T13:29:55.034Z</time>
      </trkpt>
      <trkpt lat="43.71579" lon="4.92541">
        <ele>174.9</ele>
        <time>2025-11-12T13:29:58.034Z</time>
      </trkpt>
      <trkpt lat="43.71577" lon="4.92543">
        <ele>175</ele>
        <time>2025-11-12T13:30:01.034Z</time>
      </trkpt>
      <trkpt lat="43.71575" lon="4.92546">
        <ele>174.8</ele>
        <time>2025-11-12T13:30:04.034Z</time>
      </trkpt>
      <trkpt lat="43.71572" lon="4.92548">
        <ele>174.6</ele>
        <time>2025-11-12T13:30:07.033Z</time>
      </trkpt>
      <trkpt lat="43.71569" lon="4.92549">
        <ele>174.3</ele>
        <time>2025-11-12T13:30:10.034Z</time>
      </trkpt>
      <trkpt lat="43.71567" lon="4.9255">
        <ele>174.1</ele>
        <time>2025-11-12T13:30:13.034Z</time>
      </trkpt>
      <trkpt lat="43.71564" lon="4.92549">
        <ele>174</ele>
        <time>2025-11-12T13:30:16.034Z</time>
      </trkpt>
      <trkpt lat="43.71562" lon="4.9255">
        <ele>173.7</ele>
        <time>2025-11-12T13:30:18.034Z</time>
      </trkpt>
      <trkpt lat="43.71559" lon="4.92551">
        <ele>173.1</ele>
        <time>2025-11-12T13:30:21.033Z</time>
      </trkpt>
      <trkpt lat="43.71557" lon="4.92555">
        <ele>171.4</ele>
        <time>2025-11-12T13:30:24.034Z</time>
      </trkpt>
      <trkpt lat="43.71555" lon="4.92557">
        <ele>171.2</ele>
        <time>2025-11-12T13:30:27.034Z</time>
      </trkpt>
      <trkpt lat="43.71552" lon="4.9256">
        <ele>171.6</ele>
        <time>2025-11-12T13:30:30.033Z</time>
      </trkpt>
      <trkpt lat="43.71549" lon="4.92561">
        <ele>171.7</ele>
        <time>2025-11-12T13:30:34.034Z</time>
      </trkpt>
      <trkpt lat="43.71547" lon="4.92562">
        <ele>171.8</ele>
        <time>2025-11-12T13:30:37.034Z</time>
      </trkpt>
      <trkpt lat="43.71544" lon="4.92563">
        <ele>171.9</ele>
        <time>2025-11-12T13:30:40.034Z</time>
      </trkpt>
      <trkpt lat="43.71542" lon="4.92565">
        <ele>172</ele>
        <time>2025-11-12T13:30:43.034Z</time>
      </trkpt>
      <trkpt lat="43.7154" lon="4.92565">
        <ele>172</ele>
        <time>2025-11-12T13:30:45.034Z</time>
      </trkpt>
      <trkpt lat="43.71537" lon="4.92565">
        <ele>171.8</ele>
        <time>2025-11-12T13:30:47.033Z</time>
      </trkpt>
      <trkpt lat="43.71534" lon="4.92566">
        <ele>171.8</ele>
        <time>2025-11-12T13:30:49.034Z</time>
      </trkpt>
      <trkpt lat="43.71532" lon="4.92565">
        <ele>171.5</ele>
        <time>2025-11-12T13:30:51.034Z</time>
      </trkpt>
      <trkpt lat="43.71529" lon="4.92566">
        <ele>171.5</ele>
        <time>2025-11-12T13:30:58.034Z</time>
      </trkpt>
      <trkpt lat="43.71526" lon="4.92565">
        <ele>171.4</ele>
        <time>2025-11-12T13:31:01.033Z</time>
      </trkpt>
      <trkpt lat="43.71524" lon="4.92564">
        <ele>171.2</ele>
        <time>2025-11-12T13:31:03.033Z</time>
      </trkpt>
      <trkpt lat="43.71521" lon="4.92563">
        <ele>171.1</ele>
        <time>2025-11-12T13:31:06.034Z</time>
      </trkpt>
      <trkpt lat="43.71518" lon="4.92561">
        <ele>171.1</ele>
        <time>2025-11-12T13:31:09.033Z</time>
      </trkpt>
      <trkpt lat="43.71514" lon="4.92562">
        <ele>171.2</ele>
        <time>2025-11-12T13:31:15.034Z</time>
      </trkpt>
      <trkpt lat="43.71511" lon="4.92563">
        <ele>171.3</ele>
        <time>2025-11-12T13:31:19.034Z</time>
      </trkpt>
      <trkpt lat="43.71509" lon="4.92564">
        <ele>171.3</ele>
        <time>2025-11-12T13:31:23.034Z</time>
      </trkpt>
      <trkpt lat="43.71506" lon="4.92565">
        <ele>171.3</ele>
        <time>2025-11-12T13:31:26.033Z</time>
      </trkpt>
      <trkpt lat="43.71504" lon="4.92568">
        <ele>171.2</ele>
        <time>2025-11-12T13:31:28.034Z</time>
      </trkpt>
      <trkpt lat="43.71502" lon="4.92569">
        <ele>171.1</ele>
        <time>2025-11-12T13:31:30.034Z</time>
      </trkpt>
      <trkpt lat="43.71499" lon="4.92571">
        <ele>170.8</ele>
        <time>2025-11-12T13:31:33.033Z</time>
      </trkpt>
      <trkpt lat="43.71497" lon="4.9257">
        <ele>170.6</ele>
        <time>2025-11-12T13:31:35.033Z</time>
      </trkpt>
      <trkpt lat="43.71494" lon="4.92572">
        <ele>170.2</ele>
        <time>2025-11-12T13:31:40.034Z</time>
      </trkpt>
      <trkpt lat="43.71492" lon="4.92573">
        <ele>169.9</ele>
        <time>2025-11-12T13:31:44.034Z</time>
      </trkpt>
      <trkpt lat="43.71489" lon="4.92573">
        <ele>169.5</ele>
        <time>2025-11-12T13:31:49.034Z</time>
      </trkpt>
      <trkpt lat="43.71487" lon="4.92573">
        <ele>169.2</ele>
        <time>2025-11-12T13:31:53.034Z</time>
      </trkpt>
      <trkpt lat="43.71485" lon="4.92575">
        <ele>168.7</ele>
        <time>2025-11-12T13:31:57.033Z</time>
      </trkpt>
      <trkpt lat="43.71483" lon="4.92578">
        <ele>168</ele>
        <time>2025-11-12T13:31:59.034Z</time>
      </trkpt>
      <trkpt lat="43.71481" lon="4.9258">
        <ele>167.4</ele>
        <time>2025-11-12T13:32:02.034Z</time>
      </trkpt>
      <trkpt lat="43.71478" lon="4.9258">
        <ele>166.7</ele>
        <time>2025-11-12T13:32:04.034Z</time>
      </trkpt>
      <trkpt lat="43.71474" lon="4.92579">
        <ele>166.4</ele>
        <time>2025-11-12T13:32:07.033Z</time>
      </trkpt>
      <trkpt lat="43.71472" lon="4.92579">
        <ele>166</ele>
        <time>2025-11-12T13:32:10.034Z</time>
      </trkpt>
      <trkpt lat="43.71469" lon="4.92578">
        <ele>166.1</ele>
        <time>2025-11-12T13:32:13.034Z</time>
      </trkpt>
      <trkpt lat="43.71466" lon="4.92576">
        <ele>166.3</ele>
        <time>2025-11-12T13:32:16.034Z</time>
      </trkpt>
      <trkpt lat="43.71464" lon="4.92575">
        <ele>166.3</ele>
        <time>2025-11-12T13:32:18.034Z</time>
      </trkpt>
      <trkpt lat="43.71461" lon="4.92574">
        <ele>166.4</ele>
        <time>2025-11-12T13:32:21.034Z</time>
      </trkpt>
      <trkpt lat="43.71459" lon="4.92573">
        <ele>166.6</ele>
        <time>2025-11-12T13:32:24.034Z</time>
      </trkpt>
      <trkpt lat="43.71457" lon="4.92572">
        <ele>166.5</ele>
        <time>2025-11-12T13:32:27.034Z</time>
      </trkpt>
      <trkpt lat="43.71455" lon="4.9257">
        <ele>166.9</ele>
        <time>2025-11-12T13:32:31.034Z</time>
      </trkpt>
      <trkpt lat="43.71453" lon="4.92569">
        <ele>166.9</ele>
        <time>2025-11-12T13:32:34.034Z</time>
      </trkpt>
      <trkpt lat="43.71451" lon="4.9257">
        <ele>166.4</ele>
        <time>2025-11-12T13:32:37.034Z</time>
      </trkpt>
      <trkpt lat="43.71448" lon="4.92573">
        <ele>165.6</ele>
        <time>2025-11-12T13:32:40.034Z</time>
      </trkpt>
      <trkpt lat="43.71446" lon="4.92575">
        <ele>164.9</ele>
        <time>2025-11-12T13:32:44.034Z</time>
      </trkpt>
      <trkpt lat="43.71445" lon="4.92579">
        <ele>164</ele>
        <time>2025-11-12T13:32:48.034Z</time>
      </trkpt>
      <trkpt lat="43.71443" lon="4.92581">
        <ele>163.6</ele>
        <time>2025-11-12T13:32:51.033Z</time>
      </trkpt>
      <trkpt lat="43.7144" lon="4.92581">
        <ele>163.7</ele>
        <time>2025-11-12T13:32:54.034Z</time>
      </trkpt>
      <trkpt lat="43.71437" lon="4.92581">
        <ele>163.9</ele>
        <time>2025-11-12T13:32:57.033Z</time>
      </trkpt>
      <trkpt lat="43.71434" lon="4.92579">
        <ele>164.3</ele>
        <time>2025-11-12T13:33:00.034Z</time>
      </trkpt>
      <trkpt lat="43.71431" lon="4.92577">
        <ele>164.7</ele>
        <time>2025-11-12T13:33:06.034Z</time>
      </trkpt>
      <trkpt lat="43.71429" lon="4.92575">
        <ele>164.9</ele>
        <time>2025-11-12T13:33:08.033Z</time>
      </trkpt>
      <trkpt lat="43.71426" lon="4.92574">
        <ele>165</ele>
        <time>2025-11-12T13:33:11.034Z</time>
      </trkpt>
      <trkpt lat="43.71424" lon="4.92574">
        <ele>165</ele>
        <time>2025-11-12T13:33:14.034Z</time>
      </trkpt>
      <trkpt lat="43.71422" lon="4.92572">
        <ele>165.1</ele>
        <time>2025-11-12T13:33:17.033Z</time>
      </trkpt>
      <trkpt lat="43.71419" lon="4.92572">
        <ele>165</ele>
        <time>2025-11-12T13:33:19.034Z</time>
      </trkpt>
      <trkpt lat="43.71417" lon="4.9257">
        <ele>165</ele>
        <time>2025-11-12T13:33:21.034Z</time>
      </trkpt>
      <trkpt lat="43.71414" lon="4.9257">
        <ele>165</ele>
        <time>2025-11-12T13:33:24.033Z</time>
      </trkpt>
      <trkpt lat="43.71413" lon="4.92567">
        <ele>164.9</ele>
        <time>2025-11-12T13:33:27.033Z</time>
      </trkpt>
      <trkpt lat="43.71411" lon="4.92565">
        <ele>164.8</ele>
        <time>2025-11-12T13:33:31.034Z</time>
      </trkpt>
      <trkpt lat="43.71409" lon="4.92563">
        <ele>164.4</ele>
        <time>2025-11-12T13:33:35.034Z</time>
      </trkpt>
      <trkpt lat="43.71406" lon="4.92561">
        <ele>164.1</ele>
        <time>2025-11-12T13:33:38.034Z</time>
      </trkpt>
      <trkpt lat="43.71404" lon="4.92559">
        <ele>163.6</ele>
        <time>2025-11-12T13:33:42.034Z</time>
      </trkpt>
      <trkpt lat="43.71402" lon="4.92557">
        <ele>163.1</ele>
        <time>2025-11-12T13:33:46.034Z</time>
      </trkpt>
      <trkpt lat="43.71399" lon="4.92554">
        <ele>163</ele>
        <time>2025-11-12T13:33:49.034Z</time>
      </trkpt>
      <trkpt lat="43.71398" lon="4.92552">
        <ele>163.4</ele>
        <time>2025-11-12T13:33:52.034Z</time>
      </trkpt>
      <trkpt lat="43.71395" lon="4.92551">
        <ele>163.3</ele>
        <time>2025-11-12T13:33:55.034Z</time>
      </trkpt>
      <trkpt lat="43.71392" lon="4.9255">
        <ele>163.1</ele>
        <time>2025-11-12T13:33:58.034Z</time>
      </trkpt>
      <trkpt lat="43.71389" lon="4.92549">
        <ele>162.8</ele>
        <time>2025-11-12T13:34:03.033Z</time>
      </trkpt>
      <trkpt lat="43.71387" lon="4.92549">
        <ele>162.9</ele>
        <time>2025-11-12T13:34:06.034Z</time>
      </trkpt>
      <trkpt lat="43.71385" lon="4.92551">
        <ele>162.2</ele>
        <time>2025-11-12T13:34:10.033Z</time>
      </trkpt>
      <trkpt lat="43.71382" lon="4.92552">
        <ele>162</ele>
        <time>2025-11-12T13:34:14.034Z</time>
      </trkpt>
      <trkpt lat="43.71379" lon="4.92552">
        <ele>162.1</ele>
        <time>2025-11-12T13:34:17.034Z</time>
      </trkpt>
      <trkpt lat="43.71376" lon="4.92552">
        <ele>162.3</ele>
        <time>2025-11-12T13:34:21.034Z</time>
      </trkpt>
      <trkpt lat="43.71375" lon="4.92553">
        <ele>161.7</ele>
        <time>2025-11-12T13:34:23.033Z</time>
      </trkpt>
      <trkpt lat="43.71373" lon="4.92555">
        <ele>161.2</ele>
        <time>2025-11-12T13:34:26.034Z</time>
      </trkpt>
      <trkpt lat="43.71371" lon="4.92557">
        <ele>161.3</ele>
        <time>2025-11-12T13:34:29.033Z</time>
      </trkpt>
      <trkpt lat="43.71368" lon="4.92558">
        <ele>161.6</ele>
        <time>2025-11-12T13:34:31.034Z</time>
      </trkpt>
      <trkpt lat="43.71366" lon="4.92559">
        <ele>161.7</ele>
        <time>2025-11-12T13:34:34.034Z</time>
      </trkpt>
      <trkpt lat="43.71364" lon="4.92561">
        <ele>162</ele>
        <time>2025-11-12T13:34:38.033Z</time>
      </trkpt>
      <trkpt lat="43.71361" lon="4.92562">
        <ele>162.2</ele>
        <time>2025-11-12T13:34:41.034Z</time>
      </trkpt>
      <trkpt lat="43.71359" lon="4.92563">
        <ele>162.5</ele>
        <time>2025-11-12T13:34:44.034Z</time>
      </trkpt>
      <trkpt lat="43.71356" lon="4.92563">
        <ele>162.7</ele>
        <time>2025-11-12T13:34:47.033Z</time>
      </trkpt>
      <trkpt lat="43.71354" lon="4.92565">
        <ele>163</ele>
        <time>2025-11-12T13:34:49.033Z</time>
      </trkpt>
      <trkpt lat="43.71352" lon="4.92567">
        <ele>163.2</ele>
        <time>2025-11-12T13:34:52.034Z</time>
      </trkpt>
      <trkpt lat="43.71349" lon="4.92568">
        <ele>163.3</ele>
        <time>2025-11-12T13:34:55.034Z</time>
      </trkpt>
      <trkpt lat="43.71347" lon="4.9257">
        <ele>163.2</ele>
        <time>2025-11-12T13:34:58.033Z</time>
      </trkpt>
      <trkpt lat="43.71345" lon="4.92571">
        <ele>163.1</ele>
        <time>2025-11-12T13:35:01.033Z</time>
      </trkpt>
      <trkpt lat="43.71342" lon="4.92573">
        <ele>162.9</ele>
        <time>2025-11-12T13:35:04.034Z</time>
      </trkpt>
      <trkpt lat="43.71339" lon="4.92572">
        <ele>162.8</ele>
        <time>2025-11-12T13:35:07.033Z</time>
      </trkpt>
      <trkpt lat="43.71337" lon="4.92573">
        <ele>162.5</ele>
        <time>2025-11-12T13:35:10.034Z</time>
      </trkpt>
      <trkpt lat="43.71335" lon="4.92574">
        <ele>162.2</ele>
        <time>2025-11-12T13:35:13.033Z</time>
      </trkpt>
      <trkpt lat="43.71334" lon="4.92577">
        <ele>161.4</ele>
        <time>2025-11-12T13:35:16.033Z</time>
      </trkpt>
      <trkpt lat="43.71332" lon="4.92579">
        <ele>161.3</ele>
        <time>2025-11-12T13:35:18.033Z</time>
      </trkpt>
      <trkpt lat="43.7133" lon="4.9258">
        <ele>161.3</ele>
        <time>2025-11-12T13:35:21.033Z</time>
      </trkpt>
      <trkpt lat="43.71328" lon="4.92582">
        <ele>161.2</ele>
        <time>2025-11-12T13:35:24.034Z</time>
      </trkpt>
      <trkpt lat="43.71326" lon="4.92585">
        <ele>161.4</ele>
        <time>2025-11-12T13:35:27.033Z</time>
      </trkpt>
      <trkpt lat="43.71324" lon="4.92588">
        <ele>162.1</ele>
        <time>2025-11-12T13:35:31.033Z</time>
      </trkpt>
      <trkpt lat="43.71321" lon="4.92588">
        <ele>162.2</ele>
        <time>2025-11-12T13:35:34.033Z</time>
      </trkpt>
      <trkpt lat="43.71319" lon="4.92589">
        <ele>162.5</ele>
        <time>2025-11-12T13:35:36.034Z</time>
      </trkpt>
      <trkpt lat="43.71316" lon="4.92591">
        <ele>162.6</ele>
        <time>2025-11-12T13:35:39.033Z</time>
      </trkpt>
      <trkpt lat="43.71313" lon="4.92592">
        <ele>162.7</ele>
        <time>2025-11-12T13:35:43.034Z</time>
      </trkpt>
      <trkpt lat="43.71311" lon="4.92594">
        <ele>162.6</ele>
        <time>2025-11-12T13:35:47.034Z</time>
      </trkpt>
      <trkpt lat="43.71309" lon="4.92596">
        <ele>162.3</ele>
        <time>2025-11-12T13:35:51.034Z</time>
      </trkpt>
      <trkpt lat="43.71307" lon="4.92599">
        <ele>161.9</ele>
        <time>2025-11-12T13:35:55.034Z</time>
      </trkpt>
      <trkpt lat="43.71305" lon="4.92601">
        <ele>161.5</ele>
        <time>2025-11-12T13:36:00.034Z</time>
      </trkpt>
      <trkpt lat="43.71303" lon="4.92603">
        <ele>161.7</ele>
        <time>2025-11-12T13:36:04.034Z</time>
      </trkpt>
      <trkpt lat="43.71301" lon="4.92605">
        <ele>162.1</ele>
        <time>2025-11-12T13:36:08.034Z</time>
      </trkpt>
      <trkpt lat="43.71299" lon="4.92608">
        <ele>162</ele>
        <time>2025-11-12T13:36:11.033Z</time>
      </trkpt>
      <trkpt lat="43.71297" lon="4.92611">
        <ele>161.7</ele>
        <time>2025-11-12T13:36:14.034Z</time>
      </trkpt>
      <trkpt lat="43.71296" lon="4.92615">
        <ele>162.2</ele>
        <time>2025-11-12T13:36:18.034Z</time>
      </trkpt>
      <trkpt lat="43.71294" lon="4.92617">
        <ele>162.6</ele>
        <time>2025-11-12T13:36:21.034Z</time>
      </trkpt>
      <trkpt lat="43.71291" lon="4.92617">
        <ele>162.7</ele>
        <time>2025-11-12T13:36:24.034Z</time>
      </trkpt>
      <trkpt lat="43.71289" lon="4.92619">
        <ele>162.8</ele>
        <time>2025-11-12T13:36:27.034Z</time>
      </trkpt>
      <trkpt lat="43.71287" lon="4.92622">
        <ele>162.5</ele>
        <time>2025-11-12T13:36:30.033Z</time>
      </trkpt>
      <trkpt lat="43.71284" lon="4.92623">
        <ele>162.1</ele>
        <time>2025-11-12T13:36:33.034Z</time>
      </trkpt>
      <trkpt lat="43.71282" lon="4.92625">
        <ele>161.6</ele>
        <time>2025-11-12T13:36:35.033Z</time>
      </trkpt>
      <trkpt lat="43.7128" lon="4.92628">
        <ele>160.5</ele>
        <time>2025-11-12T13:36:38.034Z</time>
      </trkpt>
      <trkpt lat="43.71277" lon="4.92631">
        <ele>159.5</ele>
        <time>2025-11-12T13:36:41.034Z</time>
      </trkpt>
      <trkpt lat="43.71274" lon="4.92633">
        <ele>159.8</ele>
        <time>2025-11-12T13:36:44.034Z</time>
      </trkpt>
      <trkpt lat="43.71273" lon="4.92637">
        <ele>159.2</ele>
        <time>2025-11-12T13:36:47.033Z</time>
      </trkpt>
      <trkpt lat="43.71271" lon="4.9264">
        <ele>159.1</ele>
        <time>2025-11-12T13:36:50.033Z</time>
      </trkpt>
      <trkpt lat="43.71269" lon="4.92642">
        <ele>160</ele>
        <time>2025-11-12T13:36:53.034Z</time>
      </trkpt>
      <trkpt lat="43.71267" lon="4.92645">
        <ele>160.5</ele>
        <time>2025-11-12T13:36:55.034Z</time>
      </trkpt>
      <trkpt lat="43.71265" lon="4.92648">
        <ele>160.8</ele>
        <time>2025-11-12T13:36:58.033Z</time>
      </trkpt>
      <trkpt lat="43.71264" lon="4.92651">
        <ele>160.8</ele>
        <time>2025-11-12T13:37:01.034Z</time>
      </trkpt>
      <trkpt lat="43.71262" lon="4.92654">
        <ele>160.6</ele>
        <time>2025-11-12T13:37:05.034Z</time>
      </trkpt>
      <trkpt lat="43.7126" lon="4.92657">
        <ele>160</ele>
        <time>2025-11-12T13:37:09.033Z</time>
      </trkpt>
      <trkpt lat="43.71259" lon="4.9266">
        <ele>159.5</ele>
        <time>2025-11-12T13:37:12.034Z</time>
      </trkpt>
      <trkpt lat="43.71258" lon="4.92664">
        <ele>158.8</ele>
        <time>2025-11-12T13:37:15.034Z</time>
      </trkpt>
      <trkpt lat="43.71258" lon="4.92667">
        <ele>158.2</ele>
        <time>2025-11-12T13:37:17.033Z</time>
      </trkpt>
      <trkpt lat="43.71257" lon="4.92671">
        <ele>157.8</ele>
        <time>2025-11-12T13:37:20.034Z</time>
      </trkpt>
      <trkpt lat="43.71256" lon="4.92674">
        <ele>157.2</ele>
        <time>2025-11-12T13:37:23.033Z</time>
      </trkpt>
      <trkpt lat="43.71256" lon="4.92678">
        <ele>156.8</ele>
        <time>2025-11-12T13:37:26.033Z</time>
      </trkpt>
      <trkpt lat="43.71256" lon="4.92682">
        <ele>156.5</ele>
        <time>2025-11-12T13:37:28.033Z</time>
      </trkpt>
      <trkpt lat="43.71255" lon="4.92686">
        <ele>155.9</ele>
        <time>2025-11-12T13:37:31.034Z</time>
      </trkpt>
      <trkpt lat="43.71254" lon="4.9269">
        <ele>155.4</ele>
        <time>2025-11-12T13:37:35.034Z</time>
      </trkpt>
      <trkpt lat="43.71254" lon="4.92693">
        <ele>155</ele>
        <time>2025-11-12T13:37:38.034Z</time>
      </trkpt>
      <trkpt lat="43.71252" lon="4.92697">
        <ele>153.9</ele>
        <time>2025-11-12T13:37:41.033Z</time>
      </trkpt>
      <trkpt lat="43.71252" lon="4.92701">
        <ele>153.8</ele>
        <time>2025-11-12T13:37:44.034Z</time>
      </trkpt>
      <trkpt lat="43.71251" lon="4.92704">
        <ele>153.7</ele>
        <time>2025-11-12T13:37:46.034Z</time>
      </trkpt>
      <trkpt lat="43.71252" lon="4.92708">
        <ele>154.2</ele>
        <time>2025-11-12T13:37:49.033Z</time>
      </trkpt>
      <trkpt lat="43.71254" lon="4.92712">
        <ele>154.8</ele>
        <time>2025-11-12T13:37:52.034Z</time>
      </trkpt>
      <trkpt lat="43.71254" lon="4.92715">
        <ele>154.9</ele>
        <time>2025-11-12T13:37:55.034Z</time>
      </trkpt>
      <trkpt lat="43.71254" lon="4.92718">
        <ele>155.2</ele>
        <time>2025-11-12T13:37:58.034Z</time>
      </trkpt>
      <trkpt lat="43.71253" lon="4.92722">
        <ele>154.7</ele>
        <time>2025-11-12T13:38:01.034Z</time>
      </trkpt>
      <trkpt lat="43.71253" lon="4.92726">
        <ele>154.8</ele>
        <time>2025-11-12T13:38:04.033Z</time>
      </trkpt>
      <trkpt lat="43.71254" lon="4.92729">
        <ele>155.1</ele>
        <time>2025-11-12T13:38:07.034Z</time>
      </trkpt>
      <trkpt lat="43.71253" lon="4.92733">
        <ele>154.7</ele>
        <time>2025-11-12T13:38:10.034Z</time>
      </trkpt>
      <trkpt lat="43.71251" lon="4.92735">
        <ele>153.8</ele>
        <time>2025-11-12T13:38:12.033Z</time>
      </trkpt>
      <trkpt lat="43.7125" lon="4.92738">
        <ele>153.7</ele>
        <time>2025-11-12T13:38:15.033Z</time>
      </trkpt>
      <trkpt lat="43.7125" lon="4.92741">
        <ele>153.7</ele>
        <time>2025-11-12T13:38:18.034Z</time>
      </trkpt>
      <trkpt lat="43.71249" lon="4.92744">
        <ele>154.1</ele>
        <time>2025-11-12T13:38:20.033Z</time>
      </trkpt>
      <trkpt lat="43.71248" lon="4.92747">
        <ele>154.3</ele>
        <time>2025-11-12T13:38:22.034Z</time>
      </trkpt>
      <trkpt lat="43.71246" lon="4.92751">
        <ele>154.6</ele>
        <time>2025-11-12T13:38:25.034Z</time>
      </trkpt>
      <trkpt lat="43.71244" lon="4.92754">
        <ele>155</ele>
        <time>2025-11-12T13:38:28.033Z</time>
      </trkpt>
      <trkpt lat="43.71243" lon="4.92758">
        <ele>155.2</ele>
        <time>2025-11-12T13:38:31.033Z</time>
      </trkpt>
      <trkpt lat="43.71241" lon="4.9276">
        <ele>155.3</ele>
        <time>2025-11-12T13:38:33.034Z</time>
      </trkpt>
      <trkpt lat="43.7124" lon="4.92764">
        <ele>155.3</ele>
        <time>2025-11-12T13:38:36.033Z</time>
      </trkpt>
      <trkpt lat="43.7124" lon="4.92768">
        <ele>155.3</ele>
        <time>2025-11-12T13:38:39.034Z</time>
      </trkpt>
      <trkpt lat="43.71239" lon="4.92771">
        <ele>155.2</ele>
        <time>2025-11-12T13:38:42.034Z</time>
      </trkpt>
      <trkpt lat="43.71238" lon="4.92775">
        <ele>155</ele>
        <time>2025-11-12T13:38:45.034Z</time>
      </trkpt>
      <trkpt lat="43.71237" lon="4.92778">
        <ele>154.6</ele>
        <time>2025-11-12T13:38:47.034Z</time>
      </trkpt>
      <trkpt lat="43.71235" lon="4.9278">
        <ele>154.6</ele>
        <time>2025-11-12T13:38:49.034Z</time>
      </trkpt>
      <trkpt lat="43.71234" lon="4.92784">
        <ele>154.7</ele>
        <time>2025-11-12T13:38:51.033Z</time>
      </trkpt>
      <trkpt lat="43.71232" lon="4.92785">
        <ele>154.5</ele>
        <time>2025-11-12T13:38:54.033Z</time>
      </trkpt>
      <trkpt lat="43.71229" lon="4.92785">
        <ele>154</ele>
        <time>2025-11-12T13:38:57.034Z</time>
      </trkpt>
      <trkpt lat="43.71226" lon="4.92786">
        <ele>153.8</ele>
        <time>2025-11-12T13:38:59.034Z</time>
      </trkpt>
      <trkpt lat="43.71224" lon="4.92789">
        <ele>153.8</ele>
        <time>2025-11-12T13:39:02.034Z</time>
      </trkpt>
      <trkpt lat="43.71223" lon="4.92792">
        <ele>154.1</ele>
        <time>2025-11-12T13:39:05.033Z</time>
      </trkpt>
      <trkpt lat="43.71221" lon="4.92795">
        <ele>154.5</ele>
        <time>2025-11-12T13:39:09.033Z</time>
      </trkpt>
      <trkpt lat="43.71219" lon="4.92797">
        <ele>155</ele>
        <time>2025-11-12T13:39:13.034Z</time>
      </trkpt>
      <trkpt lat="43.71217" lon="4.928">
        <ele>155.3</ele>
        <time>2025-11-12T13:39:16.034Z</time>
      </trkpt>
      <trkpt lat="43.71215" lon="4.92803">
        <ele>155.6</ele>
        <time>2025-11-12T13:39:19.034Z</time>
      </trkpt>
      <trkpt lat="43.71213" lon="4.92805">
        <ele>155.7</ele>
        <time>2025-11-12T13:39:21.033Z</time>
      </trkpt>
      <trkpt lat="43.71212" lon="4.92809">
        <ele>156.1</ele>
        <time>2025-11-12T13:39:24.033Z</time>
      </trkpt>
      <trkpt lat="43.7121" lon="4.92811">
        <ele>156.1</ele>
        <time>2025-11-12T13:39:27.033Z</time>
      </trkpt>
      <trkpt lat="43.71208" lon="4.92813">
        <ele>155.9</ele>
        <time>2025-11-12T13:39:30.033Z</time>
      </trkpt>
      <trkpt lat="43.71206" lon="4.92816">
        <ele>155.7</ele>
        <time>2025-11-12T13:39:34.033Z</time>
      </trkpt>
      <trkpt lat="43.71204" lon="4.92819">
        <ele>155.1</ele>
        <time>2025-11-12T13:39:37.034Z</time>
      </trkpt>
      <trkpt lat="43.71202" lon="4.92822">
        <ele>154.4</ele>
        <time>2025-11-12T13:39:40.034Z</time>
      </trkpt>
      <trkpt lat="43.712" lon="4.92824">
        <ele>153.6</ele>
        <time>2025-11-12T13:39:42.034Z</time>
      </trkpt>
      <trkpt lat="43.71198" lon="4.92828">
        <ele>152.4</ele>
        <time>2025-11-12T13:39:44.033Z</time>
      </trkpt>
      <trkpt lat="43.71195" lon="4.92831">
        <ele>151</ele>
        <time>2025-11-12T13:39:47.033Z</time>
      </trkpt>
      <trkpt lat="43.71194" lon="4.92834">
        <ele>150.3</ele>
        <time>2025-11-12T13:39:50.034Z</time>
      </trkpt>
      <trkpt lat="43.71192" lon="4.92836">
        <ele>151.4</ele>
        <time>2025-11-12T13:39:53.034Z</time>
      </trkpt>
      <trkpt lat="43.7119" lon="4.92839">
        <ele>152.5</ele>
        <time>2025-11-12T13:39:56.034Z</time>
      </trkpt>
      <trkpt lat="43.71188" lon="4.92843">
        <ele>153.4</ele>
        <time>2025-11-12T13:39:59.033Z</time>
      </trkpt>
      <trkpt lat="43.71186" lon="4.92845">
        <ele>153.8</ele>
        <time>2025-11-12T13:40:01.033Z</time>
      </trkpt>
      <trkpt lat="43.71185" lon="4.92848">
        <ele>154</ele>
        <time>2025-11-12T13:40:05.033Z</time>
      </trkpt>
      <trkpt lat="43.71182" lon="4.92849">
        <ele>153.8</ele>
        <time>2025-11-12T13:40:09.034Z</time>
      </trkpt>
      <trkpt lat="43.71179" lon="4.92852">
        <ele>153.4</ele>
        <time>2025-11-12T13:40:11.033Z</time>
      </trkpt>
      <trkpt lat="43.71176" lon="4.92854">
        <ele>152.6</ele>
        <time>2025-11-12T13:40:14.034Z</time>
      </trkpt>
      <trkpt lat="43.71175" lon="4.92856">
        <ele>151.9</ele>
        <time>2025-11-12T13:40:16.033Z</time>
      </trkpt>
      <trkpt lat="43.71172" lon="4.92856">
        <ele>151.1</ele>
        <time>2025-11-12T13:40:18.033Z</time>
      </trkpt>
      <trkpt lat="43.7117" lon="4.9286">
        <ele>149.7</ele>
        <time>2025-11-12T13:40:21.034Z</time>
      </trkpt>
      <trkpt lat="43.71167" lon="4.92859">
        <ele>148.8</ele>
        <time>2025-11-12T13:40:24.034Z</time>
      </trkpt>
      <trkpt lat="43.71164" lon="4.92859">
        <ele>148.3</ele>
        <time>2025-11-12T13:40:27.033Z</time>
      </trkpt>
      <trkpt lat="43.71161" lon="4.9286">
        <ele>147.9</ele>
        <time>2025-11-12T13:40:30.034Z</time>
      </trkpt>
      <trkpt lat="43.71158" lon="4.92861">
        <ele>147.5</ele>
        <time>2025-11-12T13:40:33.034Z</time>
      </trkpt>
      <trkpt lat="43.71155" lon="4.9286">
        <ele>147.3</ele>
        <time>2025-11-12T13:40:36.034Z</time>
      </trkpt>
      <trkpt lat="43.71153" lon="4.92862">
        <ele>147.1</ele>
        <time>2025-11-12T13:40:51.034Z</time>
      </trkpt>
      <trkpt lat="43.71154" lon="4.92865">
        <ele>147.3</ele>
        <time>2025-11-12T13:41:03.034Z</time>
      </trkpt>
      <trkpt lat="43.71154" lon="4.92862">
        <ele>147.1</ele>
        <time>2025-11-12T13:47:29.034Z</time>
      </trkpt>
      <trkpt lat="43.71152" lon="4.92864">
        <ele>147.1</ele>
        <time>2025-11-12T13:50:29.034Z</time>
      </trkpt>
      <trkpt lat="43.71154" lon="4.92865">
        <ele>147.3</ele>
        <time>2025-11-12T13:52:38.033Z</time>
      </trkpt>
      <trkpt lat="43.71155" lon="4.92869">
        <ele>147.6</ele>
        <time>2025-11-12T13:53:25.033Z</time>
      </trkpt>
      <trkpt lat="43.71154" lon="4.92872">
        <ele>147.7</ele>
        <time>2025-11-12T13:53:28.034Z</time>
      </trkpt>
      <trkpt lat="43.71154" lon="4.92876">
        <ele>148</ele>
        <time>2025-11-12T13:53:31.033Z</time>
      </trkpt>
      <trkpt lat="43.71152" lon="4.92879">
        <ele>147.9</ele>
        <time>2025-11-12T13:53:35.033Z</time>
      </trkpt>
      <trkpt lat="43.71152" lon="4.92882">
        <ele>148.1</ele>
        <time>2025-11-12T13:54:01.034Z</time>
      </trkpt>
      <trkpt lat="43.71151" lon="4.92884">
        <ele>147.9</ele>
        <time>2025-11-12T13:54:03.033Z</time>
      </trkpt>
      <trkpt lat="43.71148" lon="4.92885">
        <ele>147.5</ele>
        <time>2025-11-12T13:54:05.033Z</time>
      </trkpt>
      <trkpt lat="43.71146" lon="4.92886">
        <ele>147.1</ele>
        <time>2025-11-12T13:54:07.033Z</time>
      </trkpt>
      <trkpt lat="43.71143" lon="4.92886">
        <ele>146.7</ele>
        <time>2025-11-12T13:54:09.034Z</time>
      </trkpt>
      <trkpt lat="43.7114" lon="4.92887">
        <ele>146.2</ele>
        <time>2025-11-12T13:54:12.034Z</time>
      </trkpt>
      <trkpt lat="43.71137" lon="4.92887">
        <ele>145.8</ele>
        <time>2025-11-12T13:54:15.033Z</time>
      </trkpt>
      <trkpt lat="43.71134" lon="4.92886">
        <ele>145.7</ele>
        <time>2025-11-12T13:54:17.033Z</time>
      </trkpt>
      <trkpt lat="43.71132" lon="4.92886">
        <ele>145.5</ele>
        <time>2025-11-12T13:54:19.033Z</time>
      </trkpt>
      <trkpt lat="43.71129" lon="4.92885">
        <ele>145.3</ele>
        <time>2025-11-12T13:54:22.033Z</time>
      </trkpt>
      <trkpt lat="43.71126" lon="4.92885">
        <ele>145</ele>
        <time>2025-11-12T13:54:25.034Z</time>
      </trkpt>
      <trkpt lat="43.71123" lon="4.92884">
        <ele>144.8</ele>
        <time>2025-11-12T13:54:28.033Z</time>
      </trkpt>
      <trkpt lat="43.7112" lon="4.92884">
        <ele>144.6</ele>
        <time>2025-11-12T13:54:30.033Z</time>
      </trkpt>
      <trkpt lat="43.71117" lon="4.92883">
        <ele>144.4</ele>
        <time>2025-11-12T13:54:33.033Z</time>
      </trkpt>
      <trkpt lat="43.71114" lon="4.92882">
        <ele>144.2</ele>
        <time>2025-11-12T13:54:36.033Z</time>
      </trkpt>
      <trkpt lat="43.71112" lon="4.92881">
        <ele>144.1</ele>
        <time>2025-11-12T13:54:38.033Z</time>
      </trkpt>
      <trkpt lat="43.71109" lon="4.92879">
        <ele>143.9</ele>
        <time>2025-11-12T13:54:41.033Z</time>
      </trkpt>
      <trkpt lat="43.71107" lon="4.92878">
        <ele>143.8</ele>
        <time>2025-11-12T13:54:44.033Z</time>
      </trkpt>
      <trkpt lat="43.71105" lon="4.92877">
        <ele>143.7</ele>
        <time>2025-11-12T13:54:46.033Z</time>
      </trkpt>
      <trkpt lat="43.71101" lon="4.92877">
        <ele>143.5</ele>
        <time>2025-11-12T13:54:49.033Z</time>
      </trkpt>
      <trkpt lat="43.71098" lon="4.92876">
        <ele>143.3</ele>
        <time>2025-11-12T13:54:52.033Z</time>
      </trkpt>
      <trkpt lat="43.71094" lon="4.92876">
        <ele>143.1</ele>
        <time>2025-11-12T13:54:56.033Z</time>
      </trkpt>
      <trkpt lat="43.71092" lon="4.92876">
        <ele>143</ele>
        <time>2025-11-12T13:54:59.033Z</time>
      </trkpt>
      <trkpt lat="43.71089" lon="4.92876">
        <ele>142.9</ele>
        <time>2025-11-12T13:55:02.033Z</time>
      </trkpt>
      <trkpt lat="43.71087" lon="4.92876">
        <ele>142.7</ele>
        <time>2025-11-12T13:55:05.034Z</time>
      </trkpt>
      <trkpt lat="43.71084" lon="4.92876">
        <ele>142.5</ele>
        <time>2025-11-12T13:55:08.033Z</time>
      </trkpt>
      <trkpt lat="43.71081" lon="4.92876">
        <ele>142.4</ele>
        <time>2025-11-12T13:55:11.033Z</time>
      </trkpt>
      <trkpt lat="43.71077" lon="4.92875">
        <ele>142.3</ele>
        <time>2025-11-12T13:55:15.034Z</time>
      </trkpt>
      <trkpt lat="43.71075" lon="4.92875">
        <ele>142.2</ele>
        <time>2025-11-12T13:55:17.033Z</time>
      </trkpt>
      <trkpt lat="43.71073" lon="4.92876">
        <ele>142.2</ele>
        <time>2025-11-12T13:55:20.033Z</time>
      </trkpt>
      <trkpt lat="43.71071" lon="4.92878">
        <ele>142.2</ele>
        <time>2025-11-12T13:55:22.033Z</time>
      </trkpt>
      <trkpt lat="43.71069" lon="4.92881">
        <ele>142.2</ele>
        <time>2025-11-12T13:55:24.033Z</time>
      </trkpt>
      <trkpt lat="43.71067" lon="4.92884">
        <ele>142.2</ele>
        <time>2025-11-12T13:55:26.033Z</time>
      </trkpt>
      <trkpt lat="43.71066" lon="4.92888">
        <ele>142.3</ele>
        <time>2025-11-12T13:55:29.033Z</time>
      </trkpt>
      <trkpt lat="43.71064" lon="4.92891">
        <ele>142.4</ele>
        <time>2025-11-12T13:55:32.033Z</time>
      </trkpt>
      <trkpt lat="43.71063" lon="4.92895">
        <ele>142.5</ele>
        <time>2025-11-12T13:55:35.033Z</time>
      </trkpt>
      <trkpt lat="43.71062" lon="4.92897">
        <ele>142.5</ele>
        <time>2025-11-12T13:55:37.033Z</time>
      </trkpt>
      <trkpt lat="43.71059" lon="4.92899">
        <ele>142.5</ele>
        <time>2025-11-12T13:55:40.033Z</time>
      </trkpt>
      <trkpt lat="43.71057" lon="4.92901">
        <ele>142.5</ele>
        <time>2025-11-12T13:55:42.033Z</time>
      </trkpt>
      <trkpt lat="43.71054" lon="4.929">
        <ele>142.4</ele>
        <time>2025-11-12T13:55:45.033Z</time>
      </trkpt>
      <trkpt lat="43.71052" lon="4.929">
        <ele>142.4</ele>
        <time>2025-11-12T13:55:47.033Z</time>
      </trkpt>
      <trkpt lat="43.71049" lon="4.92899">
        <ele>142.4</ele>
        <time>2025-11-12T13:55:49.033Z</time>
      </trkpt>
      <trkpt lat="43.71046" lon="4.92898">
        <ele>142.3</ele>
        <time>2025-11-12T13:55:52.033Z</time>
      </trkpt>
      <trkpt lat="43.71043" lon="4.929">
        <ele>142.4</ele>
        <time>2025-11-12T13:55:55.034Z</time>
      </trkpt>
      <trkpt lat="43.71041" lon="4.92901">
        <ele>142.4</ele>
        <time>2025-11-12T13:55:57.033Z</time>
      </trkpt>
      <trkpt lat="43.71039" lon="4.92902">
        <ele>142.5</ele>
        <time>2025-11-12T13:55:59.034Z</time>
      </trkpt>
      <trkpt lat="43.71036" lon="4.92902">
        <ele>142.5</ele>
        <time>2025-11-12T13:56:01.033Z</time>
      </trkpt>
      <trkpt lat="43.71033" lon="4.92903">
        <ele>142.5</ele>
        <time>2025-11-12T13:56:03.033Z</time>
      </trkpt>
      <trkpt lat="43.7103" lon="4.92903">
        <ele>142.5</ele>
        <time>2025-11-12T13:56:06.034Z</time>
      </trkpt>
      <trkpt lat="43.71028" lon="4.92904">
        <ele>142.5</ele>
        <time>2025-11-12T13:56:09.033Z</time>
      </trkpt>
      <trkpt lat="43.71025" lon="4.92905">
        <ele>142.3</ele>
        <time>2025-11-12T13:56:11.034Z</time>
      </trkpt>
      <trkpt lat="43.71023" lon="4.92906">
        <ele>142.1</ele>
        <time>2025-11-12T13:56:14.033Z</time>
      </trkpt>
      <trkpt lat="43.7102" lon="4.92906">
        <ele>141.9</ele>
        <time>2025-11-12T13:56:17.033Z</time>
      </trkpt>
      <trkpt lat="43.71018" lon="4.92908">
        <ele>141.7</ele>
        <time>2025-11-12T13:56:19.033Z</time>
      </trkpt>
      <trkpt lat="43.71015" lon="4.92909">
        <ele>141.4</ele>
        <time>2025-11-12T13:56:22.034Z</time>
      </trkpt>
      <trkpt lat="43.71013" lon="4.92911">
        <ele>141.3</ele>
        <time>2025-11-12T13:56:24.033Z</time>
      </trkpt>
      <trkpt lat="43.71011" lon="4.92913">
        <ele>141.1</ele>
        <time>2025-11-12T13:56:27.034Z</time>
      </trkpt>
      <trkpt lat="43.71008" lon="4.92916">
        <ele>140.9</ele>
        <time>2025-11-12T13:56:43.033Z</time>
      </trkpt>
      <trkpt lat="43.71008" lon="4.9292">
        <ele>140.8</ele>
        <time>2025-11-12T13:56:46.034Z</time>
      </trkpt>
      <trkpt lat="43.71007" lon="4.92924">
        <ele>140.7</ele>
        <time>2025-11-12T13:56:49.033Z</time>
      </trkpt>
      <trkpt lat="43.71007" lon="4.92928">
        <ele>140.7</ele>
        <time>2025-11-12T13:56:52.033Z</time>
      </trkpt>
      <trkpt lat="43.71007" lon="4.92932">
        <ele>140.6</ele>
        <time>2025-11-12T13:56:55.033Z</time>
      </trkpt>
      <trkpt lat="43.71007" lon="4.92937">
        <ele>140.6</ele>
        <time>2025-11-12T13:56:58.033Z</time>
      </trkpt>
      <trkpt lat="43.71008" lon="4.9294">
        <ele>140.7</ele>
        <time>2025-11-12T13:57:00.033Z</time>
      </trkpt>
      <trkpt lat="43.71007" lon="4.92945">
        <ele>140.5</ele>
        <time>2025-11-12T13:57:03.033Z</time>
      </trkpt>
      <trkpt lat="43.71008" lon="4.92949">
        <ele>140.5</ele>
        <time>2025-11-12T13:57:06.033Z</time>
      </trkpt>
      <trkpt lat="43.71008" lon="4.92954">
        <ele>140.4</ele>
        <time>2025-11-12T13:57:09.034Z</time>
      </trkpt>
      <trkpt lat="43.71008" lon="4.92957">
        <ele>140.3</ele>
        <time>2025-11-12T13:57:11.033Z</time>
      </trkpt>
      <trkpt lat="43.71008" lon="4.9296">
        <ele>140.2</ele>
        <time>2025-11-12T13:57:13.033Z</time>
      </trkpt>
      <trkpt lat="43.71008" lon="4.92965">
        <ele>139.9</ele>
        <time>2025-11-12T13:57:16.033Z</time>
      </trkpt>
      <trkpt lat="43.71008" lon="4.9297">
        <ele>139.8</ele>
        <time>2025-11-12T13:57:19.034Z</time>
      </trkpt>
      <trkpt lat="43.71008" lon="4.92974">
        <ele>139.7</ele>
        <time>2025-11-12T13:57:22.033Z</time>
      </trkpt>
      <trkpt lat="43.71008" lon="4.92978">
        <ele>139.6</ele>
        <time>2025-11-12T13:57:24.033Z</time>
      </trkpt>
      <trkpt lat="43.71008" lon="4.92982">
        <ele>139.5</ele>
        <time>2025-11-12T13:57:27.033Z</time>
      </trkpt>
      <trkpt lat="43.71008" lon="4.92987">
        <ele>139.3</ele>
        <time>2025-11-12T13:57:30.034Z</time>
      </trkpt>
      <trkpt lat="43.71008" lon="4.9299">
        <ele>139.3</ele>
        <time>2025-11-12T13:57:32.033Z</time>
      </trkpt>
      <trkpt lat="43.71008" lon="4.92993">
        <ele>139.2</ele>
        <time>2025-11-12T13:57:34.033Z</time>
      </trkpt>
      <trkpt lat="43.71009" lon="4.92997">
        <ele>139.3</ele>
        <time>2025-11-12T13:57:37.033Z</time>
      </trkpt>
      <trkpt lat="43.71011" lon="4.93001">
        <ele>139.6</ele>
        <time>2025-11-12T13:57:40.033Z</time>
      </trkpt>
      <trkpt lat="43.71011" lon="4.93004">
        <ele>139.5</ele>
        <time>2025-11-12T13:57:42.033Z</time>
      </trkpt>
      <trkpt lat="43.71013" lon="4.93007">
        <ele>139.5</ele>
        <time>2025-11-12T13:57:44.033Z</time>
      </trkpt>
      <trkpt lat="43.71015" lon="4.9301">
        <ele>139.5</ele>
        <time>2025-11-12T13:57:47.033Z</time>
      </trkpt>
      <trkpt lat="43.71016" lon="4.93013">
        <ele>139.3</ele>
        <time>2025-11-12T13:57:49.033Z</time>
      </trkpt>
      <trkpt lat="43.71017" lon="4.93016">
        <ele>139.1</ele>
        <time>2025-11-12T13:57:51.033Z</time>
      </trkpt>
      <trkpt lat="43.71018" lon="4.9302">
        <ele>138.7</ele>
        <time>2025-11-12T13:57:54.033Z</time>
      </trkpt>
      <trkpt lat="43.71018" lon="4.93024">
        <ele>138.2</ele>
        <time>2025-11-12T13:57:57.033Z</time>
      </trkpt>
      <trkpt lat="43.71018" lon="4.93028">
        <ele>137.7</ele>
        <time>2025-11-12T13:58:00.033Z</time>
      </trkpt>
      <trkpt lat="43.71018" lon="4.93031">
        <ele>137.8</ele>
        <time>2025-11-12T13:58:03.034Z</time>
      </trkpt>
      <trkpt lat="43.71016" lon="4.93035">
        <ele>137.8</ele>
        <time>2025-11-12T13:58:06.033Z</time>
      </trkpt>
      <trkpt lat="43.71015" lon="4.93039">
        <ele>137.9</ele>
        <time>2025-11-12T13:58:21.034Z</time>
      </trkpt>
      <trkpt lat="43.71013" lon="4.93042">
        <ele>138</ele>
        <time>2025-11-12T13:58:24.033Z</time>
      </trkpt>
      <trkpt lat="43.71011" lon="4.93043">
        <ele>137.9</ele>
        <time>2025-11-12T13:58:27.033Z</time>
      </trkpt>
      <trkpt lat="43.71008" lon="4.93047">
        <ele>138</ele>
        <time>2025-11-12T13:58:30.033Z</time>
      </trkpt>
      <trkpt lat="43.71007" lon="4.93049">
        <ele>138</ele>
        <time>2025-11-12T13:58:32.033Z</time>
      </trkpt>
      <trkpt lat="43.71005" lon="4.93052">
        <ele>138</ele>
        <time>2025-11-12T13:58:34.033Z</time>
      </trkpt>
      <trkpt lat="43.71003" lon="4.93054">
        <ele>138.1</ele>
        <time>2025-11-12T13:58:36.033Z</time>
      </trkpt>
      <trkpt lat="43.71001" lon="4.93057">
        <ele>138.2</ele>
        <time>2025-11-12T13:58:39.033Z</time>
      </trkpt>
      <trkpt lat="43.71" lon="4.93061">
        <ele>138.5</ele>
        <time>2025-11-12T13:58:42.033Z</time>
      </trkpt>
      <trkpt lat="43.70999" lon="4.93064">
        <ele>138.8</ele>
        <time>2025-11-12T13:58:46.034Z</time>
      </trkpt>
      <trkpt lat="43.70997" lon="4.93066">
        <ele>139</ele>
        <time>2025-11-12T13:58:50.033Z</time>
      </trkpt>
      <trkpt lat="43.70997" lon="4.93069">
        <ele>139.3</ele>
        <time>2025-11-12T13:58:52.033Z</time>
      </trkpt>
      <trkpt lat="43.70996" lon="4.93073">
        <ele>139.5</ele>
        <time>2025-11-12T13:58:54.033Z</time>
      </trkpt>
      <trkpt lat="43.70996" lon="4.93076">
        <ele>139.8</ele>
        <time>2025-11-12T13:58:56.034Z</time>
      </trkpt>
      <trkpt lat="43.70995" lon="4.9308">
        <ele>140.2</ele>
        <time>2025-11-12T13:58:59.033Z</time>
      </trkpt>
      <trkpt lat="43.70995" lon="4.93085">
        <ele>140.6</ele>
        <time>2025-11-12T13:59:02.033Z</time>
      </trkpt>
      <trkpt lat="43.70994" lon="4.93088">
        <ele>140.9</ele>
        <time>2025-11-12T13:59:05.034Z</time>
      </trkpt>
      <trkpt lat="43.70992" lon="4.93091">
        <ele>141.1</ele>
        <time>2025-11-12T13:59:08.033Z</time>
      </trkpt>
      <trkpt lat="43.70991" lon="4.93094">
        <ele>141.3</ele>
        <time>2025-11-12T13:59:10.033Z</time>
      </trkpt>
      <trkpt lat="43.7099" lon="4.93097">
        <ele>141.5</ele>
        <time>2025-11-12T13:59:12.033Z</time>
      </trkpt>
      <trkpt lat="43.70989" lon="4.931">
        <ele>141.7</ele>
        <time>2025-11-12T13:59:14.033Z</time>
      </trkpt>
      <trkpt lat="43.70987" lon="4.93102">
        <ele>141.7</ele>
        <time>2025-11-12T13:59:17.033Z</time>
      </trkpt>
      <trkpt lat="43.70986" lon="4.93106">
        <ele>141.9</ele>
        <time>2025-11-12T13:59:20.033Z</time>
      </trkpt>
      <trkpt lat="43.70984" lon="4.93109">
        <ele>141.9</ele>
        <time>2025-11-12T13:59:23.033Z</time>
      </trkpt>
      <trkpt lat="43.70983" lon="4.93112">
        <ele>142</ele>
        <time>2025-11-12T13:59:25.033Z</time>
      </trkpt>
      <trkpt lat="43.70982" lon="4.93116">
        <ele>142.1</ele>
        <time>2025-11-12T13:59:27.033Z</time>
      </trkpt>
      <trkpt lat="43.70981" lon="4.9312">
        <ele>142.3</ele>
        <time>2025-11-12T13:59:30.033Z</time>
      </trkpt>
      <trkpt lat="43.7098" lon="4.93123">
        <ele>142.3</ele>
        <time>2025-11-12T13:59:33.033Z</time>
      </trkpt>
      <trkpt lat="43.70979" lon="4.93126">
        <ele>142.3</ele>
        <time>2025-11-12T13:59:36.033Z</time>
      </trkpt>
      <trkpt lat="43.70977" lon="4.9313">
        <ele>142.3</ele>
        <time>2025-11-12T13:59:39.033Z</time>
      </trkpt>
      <trkpt lat="43.70975" lon="4.93133">
        <ele>142.3</ele>
        <time>2025-11-12T13:59:42.033Z</time>
      </trkpt>
      <trkpt lat="43.70974" lon="4.93136">
        <ele>142.2</ele>
        <time>2025-11-12T13:59:45.033Z</time>
      </trkpt>
      <trkpt lat="43.70973" lon="4.9314">
        <ele>142.3</ele>
        <time>2025-11-12T13:59:48.033Z</time>
      </trkpt>
      <trkpt lat="43.70971" lon="4.93143">
        <ele>142.6</ele>
        <time>2025-11-12T13:59:51.033Z</time>
      </trkpt>
      <trkpt lat="43.7097" lon="4.93146">
        <ele>143.1</ele>
        <time>2025-11-12T13:59:55.033Z</time>
      </trkpt>
      <trkpt lat="43.70969" lon="4.9315">
        <ele>143.5</ele>
        <time>2025-11-12T13:59:57.033Z</time>
      </trkpt>
      <trkpt lat="43.70968" lon="4.93153">
        <ele>143.8</ele>
        <time>2025-11-12T14:00:00.033Z</time>
      </trkpt>
      <trkpt lat="43.70966" lon="4.93157">
        <ele>144.2</ele>
        <time>2025-11-12T14:00:03.033Z</time>
      </trkpt>
      <trkpt lat="43.70964" lon="4.9316">
        <ele>144.4</ele>
        <time>2025-11-12T14:00:06.034Z</time>
      </trkpt>
      <trkpt lat="43.70962" lon="4.93164">
        <ele>144.7</ele>
        <time>2025-11-12T14:00:09.033Z</time>
      </trkpt>
      <trkpt lat="43.70961" lon="4.93167">
        <ele>144.8</ele>
        <time>2025-11-12T14:00:13.033Z</time>
      </trkpt>
      <trkpt lat="43.70959" lon="4.93171">
        <ele>144.6</ele>
        <time>2025-11-12T14:00:16.033Z</time>
      </trkpt>
      <trkpt lat="43.70958" lon="4.93175">
        <ele>144.5</ele>
        <time>2025-11-12T14:00:19.033Z</time>
      </trkpt>
      <trkpt lat="43.70957" lon="4.93178">
        <ele>144.5</ele>
        <time>2025-11-12T14:00:22.033Z</time>
      </trkpt>
      <trkpt lat="43.70956" lon="4.93181">
        <ele>144.5</ele>
        <time>2025-11-12T14:00:25.033Z</time>
      </trkpt>
      <trkpt lat="43.70956" lon="4.93185">
        <ele>144.5</ele>
        <time>2025-11-12T14:00:27.033Z</time>
      </trkpt>
      <trkpt lat="43.70955" lon="4.93188">
        <ele>144.5</ele>
        <time>2025-11-12T14:00:29.033Z</time>
      </trkpt>
      <trkpt lat="43.70954" lon="4.93192">
        <ele>144.3</ele>
        <time>2025-11-12T14:00:32.033Z</time>
      </trkpt>
      <trkpt lat="43.70953" lon="4.93196">
        <ele>144.2</ele>
        <time>2025-11-12T14:00:35.033Z</time>
      </trkpt>
      <trkpt lat="43.70953" lon="4.932">
        <ele>144.2</ele>
        <time>2025-11-12T14:00:37.033Z</time>
      </trkpt>
      <trkpt lat="43.70952" lon="4.93204">
        <ele>144.1</ele>
        <time>2025-11-12T14:00:39.033Z</time>
      </trkpt>
      <trkpt lat="43.70951" lon="4.93207">
        <ele>144</ele>
        <time>2025-11-12T14:00:41.033Z</time>
      </trkpt>
      <trkpt lat="43.70951" lon="4.93212">
        <ele>143.9</ele>
        <time>2025-11-12T14:00:44.033Z</time>
      </trkpt>
      <trkpt lat="43.7095" lon="4.93216">
        <ele>143.8</ele>
        <time>2025-11-12T14:00:47.033Z</time>
      </trkpt>
      <trkpt lat="43.7095" lon="4.9322">
        <ele>143.7</ele>
        <time>2025-11-12T14:00:50.034Z</time>
      </trkpt>
      <trkpt lat="43.70949" lon="4.93223">
        <ele>143.6</ele>
        <time>2025-11-12T14:00:52.033Z</time>
      </trkpt>
      <trkpt lat="43.70949" lon="4.93227">
        <ele>143.8</ele>
        <time>2025-11-12T14:00:55.033Z</time>
      </trkpt>
      <trkpt lat="43.70949" lon="4.93231">
        <ele>144</ele>
        <time>2025-11-12T14:00:58.033Z</time>
      </trkpt>
      <trkpt lat="43.70949" lon="4.93235">
        <ele>144.3</ele>
        <time>2025-11-12T14:01:01.033Z</time>
      </trkpt>
      <trkpt lat="43.7095" lon="4.93238">
        <ele>144.5</ele>
        <time>2025-11-12T14:01:03.033Z</time>
      </trkpt>
      <trkpt lat="43.7095" lon="4.93242">
        <ele>144.7</ele>
        <time>2025-11-12T14:01:06.033Z</time>
      </trkpt>
      <trkpt lat="43.70952" lon="4.93245">
        <ele>145.1</ele>
        <time>2025-11-12T14:01:09.033Z</time>
      </trkpt>
      <trkpt lat="43.70952" lon="4.93249">
        <ele>145.3</ele>
        <time>2025-11-12T14:01:12.033Z</time>
      </trkpt>
      <trkpt lat="43.70953" lon="4.93252">
        <ele>145.6</ele>
        <time>2025-11-12T14:01:15.034Z</time>
      </trkpt>
      <trkpt lat="43.70955" lon="4.93255">
        <ele>146</ele>
        <time>2025-11-12T14:01:18.033Z</time>
      </trkpt>
      <trkpt lat="43.70956" lon="4.93259">
        <ele>146.3</ele>
        <time>2025-11-12T14:01:22.033Z</time>
      </trkpt>
      <trkpt lat="43.70956" lon="4.93263">
        <ele>146.5</ele>
        <time>2025-11-12T14:01:25.033Z</time>
      </trkpt>
      <trkpt lat="43.70955" lon="4.93267">
        <ele>146.5</ele>
        <time>2025-11-12T14:01:28.033Z</time>
      </trkpt>
      <trkpt lat="43.70955" lon="4.9327">
        <ele>146.6</ele>
        <time>2025-11-12T14:01:31.033Z</time>
      </trkpt>
      <trkpt lat="43.70954" lon="4.93274">
        <ele>146.7</ele>
        <time>2025-11-12T14:01:34.033Z</time>
      </trkpt>
      <trkpt lat="43.70955" lon="4.93278">
        <ele>146.9</ele>
        <time>2025-11-12T14:01:36.033Z</time>
      </trkpt>
      <trkpt lat="43.70956" lon="4.93283">
        <ele>147.2</ele>
        <time>2025-11-12T14:01:39.033Z</time>
      </trkpt>
      <trkpt lat="43.70956" lon="4.93286">
        <ele>147.4</ele>
        <time>2025-11-12T14:01:42.033Z</time>
      </trkpt>
      <trkpt lat="43.70957" lon="4.9329">
        <ele>147.6</ele>
        <time>2025-11-12T14:01:45.033Z</time>
      </trkpt>
      <trkpt lat="43.70958" lon="4.93295">
        <ele>148</ele>
        <time>2025-11-12T14:01:48.033Z</time>
      </trkpt>
      <trkpt lat="43.70958" lon="4.93299">
        <ele>148.2</ele>
        <time>2025-11-12T14:01:51.033Z</time>
      </trkpt>
      <trkpt lat="43.70957" lon="4.93302">
        <ele>148</ele>
        <time>2025-11-12T14:01:54.033Z</time>
      </trkpt>
      <trkpt lat="43.70956" lon="4.93306">
        <ele>148</ele>
        <time>2025-11-12T14:01:57.033Z</time>
      </trkpt>
      <trkpt lat="43.70956" lon="4.9331">
        <ele>148.4</ele>
        <time>2025-11-12T14:01:59.033Z</time>
      </trkpt>
      <trkpt lat="43.70955" lon="4.93313">
        <ele>148.2</ele>
        <time>2025-11-12T14:02:01.033Z</time>
      </trkpt>
      <trkpt lat="43.70955" lon="4.93317">
        <ele>148.5</ele>
        <time>2025-11-12T14:02:04.033Z</time>
      </trkpt>
      <trkpt lat="43.70954" lon="4.9332">
        <ele>148.4</ele>
        <time>2025-11-12T14:02:07.033Z</time>
      </trkpt>
      <trkpt lat="43.70953" lon="4.93324">
        <ele>148.3</ele>
        <time>2025-11-12T14:02:11.033Z</time>
      </trkpt>
      <trkpt lat="43.70951" lon="4.93328">
        <ele>148.2</ele>
        <time>2025-11-12T14:02:14.033Z</time>
      </trkpt>
      <trkpt lat="43.70949" lon="4.9333">
        <ele>148</ele>
        <time>2025-11-12T14:02:16.033Z</time>
      </trkpt>
      <trkpt lat="43.70948" lon="4.93334">
        <ele>147.8</ele>
        <time>2025-11-12T14:02:18.033Z</time>
      </trkpt>
      <trkpt lat="43.70946" lon="4.93337">
        <ele>147.6</ele>
        <time>2025-11-12T14:02:21.033Z</time>
      </trkpt>
      <trkpt lat="43.70946" lon="4.93341">
        <ele>147.7</ele>
        <time>2025-11-12T14:02:23.033Z</time>
      </trkpt>
      <trkpt lat="43.70947" lon="4.93344">
        <ele>148.2</ele>
        <time>2025-11-12T14:02:25.033Z</time>
      </trkpt>
      <trkpt lat="43.70948" lon="4.93348">
        <ele>148.5</ele>
        <time>2025-11-12T14:02:28.033Z</time>
      </trkpt>
      <trkpt lat="43.70948" lon="4.93352">
        <ele>148.6</ele>
        <time>2025-11-12T14:02:31.033Z</time>
      </trkpt>
      <trkpt lat="43.70949" lon="4.93355">
        <ele>149.1</ele>
        <time>2025-11-12T14:02:33.033Z</time>
      </trkpt>
      <trkpt lat="43.70949" lon="4.9336">
        <ele>149.4</ele>
        <time>2025-11-12T14:02:36.033Z</time>
      </trkpt>
      <trkpt lat="43.70949" lon="4.93363">
        <ele>149.5</ele>
        <time>2025-11-12T14:02:39.033Z</time>
      </trkpt>
      <trkpt lat="43.70948" lon="4.93367">
        <ele>149.6</ele>
        <time>2025-11-12T14:02:42.033Z</time>
      </trkpt>
      <trkpt lat="43.70948" lon="4.93371">
        <ele>149.6</ele>
        <time>2025-11-12T14:02:45.033Z</time>
      </trkpt>
      <trkpt lat="43.70948" lon="4.93375">
        <ele>149.9</ele>
        <time>2025-11-12T14:02:48.033Z</time>
      </trkpt>
      <trkpt lat="43.70948" lon="4.93379">
        <ele>150.1</ele>
        <time>2025-11-12T14:02:52.033Z</time>
      </trkpt>
      <trkpt lat="43.70947" lon="4.93383">
        <ele>150.3</ele>
        <time>2025-11-12T14:02:55.033Z</time>
      </trkpt>
      <trkpt lat="43.70947" lon="4.93387">
        <ele>150.5</ele>
        <time>2025-11-12T14:02:58.034Z</time>
      </trkpt>
      <trkpt lat="43.70947" lon="4.9339">
        <ele>150.5</ele>
        <time>2025-11-12T14:03:00.033Z</time>
      </trkpt>
      <trkpt lat="43.70945" lon="4.93394">
        <ele>150.5</ele>
        <time>2025-11-12T14:03:02.033Z</time>
      </trkpt>
      <trkpt lat="43.70944" lon="4.93396">
        <ele>150.4</ele>
        <time>2025-11-12T14:03:05.033Z</time>
      </trkpt>
      <trkpt lat="43.70942" lon="4.934">
        <ele>150.4</ele>
        <time>2025-11-12T14:03:08.033Z</time>
      </trkpt>
      <trkpt lat="43.70941" lon="4.93403">
        <ele>150.5</ele>
        <time>2025-11-12T14:03:11.033Z</time>
      </trkpt>
      <trkpt lat="43.70939" lon="4.93406">
        <ele>150.3</ele>
        <time>2025-11-12T14:03:14.033Z</time>
      </trkpt>
      <trkpt lat="43.70938" lon="4.9341">
        <ele>150.5</ele>
        <time>2025-11-12T14:03:18.033Z</time>
      </trkpt>
      <trkpt lat="43.70937" lon="4.93413">
        <ele>150.5</ele>
        <time>2025-11-12T14:03:21.033Z</time>
      </trkpt>
      <trkpt lat="43.70938" lon="4.93416">
        <ele>150.7</ele>
        <time>2025-11-12T14:03:23.033Z</time>
      </trkpt>
      <trkpt lat="43.70938" lon="4.9342">
        <ele>151.1</ele>
        <time>2025-11-12T14:03:25.033Z</time>
      </trkpt>
      <trkpt lat="43.70937" lon="4.93423">
        <ele>151.2</ele>
        <time>2025-11-12T14:03:27.033Z</time>
      </trkpt>
      <trkpt lat="43.70935" lon="4.93426">
        <ele>151.3</ele>
        <time>2025-11-12T14:03:29.033Z</time>
      </trkpt>
      <trkpt lat="43.70934" lon="4.93429">
        <ele>151.3</ele>
        <time>2025-11-12T14:03:31.033Z</time>
      </trkpt>
      <trkpt lat="43.70933" lon="4.93432">
        <ele>151.5</ele>
        <time>2025-11-12T14:03:33.033Z</time>
      </trkpt>
      <trkpt lat="43.70932" lon="4.93436">
        <ele>151.6</ele>
        <time>2025-11-12T14:03:36.033Z</time>
      </trkpt>
      <trkpt lat="43.70932" lon="4.9344">
        <ele>151.8</ele>
        <time>2025-11-12T14:03:39.033Z</time>
      </trkpt>
      <trkpt lat="43.70931" lon="4.93444">
        <ele>151.9</ele>
        <time>2025-11-12T14:03:42.034Z</time>
      </trkpt>
      <trkpt lat="43.7093" lon="4.93448">
        <ele>152.2</ele>
        <time>2025-11-12T14:03:45.033Z</time>
      </trkpt>
      <trkpt lat="43.70929" lon="4.93451">
        <ele>152.6</ele>
        <time>2025-11-12T14:03:48.033Z</time>
      </trkpt>
      <trkpt lat="43.70928" lon="4.93454">
        <ele>152.6</ele>
        <time>2025-11-12T14:03:51.033Z</time>
      </trkpt>
      <trkpt lat="43.70927" lon="4.93458">
        <ele>152.9</ele>
        <time>2025-11-12T14:03:54.033Z</time>
      </trkpt>
      <trkpt lat="43.70927" lon="4.93462">
        <ele>153.4</ele>
        <time>2025-11-12T14:03:56.033Z</time>
      </trkpt>
      <trkpt lat="43.70927" lon="4.93465">
        <ele>153.8</ele>
        <time>2025-11-12T14:03:58.033Z</time>
      </trkpt>
      <trkpt lat="43.70927" lon="4.93469">
        <ele>154.2</ele>
        <time>2025-11-12T14:04:01.033Z</time>
      </trkpt>
      <trkpt lat="43.70926" lon="4.93473">
        <ele>154.4</ele>
        <time>2025-11-12T14:04:05.033Z</time>
      </trkpt>
      <trkpt lat="43.70925" lon="4.93477">
        <ele>154.5</ele>
        <time>2025-11-12T14:04:08.033Z</time>
      </trkpt>
      <trkpt lat="43.70924" lon="4.93482">
        <ele>154.6</ele>
        <time>2025-11-12T14:04:11.033Z</time>
      </trkpt>
      <trkpt lat="43.70923" lon="4.93486">
        <ele>154.7</ele>
        <time>2025-11-12T14:04:14.033Z</time>
      </trkpt>
      <trkpt lat="43.70921" lon="4.9349">
        <ele>154.5</ele>
        <time>2025-11-12T14:04:17.034Z</time>
      </trkpt>
      <trkpt lat="43.7092" lon="4.93494">
        <ele>154.6</ele>
        <time>2025-11-12T14:04:20.033Z</time>
      </trkpt>
      <trkpt lat="43.7092" lon="4.93499">
        <ele>154.8</ele>
        <time>2025-11-12T14:04:23.033Z</time>
      </trkpt>
      <trkpt lat="43.70919" lon="4.93502">
        <ele>154.8</ele>
        <time>2025-11-12T14:04:26.033Z</time>
      </trkpt>
      <trkpt lat="43.70918" lon="4.93505">
        <ele>154.4</ele>
        <time>2025-11-12T14:04:29.033Z</time>
      </trkpt>
      <trkpt lat="43.70917" lon="4.93509">
        <ele>154.4</ele>
        <time>2025-11-12T14:04:32.033Z</time>
      </trkpt>
      <trkpt lat="43.70917" lon="4.93513">
        <ele>154.5</ele>
        <time>2025-11-12T14:04:35.033Z</time>
      </trkpt>
      <trkpt lat="43.70916" lon="4.93518">
        <ele>154.6</ele>
        <time>2025-11-12T14:04:38.033Z</time>
      </trkpt>
      <trkpt lat="43.70917" lon="4.93521">
        <ele>154.7</ele>
        <time>2025-11-12T14:04:40.033Z</time>
      </trkpt>
      <trkpt lat="43.70916" lon="4.93524">
        <ele>154.8</ele>
        <time>2025-11-12T14:04:43.033Z</time>
      </trkpt>
      <trkpt lat="43.70917" lon="4.93528">
        <ele>155</ele>
        <time>2025-11-12T14:04:46.033Z</time>
      </trkpt>
      <trkpt lat="43.70917" lon="4.93533">
        <ele>154.7</ele>
        <time>2025-11-12T14:04:49.034Z</time>
      </trkpt>
      <trkpt lat="43.70917" lon="4.93536">
        <ele>154.4</ele>
        <time>2025-11-12T14:04:51.033Z</time>
      </trkpt>
      <trkpt lat="43.70916" lon="4.9354">
        <ele>154.1</ele>
        <time>2025-11-12T14:04:53.033Z</time>
      </trkpt>
      <trkpt lat="43.70916" lon="4.93543">
        <ele>153.8</ele>
        <time>2025-11-12T14:04:56.033Z</time>
      </trkpt>
      <trkpt lat="43.70916" lon="4.93548">
        <ele>153.5</ele>
        <time>2025-11-12T14:04:59.033Z</time>
      </trkpt>
      <trkpt lat="43.70917" lon="4.93551">
        <ele>153.4</ele>
        <time>2025-11-12T14:05:01.033Z</time>
      </trkpt>
      <trkpt lat="43.70918" lon="4.93555">
        <ele>153.4</ele>
        <time>2025-11-12T14:05:03.033Z</time>
      </trkpt>
      <trkpt lat="43.70919" lon="4.93559">
        <ele>153.2</ele>
        <time>2025-11-12T14:05:06.034Z</time>
      </trkpt>
      <trkpt lat="43.70919" lon="4.93562">
        <ele>153</ele>
        <time>2025-11-12T14:05:09.033Z</time>
      </trkpt>
      <trkpt lat="43.70921" lon="4.93565">
        <ele>153</ele>
        <time>2025-11-12T14:05:12.033Z</time>
      </trkpt>
      <trkpt lat="43.70922" lon="4.93568">
        <ele>153</ele>
        <time>2025-11-12T14:05:14.034Z</time>
      </trkpt>
      <trkpt lat="43.70923" lon="4.93571">
        <ele>152.8</ele>
        <time>2025-11-12T14:05:17.033Z</time>
      </trkpt>
      <trkpt lat="43.70925" lon="4.93573">
        <ele>152.8</ele>
        <time>2025-11-12T14:05:19.033Z</time>
      </trkpt>
      <trkpt lat="43.70927" lon="4.93576">
        <ele>152.7</ele>
        <time>2025-11-12T14:05:22.033Z</time>
      </trkpt>
      <trkpt lat="43.70927" lon="4.93579">
        <ele>152.3</ele>
        <time>2025-11-12T14:05:25.033Z</time>
      </trkpt>
      <trkpt lat="43.70927" lon="4.93583">
        <ele>151.8</ele>
        <time>2025-11-12T14:05:28.033Z</time>
      </trkpt>
      <trkpt lat="43.70927" lon="4.93587">
        <ele>151.9</ele>
        <time>2025-11-12T14:05:30.033Z</time>
      </trkpt>
      <trkpt lat="43.70927" lon="4.93591">
        <ele>152.1</ele>
        <time>2025-11-12T14:05:33.033Z</time>
      </trkpt>
      <trkpt lat="43.70927" lon="4.93596">
        <ele>152.2</ele>
        <time>2025-11-12T14:05:35.033Z</time>
      </trkpt>
      <trkpt lat="43.70927" lon="4.93599">
        <ele>152.4</ele>
        <time>2025-11-12T14:05:37.033Z</time>
      </trkpt>
      <trkpt lat="43.70927" lon="4.93603">
        <ele>152.5</ele>
        <time>2025-11-12T14:05:39.033Z</time>
      </trkpt>
      <trkpt lat="43.70927" lon="4.93607">
        <ele>152.6</ele>
        <time>2025-11-12T14:05:42.033Z</time>
      </trkpt>
      <trkpt lat="43.70927" lon="4.93611">
        <ele>152.8</ele>
        <time>2025-11-12T14:05:45.033Z</time>
      </trkpt>
      <trkpt lat="43.70927" lon="4.93615">
        <ele>153.1</ele>
        <time>2025-11-12T14:05:48.033Z</time>
      </trkpt>
      <trkpt lat="43.70926" lon="4.93619">
        <ele>153.2</ele>
        <time>2025-11-12T14:05:51.033Z</time>
      </trkpt>
      <trkpt lat="43.70925" lon="4.93622">
        <ele>153.4</ele>
        <time>2025-11-12T14:05:54.033Z</time>
      </trkpt>
      <trkpt lat="43.70926" lon="4.93626">
        <ele>153.8</ele>
        <time>2025-11-12T14:05:57.033Z</time>
      </trkpt>
      <trkpt lat="43.70924" lon="4.9363">
        <ele>153.9</ele>
        <time>2025-11-12T14:06:00.033Z</time>
      </trkpt>
      <trkpt lat="43.70924" lon="4.93634">
        <ele>154.2</ele>
        <time>2025-11-12T14:06:02.034Z</time>
      </trkpt>
      <trkpt lat="43.70923" lon="4.93638">
        <ele>154.3</ele>
        <time>2025-11-12T14:06:05.033Z</time>
      </trkpt>
      <trkpt lat="43.70923" lon="4.93641">
        <ele>154.5</ele>
        <time>2025-11-12T14:06:07.033Z</time>
      </trkpt>
      <trkpt lat="43.70922" lon="4.93645">
        <ele>154.6</ele>
        <time>2025-11-12T14:06:10.034Z</time>
      </trkpt>
      <trkpt lat="43.70922" lon="4.93648">
        <ele>154.7</ele>
        <time>2025-11-12T14:06:13.033Z</time>
      </trkpt>
      <trkpt lat="43.70922" lon="4.93652">
        <ele>155</ele>
        <time>2025-11-12T14:06:15.033Z</time>
      </trkpt>
      <trkpt lat="43.70922" lon="4.93655">
        <ele>155.2</ele>
        <time>2025-11-12T14:06:17.033Z</time>
      </trkpt>
      <trkpt lat="43.70922" lon="4.93659">
        <ele>155.6</ele>
        <time>2025-11-12T14:06:20.033Z</time>
      </trkpt>
      <trkpt lat="43.70922" lon="4.93663">
        <ele>155.9</ele>
        <time>2025-11-12T14:06:23.033Z</time>
      </trkpt>
      <trkpt lat="43.70922" lon="4.93666">
        <ele>156.1</ele>
        <time>2025-11-12T14:06:25.033Z</time>
      </trkpt>
      <trkpt lat="43.70922" lon="4.9367">
        <ele>156.2</ele>
        <time>2025-11-12T14:06:27.033Z</time>
      </trkpt>
      <trkpt lat="43.70922" lon="4.93673">
        <ele>156.2</ele>
        <time>2025-11-12T14:06:30.033Z</time>
      </trkpt>
      <trkpt lat="43.70921" lon="4.93676">
        <ele>155.9</ele>
        <time>2025-11-12T14:06:34.033Z</time>
      </trkpt>
      <trkpt lat="43.70921" lon="4.93681">
        <ele>155.9</ele>
        <time>2025-11-12T14:06:37.033Z</time>
      </trkpt>
      <trkpt lat="43.7092" lon="4.93684">
        <ele>155.8</ele>
        <time>2025-11-12T14:06:40.033Z</time>
      </trkpt>
      <trkpt lat="43.70919" lon="4.93688">
        <ele>155.6</ele>
        <time>2025-11-12T14:06:43.033Z</time>
      </trkpt>
      <trkpt lat="43.70918" lon="4.93692">
        <ele>155.4</ele>
        <time>2025-11-12T14:06:46.033Z</time>
      </trkpt>
      <trkpt lat="43.70918" lon="4.93697">
        <ele>155.3</ele>
        <time>2025-11-12T14:06:49.033Z</time>
      </trkpt>
      <trkpt lat="43.70917" lon="4.937">
        <ele>155.2</ele>
        <time>2025-11-12T14:06:51.033Z</time>
      </trkpt>
      <trkpt lat="43.70917" lon="4.93704">
        <ele>155.1</ele>
        <time>2025-11-12T14:06:53.033Z</time>
      </trkpt>
      <trkpt lat="43.70917" lon="4.93707">
        <ele>155</ele>
        <time>2025-11-12T14:06:55.033Z</time>
      </trkpt>
      <trkpt lat="43.70916" lon="4.93711">
        <ele>154.9</ele>
        <time>2025-11-12T14:06:57.033Z</time>
      </trkpt>
      <trkpt lat="43.70916" lon="4.93714">
        <ele>154.8</ele>
        <time>2025-11-12T14:06:59.033Z</time>
      </trkpt>
      <trkpt lat="43.70915" lon="4.93719">
        <ele>154.8</ele>
        <time>2025-11-12T14:07:02.033Z</time>
      </trkpt>
      <trkpt lat="43.70915" lon="4.93723">
        <ele>154.8</ele>
        <time>2025-11-12T14:07:05.033Z</time>
      </trkpt>
      <trkpt lat="43.70915" lon="4.93727">
        <ele>154.9</ele>
        <time>2025-11-12T14:07:08.033Z</time>
      </trkpt>
      <trkpt lat="43.70914" lon="4.93731">
        <ele>154.9</ele>
        <time>2025-11-12T14:07:10.033Z</time>
      </trkpt>
      <trkpt lat="43.70914" lon="4.93735">
        <ele>154.9</ele>
        <time>2025-11-12T14:07:13.033Z</time>
      </trkpt>
      <trkpt lat="43.70913" lon="4.9374">
        <ele>154.9</ele>
        <time>2025-11-12T14:07:16.033Z</time>
      </trkpt>
      <trkpt lat="43.70913" lon="4.93744">
        <ele>155.1</ele>
        <time>2025-11-12T14:07:18.033Z</time>
      </trkpt>
      <trkpt lat="43.70913" lon="4.93748">
        <ele>155.1</ele>
        <time>2025-11-12T14:07:21.033Z</time>
      </trkpt>
      <trkpt lat="43.70913" lon="4.93752">
        <ele>155.1</ele>
        <time>2025-11-12T14:07:24.033Z</time>
      </trkpt>
      <trkpt lat="43.70911" lon="4.93756">
        <ele>154.7</ele>
        <time>2025-11-12T14:07:27.033Z</time>
      </trkpt>
      <trkpt lat="43.70911" lon="4.93759">
        <ele>154.6</ele>
        <time>2025-11-12T14:07:29.033Z</time>
      </trkpt>
      <trkpt lat="43.70911" lon="4.93762">
        <ele>154.4</ele>
        <time>2025-11-12T14:07:32.033Z</time>
      </trkpt>
      <trkpt lat="43.7091" lon="4.93766">
        <ele>154.3</ele>
        <time>2025-11-12T14:07:35.033Z</time>
      </trkpt>
      <trkpt lat="43.70911" lon="4.93769">
        <ele>154.3</ele>
        <time>2025-11-12T14:07:37.034Z</time>
      </trkpt>
      <trkpt lat="43.70911" lon="4.93773">
        <ele>154.3</ele>
        <time>2025-11-12T14:07:40.033Z</time>
      </trkpt>
      <trkpt lat="43.70911" lon="4.93777">
        <ele>154.1</ele>
        <time>2025-11-12T14:07:43.033Z</time>
      </trkpt>
      <trkpt lat="43.7091" lon="4.9378">
        <ele>154.1</ele>
        <time>2025-11-12T14:07:46.033Z</time>
      </trkpt>
      <trkpt lat="43.70909" lon="4.93785">
        <ele>154.1</ele>
        <time>2025-11-12T14:07:49.033Z</time>
      </trkpt>
      <trkpt lat="43.70909" lon="4.93789">
        <ele>154</ele>
        <time>2025-11-12T14:07:52.033Z</time>
      </trkpt>
      <trkpt lat="43.70909" lon="4.93793">
        <ele>154</ele>
        <time>2025-11-12T14:07:55.033Z</time>
      </trkpt>
      <trkpt lat="43.70908" lon="4.93796">
        <ele>154.1</ele>
        <time>2025-11-12T14:07:57.033Z</time>
      </trkpt>
      <trkpt lat="43.70908" lon="4.938">
        <ele>154.1</ele>
        <time>2025-11-12T14:07:59.033Z</time>
      </trkpt>
      <trkpt lat="43.70908" lon="4.93803">
        <ele>154.1</ele>
        <time>2025-11-12T14:08:02.033Z</time>
      </trkpt>
      <trkpt lat="43.70908" lon="4.93808">
        <ele>154.4</ele>
        <time>2025-11-12T14:08:05.034Z</time>
      </trkpt>
      <trkpt lat="43.70908" lon="4.93812">
        <ele>154.7</ele>
        <time>2025-11-12T14:08:08.033Z</time>
      </trkpt>
      <trkpt lat="43.70907" lon="4.93815">
        <ele>155</ele>
        <time>2025-11-12T14:08:10.033Z</time>
      </trkpt>
      <trkpt lat="43.70906" lon="4.9382">
        <ele>155.2</ele>
        <time>2025-11-12T14:08:13.034Z</time>
      </trkpt>
      <trkpt lat="43.70906" lon="4.93824">
        <ele>155.5</ele>
        <time>2025-11-12T14:08:15.033Z</time>
      </trkpt>
      <trkpt lat="43.70905" lon="4.93828">
        <ele>155.7</ele>
        <time>2025-11-12T14:08:18.033Z</time>
      </trkpt>
      <trkpt lat="43.70904" lon="4.93832">
        <ele>155.8</ele>
        <time>2025-11-12T14:08:21.033Z</time>
      </trkpt>
      <trkpt lat="43.70903" lon="4.93835">
        <ele>155.7</ele>
        <time>2025-11-12T14:08:24.032Z</time>
      </trkpt>
      <trkpt lat="43.70902" lon="4.93839">
        <ele>155.3</ele>
        <time>2025-11-12T14:08:27.033Z</time>
      </trkpt>
      <trkpt lat="43.70901" lon="4.93843">
        <ele>155.2</ele>
        <time>2025-11-12T14:08:29.033Z</time>
      </trkpt>
      <trkpt lat="43.709" lon="4.93846">
        <ele>154.9</ele>
        <time>2025-11-12T14:08:32.033Z</time>
      </trkpt>
      <trkpt lat="43.70899" lon="4.9385">
        <ele>154.8</ele>
        <time>2025-11-12T14:08:35.033Z</time>
      </trkpt>
      <trkpt lat="43.70899" lon="4.93855">
        <ele>154.7</ele>
        <time>2025-11-12T14:08:38.033Z</time>
      </trkpt>
      <trkpt lat="43.70898" lon="4.93858">
        <ele>154.5</ele>
        <time>2025-11-12T14:08:41.033Z</time>
      </trkpt>
      <trkpt lat="43.70896" lon="4.93863">
        <ele>154.1</ele>
        <time>2025-11-12T14:08:44.033Z</time>
      </trkpt>
      <trkpt lat="43.70896" lon="4.93866">
        <ele>153.9</ele>
        <time>2025-11-12T14:08:46.033Z</time>
      </trkpt>
      <trkpt lat="43.70895" lon="4.9387">
        <ele>153.8</ele>
        <time>2025-11-12T14:08:49.033Z</time>
      </trkpt>
      <trkpt lat="43.70895" lon="4.93874">
        <ele>153.8</ele>
        <time>2025-11-12T14:08:52.033Z</time>
      </trkpt>
      <trkpt lat="43.70895" lon="4.93877">
        <ele>153.7</ele>
        <time>2025-11-12T14:08:54.033Z</time>
      </trkpt>
      <trkpt lat="43.70894" lon="4.9388">
        <ele>153.6</ele>
        <time>2025-11-12T14:08:56.033Z</time>
      </trkpt>
      <trkpt lat="43.70894" lon="4.93884">
        <ele>153.6</ele>
        <time>2025-11-12T14:08:58.033Z</time>
      </trkpt>
      <trkpt lat="43.70895" lon="4.93887">
        <ele>153.6</ele>
        <time>2025-11-12T14:09:00.033Z</time>
      </trkpt>
      <trkpt lat="43.70894" lon="4.9389">
        <ele>153.6</ele>
        <time>2025-11-12T14:09:04.033Z</time>
      </trkpt>
      <trkpt lat="43.70893" lon="4.93894">
        <ele>153.8</ele>
        <time>2025-11-12T14:09:07.034Z</time>
      </trkpt>
      <trkpt lat="43.70892" lon="4.93897">
        <ele>153.8</ele>
        <time>2025-11-12T14:09:09.033Z</time>
      </trkpt>
      <trkpt lat="43.70891" lon="4.939">
        <ele>153.7</ele>
        <time>2025-11-12T14:09:12.033Z</time>
      </trkpt>
      <trkpt lat="43.70891" lon="4.93905">
        <ele>153.9</ele>
        <time>2025-11-12T14:09:15.033Z</time>
      </trkpt>
      <trkpt lat="43.7089" lon="4.93908">
        <ele>153.9</ele>
        <time>2025-11-12T14:09:18.033Z</time>
      </trkpt>
      <trkpt lat="43.70888" lon="4.93912">
        <ele>153.7</ele>
        <time>2025-11-12T14:09:21.033Z</time>
      </trkpt>
      <trkpt lat="43.70887" lon="4.93916">
        <ele>153.7</ele>
        <time>2025-11-12T14:09:24.033Z</time>
      </trkpt>
      <trkpt lat="43.70887" lon="4.9392">
        <ele>153.9</ele>
        <time>2025-11-12T14:09:27.033Z</time>
      </trkpt>
      <trkpt lat="43.70887" lon="4.93925">
        <ele>153.9</ele>
        <time>2025-11-12T14:09:30.033Z</time>
      </trkpt>
      <trkpt lat="43.70887" lon="4.93928">
        <ele>154.1</ele>
        <time>2025-11-12T14:09:32.033Z</time>
      </trkpt>
      <trkpt lat="43.70887" lon="4.93931">
        <ele>154.2</ele>
        <time>2025-11-12T14:09:34.033Z</time>
      </trkpt>
      <trkpt lat="43.70887" lon="4.93936">
        <ele>154.3</ele>
        <time>2025-11-12T14:09:37.033Z</time>
      </trkpt>
      <trkpt lat="43.70887" lon="4.9394">
        <ele>154.4</ele>
        <time>2025-11-12T14:09:39.033Z</time>
      </trkpt>
      <trkpt lat="43.70886" lon="4.93942">
        <ele>154.3</ele>
        <time>2025-11-12T14:09:41.033Z</time>
      </trkpt>
      <trkpt lat="43.70885" lon="4.93946">
        <ele>154.4</ele>
        <time>2025-11-12T14:09:44.033Z</time>
      </trkpt>
      <trkpt lat="43.70884" lon="4.93949">
        <ele>154.4</ele>
        <time>2025-11-12T14:09:46.033Z</time>
      </trkpt>
      <trkpt lat="43.70883" lon="4.93953">
        <ele>154.4</ele>
        <time>2025-11-12T14:09:49.033Z</time>
      </trkpt>
      <trkpt lat="43.70883" lon="4.93956">
        <ele>154.7</ele>
        <time>2025-11-12T14:09:51.033Z</time>
      </trkpt>
      <trkpt lat="43.70881" lon="4.9396">
        <ele>154.6</ele>
        <time>2025-11-12T14:09:53.033Z</time>
      </trkpt>
      <trkpt lat="43.70881" lon="4.93964">
        <ele>154.7</ele>
        <time>2025-11-12T14:09:56.033Z</time>
      </trkpt>
      <trkpt lat="43.7088" lon="4.93967">
        <ele>154.8</ele>
        <time>2025-11-12T14:09:58.033Z</time>
      </trkpt>
      <trkpt lat="43.7088" lon="4.9397">
        <ele>154.9</ele>
        <time>2025-11-12T14:10:00.033Z</time>
      </trkpt>
      <trkpt lat="43.70879" lon="4.93974">
        <ele>154.9</ele>
        <time>2025-11-12T14:10:02.033Z</time>
      </trkpt>
      <trkpt lat="43.70878" lon="4.93977">
        <ele>154.6</ele>
        <time>2025-11-12T14:10:04.033Z</time>
      </trkpt>
      <trkpt lat="43.70877" lon="4.93981">
        <ele>154.6</ele>
        <time>2025-11-12T14:10:07.033Z</time>
      </trkpt>
      <trkpt lat="43.70877" lon="4.93985">
        <ele>154.6</ele>
        <time>2025-11-12T14:10:10.033Z</time>
      </trkpt>
      <trkpt lat="43.70876" lon="4.93988">
        <ele>154.5</ele>
        <time>2025-11-12T14:10:13.033Z</time>
      </trkpt>
      <trkpt lat="43.70876" lon="4.93993">
        <ele>154.5</ele>
        <time>2025-11-12T14:10:16.033Z</time>
      </trkpt>
      <trkpt lat="43.70875" lon="4.93998">
        <ele>154.5</ele>
        <time>2025-11-12T14:10:19.033Z</time>
      </trkpt>
      <trkpt lat="43.70876" lon="4.94001">
        <ele>154.6</ele>
        <time>2025-11-12T14:10:22.033Z</time>
      </trkpt>
      <trkpt lat="43.70876" lon="4.94005">
        <ele>154.5</ele>
        <time>2025-11-12T14:10:25.033Z</time>
      </trkpt>
      <trkpt lat="43.70875" lon="4.94008">
        <ele>154.4</ele>
        <time>2025-11-12T14:10:27.033Z</time>
      </trkpt>
      <trkpt lat="43.70875" lon="4.94012">
        <ele>154.2</ele>
        <time>2025-11-12T14:10:30.033Z</time>
      </trkpt>
      <trkpt lat="43.70874" lon="4.94015">
        <ele>154</ele>
        <time>2025-11-12T14:10:32.033Z</time>
      </trkpt>
      <trkpt lat="43.70872" lon="4.94019">
        <ele>153.7</ele>
        <time>2025-11-12T14:10:35.033Z</time>
      </trkpt>
      <trkpt lat="43.70871" lon="4.94023">
        <ele>153.5</ele>
        <time>2025-11-12T14:10:38.033Z</time>
      </trkpt>
      <trkpt lat="43.70871" lon="4.94026">
        <ele>153.4</ele>
        <time>2025-11-12T14:10:41.033Z</time>
      </trkpt>
      <trkpt lat="43.7087" lon="4.94031">
        <ele>153.4</ele>
        <time>2025-11-12T14:10:44.033Z</time>
      </trkpt>
      <trkpt lat="43.70869" lon="4.94035">
        <ele>153.3</ele>
        <time>2025-11-12T14:10:47.033Z</time>
      </trkpt>
      <trkpt lat="43.70867" lon="4.94038">
        <ele>153.2</ele>
        <time>2025-11-12T14:10:49.033Z</time>
      </trkpt>
      <trkpt lat="43.70866" lon="4.94042">
        <ele>153.2</ele>
        <time>2025-11-12T14:10:51.033Z</time>
      </trkpt>
      <trkpt lat="43.70865" lon="4.94045">
        <ele>153.1</ele>
        <time>2025-11-12T14:10:53.033Z</time>
      </trkpt>
      <trkpt lat="43.70864" lon="4.94049">
        <ele>153.1</ele>
        <time>2025-11-12T14:10:55.034Z</time>
      </trkpt>
      <trkpt lat="43.70863" lon="4.94052">
        <ele>153.1</ele>
        <time>2025-11-12T14:10:58.033Z</time>
      </trkpt>
      <trkpt lat="43.70861" lon="4.94056">
        <ele>153</ele>
        <time>2025-11-12T14:11:01.033Z</time>
      </trkpt>
      <trkpt lat="43.7086" lon="4.9406">
        <ele>153</ele>
        <time>2025-11-12T14:11:04.034Z</time>
      </trkpt>
      <trkpt lat="43.70859" lon="4.94064">
        <ele>152.9</ele>
        <time>2025-11-12T14:11:07.033Z</time>
      </trkpt>
      <trkpt lat="43.70858" lon="4.94067">
        <ele>152.9</ele>
        <time>2025-11-12T14:11:09.033Z</time>
      </trkpt>
      <trkpt lat="43.70857" lon="4.9407">
        <ele>152.8</ele>
        <time>2025-11-12T14:11:11.033Z</time>
      </trkpt>
      <trkpt lat="43.70855" lon="4.94074">
        <ele>152.7</ele>
        <time>2025-11-12T14:11:14.033Z</time>
      </trkpt>
      <trkpt lat="43.70854" lon="4.94078">
        <ele>152.6</ele>
        <time>2025-11-12T14:11:17.033Z</time>
      </trkpt>
      <trkpt lat="43.70853" lon="4.94083">
        <ele>152.5</ele>
        <time>2025-11-12T14:11:20.033Z</time>
      </trkpt>
      <trkpt lat="43.70852" lon="4.94086">
        <ele>152.4</ele>
        <time>2025-11-12T14:11:23.033Z</time>
      </trkpt>
      <trkpt lat="43.70851" lon="4.94089">
        <ele>152.2</ele>
        <time>2025-11-12T14:11:25.033Z</time>
      </trkpt>
      <trkpt lat="43.7085" lon="4.94093">
        <ele>152.1</ele>
        <time>2025-11-12T14:11:27.033Z</time>
      </trkpt>
      <trkpt lat="43.70849" lon="4.94097">
        <ele>152</ele>
        <time>2025-11-12T14:11:30.033Z</time>
      </trkpt>
      <trkpt lat="43.70848" lon="4.941">
        <ele>151.9</ele>
        <time>2025-11-12T14:11:33.033Z</time>
      </trkpt>
      <trkpt lat="43.70847" lon="4.94104">
        <ele>151.8</ele>
        <time>2025-11-12T14:11:36.033Z</time>
      </trkpt>
      <trkpt lat="43.70846" lon="4.94108">
        <ele>151.7</ele>
        <time>2025-11-12T14:11:39.033Z</time>
      </trkpt>
      <trkpt lat="43.70845" lon="4.94111">
        <ele>151.7</ele>
        <time>2025-11-12T14:11:42.033Z</time>
      </trkpt>
      <trkpt lat="43.70845" lon="4.94114">
        <ele>151.5</ele>
        <time>2025-11-12T14:11:44.033Z</time>
      </trkpt>
      <trkpt lat="43.70844" lon="4.94118">
        <ele>151.3</ele>
        <time>2025-11-12T14:11:46.033Z</time>
      </trkpt>
      <trkpt lat="43.70843" lon="4.94122">
        <ele>150.9</ele>
        <time>2025-11-12T14:11:49.033Z</time>
      </trkpt>
      <trkpt lat="43.70842" lon="4.94126">
        <ele>150.6</ele>
        <time>2025-11-12T14:11:52.033Z</time>
      </trkpt>
      <trkpt lat="43.70842" lon="4.9413">
        <ele>150.3</ele>
        <time>2025-11-12T14:11:55.033Z</time>
      </trkpt>
      <trkpt lat="43.70842" lon="4.94133">
        <ele>150.1</ele>
        <time>2025-11-12T14:11:57.033Z</time>
      </trkpt>
      <trkpt lat="43.70841" lon="4.94137">
        <ele>149.8</ele>
        <time>2025-11-12T14:11:59.033Z</time>
      </trkpt>
      <trkpt lat="43.70841" lon="4.94141">
        <ele>149.6</ele>
        <time>2025-11-12T14:12:01.033Z</time>
      </trkpt>
      <trkpt lat="43.70841" lon="4.94145">
        <ele>149.2</ele>
        <time>2025-11-12T14:12:04.033Z</time>
      </trkpt>
      <trkpt lat="43.70841" lon="4.94149">
        <ele>149.1</ele>
        <time>2025-11-12T14:12:07.033Z</time>
      </trkpt>
      <trkpt lat="43.70841" lon="4.94152">
        <ele>148.8</ele>
        <time>2025-11-12T14:12:09.033Z</time>
      </trkpt>
      <trkpt lat="43.70841" lon="4.94156">
        <ele>148.5</ele>
        <time>2025-11-12T14:12:12.033Z</time>
      </trkpt>
      <trkpt lat="43.7084" lon="4.9416">
        <ele>148</ele>
        <time>2025-11-12T14:12:15.033Z</time>
      </trkpt>
      <trkpt lat="43.70839" lon="4.94164">
        <ele>147.5</ele>
        <time>2025-11-12T14:12:17.033Z</time>
      </trkpt>
      <trkpt lat="43.70838" lon="4.94167">
        <ele>147</ele>
        <time>2025-11-12T14:12:19.033Z</time>
      </trkpt>
      <trkpt lat="43.70836" lon="4.9417">
        <ele>146.5</ele>
        <time>2025-11-12T14:12:22.033Z</time>
      </trkpt>
      <trkpt lat="43.70834" lon="4.94173">
        <ele>146</ele>
        <time>2025-11-12T14:12:25.033Z</time>
      </trkpt>
      <trkpt lat="43.70833" lon="4.94177">
        <ele>145.6</ele>
        <time>2025-11-12T14:12:28.033Z</time>
      </trkpt>
      <trkpt lat="43.70832" lon="4.94181">
        <ele>145.4</ele>
        <time>2025-11-12T14:12:31.033Z</time>
      </trkpt>
      <trkpt lat="43.70831" lon="4.94185">
        <ele>145.3</ele>
        <time>2025-11-12T14:12:34.033Z</time>
      </trkpt>
      <trkpt lat="43.7083" lon="4.94189">
        <ele>145.2</ele>
        <time>2025-11-12T14:12:37.033Z</time>
      </trkpt>
      <trkpt lat="43.70829" lon="4.94192">
        <ele>145.1</ele>
        <time>2025-11-12T14:12:39.033Z</time>
      </trkpt>
      <trkpt lat="43.70828" lon="4.94196">
        <ele>145</ele>
        <time>2025-11-12T14:12:42.033Z</time>
      </trkpt>
      <trkpt lat="43.70827" lon="4.942">
        <ele>145.1</ele>
        <time>2025-11-12T14:12:45.033Z</time>
      </trkpt>
      <trkpt lat="43.70827" lon="4.94204">
        <ele>145.2</ele>
        <time>2025-11-12T14:12:47.033Z</time>
      </trkpt>
      <trkpt lat="43.70826" lon="4.94208">
        <ele>145.2</ele>
        <time>2025-11-12T14:12:50.033Z</time>
      </trkpt>
      <trkpt lat="43.70825" lon="4.94211">
        <ele>145.3</ele>
        <time>2025-11-12T14:12:53.033Z</time>
      </trkpt>
      <trkpt lat="43.70824" lon="4.94216">
        <ele>145.3</ele>
        <time>2025-11-12T14:12:56.033Z</time>
      </trkpt>
      <trkpt lat="43.70823" lon="4.94219">
        <ele>145.2</ele>
        <time>2025-11-12T14:12:58.033Z</time>
      </trkpt>
      <trkpt lat="43.70823" lon="4.94223">
        <ele>145.2</ele>
        <time>2025-11-12T14:13:01.033Z</time>
      </trkpt>
      <trkpt lat="43.70822" lon="4.94227">
        <ele>144.9</ele>
        <time>2025-11-12T14:13:05.033Z</time>
      </trkpt>
      <trkpt lat="43.70821" lon="4.94231">
        <ele>144.7</ele>
        <time>2025-11-12T14:13:07.033Z</time>
      </trkpt>
      <trkpt lat="43.70821" lon="4.94234">
        <ele>144.5</ele>
        <time>2025-11-12T14:13:10.033Z</time>
      </trkpt>
      <trkpt lat="43.70821" lon="4.94238">
        <ele>144.3</ele>
        <time>2025-11-12T14:13:12.033Z</time>
      </trkpt>
      <trkpt lat="43.7082" lon="4.94241">
        <ele>144.1</ele>
        <time>2025-11-12T14:13:14.033Z</time>
      </trkpt>
      <trkpt lat="43.7082" lon="4.94244">
        <ele>143.8</ele>
        <time>2025-11-12T14:13:16.034Z</time>
      </trkpt>
      <trkpt lat="43.70819" lon="4.94247">
        <ele>143.6</ele>
        <time>2025-11-12T14:13:18.033Z</time>
      </trkpt>
      <trkpt lat="43.70818" lon="4.94251">
        <ele>143.3</ele>
        <time>2025-11-12T14:13:20.033Z</time>
      </trkpt>
      <trkpt lat="43.70817" lon="4.94254">
        <ele>143.1</ele>
        <time>2025-11-12T14:13:22.033Z</time>
      </trkpt>
      <trkpt lat="43.70816" lon="4.94257">
        <ele>142.9</ele>
        <time>2025-11-12T14:13:24.033Z</time>
      </trkpt>
      <trkpt lat="43.70815" lon="4.94261">
        <ele>142.6</ele>
        <time>2025-11-12T14:13:27.033Z</time>
      </trkpt>
      <trkpt lat="43.70815" lon="4.94265">
        <ele>142.5</ele>
        <time>2025-11-12T14:13:30.033Z</time>
      </trkpt>
      <trkpt lat="43.70815" lon="4.9427">
        <ele>142.3</ele>
        <time>2025-11-12T14:13:33.033Z</time>
      </trkpt>
      <trkpt lat="43.70815" lon="4.94274">
        <ele>142.1</ele>
        <time>2025-11-12T14:13:36.033Z</time>
      </trkpt>
      <trkpt lat="43.70814" lon="4.94277">
        <ele>141.9</ele>
        <time>2025-11-12T14:13:39.034Z</time>
      </trkpt>
      <trkpt lat="43.70812" lon="4.9428">
        <ele>141.6</ele>
        <time>2025-11-12T14:13:42.033Z</time>
      </trkpt>
      <trkpt lat="43.70812" lon="4.94284">
        <ele>141.4</ele>
        <time>2025-11-12T14:13:45.033Z</time>
      </trkpt>
      <trkpt lat="43.70811" lon="4.94287">
        <ele>141.1</ele>
        <time>2025-11-12T14:13:48.033Z</time>
      </trkpt>
      <trkpt lat="43.70809" lon="4.9429">
        <ele>140.9</ele>
        <time>2025-11-12T14:13:50.033Z</time>
      </trkpt>
      <trkpt lat="43.70807" lon="4.94294">
        <ele>140.6</ele>
        <time>2025-11-12T14:13:53.033Z</time>
      </trkpt>
      <trkpt lat="43.70806" lon="4.94298">
        <ele>140.3</ele>
        <time>2025-11-12T14:13:55.033Z</time>
      </trkpt>
      <trkpt lat="43.70804" lon="4.943">
        <ele>140.1</ele>
        <time>2025-11-12T14:13:57.034Z</time>
      </trkpt>
      <trkpt lat="43.70802" lon="4.94303">
        <ele>139.8</ele>
        <time>2025-11-12T14:13:59.033Z</time>
      </trkpt>
      <trkpt lat="43.70799" lon="4.94307">
        <ele>139.5</ele>
        <time>2025-11-12T14:14:02.033Z</time>
      </trkpt>
      <trkpt lat="43.70797" lon="4.94309">
        <ele>139.3</ele>
        <time>2025-11-12T14:14:05.033Z</time>
      </trkpt>
      <trkpt lat="43.70795" lon="4.94312">
        <ele>139.1</ele>
        <time>2025-11-12T14:14:08.033Z</time>
      </trkpt>
      <trkpt lat="43.70793" lon="4.94316">
        <ele>138.9</ele>
        <time>2025-11-12T14:14:11.033Z</time>
      </trkpt>
      <trkpt lat="43.70792" lon="4.94319">
        <ele>138.8</ele>
        <time>2025-11-12T14:14:14.033Z</time>
      </trkpt>
      <trkpt lat="43.70791" lon="4.94323">
        <ele>138.7</ele>
        <time>2025-11-12T14:14:16.033Z</time>
      </trkpt>
      <trkpt lat="43.70791" lon="4.94326">
        <ele>138.6</ele>
        <time>2025-11-12T14:14:18.033Z</time>
      </trkpt>
      <trkpt lat="43.7079" lon="4.94329">
        <ele>138.5</ele>
        <time>2025-11-12T14:14:20.033Z</time>
      </trkpt>
      <trkpt lat="43.70788" lon="4.94333">
        <ele>138.4</ele>
        <time>2025-11-12T14:14:22.033Z</time>
      </trkpt>
      <trkpt lat="43.70788" lon="4.94336">
        <ele>138.2</ele>
        <time>2025-11-12T14:14:24.033Z</time>
      </trkpt>
      <trkpt lat="43.70787" lon="4.9434">
        <ele>138</ele>
        <time>2025-11-12T14:14:28.033Z</time>
      </trkpt>
      <trkpt lat="43.70787" lon="4.94343">
        <ele>137.7</ele>
        <time>2025-11-12T14:14:31.033Z</time>
      </trkpt>
      <trkpt lat="43.70786" lon="4.94346">
        <ele>137.5</ele>
        <time>2025-11-12T14:14:33.033Z</time>
      </trkpt>
      <trkpt lat="43.70785" lon="4.9435">
        <ele>137.2</ele>
        <time>2025-11-12T14:14:36.033Z</time>
      </trkpt>
      <trkpt lat="43.70783" lon="4.94354">
        <ele>136.9</ele>
        <time>2025-11-12T14:14:39.033Z</time>
      </trkpt>
      <trkpt lat="43.70783" lon="4.94358">
        <ele>136.6</ele>
        <time>2025-11-12T14:14:42.033Z</time>
      </trkpt>
      <trkpt lat="43.70783" lon="4.94362">
        <ele>136.4</ele>
        <time>2025-11-12T14:14:45.033Z</time>
      </trkpt>
      <trkpt lat="43.70783" lon="4.94365">
        <ele>136.3</ele>
        <time>2025-11-12T14:14:47.033Z</time>
      </trkpt>
      <trkpt lat="43.70782" lon="4.94369">
        <ele>136.3</ele>
        <time>2025-11-12T14:14:49.033Z</time>
      </trkpt>
      <trkpt lat="43.70782" lon="4.94373">
        <ele>136.2</ele>
        <time>2025-11-12T14:14:52.033Z</time>
      </trkpt>
      <trkpt lat="43.7078" lon="4.94376">
        <ele>136.1</ele>
        <time>2025-11-12T14:14:55.033Z</time>
      </trkpt>
      <trkpt lat="43.7078" lon="4.94381">
        <ele>136.1</ele>
        <time>2025-11-12T14:14:58.033Z</time>
      </trkpt>
      <trkpt lat="43.7078" lon="4.94384">
        <ele>136.1</ele>
        <time>2025-11-12T14:15:01.033Z</time>
      </trkpt>
      <trkpt lat="43.70779" lon="4.94389">
        <ele>136</ele>
        <time>2025-11-12T14:15:04.033Z</time>
      </trkpt>
      <trkpt lat="43.70778" lon="4.94393">
        <ele>135.9</ele>
        <time>2025-11-12T14:15:07.033Z</time>
      </trkpt>
      <trkpt lat="43.70777" lon="4.94396">
        <ele>135.7</ele>
        <time>2025-11-12T14:15:10.033Z</time>
      </trkpt>
      <trkpt lat="43.70776" lon="4.944">
        <ele>135.5</ele>
        <time>2025-11-12T14:15:12.033Z</time>
      </trkpt>
      <trkpt lat="43.70776" lon="4.94404">
        <ele>135.3</ele>
        <time>2025-11-12T14:15:14.033Z</time>
      </trkpt>
      <trkpt lat="43.70775" lon="4.94408">
        <ele>135.1</ele>
        <time>2025-11-12T14:15:17.033Z</time>
      </trkpt>
      <trkpt lat="43.70775" lon="4.94411">
        <ele>135</ele>
        <time>2025-11-12T14:15:19.033Z</time>
      </trkpt>
      <trkpt lat="43.70774" lon="4.94415">
        <ele>134.8</ele>
        <time>2025-11-12T14:15:21.033Z</time>
      </trkpt>
      <trkpt lat="43.70773" lon="4.94419">
        <ele>134.7</ele>
        <time>2025-11-12T14:15:24.033Z</time>
      </trkpt>
      <trkpt lat="43.70773" lon="4.94423">
        <ele>134.6</ele>
        <time>2025-11-12T14:15:27.033Z</time>
      </trkpt>
      <trkpt lat="43.70773" lon="4.94428">
        <ele>134.7</ele>
        <time>2025-11-12T14:15:30.033Z</time>
      </trkpt>
      <trkpt lat="43.70773" lon="4.94432">
        <ele>134.6</ele>
        <time>2025-11-12T14:15:33.034Z</time>
      </trkpt>
      <trkpt lat="43.70772" lon="4.94436">
        <ele>134.6</ele>
        <time>2025-11-12T14:15:36.033Z</time>
      </trkpt>
      <trkpt lat="43.70772" lon="4.94441">
        <ele>134.6</ele>
        <time>2025-11-12T14:15:39.033Z</time>
      </trkpt>
      <trkpt lat="43.70772" lon="4.94444">
        <ele>134.6</ele>
        <time>2025-11-12T14:15:41.033Z</time>
      </trkpt>
      <trkpt lat="43.70772" lon="4.94448">
        <ele>134.5</ele>
        <time>2025-11-12T14:15:44.033Z</time>
      </trkpt>
      <trkpt lat="43.70771" lon="4.94452">
        <ele>134.3</ele>
        <time>2025-11-12T14:15:47.033Z</time>
      </trkpt>
      <trkpt lat="43.70772" lon="4.94455">
        <ele>134.3</ele>
        <time>2025-11-12T14:15:49.033Z</time>
      </trkpt>
      <trkpt lat="43.70772" lon="4.94459">
        <ele>134.1</ele>
        <time>2025-11-12T14:15:52.033Z</time>
      </trkpt>
      <trkpt lat="43.70771" lon="4.94464">
        <ele>134</ele>
        <time>2025-11-12T14:15:55.033Z</time>
      </trkpt>
      <trkpt lat="43.70771" lon="4.94468">
        <ele>133.9</ele>
        <time>2025-11-12T14:15:58.033Z</time>
      </trkpt>
      <trkpt lat="43.70771" lon="4.94473">
        <ele>133.8</ele>
        <time>2025-11-12T14:16:01.033Z</time>
      </trkpt>
      <trkpt lat="43.70772" lon="4.94478">
        <ele>133.9</ele>
        <time>2025-11-12T14:16:04.033Z</time>
      </trkpt>
      <trkpt lat="43.70771" lon="4.94482">
        <ele>134</ele>
        <time>2025-11-12T14:16:07.033Z</time>
      </trkpt>
      <trkpt lat="43.70771" lon="4.94485">
        <ele>134.1</ele>
        <time>2025-11-12T14:16:09.034Z</time>
      </trkpt>
      <trkpt lat="43.70771" lon="4.94488">
        <ele>134.2</ele>
        <time>2025-11-12T14:16:11.033Z</time>
      </trkpt>
      <trkpt lat="43.70771" lon="4.94492">
        <ele>134.3</ele>
        <time>2025-11-12T14:16:14.033Z</time>
      </trkpt>
      <trkpt lat="43.70771" lon="4.94496">
        <ele>134.4</ele>
        <time>2025-11-12T14:16:17.033Z</time>
      </trkpt>
      <trkpt lat="43.70771" lon="4.94501">
        <ele>134.5</ele>
        <time>2025-11-12T14:16:20.033Z</time>
      </trkpt>
      <trkpt lat="43.70771" lon="4.94504">
        <ele>134.3</ele>
        <time>2025-11-12T14:16:22.033Z</time>
      </trkpt>
      <trkpt lat="43.70771" lon="4.94508">
        <ele>134</ele>
        <time>2025-11-12T14:16:25.033Z</time>
      </trkpt>
      <trkpt lat="43.70771" lon="4.94511">
        <ele>133.8</ele>
        <time>2025-11-12T14:16:27.034Z</time>
      </trkpt>
      <trkpt lat="43.70771" lon="4.94516">
        <ele>133.5</ele>
        <time>2025-11-12T14:16:30.033Z</time>
      </trkpt>
      <trkpt lat="43.70771" lon="4.9452">
        <ele>133.3</ele>
        <time>2025-11-12T14:16:33.033Z</time>
      </trkpt>
      <trkpt lat="43.70772" lon="4.94523">
        <ele>133.1</ele>
        <time>2025-11-12T14:16:35.033Z</time>
      </trkpt>
      <trkpt lat="43.70772" lon="4.94528">
        <ele>132.8</ele>
        <time>2025-11-12T14:16:38.033Z</time>
      </trkpt>
      <trkpt lat="43.70772" lon="4.94532">
        <ele>132.7</ele>
        <time>2025-11-12T14:16:41.033Z</time>
      </trkpt>
      <trkpt lat="43.70772" lon="4.94535">
        <ele>132.5</ele>
        <time>2025-11-12T14:16:44.033Z</time>
      </trkpt>
      <trkpt lat="43.70771" lon="4.94539">
        <ele>132.3</ele>
        <time>2025-11-12T14:16:47.033Z</time>
      </trkpt>
      <trkpt lat="43.70772" lon="4.94544">
        <ele>132.2</ele>
        <time>2025-11-12T14:16:50.033Z</time>
      </trkpt>
      <trkpt lat="43.70772" lon="4.94548">
        <ele>132.1</ele>
        <time>2025-11-12T14:16:53.033Z</time>
      </trkpt>
      <trkpt lat="43.70773" lon="4.9455">
        <ele>132</ele>
        <time>2025-11-12T14:16:55.033Z</time>
      </trkpt>
      <trkpt lat="43.70774" lon="4.94555">
        <ele>131.9</ele>
        <time>2025-11-12T14:16:58.033Z</time>
      </trkpt>
      <trkpt lat="43.70774" lon="4.94558">
        <ele>131.8</ele>
        <time>2025-11-12T14:17:00.033Z</time>
      </trkpt>
      <trkpt lat="43.70774" lon="4.94561">
        <ele>131.7</ele>
        <time>2025-11-12T14:17:02.033Z</time>
      </trkpt>
      <trkpt lat="43.70774" lon="4.94565">
        <ele>131.5</ele>
        <time>2025-11-12T14:17:04.033Z</time>
      </trkpt>
      <trkpt lat="43.70774" lon="4.94569">
        <ele>131.4</ele>
        <time>2025-11-12T14:17:06.033Z</time>
      </trkpt>
      <trkpt lat="43.70776" lon="4.94572">
        <ele>131.3</ele>
        <time>2025-11-12T14:17:09.033Z</time>
      </trkpt>
      <trkpt lat="43.70776" lon="4.94576">
        <ele>131.2</ele>
        <time>2025-11-12T14:17:11.033Z</time>
      </trkpt>
      <trkpt lat="43.70775" lon="4.94579">
        <ele>131</ele>
        <time>2025-11-12T14:17:14.033Z</time>
      </trkpt>
      <trkpt lat="43.70775" lon="4.94583">
        <ele>130.9</ele>
        <time>2025-11-12T14:17:17.033Z</time>
      </trkpt>
      <trkpt lat="43.70775" lon="4.94587">
        <ele>130.8</ele>
        <time>2025-11-12T14:17:19.033Z</time>
      </trkpt>
      <trkpt lat="43.70775" lon="4.94591">
        <ele>130.6</ele>
        <time>2025-11-12T14:17:22.033Z</time>
      </trkpt>
      <trkpt lat="43.70776" lon="4.94596">
        <ele>130.5</ele>
        <time>2025-11-12T14:17:25.033Z</time>
      </trkpt>
      <trkpt lat="43.70776" lon="4.94599">
        <ele>130.4</ele>
        <time>2025-11-12T14:17:27.033Z</time>
      </trkpt>
      <trkpt lat="43.70777" lon="4.94602">
        <ele>130.3</ele>
        <time>2025-11-12T14:17:31.033Z</time>
      </trkpt>
      <trkpt lat="43.70778" lon="4.94606">
        <ele>130.2</ele>
        <time>2025-11-12T14:17:34.033Z</time>
      </trkpt>
      <trkpt lat="43.70778" lon="4.9461">
        <ele>130</ele>
        <time>2025-11-12T14:17:37.033Z</time>
      </trkpt>
      <trkpt lat="43.70777" lon="4.94614">
        <ele>130</ele>
        <time>2025-11-12T14:17:39.033Z</time>
      </trkpt>
      <trkpt lat="43.70777" lon="4.94617">
        <ele>130</ele>
        <time>2025-11-12T14:17:41.033Z</time>
      </trkpt>
      <trkpt lat="43.70776" lon="4.9462">
        <ele>129.9</ele>
        <time>2025-11-12T14:17:43.033Z</time>
      </trkpt>
      <trkpt lat="43.70776" lon="4.94625">
        <ele>129.9</ele>
        <time>2025-11-12T14:17:46.033Z</time>
      </trkpt>
      <trkpt lat="43.70776" lon="4.94628">
        <ele>130</ele>
        <time>2025-11-12T14:17:48.034Z</time>
      </trkpt>
      <trkpt lat="43.70777" lon="4.94632">
        <ele>130</ele>
        <time>2025-11-12T14:17:58.033Z</time>
      </trkpt>
      <trkpt lat="43.70775" lon="4.94634">
        <ele>130</ele>
        <time>2025-11-12T14:18:00.033Z</time>
      </trkpt>
      <trkpt lat="43.70773" lon="4.94637">
        <ele>130</ele>
        <time>2025-11-12T14:18:02.033Z</time>
      </trkpt>
      <trkpt lat="43.70771" lon="4.94639">
        <ele>130</ele>
        <time>2025-11-12T14:18:05.033Z</time>
      </trkpt>
      <trkpt lat="43.70768" lon="4.9464">
        <ele>130</ele>
        <time>2025-11-12T14:18:07.034Z</time>
      </trkpt>
      <trkpt lat="43.70765" lon="4.94641">
        <ele>130</ele>
        <time>2025-11-12T14:18:10.033Z</time>
      </trkpt>
      <trkpt lat="43.70762" lon="4.9464">
        <ele>130</ele>
        <time>2025-11-12T14:18:13.033Z</time>
      </trkpt>
      <trkpt lat="43.7076" lon="4.9464">
        <ele>130</ele>
        <time>2025-11-12T14:18:15.033Z</time>
      </trkpt>
      <trkpt lat="43.70758" lon="4.9464">
        <ele>130</ele>
        <time>2025-11-12T14:18:18.033Z</time>
      </trkpt>
      <trkpt lat="43.70755" lon="4.94638">
        <ele>130</ele>
        <time>2025-11-12T14:18:21.033Z</time>
      </trkpt>
      <trkpt lat="43.70753" lon="4.94638">
        <ele>129.9</ele>
        <time>2025-11-12T14:18:23.033Z</time>
      </trkpt>
      <trkpt lat="43.70751" lon="4.94639">
        <ele>130</ele>
        <time>2025-11-12T14:18:25.033Z</time>
      </trkpt>
      <trkpt lat="43.70747" lon="4.94639">
        <ele>130</ele>
        <time>2025-11-12T14:18:28.033Z</time>
      </trkpt>
      <trkpt lat="43.70745" lon="4.94639">
        <ele>130</ele>
        <time>2025-11-12T14:18:31.033Z</time>
      </trkpt>
      <trkpt lat="43.70742" lon="4.94639">
        <ele>130</ele>
        <time>2025-11-12T14:18:34.033Z</time>
      </trkpt>
      <trkpt lat="43.7074" lon="4.94638">
        <ele>130</ele>
        <time>2025-11-12T14:18:37.033Z</time>
      </trkpt>
      <trkpt lat="43.70738" lon="4.94639">
        <ele>130</ele>
        <time>2025-11-12T14:18:39.033Z</time>
      </trkpt>
      <trkpt lat="43.70735" lon="4.94638">
        <ele>130</ele>
        <time>2025-11-12T14:18:42.033Z</time>
      </trkpt>
      <trkpt lat="43.70733" lon="4.94637">
        <ele>129.9</ele>
        <time>2025-11-12T14:18:45.033Z</time>
      </trkpt>
      <trkpt lat="43.7073" lon="4.94636">
        <ele>129.9</ele>
        <time>2025-11-12T14:18:47.033Z</time>
      </trkpt>
      <trkpt lat="43.70728" lon="4.94636">
        <ele>129.9</ele>
        <time>2025-11-12T14:18:49.033Z</time>
      </trkpt>
      <trkpt lat="43.70726" lon="4.94639">
        <ele>130</ele>
        <time>2025-11-12T14:18:52.033Z</time>
      </trkpt>
      <trkpt lat="43.70724" lon="4.94639">
        <ele>130</ele>
        <time>2025-11-12T14:18:55.033Z</time>
      </trkpt>
      <trkpt lat="43.70721" lon="4.9464">
        <ele>130.1</ele>
        <time>2025-11-12T14:18:57.033Z</time>
      </trkpt>
      <trkpt lat="43.70719" lon="4.94641">
        <ele>130.2</ele>
        <time>2025-11-12T14:18:59.033Z</time>
      </trkpt>
      <trkpt lat="43.70717" lon="4.94644">
        <ele>130.4</ele>
        <time>2025-11-12T14:19:02.033Z</time>
      </trkpt>
      <trkpt lat="43.70715" lon="4.94644">
        <ele>130.5</ele>
        <time>2025-11-12T14:19:06.033Z</time>
      </trkpt>
      <trkpt lat="43.70713" lon="4.94648">
        <ele>130.6</ele>
        <time>2025-11-12T14:19:12.033Z</time>
      </trkpt>
      <trkpt lat="43.70713" lon="4.94651">
        <ele>130.8</ele>
        <time>2025-11-12T14:19:15.033Z</time>
      </trkpt>
      <trkpt lat="43.70713" lon="4.94656">
        <ele>131</ele>
        <time>2025-11-12T14:19:25.033Z</time>
      </trkpt>
      <trkpt lat="43.70713" lon="4.9466">
        <ele>131.1</ele>
        <time>2025-11-12T14:19:28.033Z</time>
      </trkpt>
      <trkpt lat="43.70714" lon="4.94663">
        <ele>131.2</ele>
        <time>2025-11-12T14:19:30.033Z</time>
      </trkpt>
      <trkpt lat="43.70715" lon="4.94667">
        <ele>131.3</ele>
        <time>2025-11-12T14:19:32.033Z</time>
      </trkpt>
      <trkpt lat="43.70715" lon="4.94671">
        <ele>131.4</ele>
        <time>2025-11-12T14:19:36.033Z</time>
      </trkpt>
      <trkpt lat="43.70716" lon="4.94675">
        <ele>131.4</ele>
        <time>2025-11-12T14:19:38.033Z</time>
      </trkpt>
      <trkpt lat="43.70716" lon="4.94678">
        <ele>131.5</ele>
        <time>2025-11-12T14:19:41.033Z</time>
      </trkpt>
      <trkpt lat="43.70716" lon="4.94682">
        <ele>131.7</ele>
        <time>2025-11-12T14:19:44.033Z</time>
      </trkpt>
      <trkpt lat="43.70716" lon="4.94686">
        <ele>131.8</ele>
        <time>2025-11-12T14:19:47.033Z</time>
      </trkpt>
      <trkpt lat="43.70718" lon="4.94689">
        <ele>131.8</ele>
        <time>2025-11-12T14:19:50.033Z</time>
      </trkpt>
      <trkpt lat="43.70717" lon="4.94693">
        <ele>132</ele>
        <time>2025-11-12T14:19:53.033Z</time>
      </trkpt>
      <trkpt lat="43.70717" lon="4.94697">
        <ele>132.1</ele>
        <time>2025-11-12T14:19:56.033Z</time>
      </trkpt>
      <trkpt lat="43.70716" lon="4.947">
        <ele>132.2</ele>
        <time>2025-11-12T14:19:58.033Z</time>
      </trkpt>
      <trkpt lat="43.70716" lon="4.94704">
        <ele>132.4</ele>
        <time>2025-11-12T14:20:01.033Z</time>
      </trkpt>
      <trkpt lat="43.70717" lon="4.94709">
        <ele>132.5</ele>
        <time>2025-11-12T14:20:04.033Z</time>
      </trkpt>
      <trkpt lat="43.70717" lon="4.94713">
        <ele>132.6</ele>
        <time>2025-11-12T14:20:08.033Z</time>
      </trkpt>
      <trkpt lat="43.70715" lon="4.94716">
        <ele>132.8</ele>
        <time>2025-11-12T14:20:10.033Z</time>
      </trkpt>
      <trkpt lat="43.70716" lon="4.94719">
        <ele>132.9</ele>
        <time>2025-11-12T14:20:12.033Z</time>
      </trkpt>
      <trkpt lat="43.70716" lon="4.94722">
        <ele>133</ele>
        <time>2025-11-12T14:20:14.033Z</time>
      </trkpt>
      <trkpt lat="43.70716" lon="4.94726">
        <ele>133.1</ele>
        <time>2025-11-12T14:20:16.033Z</time>
      </trkpt>
      <trkpt lat="43.70716" lon="4.9473">
        <ele>133.2</ele>
        <time>2025-11-12T14:20:19.033Z</time>
      </trkpt>
      <trkpt lat="43.70716" lon="4.94734">
        <ele>133.3</ele>
        <time>2025-11-12T14:20:22.033Z</time>
      </trkpt>
      <trkpt lat="43.70716" lon="4.94737">
        <ele>133.4</ele>
        <time>2025-11-12T14:20:25.033Z</time>
      </trkpt>
      <trkpt lat="43.70715" lon="4.94742">
        <ele>133.5</ele>
        <time>2025-11-12T14:20:28.033Z</time>
      </trkpt>
      <trkpt lat="43.70714" lon="4.94744">
        <ele>133.6</ele>
        <time>2025-11-12T14:20:31.033Z</time>
      </trkpt>
      <trkpt lat="43.70714" lon="4.94748">
        <ele>133.7</ele>
        <time>2025-11-12T14:20:34.033Z</time>
      </trkpt>
      <trkpt lat="43.70711" lon="4.94752">
        <ele>133.7</ele>
        <time>2025-11-12T14:20:37.033Z</time>
      </trkpt>
      <trkpt lat="43.7071" lon="4.94755">
        <ele>133.8</ele>
        <time>2025-11-12T14:20:40.033Z</time>
      </trkpt>
      <trkpt lat="43.70708" lon="4.94758">
        <ele>133.8</ele>
        <time>2025-11-12T14:20:44.033Z</time>
      </trkpt>
      <trkpt lat="43.70706" lon="4.94762">
        <ele>133.9</ele>
        <time>2025-11-12T14:20:47.033Z</time>
      </trkpt>
      <trkpt lat="43.70705" lon="4.94765">
        <ele>133.9</ele>
        <time>2025-11-12T14:20:49.033Z</time>
      </trkpt>
      <trkpt lat="43.70703" lon="4.94768">
        <ele>134</ele>
        <time>2025-11-12T14:20:52.033Z</time>
      </trkpt>
      <trkpt lat="43.70702" lon="4.94771">
        <ele>134</ele>
        <time>2025-11-12T14:20:54.033Z</time>
      </trkpt>
      <trkpt lat="43.707" lon="4.94774">
        <ele>134</ele>
        <time>2025-11-12T14:20:56.033Z</time>
      </trkpt>
      <trkpt lat="43.70699" lon="4.94778">
        <ele>134.2</ele>
        <time>2025-11-12T14:20:59.033Z</time>
      </trkpt>
      <trkpt lat="43.70698" lon="4.9478">
        <ele>134.2</ele>
        <time>2025-11-12T14:21:01.033Z</time>
      </trkpt>
      <trkpt lat="43.70696" lon="4.94783">
        <ele>134.2</ele>
        <time>2025-11-12T14:21:03.033Z</time>
      </trkpt>
      <trkpt lat="43.70693" lon="4.94787">
        <ele>134.3</ele>
        <time>2025-11-12T14:21:06.033Z</time>
      </trkpt>
      <trkpt lat="43.70691" lon="4.9479">
        <ele>134.3</ele>
        <time>2025-11-12T14:21:09.033Z</time>
      </trkpt>
      <trkpt lat="43.7069" lon="4.94793">
        <ele>134.4</ele>
        <time>2025-11-12T14:21:11.033Z</time>
      </trkpt>
      <trkpt lat="43.70689" lon="4.94795">
        <ele>134.4</ele>
        <time>2025-11-12T14:21:14.033Z</time>
      </trkpt>
      <trkpt lat="43.70688" lon="4.94798">
        <ele>134.5</ele>
        <time>2025-11-12T14:21:17.033Z</time>
      </trkpt>
      <trkpt lat="43.70686" lon="4.94801">
        <ele>134.5</ele>
        <time>2025-11-12T14:21:20.033Z</time>
      </trkpt>
      <trkpt lat="43.70685" lon="4.94803">
        <ele>134.6</ele>
        <time>2025-11-12T14:21:22.033Z</time>
      </trkpt>
      <trkpt lat="43.70683" lon="4.94807">
        <ele>134.6</ele>
        <time>2025-11-12T14:21:25.033Z</time>
      </trkpt>
      <trkpt lat="43.70682" lon="4.9481">
        <ele>134.5</ele>
        <time>2025-11-12T14:21:27.033Z</time>
      </trkpt>
      <trkpt lat="43.7068" lon="4.94813">
        <ele>134.3</ele>
        <time>2025-11-12T14:21:30.033Z</time>
      </trkpt>
      <trkpt lat="43.70678" lon="4.94815">
        <ele>134.2</ele>
        <time>2025-11-12T14:21:33.033Z</time>
      </trkpt>
      <trkpt lat="43.70676" lon="4.94817">
        <ele>134.1</ele>
        <time>2025-11-12T14:21:36.033Z</time>
      </trkpt>
      <trkpt lat="43.70675" lon="4.94821">
        <ele>133.9</ele>
        <time>2025-11-12T14:21:39.033Z</time>
      </trkpt>
      <trkpt lat="43.70673" lon="4.94824">
        <ele>133.7</ele>
        <time>2025-11-12T14:21:42.033Z</time>
      </trkpt>
      <trkpt lat="43.70672" lon="4.94827">
        <ele>133.5</ele>
        <time>2025-11-12T14:21:44.033Z</time>
      </trkpt>
      <trkpt lat="43.7067" lon="4.94832">
        <ele>133.3</ele>
        <time>2025-11-12T14:21:47.033Z</time>
      </trkpt>
      <trkpt lat="43.70669" lon="4.94836">
        <ele>133.2</ele>
        <time>2025-11-12T14:21:50.033Z</time>
      </trkpt>
      <trkpt lat="43.70667" lon="4.94839">
        <ele>133</ele>
        <time>2025-11-12T14:21:53.033Z</time>
      </trkpt>
      <trkpt lat="43.70666" lon="4.94842">
        <ele>133</ele>
        <time>2025-11-12T14:21:56.033Z</time>
      </trkpt>
      <trkpt lat="43.70665" lon="4.94846">
        <ele>132.9</ele>
        <time>2025-11-12T14:21:59.033Z</time>
      </trkpt>
      <trkpt lat="43.70664" lon="4.94849">
        <ele>132.9</ele>
        <time>2025-11-12T14:22:02.033Z</time>
      </trkpt>
      <trkpt lat="43.70663" lon="4.94852">
        <ele>132.9</ele>
        <time>2025-11-12T14:22:04.033Z</time>
      </trkpt>
      <trkpt lat="43.70661" lon="4.94856">
        <ele>132.8</ele>
        <time>2025-11-12T14:22:07.033Z</time>
      </trkpt>
      <trkpt lat="43.7066" lon="4.94859">
        <ele>132.8</ele>
        <time>2025-11-12T14:22:09.033Z</time>
      </trkpt>
      <trkpt lat="43.70658" lon="4.94862">
        <ele>132.7</ele>
        <time>2025-11-12T14:22:11.033Z</time>
      </trkpt>
      <trkpt lat="43.70657" lon="4.94865">
        <ele>132.6</ele>
        <time>2025-11-12T14:22:13.034Z</time>
      </trkpt>
      <trkpt lat="43.70655" lon="4.94867">
        <ele>132.6</ele>
        <time>2025-11-12T14:22:16.033Z</time>
      </trkpt>
      <trkpt lat="43.70652" lon="4.94871">
        <ele>132.5</ele>
        <time>2025-11-12T14:22:19.033Z</time>
      </trkpt>
      <trkpt lat="43.7065" lon="4.94874">
        <ele>132.4</ele>
        <time>2025-11-12T14:22:22.033Z</time>
      </trkpt>
      <trkpt lat="43.70648" lon="4.94877">
        <ele>132.3</ele>
        <time>2025-11-12T14:22:24.033Z</time>
      </trkpt>
      <trkpt lat="43.70647" lon="4.94881">
        <ele>132.3</ele>
        <time>2025-11-12T14:22:27.033Z</time>
      </trkpt>
      <trkpt lat="43.70645" lon="4.94884">
        <ele>132.2</ele>
        <time>2025-11-12T14:22:29.033Z</time>
      </trkpt>
      <trkpt lat="43.70643" lon="4.94886">
        <ele>132.2</ele>
        <time>2025-11-12T14:22:31.033Z</time>
      </trkpt>
      <trkpt lat="43.70641" lon="4.94888">
        <ele>132.1</ele>
        <time>2025-11-12T14:22:33.033Z</time>
      </trkpt>
      <trkpt lat="43.7064" lon="4.94891">
        <ele>132</ele>
        <time>2025-11-12T14:22:36.033Z</time>
      </trkpt>
      <trkpt lat="43.70637" lon="4.94893">
        <ele>132</ele>
        <time>2025-11-12T14:22:39.033Z</time>
      </trkpt>
      <trkpt lat="43.70634" lon="4.94893">
        <ele>132</ele>
        <time>2025-11-12T14:22:42.033Z</time>
      </trkpt>
      <trkpt lat="43.70631" lon="4.94895">
        <ele>132.1</ele>
        <time>2025-11-12T14:22:45.033Z</time>
      </trkpt>
      <trkpt lat="43.70629" lon="4.94896">
        <ele>132.1</ele>
        <time>2025-11-12T14:22:49.033Z</time>
      </trkpt>
      <trkpt lat="43.70627" lon="4.94898">
        <ele>132.1</ele>
        <time>2025-11-12T14:22:52.033Z</time>
      </trkpt>
      <trkpt lat="43.70625" lon="4.94901">
        <ele>132.2</ele>
        <time>2025-11-12T14:22:56.033Z</time>
      </trkpt>
      <trkpt lat="43.70624" lon="4.94905">
        <ele>132.3</ele>
        <time>2025-11-12T14:22:58.033Z</time>
      </trkpt>
      <trkpt lat="43.70624" lon="4.94908">
        <ele>132.4</ele>
        <time>2025-11-12T14:23:00.033Z</time>
      </trkpt>
      <trkpt lat="43.70623" lon="4.94912">
        <ele>132.5</ele>
        <time>2025-11-12T14:23:03.033Z</time>
      </trkpt>
      <trkpt lat="43.70622" lon="4.94916">
        <ele>132.6</ele>
        <time>2025-11-12T14:23:06.033Z</time>
      </trkpt>
      <trkpt lat="43.7062" lon="4.94919">
        <ele>132.7</ele>
        <time>2025-11-12T14:23:10.033Z</time>
      </trkpt>
      <trkpt lat="43.70619" lon="4.94923">
        <ele>132.8</ele>
        <time>2025-11-12T14:23:12.033Z</time>
      </trkpt>
      <trkpt lat="43.70618" lon="4.94927">
        <ele>132.8</ele>
        <time>2025-11-12T14:23:15.033Z</time>
      </trkpt>
      <trkpt lat="43.70617" lon="4.9493">
        <ele>132.9</ele>
        <time>2025-11-12T14:23:17.033Z</time>
      </trkpt>
      <trkpt lat="43.70616" lon="4.94934">
        <ele>132.9</ele>
        <time>2025-11-12T14:23:19.033Z</time>
      </trkpt>
      <trkpt lat="43.70615" lon="4.94937">
        <ele>133</ele>
        <time>2025-11-12T14:23:22.033Z</time>
      </trkpt>
      <trkpt lat="43.70614" lon="4.94941">
        <ele>133</ele>
        <time>2025-11-12T14:23:26.033Z</time>
      </trkpt>
      <trkpt lat="43.70614" lon="4.94945">
        <ele>133</ele>
        <time>2025-11-12T14:23:29.033Z</time>
      </trkpt>
      <trkpt lat="43.70614" lon="4.94949">
        <ele>133.2</ele>
        <time>2025-11-12T14:23:32.033Z</time>
      </trkpt>
      <trkpt lat="43.70614" lon="4.94954">
        <ele>133.3</ele>
        <time>2025-11-12T14:23:35.033Z</time>
      </trkpt>
      <trkpt lat="43.70614" lon="4.94958">
        <ele>133.4</ele>
        <time>2025-11-12T14:23:38.033Z</time>
      </trkpt>
      <trkpt lat="43.70613" lon="4.94961">
        <ele>133.6</ele>
        <time>2025-11-12T14:23:40.034Z</time>
      </trkpt>
      <trkpt lat="43.70612" lon="4.94964">
        <ele>133.7</ele>
        <time>2025-11-12T14:23:42.033Z</time>
      </trkpt>
      <trkpt lat="43.70612" lon="4.94968">
        <ele>133.8</ele>
        <time>2025-11-12T14:23:45.033Z</time>
      </trkpt>
      <trkpt lat="43.70612" lon="4.94971">
        <ele>133.9</ele>
        <time>2025-11-12T14:23:48.033Z</time>
      </trkpt>
      <trkpt lat="43.70613" lon="4.94975">
        <ele>134</ele>
        <time>2025-11-12T14:23:51.033Z</time>
      </trkpt>
      <trkpt lat="43.70613" lon="4.9498">
        <ele>134.2</ele>
        <time>2025-11-12T14:23:54.033Z</time>
      </trkpt>
      <trkpt lat="43.70613" lon="4.94983">
        <ele>134.3</ele>
        <time>2025-11-12T14:23:56.033Z</time>
      </trkpt>
      <trkpt lat="43.70613" lon="4.94987">
        <ele>134.4</ele>
        <time>2025-11-12T14:23:58.033Z</time>
      </trkpt>
      <trkpt lat="43.70613" lon="4.9499">
        <ele>134.6</ele>
        <time>2025-11-12T14:24:00.033Z</time>
      </trkpt>
      <trkpt lat="43.70613" lon="4.94993">
        <ele>134.7</ele>
        <time>2025-11-12T14:24:02.033Z</time>
      </trkpt>
      <trkpt lat="43.70614" lon="4.94996">
        <ele>134.8</ele>
        <time>2025-11-12T14:24:04.033Z</time>
      </trkpt>
      <trkpt lat="43.70614" lon="4.95001">
        <ele>134.9</ele>
        <time>2025-11-12T14:24:07.033Z</time>
      </trkpt>
      <trkpt lat="43.70615" lon="4.95004">
        <ele>135</ele>
        <time>2025-11-12T14:24:09.033Z</time>
      </trkpt>
      <trkpt lat="43.70615" lon="4.95008">
        <ele>135.2</ele>
        <time>2025-11-12T14:24:11.033Z</time>
      </trkpt>
      <trkpt lat="43.70616" lon="4.95011">
        <ele>135.3</ele>
        <time>2025-11-12T14:24:13.033Z</time>
      </trkpt>
      <trkpt lat="43.70615" lon="4.95015">
        <ele>135.5</ele>
        <time>2025-11-12T14:24:16.033Z</time>
      </trkpt>
      <trkpt lat="43.70616" lon="4.95019">
        <ele>135.6</ele>
        <time>2025-11-12T14:24:19.033Z</time>
      </trkpt>
      <trkpt lat="43.70616" lon="4.95023">
        <ele>135.8</ele>
        <time>2025-11-12T14:24:22.033Z</time>
      </trkpt>
      <trkpt lat="43.70616" lon="4.95027">
        <ele>136</ele>
        <time>2025-11-12T14:24:25.033Z</time>
      </trkpt>
      <trkpt lat="43.70616" lon="4.9503">
        <ele>136</ele>
        <time>2025-11-12T14:24:27.033Z</time>
      </trkpt>
      <trkpt lat="43.70616" lon="4.95034">
        <ele>136</ele>
        <time>2025-11-12T14:24:30.033Z</time>
      </trkpt>
      <trkpt lat="43.70616" lon="4.95038">
        <ele>136.1</ele>
        <time>2025-11-12T14:24:32.033Z</time>
      </trkpt>
      <trkpt lat="43.70616" lon="4.95041">
        <ele>136.1</ele>
        <time>2025-11-12T14:24:34.033Z</time>
      </trkpt>
      <trkpt lat="43.70616" lon="4.95044">
        <ele>136.1</ele>
        <time>2025-11-12T14:24:36.033Z</time>
      </trkpt>
      <trkpt lat="43.70615" lon="4.95048">
        <ele>136.1</ele>
        <time>2025-11-12T14:24:39.033Z</time>
      </trkpt>
      <trkpt lat="43.70614" lon="4.95051">
        <ele>136.1</ele>
        <time>2025-11-12T14:24:42.033Z</time>
      </trkpt>
      <trkpt lat="43.70614" lon="4.95055">
        <ele>136.1</ele>
        <time>2025-11-12T14:24:45.033Z</time>
      </trkpt>
      <trkpt lat="43.70614" lon="4.95059">
        <ele>136.2</ele>
        <time>2025-11-12T14:24:48.033Z</time>
      </trkpt>
      <trkpt lat="43.70614" lon="4.9506">
        <ele>136.3</ele>
        <time>2025-11-12T14:24:49.033Z</time>
      </trkpt>
      <trkpt lat="43.70613" lon="4.95064">
        <ele>136.4</ele>
        <time>2025-11-12T14:24:52.033Z</time>
      </trkpt>
      <trkpt lat="43.70613" lon="4.95068">
        <ele>136.5</ele>
        <time>2025-11-12T14:24:55.033Z</time>
      </trkpt>
      <trkpt lat="43.70612" lon="4.95071">
        <ele>136.6</ele>
        <time>2025-11-12T14:24:58.033Z</time>
      </trkpt>
      <trkpt lat="43.70611" lon="4.95075">
        <ele>136.7</ele>
        <time>2025-11-12T14:25:01.033Z</time>
      </trkpt>
      <trkpt lat="43.7061" lon="4.95079">
        <ele>136.9</ele>
        <time>2025-11-12T14:25:04.033Z</time>
      </trkpt>
      <trkpt lat="43.70609" lon="4.95082">
        <ele>137</ele>
        <time>2025-11-12T14:25:07.033Z</time>
      </trkpt>
      <trkpt lat="43.70607" lon="4.95086">
        <ele>137.2</ele>
        <time>2025-11-12T14:25:10.033Z</time>
      </trkpt>
      <trkpt lat="43.70606" lon="4.9509">
        <ele>137.4</ele>
        <time>2025-11-12T14:25:13.033Z</time>
      </trkpt>
      <trkpt lat="43.70605" lon="4.95093">
        <ele>137.6</ele>
        <time>2025-11-12T14:25:15.033Z</time>
      </trkpt>
      <trkpt lat="43.70604" lon="4.95097">
        <ele>137.8</ele>
        <time>2025-11-12T14:25:18.033Z</time>
      </trkpt>
      <trkpt lat="43.70603" lon="4.95102">
        <ele>137.9</ele>
        <time>2025-11-12T14:25:21.033Z</time>
      </trkpt>
      <trkpt lat="43.70602" lon="4.95106">
        <ele>138.1</ele>
        <time>2025-11-12T14:25:23.033Z</time>
      </trkpt>
      <trkpt lat="43.70601" lon="4.9511">
        <ele>138.3</ele>
        <time>2025-11-12T14:25:26.033Z</time>
      </trkpt>
      <trkpt lat="43.706" lon="4.95113">
        <ele>138.5</ele>
        <time>2025-11-12T14:25:29.033Z</time>
      </trkpt>
      <trkpt lat="43.706" lon="4.95117">
        <ele>138.6</ele>
        <time>2025-11-12T14:25:33.033Z</time>
      </trkpt>
      <trkpt lat="43.70599" lon="4.95121">
        <ele>138.8</ele>
        <time>2025-11-12T14:25:36.033Z</time>
      </trkpt>
      <trkpt lat="43.70599" lon="4.95124">
        <ele>138.9</ele>
        <time>2025-11-12T14:25:39.033Z</time>
      </trkpt>
      <trkpt lat="43.70598" lon="4.95128">
        <ele>139.1</ele>
        <time>2025-11-12T14:25:42.033Z</time>
      </trkpt>
      <trkpt lat="43.706" lon="4.9513">
        <ele>139.1</ele>
        <time>2025-11-12T14:25:45.033Z</time>
      </trkpt>
      <trkpt lat="43.70601" lon="4.95134">
        <ele>139.2</ele>
        <time>2025-11-12T14:25:52.033Z</time>
      </trkpt>
    </trkseg>
  </trk>
</gpx>